<?xml version='1.0' encoding='UTF-8'?><gpx version="1.1" creator="JPX - https://github.com/jenetics/jpx" xmlns="http://www.topografix.com/GPX/1/1"><trk><trkseg><trkpt lat="41.711685" lon="15.6413383"><ele>578.0</ele><time>2026-04-10T14:18:39.684Z</time></trkpt><trkpt lat="41.7116633" lon="15.64143"><ele>578.0</ele><time>2026-04-10T14:18:42.181Z</time></trkpt><trkpt lat="41.7116117" lon="15.6415717"><ele>578.0</ele><time>2026-04-10T14:18:44.188Z</time></trkpt><trkpt lat="41.7115633" lon="15.641715"><ele>578.0</ele><time>2026-04-10T14:18:46.181Z</time></trkpt><trkpt lat="41.71154" lon="15.6417983"><ele>578.0</ele><time>2026-04-10T14:18:47.18Z</time></trkpt><trkpt lat="41.7115167" lon="15.6418883"><ele>578.0</ele><time>2026-04-10T14:18:48.181Z</time></trkpt><trkpt lat="41.71149" lon="15.641975"><ele>578.8333333333333</ele><time>2026-04-10T14:18:49.191Z</time></trkpt><trkpt lat="41.7114667" lon="15.64206"><ele>579.6666666666666</ele><time>2026-04-10T14:18:50.184Z</time></trkpt><trkpt lat="41.711425" lon="15.6421933"><ele>580.5</ele><time>2026-04-10T14:18:52.179Z</time></trkpt><trkpt lat="41.7113983" lon="15.642295"><ele>581.3333333333334</ele><time>2026-04-10T14:18:54.179Z</time></trkpt><trkpt lat="41.71138" lon="15.642385"><ele>582.1666666666667</ele><time>2026-04-10T14:18:56.18Z</time></trkpt><trkpt lat="41.7113417" lon="15.6425017"><ele>583.0</ele><time>2026-04-10T14:18:58.18Z</time></trkpt><trkpt lat="41.7113083" lon="15.6425767"><ele>583.0000000000001</ele><time>2026-04-10T14:18:59.183Z</time></trkpt><trkpt lat="41.711275" lon="15.642665"><ele>583.0</ele><time>2026-04-10T14:19:00.191Z</time></trkpt><trkpt lat="41.7112417" lon="15.6427567"><ele>583.0</ele><time>2026-04-10T14:19:01.181Z</time></trkpt><trkpt lat="41.711205" lon="15.6428467"><ele>583.0</ele><time>2026-04-10T14:19:02.181Z</time></trkpt><trkpt lat="41.7111733" lon="15.6429333"><ele>583.0</ele><time>2026-04-10T14:19:03.18Z</time></trkpt><trkpt lat="41.71114" lon="15.6430167"><ele>583.0000000000001</ele><time>2026-04-10T14:19:04.178Z</time></trkpt><trkpt lat="41.7111017" lon="15.643095"><ele>583.0</ele><time>2026-04-10T14:19:05.187Z</time></trkpt><trkpt lat="41.7110617" lon="15.64317"><ele>583.0</ele><time>2026-04-10T14:19:06.179Z</time></trkpt><trkpt lat="41.7110217" lon="15.6432483"><ele>583.0</ele><time>2026-04-10T14:19:07.18Z</time></trkpt><trkpt lat="41.7109833" lon="15.6433317"><ele>583.0</ele><time>2026-04-10T14:19:08.183Z</time></trkpt><trkpt lat="41.7109483" lon="15.6434183"><ele>583.0</ele><time>2026-04-10T14:19:09.182Z</time></trkpt><trkpt lat="41.7109167" lon="15.643495"><ele>583.0</ele><time>2026-04-10T14:19:10.182Z</time></trkpt><trkpt lat="41.710865" lon="15.6436233"><ele>583.0</ele><time>2026-04-10T14:19:12.181Z</time></trkpt><trkpt lat="41.7108383" lon="15.6437117"><ele>584.1666666666667</ele><time>2026-04-10T14:19:14.182Z</time></trkpt><trkpt lat="41.7109133" lon="15.643815"><ele>585.3333333333334</ele><time>2026-04-10T14:19:37.183Z</time></trkpt><trkpt lat="41.7109817" lon="15.6437683"><ele>586.5</ele><time>2026-04-10T14:19:39.184Z</time></trkpt><trkpt lat="41.71107" lon="15.6436667"><ele>587.6666666666666</ele><time>2026-04-10T14:19:41.182Z</time></trkpt><trkpt lat="41.7111183" lon="15.6436117"><ele>588.8333333333333</ele><time>2026-04-10T14:19:42.181Z</time></trkpt><trkpt lat="41.7111817" lon="15.6435467"><ele>590.0</ele><time>2026-04-10T14:19:43.182Z</time></trkpt><trkpt lat="41.7112567" lon="15.6435083"><ele>590.0</ele><time>2026-04-10T14:19:44.18Z</time></trkpt><trkpt lat="41.711335" lon="15.6434983"><ele>590.0</ele><time>2026-04-10T14:19:45.182Z</time></trkpt><trkpt lat="41.71141" lon="15.6435267"><ele>590.0</ele><time>2026-04-10T14:19:46.185Z</time></trkpt><trkpt lat="41.71148" lon="15.6435917"><ele>590.0</ele><time>2026-04-10T14:19:47.183Z</time></trkpt><trkpt lat="41.7115417" lon="15.6436867"><ele>590.0</ele><time>2026-04-10T14:19:48.183Z</time></trkpt><trkpt lat="41.7115683" lon="15.6437967"><ele>590.0</ele><time>2026-04-10T14:19:49.182Z</time></trkpt><trkpt lat="41.7115683" lon="15.6439167"><ele>592.2</ele><time>2026-04-10T14:19:50.181Z</time></trkpt><trkpt lat="41.7115333" lon="15.6440233"><ele>594.4</ele><time>2026-04-10T14:19:51.185Z</time></trkpt><trkpt lat="41.7114767" lon="15.6441167"><ele>596.6</ele><time>2026-04-10T14:19:52.179Z</time></trkpt><trkpt lat="41.7113983" lon="15.6441967"><ele>598.8</ele><time>2026-04-10T14:19:53.178Z</time></trkpt><trkpt lat="41.711315" lon="15.6442767"><ele>601.0</ele><time>2026-04-10T14:19:54.181Z</time></trkpt><trkpt lat="41.7112383" lon="15.6443633"><ele>601.0</ele><time>2026-04-10T14:19:55.181Z</time></trkpt><trkpt lat="41.7111733" lon="15.64446"><ele>601.0</ele><time>2026-04-10T14:19:56.182Z</time></trkpt><trkpt lat="41.7111167" lon="15.6445717"><ele>601.0</ele><time>2026-04-10T14:19:57.179Z</time></trkpt><trkpt lat="41.71106" lon="15.6446933"><ele>601.0</ele><time>2026-04-10T14:19:58.18Z</time></trkpt><trkpt lat="41.7110033" lon="15.6448233"><ele>601.0</ele><time>2026-04-10T14:19:59.186Z</time></trkpt><trkpt lat="41.710945" lon="15.644955"><ele>600.5</ele><time>2026-04-10T14:20:00.178Z</time></trkpt><trkpt lat="41.7108883" lon="15.6450917"><ele>600.0</ele><time>2026-04-10T14:20:01.188Z</time></trkpt><trkpt lat="41.71083" lon="15.64523"><ele>599.5</ele><time>2026-04-10T14:20:02.184Z</time></trkpt><trkpt lat="41.7107667" lon="15.6453733"><ele>599.0</ele><time>2026-04-10T14:20:03.182Z</time></trkpt><trkpt lat="41.7107033" lon="15.6455183"><ele>601.25</ele><time>2026-04-10T14:20:04.18Z</time></trkpt><trkpt lat="41.7106367" lon="15.645665"><ele>603.5</ele><time>2026-04-10T14:20:05.181Z</time></trkpt><trkpt lat="41.710575" lon="15.6458117"><ele>605.75</ele><time>2026-04-10T14:20:06.182Z</time></trkpt><trkpt lat="41.71052" lon="15.6459567"><ele>608.0</ele><time>2026-04-10T14:20:07.184Z</time></trkpt><trkpt lat="41.7104683" lon="15.6461067"><ele>609.5</ele><time>2026-04-10T14:20:08.183Z</time></trkpt><trkpt lat="41.7104283" lon="15.6462617"><ele>611.0</ele><time>2026-04-10T14:20:09.188Z</time></trkpt><trkpt lat="41.7104033" lon="15.6464233"><ele>612.5</ele><time>2026-04-10T14:20:10.178Z</time></trkpt><trkpt lat="41.7103917" lon="15.6465833"><ele>614.0</ele><time>2026-04-10T14:20:11.18Z</time></trkpt><trkpt lat="41.7103917" lon="15.64674"><ele>614.0</ele><time>2026-04-10T14:20:12.181Z</time></trkpt><trkpt lat="41.710395" lon="15.6468817"><ele>614.0</ele><time>2026-04-10T14:20:13.179Z</time></trkpt><trkpt lat="41.7103983" lon="15.64701"><ele>614.0</ele><time>2026-04-10T14:20:14.193Z</time></trkpt><trkpt lat="41.7104017" lon="15.64713"><ele>614.0</ele><time>2026-04-10T14:20:15.178Z</time></trkpt><trkpt lat="41.7104083" lon="15.6472417"><ele>614.0</ele><time>2026-04-10T14:20:16.179Z</time></trkpt><trkpt lat="41.7104167" lon="15.6473483"><ele>614.6</ele><time>2026-04-10T14:20:17.186Z</time></trkpt><trkpt lat="41.7104217" lon="15.647465"><ele>615.2</ele><time>2026-04-10T14:20:18.182Z</time></trkpt><trkpt lat="41.7104233" lon="15.6475917"><ele>615.8000000000001</ele><time>2026-04-10T14:20:19.184Z</time></trkpt><trkpt lat="41.7104133" lon="15.6477283"><ele>616.4</ele><time>2026-04-10T14:20:20.185Z</time></trkpt><trkpt lat="41.7103967" lon="15.64787"><ele>617.0</ele><time>2026-04-10T14:20:21.18Z</time></trkpt><trkpt lat="41.7103817" lon="15.648015"><ele>618.4</ele><time>2026-04-10T14:20:22.181Z</time></trkpt><trkpt lat="41.7103683" lon="15.6481583"><ele>619.8000000000001</ele><time>2026-04-10T14:20:23.182Z</time></trkpt><trkpt lat="41.7103583" lon="15.6483"><ele>621.2</ele><time>2026-04-10T14:20:24.188Z</time></trkpt><trkpt lat="41.7103483" lon="15.6484483"><ele>622.6</ele><time>2026-04-10T14:20:25.188Z</time></trkpt><trkpt lat="41.710335" lon="15.6486017"><ele>624.0</ele><time>2026-04-10T14:20:26.18Z</time></trkpt><trkpt lat="41.71032" lon="15.6487617"><ele>626.0</ele><time>2026-04-10T14:20:27.18Z</time></trkpt><trkpt lat="41.7103067" lon="15.648925"><ele>628.0</ele><time>2026-04-10T14:20:28.181Z</time></trkpt><trkpt lat="41.710295" lon="15.6490917"><ele>630.0</ele><time>2026-04-10T14:20:29.185Z</time></trkpt><trkpt lat="41.710285" lon="15.64926"><ele>632.0</ele><time>2026-04-10T14:20:30.182Z</time></trkpt><trkpt lat="41.710275" lon="15.6494267"><ele>633.0</ele><time>2026-04-10T14:20:31.18Z</time></trkpt><trkpt lat="41.71027" lon="15.6495983"><ele>634.0</ele><time>2026-04-10T14:20:32.183Z</time></trkpt><trkpt lat="41.7102683" lon="15.6497767"><ele>635.0</ele><time>2026-04-10T14:20:33.18Z</time></trkpt><trkpt lat="41.7102667" lon="15.64997"><ele>636.0</ele><time>2026-04-10T14:20:34.18Z</time></trkpt><trkpt lat="41.7102667" lon="15.6501633"><ele>637.25</ele><time>2026-04-10T14:20:35.184Z</time></trkpt><trkpt lat="41.7102667" lon="15.65035"><ele>638.5</ele><time>2026-04-10T14:20:36.18Z</time></trkpt><trkpt lat="41.7102667" lon="15.6505383"><ele>639.75</ele><time>2026-04-10T14:20:37.184Z</time></trkpt><trkpt lat="41.71027" lon="15.65072"><ele>641.0</ele><time>2026-04-10T14:20:38.18Z</time></trkpt><trkpt lat="41.7102733" lon="15.6508967"><ele>641.0</ele><time>2026-04-10T14:20:39.186Z</time></trkpt><trkpt lat="41.7102767" lon="15.6510783"><ele>641.0</ele><time>2026-04-10T14:20:40.179Z</time></trkpt><trkpt lat="41.71028" lon="15.6512633"><ele>641.0</ele><time>2026-04-10T14:20:41.182Z</time></trkpt><trkpt lat="41.71028" lon="15.6514567"><ele>641.0</ele><time>2026-04-10T14:20:42.184Z</time></trkpt><trkpt lat="41.71027" lon="15.6516517"><ele>643.0</ele><time>2026-04-10T14:20:43.181Z</time></trkpt><trkpt lat="41.7102517" lon="15.6518517"><ele>645.0</ele><time>2026-04-10T14:20:44.181Z</time></trkpt><trkpt lat="41.7102283" lon="15.6520533"><ele>647.0</ele><time>2026-04-10T14:20:45.189Z</time></trkpt><trkpt lat="41.7102083" lon="15.652255"><ele>644.3333333333333</ele><time>2026-04-10T14:20:46.178Z</time></trkpt><trkpt lat="41.71019" lon="15.65246"><ele>641.6666666666666</ele><time>2026-04-10T14:20:47.181Z</time></trkpt><trkpt lat="41.7101717" lon="15.65267"><ele>639.0</ele><time>2026-04-10T14:20:48.181Z</time></trkpt><trkpt lat="41.71015" lon="15.652895"><ele>639.0</ele><time>2026-04-10T14:20:49.181Z</time></trkpt><trkpt lat="41.7101233" lon="15.65314"><ele>639.0</ele><time>2026-04-10T14:20:50.18Z</time></trkpt><trkpt lat="41.7100933" lon="15.6533983"><ele>639.0</ele><time>2026-04-10T14:20:51.18Z</time></trkpt><trkpt lat="41.7100633" lon="15.65366"><ele>640.3333333333334</ele><time>2026-04-10T14:20:52.178Z</time></trkpt><trkpt lat="41.7100317" lon="15.65393"><ele>641.6666666666667</ele><time>2026-04-10T14:20:53.185Z</time></trkpt><trkpt lat="41.710005" lon="15.6542067"><ele>643.0</ele><time>2026-04-10T14:20:54.182Z</time></trkpt><trkpt lat="41.709975" lon="15.6544883"><ele>645.0</ele><time>2026-04-10T14:20:55.178Z</time></trkpt><trkpt lat="41.709945" lon="15.6547667"><ele>647.0</ele><time>2026-04-10T14:20:56.181Z</time></trkpt><trkpt lat="41.70992" lon="15.6550233"><ele>649.0</ele><time>2026-04-10T14:20:57.18Z</time></trkpt><trkpt lat="41.7098967" lon="15.6552683"><ele>651.0</ele><time>2026-04-10T14:20:58.191Z</time></trkpt><trkpt lat="41.7098833" lon="15.6555117"><ele>653.0</ele><time>2026-04-10T14:20:59.183Z</time></trkpt><trkpt lat="41.709875" lon="15.65575"><ele>655.0</ele><time>2026-04-10T14:21:00.183Z</time></trkpt><trkpt lat="41.7098683" lon="15.6559717"><ele>656.75</ele><time>2026-04-10T14:21:01.185Z</time></trkpt><trkpt lat="41.7098683" lon="15.6561817"><ele>658.5</ele><time>2026-04-10T14:21:02.183Z</time></trkpt><trkpt lat="41.7098717" lon="15.6563733"><ele>660.25</ele><time>2026-04-10T14:21:03.202Z</time></trkpt><trkpt lat="41.709875" lon="15.6565467"><ele>662.0</ele><time>2026-04-10T14:21:04.177Z</time></trkpt><trkpt lat="41.7098667" lon="15.6566983"><ele>662.0</ele><time>2026-04-10T14:21:05.181Z</time></trkpt><trkpt lat="41.70984" lon="15.656825"><ele>662.0</ele><time>2026-04-10T14:21:06.185Z</time></trkpt><trkpt lat="41.7097917" lon="15.6569267"><ele>662.0</ele><time>2026-04-10T14:21:07.183Z</time></trkpt><trkpt lat="41.7097267" lon="15.6569983"><ele>662.0</ele><time>2026-04-10T14:21:08.178Z</time></trkpt><trkpt lat="41.7096433" lon="15.6570333"><ele>662.0</ele><time>2026-04-10T14:21:09.181Z</time></trkpt><trkpt lat="41.7095533" lon="15.6570267"><ele>661.2</ele><time>2026-04-10T14:21:10.18Z</time></trkpt><trkpt lat="41.7094617" lon="15.6569783"><ele>660.4000000000001</ele><time>2026-04-10T14:21:11.209Z</time></trkpt><trkpt lat="41.709375" lon="15.6569083"><ele>659.5999999999999</ele><time>2026-04-10T14:21:12.182Z</time></trkpt><trkpt lat="41.7092883" lon="15.6568267"><ele>658.8</ele><time>2026-04-10T14:21:13.183Z</time></trkpt><trkpt lat="41.7091983" lon="15.6567567"><ele>658.0</ele><time>2026-04-10T14:21:14.183Z</time></trkpt><trkpt lat="41.7091" lon="15.6567217"><ele>658.0</ele><time>2026-04-10T14:21:15.184Z</time></trkpt><trkpt lat="41.7090033" lon="15.656715"><ele>658.0</ele><time>2026-04-10T14:21:16.184Z</time></trkpt><trkpt lat="41.70891" lon="15.65675"><ele>658.0</ele><time>2026-04-10T14:21:17.182Z</time></trkpt><trkpt lat="41.7088317" lon="15.656825"><ele>658.0</ele><time>2026-04-10T14:21:18.2Z</time></trkpt><trkpt lat="41.7087633" lon="15.656925"><ele>658.0</ele><time>2026-04-10T14:21:19.18Z</time></trkpt><trkpt lat="41.708705" lon="15.6570433"><ele>661.5</ele><time>2026-04-10T14:21:20.183Z</time></trkpt><trkpt lat="41.708645" lon="15.6571717"><ele>665.0</ele><time>2026-04-10T14:21:21.181Z</time></trkpt><trkpt lat="41.70859" lon="15.6573133"><ele>668.5</ele><time>2026-04-10T14:21:22.183Z</time></trkpt><trkpt lat="41.70853" lon="15.6574633"><ele>672.0</ele><time>2026-04-10T14:21:23.194Z</time></trkpt><trkpt lat="41.708475" lon="15.6576167"><ele>672.0</ele><time>2026-04-10T14:21:24.186Z</time></trkpt><trkpt lat="41.70843" lon="15.657765"><ele>672.0</ele><time>2026-04-10T14:21:25.183Z</time></trkpt><trkpt lat="41.7084" lon="15.6579017"><ele>672.0</ele><time>2026-04-10T14:21:26.183Z</time></trkpt><trkpt lat="41.7083867" lon="15.6580267"><ele>672.0</ele><time>2026-04-10T14:21:27.182Z</time></trkpt><trkpt lat="41.7083883" lon="15.65815"><ele>672.0</ele><time>2026-04-10T14:21:28.182Z</time></trkpt><trkpt lat="41.7084" lon="15.658275"><ele>673.8</ele><time>2026-04-10T14:21:29.177Z</time></trkpt><trkpt lat="41.7084133" lon="15.6583983"><ele>675.6</ele><time>2026-04-10T14:21:30.19Z</time></trkpt><trkpt lat="41.708425" lon="15.658525"><ele>677.4</ele><time>2026-04-10T14:21:31.178Z</time></trkpt><trkpt lat="41.7084367" lon="15.6586483"><ele>679.1999999999999</ele><time>2026-04-10T14:21:32.185Z</time></trkpt><trkpt lat="41.7084467" lon="15.65877"><ele>681.0</ele><time>2026-04-10T14:21:33.184Z</time></trkpt><trkpt lat="41.7084567" lon="15.6588867"><ele>682.0</ele><time>2026-04-10T14:21:34.183Z</time></trkpt><trkpt lat="41.70847" lon="15.6589967"><ele>683.0</ele><time>2026-04-10T14:21:35.183Z</time></trkpt><trkpt lat="41.7084883" lon="15.6591"><ele>684.0</ele><time>2026-04-10T14:21:36.181Z</time></trkpt><trkpt lat="41.7085067" lon="15.6592033"><ele>685.0</ele><time>2026-04-10T14:21:37.178Z</time></trkpt><trkpt lat="41.7085317" lon="15.6593067"><ele>686.0</ele><time>2026-04-10T14:21:38.182Z</time></trkpt><trkpt lat="41.7085617" lon="15.6594017"><ele>687.0</ele><time>2026-04-10T14:21:39.179Z</time></trkpt><trkpt lat="41.708585" lon="15.6594933"><ele>689.8</ele><time>2026-04-10T14:21:40.183Z</time></trkpt><trkpt lat="41.7086" lon="15.6595767"><ele>692.6</ele><time>2026-04-10T14:21:41.182Z</time></trkpt><trkpt lat="41.7085867" lon="15.6597233"><ele>695.4</ele><time>2026-04-10T14:21:43.183Z</time></trkpt><trkpt lat="41.708515" lon="15.65981"><ele>698.1999999999999</ele><time>2026-04-10T14:21:45.184Z</time></trkpt><trkpt lat="41.7083933" lon="15.6597633"><ele>701.0</ele><time>2026-04-10T14:21:47.189Z</time></trkpt><trkpt lat="41.7083267" lon="15.6596967"><ele>701.0</ele><time>2026-04-10T14:21:48.183Z</time></trkpt><trkpt lat="41.7082617" lon="15.6596233"><ele>701.0</ele><time>2026-04-10T14:21:49.182Z</time></trkpt><trkpt lat="41.708205" lon="15.6595583"><ele>701.0</ele><time>2026-04-10T14:21:50.183Z</time></trkpt><trkpt lat="41.708155" lon="15.659485"><ele>701.0</ele><time>2026-04-10T14:21:51.18Z</time></trkpt><trkpt lat="41.7081033" lon="15.6594033"><ele>701.0</ele><time>2026-04-10T14:21:52.18Z</time></trkpt><trkpt lat="41.7080483" lon="15.659325"><ele>701.0</ele><time>2026-04-10T14:21:53.181Z</time></trkpt><trkpt lat="41.7079817" lon="15.659245"><ele>703.4</ele><time>2026-04-10T14:21:54.178Z</time></trkpt><trkpt lat="41.70792" lon="15.6591533"><ele>705.8</ele><time>2026-04-10T14:21:55.183Z</time></trkpt><trkpt lat="41.707855" lon="15.6590517"><ele>708.1999999999999</ele><time>2026-04-10T14:21:56.188Z</time></trkpt><trkpt lat="41.7077983" lon="15.6589367"><ele>710.5999999999999</ele><time>2026-04-10T14:21:57.178Z</time></trkpt><trkpt lat="41.7077417" lon="15.6588083"><ele>713.0</ele><time>2026-04-10T14:21:58.18Z</time></trkpt><trkpt lat="41.7076983" lon="15.6586633"><ele>710.0</ele><time>2026-04-10T14:21:59.188Z</time></trkpt><trkpt lat="41.7076517" lon="15.658515"><ele>707.0</ele><time>2026-04-10T14:22:00.183Z</time></trkpt><trkpt lat="41.7076183" lon="15.6583583"><ele>704.0</ele><time>2026-04-10T14:22:01.187Z</time></trkpt><trkpt lat="41.7075883" lon="15.6581933"><ele>701.0</ele><time>2026-04-10T14:22:02.19Z</time></trkpt><trkpt lat="41.7075567" lon="15.658025"><ele>701.0</ele><time>2026-04-10T14:22:03.185Z</time></trkpt><trkpt lat="41.7075267" lon="15.6578517"><ele>701.0</ele><time>2026-04-10T14:22:04.185Z</time></trkpt><trkpt lat="41.7074917" lon="15.6576717"><ele>701.0</ele><time>2026-04-10T14:22:05.18Z</time></trkpt><trkpt lat="41.7074517" lon="15.6574917"><ele>701.0</ele><time>2026-04-10T14:22:06.18Z</time></trkpt><trkpt lat="41.7074117" lon="15.657315"><ele>700.0</ele><time>2026-04-10T14:22:07.181Z</time></trkpt><trkpt lat="41.7073783" lon="15.6571417"><ele>699.0</ele><time>2026-04-10T14:22:08.184Z</time></trkpt><trkpt lat="41.7073467" lon="15.6569733"><ele>698.0</ele><time>2026-04-10T14:22:09.182Z</time></trkpt><trkpt lat="41.70731" lon="15.65681"><ele>697.0</ele><time>2026-04-10T14:22:10.179Z</time></trkpt><trkpt lat="41.7072717" lon="15.6566483"><ele>695.5</ele><time>2026-04-10T14:22:11.197Z</time></trkpt><trkpt lat="41.7072417" lon="15.656485"><ele>694.0</ele><time>2026-04-10T14:22:12.184Z</time></trkpt><trkpt lat="41.7072233" lon="15.6563283"><ele>692.5</ele><time>2026-04-10T14:22:13.182Z</time></trkpt><trkpt lat="41.7072233" lon="15.656185"><ele>691.0</ele><time>2026-04-10T14:22:14.182Z</time></trkpt><trkpt lat="41.70723" lon="15.6560517"><ele>691.0</ele><time>2026-04-10T14:22:15.181Z</time></trkpt><trkpt lat="41.7072383" lon="15.6559183"><ele>691.0</ele><time>2026-04-10T14:22:16.182Z</time></trkpt><trkpt lat="41.707245" lon="15.655775"><ele>691.0</ele><time>2026-04-10T14:22:17.179Z</time></trkpt><trkpt lat="41.7072533" lon="15.655625"><ele>691.0</ele><time>2026-04-10T14:22:18.182Z</time></trkpt><trkpt lat="41.7072617" lon="15.6554683"><ele>691.0</ele><time>2026-04-10T14:22:19.195Z</time></trkpt><trkpt lat="41.7072633" lon="15.6553133"><ele>691.5999999999999</ele><time>2026-04-10T14:22:20.182Z</time></trkpt><trkpt lat="41.70725" lon="15.6551583"><ele>692.2</ele><time>2026-04-10T14:22:21.184Z</time></trkpt><trkpt lat="41.70722" lon="15.655015"><ele>692.8</ele><time>2026-04-10T14:22:22.179Z</time></trkpt><trkpt lat="41.7071817" lon="15.6548817"><ele>693.4000000000001</ele><time>2026-04-10T14:22:23.18Z</time></trkpt><trkpt lat="41.7071367" lon="15.6547667"><ele>694.0</ele><time>2026-04-10T14:22:24.183Z</time></trkpt><trkpt lat="41.7070817" lon="15.6546733"><ele>694.0</ele><time>2026-04-10T14:22:25.179Z</time></trkpt><trkpt lat="41.7070183" lon="15.6546017"><ele>694.0</ele><time>2026-04-10T14:22:26.19Z</time></trkpt><trkpt lat="41.7069467" lon="15.65454"><ele>694.0</ele><time>2026-04-10T14:22:27.182Z</time></trkpt><trkpt lat="41.7068583" lon="15.6545133"><ele>694.0</ele><time>2026-04-10T14:22:28.183Z</time></trkpt><trkpt lat="41.7067567" lon="15.6544983"><ele>694.0</ele><time>2026-04-10T14:22:29.178Z</time></trkpt><trkpt lat="41.7066517" lon="15.6544833"><ele>695.75</ele><time>2026-04-10T14:22:30.178Z</time></trkpt><trkpt lat="41.70654" lon="15.6544767"><ele>697.5</ele><time>2026-04-10T14:22:31.191Z</time></trkpt><trkpt lat="41.7064217" lon="15.6544767"><ele>699.25</ele><time>2026-04-10T14:22:32.182Z</time></trkpt><trkpt lat="41.7063" lon="15.654485"><ele>701.0</ele><time>2026-04-10T14:22:33.18Z</time></trkpt><trkpt lat="41.7061783" lon="15.6544867"><ele>698.75</ele><time>2026-04-10T14:22:34.184Z</time></trkpt><trkpt lat="41.7060567" lon="15.6545083"><ele>696.5</ele><time>2026-04-10T14:22:35.183Z</time></trkpt><trkpt lat="41.7059383" lon="15.654555"><ele>694.25</ele><time>2026-04-10T14:22:36.185Z</time></trkpt><trkpt lat="41.705825" lon="15.654615"><ele>692.0</ele><time>2026-04-10T14:22:37.184Z</time></trkpt><trkpt lat="41.705715" lon="15.65468"><ele>692.0</ele><time>2026-04-10T14:22:38.182Z</time></trkpt><trkpt lat="41.705605" lon="15.6547467"><ele>692.0</ele><time>2026-04-10T14:22:39.186Z</time></trkpt><trkpt lat="41.705495" lon="15.6548167"><ele>692.0</ele><time>2026-04-10T14:22:40.181Z</time></trkpt><trkpt lat="41.705385" lon="15.6548817"><ele>692.0</ele><time>2026-04-10T14:22:41.189Z</time></trkpt><trkpt lat="41.7052767" lon="15.6549417"><ele>690.6</ele><time>2026-04-10T14:22:42.181Z</time></trkpt><trkpt lat="41.7051733" lon="15.655"><ele>689.2</ele><time>2026-04-10T14:22:43.181Z</time></trkpt><trkpt lat="41.7050767" lon="15.6550567"><ele>687.8</ele><time>2026-04-10T14:22:44.19Z</time></trkpt><trkpt lat="41.704985" lon="15.6551133"><ele>686.4</ele><time>2026-04-10T14:22:45.185Z</time></trkpt><trkpt lat="41.7048933" lon="15.65518"><ele>685.0</ele><time>2026-04-10T14:22:46.18Z</time></trkpt><trkpt lat="41.704815" lon="15.6552617"><ele>685.8</ele><time>2026-04-10T14:22:47.184Z</time></trkpt><trkpt lat="41.7047517" lon="15.6553617"><ele>686.6</ele><time>2026-04-10T14:22:48.183Z</time></trkpt><trkpt lat="41.704705" lon="15.6554717"><ele>687.4000000000001</ele><time>2026-04-10T14:22:49.181Z</time></trkpt><trkpt lat="41.70466" lon="15.6555767"><ele>688.2</ele><time>2026-04-10T14:22:50.189Z</time></trkpt><trkpt lat="41.704625" lon="15.6556833"><ele>689.0</ele><time>2026-04-10T14:22:51.182Z</time></trkpt><trkpt lat="41.7045867" lon="15.6557817"><ele>689.0</ele><time>2026-04-10T14:22:52.18Z</time></trkpt><trkpt lat="41.7045467" lon="15.6558733"><ele>689.0</ele><time>2026-04-10T14:22:53.181Z</time></trkpt><trkpt lat="41.7045067" lon="15.6559583"><ele>689.0</ele><time>2026-04-10T14:22:54.18Z</time></trkpt><trkpt lat="41.70447" lon="15.6560467"><ele>689.0</ele><time>2026-04-10T14:22:55.181Z</time></trkpt><trkpt lat="41.7044333" lon="15.6561333"><ele>689.0</ele><time>2026-04-10T14:22:56.184Z</time></trkpt><trkpt lat="41.7044017" lon="15.6562183"><ele>689.0</ele><time>2026-04-10T14:22:57.189Z</time></trkpt><trkpt lat="41.7043483" lon="15.65634"><ele>681.0</ele><time>2026-04-10T14:22:59.184Z</time></trkpt></trkseg><trkseg><trkpt lat="41.7042733" lon="15.656475"><ele>681.0</ele><time>2026-04-10T14:33:46.179Z</time></trkpt><trkpt lat="41.70433" lon="15.6566133"><ele>681.0</ele><time>2026-04-10T14:33:54.18Z</time></trkpt><trkpt lat="41.7044033" lon="15.65667"><ele>681.0</ele><time>2026-04-10T14:33:55.178Z</time></trkpt><trkpt lat="41.7044583" lon="15.656715"><ele>681.0</ele><time>2026-04-10T14:33:56.178Z</time></trkpt><trkpt lat="41.7045183" lon="15.6567633"><ele>681.0</ele><time>2026-04-10T14:33:57.181Z</time></trkpt><trkpt lat="41.7045833" lon="15.656815"><ele>681.0</ele><time>2026-04-10T14:33:58.181Z</time></trkpt><trkpt lat="41.7046583" lon="15.6568267"><ele>683.0</ele><time>2026-04-10T14:34:00.184Z</time></trkpt><trkpt lat="41.7047267" lon="15.6567433"><ele>685.0</ele><time>2026-04-10T14:34:02.18Z</time></trkpt><trkpt lat="41.7048083" lon="15.65659"><ele>687.0</ele><time>2026-04-10T14:34:04.181Z</time></trkpt><trkpt lat="41.70485" lon="15.6564917"><ele>689.0</ele><time>2026-04-10T14:34:05.18Z</time></trkpt><trkpt lat="41.70489" lon="15.6563967"><ele>691.0</ele><time>2026-04-10T14:34:06.181Z</time></trkpt><trkpt lat="41.7049267" lon="15.6563033"><ele>691.0</ele><time>2026-04-10T14:34:07.179Z</time></trkpt><trkpt lat="41.7049683" lon="15.6562033"><ele>691.0</ele><time>2026-04-10T14:34:08.182Z</time></trkpt><trkpt lat="41.7050133" lon="15.6560967"><ele>691.0</ele><time>2026-04-10T14:34:09.18Z</time></trkpt><trkpt lat="41.7050567" lon="15.6559883"><ele>691.0</ele><time>2026-04-10T14:34:10.177Z</time></trkpt><trkpt lat="41.7051017" lon="15.65588"><ele>691.0</ele><time>2026-04-10T14:34:11.179Z</time></trkpt><trkpt lat="41.7051483" lon="15.6557717"><ele>691.1999999999999</ele><time>2026-04-10T14:34:12.181Z</time></trkpt><trkpt lat="41.705195" lon="15.6556617"><ele>691.4</ele><time>2026-04-10T14:34:13.178Z</time></trkpt><trkpt lat="41.7052417" lon="15.6555467"><ele>691.6</ele><time>2026-04-10T14:34:14.182Z</time></trkpt><trkpt lat="41.70529" lon="15.6554367"><ele>691.8</ele><time>2026-04-10T14:34:15.181Z</time></trkpt><trkpt lat="41.7053383" lon="15.6553317"><ele>692.0</ele><time>2026-04-10T14:34:16.18Z</time></trkpt><trkpt lat="41.7053883" lon="15.6552333"><ele>692.0</ele><time>2026-04-10T14:34:17.179Z</time></trkpt><trkpt lat="41.7054433" lon="15.6551367"><ele>692.0</ele><time>2026-04-10T14:34:18.185Z</time></trkpt><trkpt lat="41.705505" lon="15.6550433"><ele>692.0</ele><time>2026-04-10T14:34:19.182Z</time></trkpt><trkpt lat="41.70557" lon="15.6549583"><ele>692.0</ele><time>2026-04-10T14:34:20.184Z</time></trkpt><trkpt lat="41.7056317" lon="15.6548767"><ele>692.0</ele><time>2026-04-10T14:34:21.181Z</time></trkpt><trkpt lat="41.7056883" lon="15.6548083"><ele>692.0</ele><time>2026-04-10T14:34:22.182Z</time></trkpt><trkpt lat="41.705745" lon="15.6547533"><ele>692.0</ele><time>2026-04-10T14:34:23.186Z</time></trkpt><trkpt lat="41.7058083" lon="15.6547083"><ele>692.0</ele><time>2026-04-10T14:34:24.183Z</time></trkpt><trkpt lat="41.7058817" lon="15.6546667"><ele>692.0</ele><time>2026-04-10T14:34:25.183Z</time></trkpt><trkpt lat="41.7059617" lon="15.6546283"><ele>692.0</ele><time>2026-04-10T14:34:26.183Z</time></trkpt><trkpt lat="41.7060467" lon="15.6545917"><ele>692.0</ele><time>2026-04-10T14:34:27.181Z</time></trkpt><trkpt lat="41.7061383" lon="15.6545617"><ele>692.0</ele><time>2026-04-10T14:34:28.18Z</time></trkpt><trkpt lat="41.7062333" lon="15.6545367"><ele>693.8</ele><time>2026-04-10T14:34:29.184Z</time></trkpt><trkpt lat="41.7063333" lon="15.654525"><ele>695.6</ele><time>2026-04-10T14:34:30.184Z</time></trkpt><trkpt lat="41.7064383" lon="15.654525"><ele>697.4</ele><time>2026-04-10T14:34:31.181Z</time></trkpt><trkpt lat="41.70654" lon="15.6545333"><ele>699.1999999999999</ele><time>2026-04-10T14:34:32.18Z</time></trkpt><trkpt lat="41.7066333" lon="15.6545383"><ele>701.0</ele><time>2026-04-10T14:34:33.183Z</time></trkpt><trkpt lat="41.706715" lon="15.6545433"><ele>701.0</ele><time>2026-04-10T14:34:34.188Z</time></trkpt><trkpt lat="41.7067917" lon="15.6545483"><ele>701.0</ele><time>2026-04-10T14:34:35.179Z</time></trkpt><trkpt lat="41.7068667" lon="15.6545617"><ele>701.0</ele><time>2026-04-10T14:34:36.182Z</time></trkpt><trkpt lat="41.7069417" lon="15.6545883"><ele>701.0</ele><time>2026-04-10T14:34:37.181Z</time></trkpt><trkpt lat="41.7070183" lon="15.65464"><ele>701.0</ele><time>2026-04-10T14:34:38.18Z</time></trkpt><trkpt lat="41.7070867" lon="15.6547183"><ele>701.0</ele><time>2026-04-10T14:34:39.181Z</time></trkpt><trkpt lat="41.7071417" lon="15.6548233"><ele>699.5999999999999</ele><time>2026-04-10T14:34:40.184Z</time></trkpt><trkpt lat="41.7071917" lon="15.65494"><ele>698.2</ele><time>2026-04-10T14:34:41.179Z</time></trkpt><trkpt lat="41.7072333" lon="15.6550583"><ele>696.8</ele><time>2026-04-10T14:34:42.183Z</time></trkpt><trkpt lat="41.7072583" lon="15.6551783"><ele>695.4000000000001</ele><time>2026-04-10T14:34:43.188Z</time></trkpt><trkpt lat="41.7072683" lon="15.6553017"><ele>694.0</ele><time>2026-04-10T14:34:44.183Z</time></trkpt><trkpt lat="41.7072633" lon="15.6554267"><ele>693.5</ele><time>2026-04-10T14:34:45.181Z</time></trkpt><trkpt lat="41.7072417" lon="15.6555533"><ele>693.0</ele><time>2026-04-10T14:34:46.18Z</time></trkpt><trkpt lat="41.70721" lon="15.65567"><ele>692.5</ele><time>2026-04-10T14:34:47.18Z</time></trkpt><trkpt lat="41.70718" lon="15.655775"><ele>692.0</ele><time>2026-04-10T14:34:48.182Z</time></trkpt><trkpt lat="41.7071567" lon="15.6558817"><ele>691.5</ele><time>2026-04-10T14:34:49.18Z</time></trkpt><trkpt lat="41.7071417" lon="15.6559967"><ele>691.0</ele><time>2026-04-10T14:34:50.183Z</time></trkpt><trkpt lat="41.707135" lon="15.656125"><ele>691.0</ele><time>2026-04-10T14:34:51.179Z</time></trkpt><trkpt lat="41.7071317" lon="15.6562667"><ele>691.0</ele><time>2026-04-10T14:34:52.18Z</time></trkpt><trkpt lat="41.7071283" lon="15.65642"><ele>691.0</ele><time>2026-04-10T14:34:53.182Z</time></trkpt><trkpt lat="41.7071267" lon="15.6565883"><ele>691.0</ele><time>2026-04-10T14:34:54.179Z</time></trkpt><trkpt lat="41.7071263" lon="15.6567747"><ele>693.0</ele><time>2026-04-10T14:34:55.183Z</time></trkpt><trkpt lat="41.7071237" lon="15.6569803"><ele>695.0</ele><time>2026-04-10T14:34:56.183Z</time></trkpt><trkpt lat="41.7071234" lon="15.6571893"><ele>697.0</ele><time>2026-04-10T14:34:57.179Z</time></trkpt><trkpt lat="41.7071246" lon="15.6573859"><ele>697.0</ele><time>2026-04-10T14:34:58.178Z</time></trkpt><trkpt lat="41.7071268" lon="15.6575801"><ele>697.0</ele><time>2026-04-10T14:34:59.179Z</time></trkpt><trkpt lat="41.7071251" lon="15.6577754"><ele>697.0</ele><time>2026-04-10T14:35:00.179Z</time></trkpt><trkpt lat="41.707121" lon="15.6579674"><ele>697.0</ele><time>2026-04-10T14:35:01.18Z</time></trkpt><trkpt lat="41.7071172" lon="15.6581512"><ele>698.0</ele><time>2026-04-10T14:35:02.18Z</time></trkpt><trkpt lat="41.7071108" lon="15.658331"><ele>699.0</ele><time>2026-04-10T14:35:03.179Z</time></trkpt><trkpt lat="41.7071078" lon="15.6585071"><ele>700.0</ele><time>2026-04-10T14:35:04.178Z</time></trkpt><trkpt lat="41.7071153" lon="15.658683"><ele>701.0</ele><time>2026-04-10T14:35:05.177Z</time></trkpt><trkpt lat="41.707132" lon="15.6588628"><ele>704.0</ele><time>2026-04-10T14:35:06.18Z</time></trkpt><trkpt lat="41.7071585" lon="15.6590445"><ele>707.0</ele><time>2026-04-10T14:35:07.178Z</time></trkpt><trkpt lat="41.7071961" lon="15.6592254"><ele>710.0</ele><time>2026-04-10T14:35:08.187Z</time></trkpt><trkpt lat="41.7072454" lon="15.6594057"><ele>713.0</ele><time>2026-04-10T14:35:09.179Z</time></trkpt><trkpt lat="41.707313" lon="15.6595878"><ele>717.6666666666666</ele><time>2026-04-10T14:35:10.178Z</time></trkpt><trkpt lat="41.7074019" lon="15.6597791"><ele>722.3333333333334</ele><time>2026-04-10T14:35:11.188Z</time></trkpt><trkpt lat="41.7074945" lon="15.6599799"><ele>727.0</ele><time>2026-04-10T14:35:12.181Z</time></trkpt><trkpt lat="41.707584" lon="15.6601806"><ele>723.3333333333334</ele><time>2026-04-10T14:35:13.187Z</time></trkpt><trkpt lat="41.7076659" lon="15.6603748"><ele>719.6666666666666</ele><time>2026-04-10T14:35:14.18Z</time></trkpt><trkpt lat="41.7077523" lon="15.6605653"><ele>716.0</ele><time>2026-04-10T14:35:15.184Z</time></trkpt><trkpt lat="41.7078483" lon="15.6607503"><ele>716.0</ele><time>2026-04-10T14:35:16.182Z</time></trkpt><trkpt lat="41.7079552" lon="15.6609283"><ele>716.0</ele><time>2026-04-10T14:35:17.182Z</time></trkpt><trkpt lat="41.7080712" lon="15.6610969"><ele>716.0</ele><time>2026-04-10T14:35:18.184Z</time></trkpt><trkpt lat="41.708193" lon="15.661259"><ele>718.3333333333333</ele><time>2026-04-10T14:35:19.181Z</time></trkpt><trkpt lat="41.7083183" lon="15.6614131"><ele>720.6666666666666</ele><time>2026-04-10T14:35:20.182Z</time></trkpt><trkpt lat="41.7084441" lon="15.6615557"><ele>723.0</ele><time>2026-04-10T14:35:21.181Z</time></trkpt><trkpt lat="41.7085763" lon="15.6616764"><ele>723.0</ele><time>2026-04-10T14:35:22.183Z</time></trkpt><trkpt lat="41.7087139" lon="15.6617777"><ele>723.0</ele><time>2026-04-10T14:35:23.179Z</time></trkpt><trkpt lat="41.7088533" lon="15.6618644"><ele>723.0</ele><time>2026-04-10T14:35:24.186Z</time></trkpt><trkpt lat="41.7089891" lon="15.661956"><ele>732.6666666666666</ele><time>2026-04-10T14:35:25.185Z</time></trkpt><trkpt lat="41.7091127" lon="15.6620715"><ele>742.3333333333333</ele><time>2026-04-10T14:35:26.18Z</time></trkpt><trkpt lat="41.7092133" lon="15.66223"><ele>752.0</ele><time>2026-04-10T14:35:27.179Z</time></trkpt><trkpt lat="41.7093167" lon="15.6624"><ele>749.6666666666666</ele><time>2026-04-10T14:35:28.179Z</time></trkpt><trkpt lat="41.7094217" lon="15.66258"><ele>747.3333333333334</ele><time>2026-04-10T14:35:29.178Z</time></trkpt><trkpt lat="41.7095267" lon="15.6627617"><ele>745.0</ele><time>2026-04-10T14:35:30.183Z</time></trkpt><trkpt lat="41.7096267" lon="15.6629433"><ele>745.0</ele><time>2026-04-10T14:35:31.181Z</time></trkpt><trkpt lat="41.7097283" lon="15.66312"><ele>745.0</ele><time>2026-04-10T14:35:32.186Z</time></trkpt><trkpt lat="41.7098233" lon="15.663295"><ele>745.0</ele><time>2026-04-10T14:35:33.183Z</time></trkpt><trkpt lat="41.70991" lon="15.6634767"><ele>750.3333333333334</ele><time>2026-04-10T14:35:34.179Z</time></trkpt><trkpt lat="41.709985" lon="15.66366"><ele>755.6666666666666</ele><time>2026-04-10T14:35:35.18Z</time></trkpt><trkpt lat="41.71004" lon="15.6638483"><ele>761.0</ele><time>2026-04-10T14:35:36.183Z</time></trkpt><trkpt lat="41.7100883" lon="15.6640367"><ele>761.0</ele><time>2026-04-10T14:35:37.184Z</time></trkpt><trkpt lat="41.7101233" lon="15.6642317"><ele>761.0</ele><time>2026-04-10T14:35:38.184Z</time></trkpt><trkpt lat="41.7107617" lon="15.6656583"><ele>764.75</ele><time>2026-04-10T14:35:47.182Z</time></trkpt><trkpt lat="41.710885" lon="15.66575"><ele>768.5</ele><time>2026-04-10T14:35:48.182Z</time></trkpt><trkpt lat="41.71101" lon="15.6658283"><ele>772.25</ele><time>2026-04-10T14:35:49.186Z</time></trkpt><trkpt lat="41.711125" lon="15.665885"><ele>776.0</ele><time>2026-04-10T14:35:50.183Z</time></trkpt><trkpt lat="41.711235" lon="15.66592"><ele>776.0</ele><time>2026-04-10T14:35:51.178Z</time></trkpt><trkpt lat="41.7113467" lon="15.6659267"><ele>776.0</ele><time>2026-04-10T14:35:52.186Z</time></trkpt><trkpt lat="41.71146" lon="15.6659317"><ele>776.0</ele><time>2026-04-10T14:35:53.184Z</time></trkpt><trkpt lat="41.71156" lon="15.6659617"><ele>776.0</ele><time>2026-04-10T14:35:54.181Z</time></trkpt><trkpt lat="41.7116517" lon="15.66602"><ele>776.0</ele><time>2026-04-10T14:35:55.181Z</time></trkpt><trkpt lat="41.7117417" lon="15.6661117"><ele>777.75</ele><time>2026-04-10T14:35:56.187Z</time></trkpt><trkpt lat="41.7118317" lon="15.66623"><ele>779.5</ele><time>2026-04-10T14:35:57.181Z</time></trkpt><trkpt lat="41.7119133" lon="15.666365"><ele>781.25</ele><time>2026-04-10T14:35:58.181Z</time></trkpt><trkpt lat="41.71198" lon="15.6665267"><ele>783.0</ele><time>2026-04-10T14:35:59.181Z</time></trkpt><trkpt lat="41.7120417" lon="15.6666967"><ele>783.75</ele><time>2026-04-10T14:36:00.182Z</time></trkpt><trkpt lat="41.712105" lon="15.666865"><ele>784.5</ele><time>2026-04-10T14:36:01.181Z</time></trkpt><trkpt lat="41.7121783" lon="15.66702"><ele>785.25</ele><time>2026-04-10T14:36:02.18Z</time></trkpt><trkpt lat="41.71227" lon="15.6671767"><ele>786.0</ele><time>2026-04-10T14:36:03.179Z</time></trkpt><trkpt lat="41.71237" lon="15.6673367"><ele>786.3333333333333</ele><time>2026-04-10T14:36:04.178Z</time></trkpt><trkpt lat="41.7124867" lon="15.6674983"><ele>786.6666666666666</ele><time>2026-04-10T14:36:05.18Z</time></trkpt><trkpt lat="41.71262" lon="15.667665"><ele>787.0</ele><time>2026-04-10T14:36:06.179Z</time></trkpt><trkpt lat="41.71277" lon="15.6678333"><ele>788.3333333333333</ele><time>2026-04-10T14:36:07.189Z</time></trkpt><trkpt lat="41.7129267" lon="15.667995"><ele>789.6666666666667</ele><time>2026-04-10T14:36:08.179Z</time></trkpt><trkpt lat="41.713085" lon="15.66814"><ele>791.0</ele><time>2026-04-10T14:36:09.181Z</time></trkpt><trkpt lat="41.7132383" lon="15.6682767"><ele>791.0</ele><time>2026-04-10T14:36:10.179Z</time></trkpt><trkpt lat="41.71338" lon="15.6683967"><ele>791.0</ele><time>2026-04-10T14:36:11.18Z</time></trkpt><trkpt lat="41.7135183" lon="15.668475"><ele>791.0</ele><time>2026-04-10T14:36:12.18Z</time></trkpt><trkpt lat="41.7136617" lon="15.668545"><ele>791.6666666666667</ele><time>2026-04-10T14:36:13.178Z</time></trkpt><trkpt lat="41.7138033" lon="15.6686"><ele>792.3333333333333</ele><time>2026-04-10T14:36:14.183Z</time></trkpt><trkpt lat="41.7139617" lon="15.668635"><ele>793.0</ele><time>2026-04-10T14:36:15.18Z</time></trkpt><trkpt lat="41.7141233" lon="15.66868"><ele>793.0</ele><time>2026-04-10T14:36:16.178Z</time></trkpt><trkpt lat="41.7142867" lon="15.6687233"><ele>793.0</ele><time>2026-04-10T14:36:17.18Z</time></trkpt><trkpt lat="41.7144567" lon="15.6687467"><ele>793.0</ele><time>2026-04-10T14:36:18.185Z</time></trkpt><trkpt lat="41.71461" lon="15.6687667"><ele>793.5</ele><time>2026-04-10T14:36:19.18Z</time></trkpt><trkpt lat="41.714755" lon="15.6688"><ele>794.0</ele><time>2026-04-10T14:36:20.178Z</time></trkpt><trkpt lat="41.7148867" lon="15.66882"><ele>794.5</ele><time>2026-04-10T14:36:21.181Z</time></trkpt><trkpt lat="41.71501" lon="15.668845"><ele>795.0</ele><time>2026-04-10T14:36:22.179Z</time></trkpt><trkpt lat="41.7151283" lon="15.66887"><ele>797.5</ele><time>2026-04-10T14:36:23.182Z</time></trkpt><trkpt lat="41.7152417" lon="15.6688917"><ele>800.0</ele><time>2026-04-10T14:36:24.186Z</time></trkpt><trkpt lat="41.715355" lon="15.6689117"><ele>802.5</ele><time>2026-04-10T14:36:25.182Z</time></trkpt><trkpt lat="41.7154733" lon="15.6689217"><ele>805.0</ele><time>2026-04-10T14:36:26.182Z</time></trkpt><trkpt lat="41.715595" lon="15.6689083"><ele>805.0</ele><time>2026-04-10T14:36:27.179Z</time></trkpt><trkpt lat="41.7157233" lon="15.6688717"><ele>805.0</ele><time>2026-04-10T14:36:28.18Z</time></trkpt><trkpt lat="41.7158583" lon="15.668845"><ele>805.0</ele><time>2026-04-10T14:36:29.18Z</time></trkpt><trkpt lat="41.7159817" lon="15.6688283"><ele>805.0</ele><time>2026-04-10T14:36:30.179Z</time></trkpt><trkpt lat="41.71612" lon="15.66883"><ele>805.25</ele><time>2026-04-10T14:36:31.183Z</time></trkpt><trkpt lat="41.71626" lon="15.6688717"><ele>805.5</ele><time>2026-04-10T14:36:32.187Z</time></trkpt><trkpt lat="41.7163983" lon="15.6689367"><ele>805.75</ele><time>2026-04-10T14:36:33.182Z</time></trkpt><trkpt lat="41.7165317" lon="15.6690133"><ele>806.0</ele><time>2026-04-10T14:36:34.183Z</time></trkpt><trkpt lat="41.7166767" lon="15.6690733"><ele>806.0</ele><time>2026-04-10T14:36:35.184Z</time></trkpt><trkpt lat="41.7168167" lon="15.66911"><ele>806.0</ele><time>2026-04-10T14:36:36.184Z</time></trkpt><trkpt lat="41.71696" lon="15.6691183"><ele>806.0</ele><time>2026-04-10T14:36:37.2Z</time></trkpt><trkpt lat="41.7171133" lon="15.6691283"><ele>806.0</ele><time>2026-04-10T14:36:38.179Z</time></trkpt><trkpt lat="41.717245" lon="15.669115"><ele>807.6666666666667</ele><time>2026-04-10T14:36:39.182Z</time></trkpt><trkpt lat="41.717395" lon="15.6690883"><ele>809.3333333333333</ele><time>2026-04-10T14:36:40.182Z</time></trkpt><trkpt lat="41.7175583" lon="15.66905"><ele>811.0</ele><time>2026-04-10T14:36:41.181Z</time></trkpt><trkpt lat="41.7177483" lon="15.6689733"><ele>812.6666666666666</ele><time>2026-04-10T14:36:42.182Z</time></trkpt><trkpt lat="41.71794" lon="15.6688917"><ele>814.3333333333333</ele><time>2026-04-10T14:36:43.18Z</time></trkpt><trkpt lat="41.7181183" lon="15.668805"><ele>816.0</ele><time>2026-04-10T14:36:44.185Z</time></trkpt><trkpt lat="41.7182733" lon="15.6687417"><ele>816.0</ele><time>2026-04-10T14:36:45.181Z</time></trkpt><trkpt lat="41.71843" lon="15.66871"><ele>816.0</ele><time>2026-04-10T14:36:46.181Z</time></trkpt><trkpt lat="41.7185783" lon="15.6687167"><ele>816.0</ele><time>2026-04-10T14:36:47.178Z</time></trkpt><trkpt lat="41.7187267" lon="15.6687333"><ele>817.6666666666667</ele><time>2026-04-10T14:36:48.178Z</time></trkpt><trkpt lat="41.7188867" lon="15.6687533"><ele>819.3333333333334</ele><time>2026-04-10T14:36:49.18Z</time></trkpt><trkpt lat="41.7190417" lon="15.6687617"><ele>821.0</ele><time>2026-04-10T14:36:50.182Z</time></trkpt><trkpt lat="41.7192083" lon="15.668755"><ele>821.0</ele><time>2026-04-10T14:36:51.179Z</time></trkpt><trkpt lat="41.7193733" lon="15.6687433"><ele>821.0</ele><time>2026-04-10T14:36:52.179Z</time></trkpt><trkpt lat="41.719535" lon="15.668735"><ele>821.0</ele><time>2026-04-10T14:36:53.179Z</time></trkpt><trkpt lat="41.7196933" lon="15.6687333"><ele>822.0</ele><time>2026-04-10T14:36:54.179Z</time></trkpt><trkpt lat="41.719835" lon="15.6687333"><ele>823.0</ele><time>2026-04-10T14:36:55.179Z</time></trkpt><trkpt lat="41.7199717" lon="15.6687517"><ele>824.0</ele><time>2026-04-10T14:36:56.18Z</time></trkpt><trkpt lat="41.720115" lon="15.6687533"><ele>825.0</ele><time>2026-04-10T14:36:57.179Z</time></trkpt><trkpt lat="41.72027" lon="15.668745"><ele>825.25</ele><time>2026-04-10T14:36:58.181Z</time></trkpt><trkpt lat="41.7204083" lon="15.66872"><ele>825.5</ele><time>2026-04-10T14:36:59.18Z</time></trkpt><trkpt lat="41.720545" lon="15.668655"><ele>825.75</ele><time>2026-04-10T14:37:00.178Z</time></trkpt><trkpt lat="41.7206917" lon="15.6685983"><ele>826.0</ele><time>2026-04-10T14:37:01.18Z</time></trkpt><trkpt lat="41.720825" lon="15.6685167"><ele>826.0</ele><time>2026-04-10T14:37:02.178Z</time></trkpt><trkpt lat="41.7209583" lon="15.66842"><ele>826.0</ele><time>2026-04-10T14:37:03.181Z</time></trkpt><trkpt lat="41.7210867" lon="15.6683017"><ele>826.0</ele><time>2026-04-10T14:37:04.18Z</time></trkpt><trkpt lat="41.721205" lon="15.66819"><ele>827.1999999999999</ele><time>2026-04-10T14:37:05.181Z</time></trkpt><trkpt lat="41.72131" lon="15.6680883"><ele>828.4</ele><time>2026-04-10T14:37:06.18Z</time></trkpt><trkpt lat="41.7214017" lon="15.668"><ele>829.6</ele><time>2026-04-10T14:37:07.181Z</time></trkpt><trkpt lat="41.72149" lon="15.6679333"><ele>830.8</ele><time>2026-04-10T14:37:08.181Z</time></trkpt><trkpt lat="41.7215683" lon="15.6678817"><ele>832.0</ele><time>2026-04-10T14:37:09.184Z</time></trkpt><trkpt lat="41.7216433" lon="15.6678417"><ele>831.9999999999999</ele><time>2026-04-10T14:37:10.181Z</time></trkpt><trkpt lat="41.7217133" lon="15.6678417"><ele>832.0</ele><time>2026-04-10T14:37:11.186Z</time></trkpt><trkpt lat="41.7217617" lon="15.667995"><ele>832.0</ele><time>2026-04-10T14:37:13.181Z</time></trkpt><trkpt lat="41.721755" lon="15.6680967"><ele>832.0</ele><time>2026-04-10T14:37:14.177Z</time></trkpt><trkpt lat="41.7217333" lon="15.6681933"><ele>831.9999999999999</ele><time>2026-04-10T14:37:15.177Z</time></trkpt><trkpt lat="41.7217083" lon="15.6682983"><ele>832.0</ele><time>2026-04-10T14:37:16.178Z</time></trkpt><trkpt lat="41.7216967" lon="15.6684033"><ele>832.0</ele><time>2026-04-10T14:37:17.18Z</time></trkpt><trkpt lat="41.7217033" lon="15.66851"><ele>832.0</ele><time>2026-04-10T14:37:18.182Z</time></trkpt><trkpt lat="41.72173" lon="15.668615"><ele>832.0</ele><time>2026-04-10T14:37:19.178Z</time></trkpt><trkpt lat="41.721795" lon="15.6687183"><ele>832.0</ele><time>2026-04-10T14:37:20.179Z</time></trkpt><trkpt lat="41.7218783" lon="15.6688033"><ele>832.0</ele><time>2026-04-10T14:37:21.178Z</time></trkpt><trkpt lat="41.7219833" lon="15.66886"><ele>834.0</ele><time>2026-04-10T14:37:22.179Z</time></trkpt><trkpt lat="41.7221183" lon="15.6688833"><ele>836.0</ele><time>2026-04-10T14:37:23.178Z</time></trkpt><trkpt lat="41.7222667" lon="15.6689133"><ele>838.0</ele><time>2026-04-10T14:37:24.186Z</time></trkpt><trkpt lat="41.7224267" lon="15.668945"><ele>840.0</ele><time>2026-04-10T14:37:25.181Z</time></trkpt><trkpt lat="41.722595" lon="15.668975"><ele>841.3333333333333</ele><time>2026-04-10T14:37:26.185Z</time></trkpt><trkpt lat="41.7227617" lon="15.6690017"><ele>842.6666666666666</ele><time>2026-04-10T14:37:27.178Z</time></trkpt><trkpt lat="41.722915" lon="15.66904"><ele>844.0</ele><time>2026-04-10T14:37:28.182Z</time></trkpt><trkpt lat="41.72306" lon="15.6690917"><ele>844.0</ele><time>2026-04-10T14:37:29.178Z</time></trkpt><trkpt lat="41.7231883" lon="15.6691717"><ele>844.0</ele><time>2026-04-10T14:37:30.18Z</time></trkpt><trkpt lat="41.723295" lon="15.6692883"><ele>844.0</ele><time>2026-04-10T14:37:31.179Z</time></trkpt><trkpt lat="41.7233883" lon="15.6694233"><ele>844.0</ele><time>2026-04-10T14:37:32.181Z</time></trkpt><trkpt lat="41.7234817" lon="15.6695583"><ele>847.0</ele><time>2026-04-10T14:37:33.178Z</time></trkpt><trkpt lat="41.7235933" lon="15.669665"><ele>850.0</ele><time>2026-04-10T14:37:34.183Z</time></trkpt><trkpt lat="41.72371" lon="15.6697233"><ele>853.0</ele><time>2026-04-10T14:37:35.181Z</time></trkpt><trkpt lat="41.7238267" lon="15.669745"><ele>856.0</ele><time>2026-04-10T14:37:36.183Z</time></trkpt><trkpt lat="41.72394" lon="15.669745"><ele>856.0</ele><time>2026-04-10T14:37:37.181Z</time></trkpt><trkpt lat="41.7240467" lon="15.6697617"><ele>855.9999999999999</ele><time>2026-04-10T14:37:38.177Z</time></trkpt><trkpt lat="41.724145" lon="15.6698067"><ele>855.9999999999999</ele><time>2026-04-10T14:37:39.184Z</time></trkpt><trkpt lat="41.7242317" lon="15.6699017"><ele>856.0</ele><time>2026-04-10T14:37:40.178Z</time></trkpt><trkpt lat="41.7243167" lon="15.670025"><ele>856.0</ele><time>2026-04-10T14:37:41.183Z</time></trkpt><trkpt lat="41.7244033" lon="15.6701667"><ele>857.75</ele><time>2026-04-10T14:37:42.177Z</time></trkpt><trkpt lat="41.7244967" lon="15.67032"><ele>859.5</ele><time>2026-04-10T14:37:43.178Z</time></trkpt><trkpt lat="41.7245967" lon="15.6704733"><ele>861.25</ele><time>2026-04-10T14:37:44.183Z</time></trkpt><trkpt lat="41.72469" lon="15.6706217"><ele>863.0</ele><time>2026-04-10T14:37:45.177Z</time></trkpt><trkpt lat="41.724775" lon="15.67075"><ele>863.0</ele><time>2026-04-10T14:37:46.177Z</time></trkpt><trkpt lat="41.7248517" lon="15.6708467"><ele>863.0</ele><time>2026-04-10T14:37:47.18Z</time></trkpt><trkpt lat="41.724935" lon="15.6709217"><ele>863.0</ele><time>2026-04-10T14:37:48.179Z</time></trkpt><trkpt lat="41.72504" lon="15.6709517"><ele>863.0</ele><time>2026-04-10T14:37:49.178Z</time></trkpt><trkpt lat="41.7251533" lon="15.670945"><ele>863.0</ele><time>2026-04-10T14:37:50.183Z</time></trkpt><trkpt lat="41.7252783" lon="15.6709033"><ele>865.5</ele><time>2026-04-10T14:37:51.18Z</time></trkpt><trkpt lat="41.7254033" lon="15.6708533"><ele>868.0</ele><time>2026-04-10T14:37:52.179Z</time></trkpt><trkpt lat="41.72553" lon="15.6707867"><ele>870.5</ele><time>2026-04-10T14:37:53.184Z</time></trkpt><trkpt lat="41.72565" lon="15.6707533"><ele>873.0</ele><time>2026-04-10T14:37:54.178Z</time></trkpt><trkpt lat="41.725755" lon="15.6707633"><ele>873.0</ele><time>2026-04-10T14:37:55.181Z</time></trkpt><trkpt lat="41.72585" lon="15.6708083"><ele>873.0</ele><time>2026-04-10T14:37:56.178Z</time></trkpt><trkpt lat="41.7259517" lon="15.6708567"><ele>873.0</ele><time>2026-04-10T14:37:57.186Z</time></trkpt><trkpt lat="41.726065" lon="15.6709"><ele>873.0</ele><time>2026-04-10T14:37:58.178Z</time></trkpt><trkpt lat="41.7261883" lon="15.6709217"><ele>874.75</ele><time>2026-04-10T14:37:59.181Z</time></trkpt><trkpt lat="41.7263283" lon="15.6709367"><ele>876.5</ele><time>2026-04-10T14:38:00.18Z</time></trkpt><trkpt lat="41.7264683" lon="15.6709533"><ele>878.25</ele><time>2026-04-10T14:38:01.177Z</time></trkpt><trkpt lat="41.7266083" lon="15.6709883"><ele>880.0</ele><time>2026-04-10T14:38:02.179Z</time></trkpt><trkpt lat="41.726735" lon="15.6710717"><ele>881.3333333333333</ele><time>2026-04-10T14:38:03.182Z</time></trkpt><trkpt lat="41.726865" lon="15.6711733"><ele>882.6666666666667</ele><time>2026-04-10T14:38:04.179Z</time></trkpt><trkpt lat="41.7270133" lon="15.6712633"><ele>884.0</ele><time>2026-04-10T14:38:05.181Z</time></trkpt><trkpt lat="41.7271717" lon="15.6713467"><ele>884.3333333333334</ele><time>2026-04-10T14:38:06.18Z</time></trkpt><trkpt lat="41.7273317" lon="15.6714367"><ele>884.6666666666667</ele><time>2026-04-10T14:38:07.18Z</time></trkpt><trkpt lat="41.72749" lon="15.6715367"><ele>885.0</ele><time>2026-04-10T14:38:08.181Z</time></trkpt><trkpt lat="41.7276517" lon="15.6716417"><ele>887.0</ele><time>2026-04-10T14:38:09.18Z</time></trkpt><trkpt lat="41.72781" lon="15.67174"><ele>889.0</ele><time>2026-04-10T14:38:10.179Z</time></trkpt><trkpt lat="41.7279667" lon="15.6718433"><ele>891.0</ele><time>2026-04-10T14:38:11.18Z</time></trkpt><trkpt lat="41.7281217" lon="15.6719467"><ele>891.3333333333333</ele><time>2026-04-10T14:38:12.18Z</time></trkpt><trkpt lat="41.7282683" lon="15.6720333"><ele>891.6666666666666</ele><time>2026-04-10T14:38:13.181Z</time></trkpt><trkpt lat="41.7284117" lon="15.672115"><ele>892.0</ele><time>2026-04-10T14:38:14.182Z</time></trkpt><trkpt lat="41.72855" lon="15.67219"><ele>893.5</ele><time>2026-04-10T14:38:15.178Z</time></trkpt><trkpt lat="41.72868" lon="15.6722733"><ele>895.0</ele><time>2026-04-10T14:38:16.178Z</time></trkpt><trkpt lat="41.7288017" lon="15.6723633"><ele>896.5</ele><time>2026-04-10T14:38:17.183Z</time></trkpt><trkpt lat="41.7289167" lon="15.6724633"><ele>898.0</ele><time>2026-04-10T14:38:18.182Z</time></trkpt><trkpt lat="41.729025" lon="15.67257"><ele>898.0</ele><time>2026-04-10T14:38:19.183Z</time></trkpt><trkpt lat="41.7291267" lon="15.6726733"><ele>898.0</ele><time>2026-04-10T14:38:20.185Z</time></trkpt><trkpt lat="41.7292317" lon="15.6727567"><ele>898.0</ele><time>2026-04-10T14:38:21.179Z</time></trkpt><trkpt lat="41.72933" lon="15.6728033"><ele>898.0</ele><time>2026-04-10T14:38:22.177Z</time></trkpt><trkpt lat="41.729445" lon="15.67282"><ele>898.75</ele><time>2026-04-10T14:38:23.179Z</time></trkpt><trkpt lat="41.7295717" lon="15.67281"><ele>899.5</ele><time>2026-04-10T14:38:24.182Z</time></trkpt><trkpt lat="41.72972" lon="15.6727717"><ele>900.25</ele><time>2026-04-10T14:38:25.179Z</time></trkpt><trkpt lat="41.729875" lon="15.6727267"><ele>901.0</ele><time>2026-04-10T14:38:26.182Z</time></trkpt><trkpt lat="41.73004" lon="15.6726733"><ele>901.0</ele><time>2026-04-10T14:38:27.182Z</time></trkpt><trkpt lat="41.7302067" lon="15.67262"><ele>901.0</ele><time>2026-04-10T14:38:28.183Z</time></trkpt><trkpt lat="41.730375" lon="15.67256"><ele>901.0</ele><time>2026-04-10T14:38:29.18Z</time></trkpt><trkpt lat="41.7305467" lon="15.672505"><ele>901.3333333333333</ele><time>2026-04-10T14:38:30.183Z</time></trkpt><trkpt lat="41.730715" lon="15.6724483"><ele>901.6666666666667</ele><time>2026-04-10T14:38:31.18Z</time></trkpt><trkpt lat="41.7308833" lon="15.6723967"><ele>902.0</ele><time>2026-04-10T14:38:32.179Z</time></trkpt><trkpt lat="41.7310617" lon="15.6723467"><ele>903.0</ele><time>2026-04-10T14:38:33.178Z</time></trkpt><trkpt lat="41.7312367" lon="15.6723017"><ele>904.0</ele><time>2026-04-10T14:38:34.177Z</time></trkpt><trkpt lat="41.7313983" lon="15.67225"><ele>905.0</ele><time>2026-04-10T14:38:35.18Z</time></trkpt><trkpt lat="41.7315433" lon="15.672195"><ele>905.0</ele><time>2026-04-10T14:38:36.185Z</time></trkpt><trkpt lat="41.731675" lon="15.67212"><ele>905.0</ele><time>2026-04-10T14:38:37.18Z</time></trkpt><trkpt lat="41.7318" lon="15.67203"><ele>905.0</ele><time>2026-04-10T14:38:38.185Z</time></trkpt><trkpt lat="41.7319167" lon="15.6719083"><ele>905.0</ele><time>2026-04-10T14:38:39.18Z</time></trkpt><trkpt lat="41.73204" lon="15.6717767"><ele>905.0</ele><time>2026-04-10T14:38:40.176Z</time></trkpt><trkpt lat="41.7321583" lon="15.6716417"><ele>905.0</ele><time>2026-04-10T14:38:41.179Z</time></trkpt><trkpt lat="41.7322833" lon="15.671515"><ele>905.0</ele><time>2026-04-10T14:38:42.185Z</time></trkpt><trkpt lat="41.7324083" lon="15.6714067"><ele>905.0</ele><time>2026-04-10T14:38:43.181Z</time></trkpt><trkpt lat="41.7325267" lon="15.6713117"><ele>905.0</ele><time>2026-04-10T14:38:44.183Z</time></trkpt><trkpt lat="41.73264" lon="15.67124"><ele>905.0</ele><time>2026-04-10T14:38:45.178Z</time></trkpt><trkpt lat="41.7327567" lon="15.6711983"><ele>905.0</ele><time>2026-04-10T14:38:46.179Z</time></trkpt><trkpt lat="41.7328783" lon="15.6711967"><ele>906.25</ele><time>2026-04-10T14:38:47.178Z</time></trkpt><trkpt lat="41.7330033" lon="15.67123"><ele>907.5</ele><time>2026-04-10T14:38:48.179Z</time></trkpt><trkpt lat="41.7331317" lon="15.6712883"><ele>908.75</ele><time>2026-04-10T14:38:49.18Z</time></trkpt><trkpt lat="41.7332683" lon="15.67136"><ele>910.0</ele><time>2026-04-10T14:38:50.181Z</time></trkpt><trkpt lat="41.7334133" lon="15.6714417"><ele>911.3333333333333</ele><time>2026-04-10T14:38:51.18Z</time></trkpt><trkpt lat="41.73356" lon="15.6715267"><ele>912.6666666666667</ele><time>2026-04-10T14:38:52.18Z</time></trkpt><trkpt lat="41.7337033" lon="15.6716067"><ele>914.0</ele><time>2026-04-10T14:38:53.178Z</time></trkpt><trkpt lat="41.7338383" lon="15.6716783"><ele>914.0</ele><time>2026-04-10T14:38:54.179Z</time></trkpt><trkpt lat="41.7339517" lon="15.6717317"><ele>914.0000000000001</ele><time>2026-04-10T14:38:55.178Z</time></trkpt><trkpt lat="41.734055" lon="15.6717683"><ele>914.0000000000001</ele><time>2026-04-10T14:38:56.179Z</time></trkpt><trkpt lat="41.734145" lon="15.6717767"><ele>914.0</ele><time>2026-04-10T14:38:57.179Z</time></trkpt><trkpt lat="41.7342317" lon="15.671755"><ele>914.0</ele><time>2026-04-10T14:38:58.178Z</time></trkpt><trkpt lat="41.7343367" lon="15.671685"><ele>915.2</ele><time>2026-04-10T14:38:59.181Z</time></trkpt><trkpt lat="41.734435" lon="15.6716117"><ele>916.4000000000001</ele><time>2026-04-10T14:39:00.189Z</time></trkpt><trkpt lat="41.734535" lon="15.6715383"><ele>917.6</ele><time>2026-04-10T14:39:01.178Z</time></trkpt><trkpt lat="41.7346433" lon="15.6715067"><ele>918.8</ele><time>2026-04-10T14:39:02.18Z</time></trkpt><trkpt lat="41.7347467" lon="15.671475"><ele>920.0</ele><time>2026-04-10T14:39:03.178Z</time></trkpt><trkpt lat="41.7348417" lon="15.671435"><ele>920.0</ele><time>2026-04-10T14:39:04.182Z</time></trkpt><trkpt lat="41.7349317" lon="15.6713667"><ele>920.0</ele><time>2026-04-10T14:39:05.178Z</time></trkpt><trkpt lat="41.7350183" lon="15.67128"><ele>920.0</ele><time>2026-04-10T14:39:06.182Z</time></trkpt><trkpt lat="41.7350967" lon="15.6711917"><ele>920.0</ele><time>2026-04-10T14:39:07.176Z</time></trkpt><trkpt lat="41.7351767" lon="15.67114"><ele>920.0</ele><time>2026-04-10T14:39:08.18Z</time></trkpt><trkpt lat="41.7352483" lon="15.6711133"><ele>921.5000000000001</ele><time>2026-04-10T14:39:09.179Z</time></trkpt><trkpt lat="41.73532" lon="15.671115"><ele>923.0</ele><time>2026-04-10T14:39:10.177Z</time></trkpt><trkpt lat="41.7353833" lon="15.67115"><ele>924.5</ele><time>2026-04-10T14:39:11.178Z</time></trkpt><trkpt lat="41.7354367" lon="15.67122"><ele>926.0</ele><time>2026-04-10T14:39:12.182Z</time></trkpt><trkpt lat="41.735435" lon="15.67136"><ele>927.5000000000001</ele><time>2026-04-10T14:39:13.177Z</time></trkpt><trkpt lat="41.735415" lon="15.6714983"><ele>929.0</ele><time>2026-04-10T14:39:14.181Z</time></trkpt><trkpt lat="41.735385" lon="15.671635"><ele>929.0000000000001</ele><time>2026-04-10T14:39:15.18Z</time></trkpt><trkpt lat="41.7353583" lon="15.6717617"><ele>929.0</ele><time>2026-04-10T14:39:16.178Z</time></trkpt><trkpt lat="41.7353517" lon="15.6718767"><ele>929.0</ele><time>2026-04-10T14:39:17.177Z</time></trkpt><trkpt lat="41.7353783" lon="15.671965"><ele>929.0</ele><time>2026-04-10T14:39:18.182Z</time></trkpt><trkpt lat="41.7354167" lon="15.6720433"><ele>929.0000000000001</ele><time>2026-04-10T14:39:19.18Z</time></trkpt><trkpt lat="41.735475" lon="15.672085"><ele>929.0</ele><time>2026-04-10T14:39:20.179Z</time></trkpt><trkpt lat="41.735545" lon="15.6720917"><ele>929.0</ele><time>2026-04-10T14:39:21.179Z</time></trkpt><trkpt lat="41.73563" lon="15.6720883"><ele>929.0000000000001</ele><time>2026-04-10T14:39:22.183Z</time></trkpt><trkpt lat="41.7357267" lon="15.6720883"><ele>929.0000000000001</ele><time>2026-04-10T14:39:23.178Z</time></trkpt><trkpt lat="41.73584" lon="15.6721117"><ele>929.0</ele><time>2026-04-10T14:39:24.181Z</time></trkpt><trkpt lat="41.7359617" lon="15.6721567"><ele>929.0</ele><time>2026-04-10T14:39:25.179Z</time></trkpt><trkpt lat="41.7360883" lon="15.6722133"><ele>930.5</ele><time>2026-04-10T14:39:26.184Z</time></trkpt><trkpt lat="41.7362217" lon="15.672275"><ele>932.0</ele><time>2026-04-10T14:39:27.181Z</time></trkpt><trkpt lat="41.7363633" lon="15.6723467"><ele>933.5</ele><time>2026-04-10T14:39:28.18Z</time></trkpt><trkpt lat="41.7365067" lon="15.6724183"><ele>935.0</ele><time>2026-04-10T14:39:29.18Z</time></trkpt><trkpt lat="41.736645" lon="15.6724983"><ele>935.0</ele><time>2026-04-10T14:39:30.178Z</time></trkpt><trkpt lat="41.73677" lon="15.6725767"><ele>935.0</ele><time>2026-04-10T14:39:31.18Z</time></trkpt><trkpt lat="41.736885" lon="15.6726683"><ele>935.0</ele><time>2026-04-10T14:39:32.179Z</time></trkpt><trkpt lat="41.736995" lon="15.672785"><ele>935.0</ele><time>2026-04-10T14:39:33.181Z</time></trkpt><trkpt lat="41.737095" lon="15.6729233"><ele>936.0</ele><time>2026-04-10T14:39:34.177Z</time></trkpt><trkpt lat="41.7371933" lon="15.6730633"><ele>937.0</ele><time>2026-04-10T14:39:35.178Z</time></trkpt><trkpt lat="41.73729" lon="15.6732067"><ele>938.0</ele><time>2026-04-10T14:39:36.178Z</time></trkpt><trkpt lat="41.7373833" lon="15.67335"><ele>939.0</ele><time>2026-04-10T14:39:37.178Z</time></trkpt><trkpt lat="41.73747" lon="15.6734983"><ele>939.0</ele><time>2026-04-10T14:39:38.18Z</time></trkpt><trkpt lat="41.7375383" lon="15.6736583"><ele>939.0</ele><time>2026-04-10T14:39:39.177Z</time></trkpt><trkpt lat="41.7375833" lon="15.6738283"><ele>939.0</ele><time>2026-04-10T14:39:40.176Z</time></trkpt><trkpt lat="41.7376083" lon="15.6739983"><ele>939.0</ele><time>2026-04-10T14:39:41.181Z</time></trkpt><trkpt lat="41.737605" lon="15.6741683"><ele>939.0</ele><time>2026-04-10T14:39:42.181Z</time></trkpt><trkpt lat="41.7375767" lon="15.6743383"><ele>939.0</ele><time>2026-04-10T14:39:43.178Z</time></trkpt><trkpt lat="41.737535" lon="15.6745067"><ele>939.0</ele><time>2026-04-10T14:39:44.178Z</time></trkpt><trkpt lat="41.73748" lon="15.6746583"><ele>939.0</ele><time>2026-04-10T14:39:45.18Z</time></trkpt><trkpt lat="41.7374333" lon="15.6747933"><ele>938.6</ele><time>2026-04-10T14:39:46.178Z</time></trkpt><trkpt lat="41.7374033" lon="15.6749167"><ele>938.2</ele><time>2026-04-10T14:39:47.182Z</time></trkpt><trkpt lat="41.737395" lon="15.6750383"><ele>937.8000000000001</ele><time>2026-04-10T14:39:48.18Z</time></trkpt><trkpt lat="41.7374183" lon="15.67516"><ele>937.4000000000001</ele><time>2026-04-10T14:39:49.18Z</time></trkpt><trkpt lat="41.73746" lon="15.675275"><ele>937.0</ele><time>2026-04-10T14:39:50.185Z</time></trkpt><trkpt lat="41.7375267" lon="15.6753933"><ele>937.0</ele><time>2026-04-10T14:39:51.181Z</time></trkpt><trkpt lat="41.737605" lon="15.67551"><ele>937.0</ele><time>2026-04-10T14:39:52.179Z</time></trkpt><trkpt lat="41.7376883" lon="15.675625"><ele>937.0</ele><time>2026-04-10T14:39:53.178Z</time></trkpt><trkpt lat="41.7377733" lon="15.675745"><ele>937.0</ele><time>2026-04-10T14:39:54.179Z</time></trkpt><trkpt lat="41.737855" lon="15.675855"><ele>934.6</ele><time>2026-04-10T14:39:55.177Z</time></trkpt><trkpt lat="41.737945" lon="15.6759483"><ele>932.2</ele><time>2026-04-10T14:39:56.18Z</time></trkpt><trkpt lat="41.7380367" lon="15.676015"><ele>929.8</ele><time>2026-04-10T14:39:57.179Z</time></trkpt><trkpt lat="41.7381317" lon="15.6760567"><ele>927.4</ele><time>2026-04-10T14:39:58.178Z</time></trkpt><trkpt lat="41.7382233" lon="15.6760967"><ele>925.0</ele><time>2026-04-10T14:39:59.179Z</time></trkpt><trkpt lat="41.7383033" lon="15.676145"><ele>924.4999999999999</ele><time>2026-04-10T14:40:00.178Z</time></trkpt><trkpt lat="41.7383567" lon="15.67622"><ele>924.0</ele><time>2026-04-10T14:40:01.182Z</time></trkpt><trkpt lat="41.7383733" lon="15.6763267"><ele>923.5</ele><time>2026-04-10T14:40:02.177Z</time></trkpt><trkpt lat="41.7383383" lon="15.6764633"><ele>923.0</ele><time>2026-04-10T14:40:03.182Z</time></trkpt><trkpt lat="41.738295" lon="15.676575"><ele>922.4999999999999</ele><time>2026-04-10T14:40:04.178Z</time></trkpt><trkpt lat="41.7382433" lon="15.6766617"><ele>922.0</ele><time>2026-04-10T14:40:05.177Z</time></trkpt><trkpt lat="41.738175" lon="15.6767367"><ele>922.0</ele><time>2026-04-10T14:40:06.179Z</time></trkpt><trkpt lat="41.7380767" lon="15.676765"><ele>922.0</ele><time>2026-04-10T14:40:07.177Z</time></trkpt><trkpt lat="41.7379667" lon="15.6767583"><ele>922.0</ele><time>2026-04-10T14:40:08.18Z</time></trkpt><trkpt lat="41.7378583" lon="15.676745"><ele>922.0</ele><time>2026-04-10T14:40:09.178Z</time></trkpt><trkpt lat="41.7377617" lon="15.6767567"><ele>922.0</ele><time>2026-04-10T14:40:10.178Z</time></trkpt><trkpt lat="41.7376767" lon="15.6767883"><ele>923.8</ele><time>2026-04-10T14:40:11.177Z</time></trkpt><trkpt lat="41.7376183" lon="15.6768533"><ele>925.6</ele><time>2026-04-10T14:40:12.178Z</time></trkpt><trkpt lat="41.7375817" lon="15.6769483"><ele>927.3999999999999</ele><time>2026-04-10T14:40:13.177Z</time></trkpt><trkpt lat="41.7375683" lon="15.677135"><ele>929.1999999999999</ele><time>2026-04-10T14:40:15.179Z</time></trkpt><trkpt lat="41.7375967" lon="15.6772433"><ele>931.0</ele><time>2026-04-10T14:40:16.18Z</time></trkpt><trkpt lat="41.7376667" lon="15.67738"><ele>927.25</ele><time>2026-04-10T14:40:17.176Z</time></trkpt><trkpt lat="41.7377633" lon="15.6775417"><ele>923.5</ele><time>2026-04-10T14:40:18.177Z</time></trkpt><trkpt lat="41.737855" lon="15.6777083"><ele>919.75</ele><time>2026-04-10T14:40:19.177Z</time></trkpt><trkpt lat="41.7379217" lon="15.6778567"><ele>916.0</ele><time>2026-04-10T14:40:20.179Z</time></trkpt><trkpt lat="41.7379767" lon="15.6780083"><ele>915.1999999999999</ele><time>2026-04-10T14:40:21.178Z</time></trkpt><trkpt lat="41.7380217" lon="15.6781533"><ele>914.3999999999999</ele><time>2026-04-10T14:40:22.18Z</time></trkpt><trkpt lat="41.738045" lon="15.67829"><ele>913.6</ele><time>2026-04-10T14:40:23.179Z</time></trkpt><trkpt lat="41.7380417" lon="15.6784033"><ele>912.8</ele><time>2026-04-10T14:40:24.18Z</time></trkpt><trkpt lat="41.7380217" lon="15.6785"><ele>912.0</ele><time>2026-04-10T14:40:25.177Z</time></trkpt><trkpt lat="41.737975" lon="15.6785883"><ele>911.1666666666666</ele><time>2026-04-10T14:40:26.18Z</time></trkpt><trkpt lat="41.737905" lon="15.678665"><ele>910.3333333333333</ele><time>2026-04-10T14:40:27.178Z</time></trkpt><trkpt lat="41.7378233" lon="15.6787367"><ele>909.5</ele><time>2026-04-10T14:40:28.18Z</time></trkpt><trkpt lat="41.7377417" lon="15.6788083"><ele>908.6666666666666</ele><time>2026-04-10T14:40:29.178Z</time></trkpt><trkpt lat="41.73768" lon="15.6788883"><ele>907.8333333333333</ele><time>2026-04-10T14:40:30.18Z</time></trkpt><trkpt lat="41.7376483" lon="15.6789817"><ele>907.0</ele><time>2026-04-10T14:40:31.179Z</time></trkpt><trkpt lat="41.73763" lon="15.67907"><ele>906.9999999999999</ele><time>2026-04-10T14:40:32.178Z</time></trkpt><trkpt lat="41.7376283" lon="15.6791617"><ele>907.0</ele><time>2026-04-10T14:40:33.177Z</time></trkpt><trkpt lat="41.7376417" lon="15.6792533"><ele>907.0</ele><time>2026-04-10T14:40:34.177Z</time></trkpt><trkpt lat="41.7376867" lon="15.67935"><ele>907.0</ele><time>2026-04-10T14:40:35.189Z</time></trkpt><trkpt lat="41.7377333" lon="15.6794183"><ele>906.9999999999999</ele><time>2026-04-10T14:40:36.18Z</time></trkpt><trkpt lat="41.7378217" lon="15.67951"><ele>907.0</ele><time>2026-04-10T14:40:37.18Z</time></trkpt><trkpt lat="41.737935" lon="15.6795867"><ele>907.0</ele><time>2026-04-10T14:40:38.179Z</time></trkpt><trkpt lat="41.73803" lon="15.679675"><ele>907.0</ele><time>2026-04-10T14:40:39.178Z</time></trkpt><trkpt lat="41.738095" lon="15.679775"><ele>907.0</ele><time>2026-04-10T14:40:40.177Z</time></trkpt><trkpt lat="41.7381433" lon="15.6798933"><ele>907.0</ele><time>2026-04-10T14:40:41.181Z</time></trkpt><trkpt lat="41.738195" lon="15.6800033"><ele>907.0</ele><time>2026-04-10T14:40:42.179Z</time></trkpt><trkpt lat="41.7382483" lon="15.6800933"><ele>907.0</ele><time>2026-04-10T14:40:43.182Z</time></trkpt><trkpt lat="41.738325" lon="15.6801633"><ele>907.0</ele><time>2026-04-10T14:40:44.18Z</time></trkpt><trkpt lat="41.7384117" lon="15.6802183"><ele>907.0</ele><time>2026-04-10T14:40:45.178Z</time></trkpt><trkpt lat="41.73852" lon="15.68027"><ele>907.0</ele><time>2026-04-10T14:40:46.177Z</time></trkpt><trkpt lat="41.738615" lon="15.680325"><ele>907.0</ele><time>2026-04-10T14:40:47.178Z</time></trkpt><trkpt lat="41.7387067" lon="15.6803717"><ele>905.6</ele><time>2026-04-10T14:40:48.179Z</time></trkpt><trkpt lat="41.7387917" lon="15.680395"><ele>904.2</ele><time>2026-04-10T14:40:49.18Z</time></trkpt><trkpt lat="41.7388733" lon="15.6803883"><ele>902.8</ele><time>2026-04-10T14:40:50.18Z</time></trkpt><trkpt lat="41.7389483" lon="15.6803383"><ele>901.4</ele><time>2026-04-10T14:40:51.181Z</time></trkpt><trkpt lat="41.7390217" lon="15.6802483"><ele>900.0</ele><time>2026-04-10T14:40:52.177Z</time></trkpt><trkpt lat="41.7390767" lon="15.6801283"><ele>899.8</ele><time>2026-04-10T14:40:53.178Z</time></trkpt><trkpt lat="41.739105" lon="15.6800067"><ele>899.6</ele><time>2026-04-10T14:40:54.178Z</time></trkpt><trkpt lat="41.7391133" lon="15.6798917"><ele>899.4000000000001</ele><time>2026-04-10T14:40:55.178Z</time></trkpt><trkpt lat="41.739095" lon="15.6797783"><ele>899.2</ele><time>2026-04-10T14:40:56.18Z</time></trkpt><trkpt lat="41.7390467" lon="15.6796633"><ele>899.0</ele><time>2026-04-10T14:40:57.18Z</time></trkpt><trkpt lat="41.73902" lon="15.6795517"><ele>899.0</ele><time>2026-04-10T14:40:58.179Z</time></trkpt><trkpt lat="41.739015" lon="15.6794417"><ele>899.0000000000001</ele><time>2026-04-10T14:40:59.179Z</time></trkpt><trkpt lat="41.7390383" lon="15.6793283"><ele>899.0000000000001</ele><time>2026-04-10T14:41:00.18Z</time></trkpt><trkpt lat="41.7391" lon="15.67921"><ele>899.0</ele><time>2026-04-10T14:41:01.178Z</time></trkpt><trkpt lat="41.739185" lon="15.67908"><ele>899.0</ele><time>2026-04-10T14:41:02.178Z</time></trkpt><trkpt lat="41.7392917" lon="15.6789283"><ele>894.6666666666667</ele><time>2026-04-10T14:41:03.186Z</time></trkpt><trkpt lat="41.73941" lon="15.6787633"><ele>890.3333333333333</ele><time>2026-04-10T14:41:04.179Z</time></trkpt><trkpt lat="41.739525" lon="15.678595"><ele>886.0</ele><time>2026-04-10T14:41:05.184Z</time></trkpt><trkpt lat="41.7396383" lon="15.678435"><ele>885.3333333333333</ele><time>2026-04-10T14:41:06.179Z</time></trkpt><trkpt lat="41.7397483" lon="15.6782833"><ele>884.6666666666667</ele><time>2026-04-10T14:41:07.182Z</time></trkpt><trkpt lat="41.7398533" lon="15.6781317"><ele>884.0</ele><time>2026-04-10T14:41:08.179Z</time></trkpt><trkpt lat="41.7399517" lon="15.6779917"><ele>884.0</ele><time>2026-04-10T14:41:09.178Z</time></trkpt><trkpt lat="41.7400417" lon="15.67787"><ele>884.0000000000001</ele><time>2026-04-10T14:41:10.179Z</time></trkpt><trkpt lat="41.740125" lon="15.67777"><ele>884.0000000000001</ele><time>2026-04-10T14:41:11.177Z</time></trkpt><trkpt lat="41.7402117" lon="15.6776967"><ele>884.0</ele><time>2026-04-10T14:41:12.181Z</time></trkpt><trkpt lat="41.7403017" lon="15.6776533"><ele>884.0</ele><time>2026-04-10T14:41:13.178Z</time></trkpt><trkpt lat="41.7403967" lon="15.6776517"><ele>882.0</ele><time>2026-04-10T14:41:14.18Z</time></trkpt><trkpt lat="41.7404883" lon="15.6776833"><ele>880.0000000000001</ele><time>2026-04-10T14:41:15.182Z</time></trkpt><trkpt lat="41.7405767" lon="15.6777617"><ele>878.0000000000001</ele><time>2026-04-10T14:41:16.177Z</time></trkpt><trkpt lat="41.7406667" lon="15.6778667"><ele>876.0</ele><time>2026-04-10T14:41:17.18Z</time></trkpt><trkpt lat="41.740755" lon="15.6779883"><ele>874.0</ele><time>2026-04-10T14:41:18.18Z</time></trkpt><trkpt lat="41.74085" lon="15.67811"><ele>873.75</ele><time>2026-04-10T14:41:19.184Z</time></trkpt><trkpt lat="41.7409517" lon="15.67821"><ele>873.5</ele><time>2026-04-10T14:41:20.179Z</time></trkpt><trkpt lat="41.741065" lon="15.6782767"><ele>873.25</ele><time>2026-04-10T14:41:21.181Z</time></trkpt><trkpt lat="41.7411883" lon="15.678315"><ele>873.0</ele><time>2026-04-10T14:41:22.182Z</time></trkpt><trkpt lat="41.741315" lon="15.6783333"><ele>871.75</ele><time>2026-04-10T14:41:23.183Z</time></trkpt><trkpt lat="41.741455" lon="15.6783533"><ele>870.5</ele><time>2026-04-10T14:41:24.178Z</time></trkpt><trkpt lat="41.7415983" lon="15.6783917"><ele>869.25</ele><time>2026-04-10T14:41:25.178Z</time></trkpt><trkpt lat="41.741735" lon="15.6784617"><ele>868.0</ele><time>2026-04-10T14:41:26.179Z</time></trkpt><trkpt lat="41.74187" lon="15.678555"><ele>867.6666666666666</ele><time>2026-04-10T14:41:27.178Z</time></trkpt><trkpt lat="41.742005" lon="15.6786617"><ele>867.3333333333333</ele><time>2026-04-10T14:41:28.179Z</time></trkpt><trkpt lat="41.7421317" lon="15.6787783"><ele>867.0</ele><time>2026-04-10T14:41:29.178Z</time></trkpt><trkpt lat="41.7422583" lon="15.6788967"><ele>867.0</ele><time>2026-04-10T14:41:30.177Z</time></trkpt><trkpt lat="41.74238" lon="15.6790167"><ele>867.0</ele><time>2026-04-10T14:41:31.18Z</time></trkpt><trkpt lat="41.7425" lon="15.6791367"><ele>867.0</ele><time>2026-04-10T14:41:32.181Z</time></trkpt><trkpt lat="41.7426117" lon="15.6792617"><ele>867.0</ele><time>2026-04-10T14:41:33.181Z</time></trkpt><trkpt lat="41.7427183" lon="15.6793867"><ele>865.25</ele><time>2026-04-10T14:41:34.177Z</time></trkpt><trkpt lat="41.742825" lon="15.679505"><ele>863.5</ele><time>2026-04-10T14:41:35.183Z</time></trkpt><trkpt lat="41.74293" lon="15.67961"><ele>861.75</ele><time>2026-04-10T14:41:36.182Z</time></trkpt><trkpt lat="41.7430317" lon="15.6797133"><ele>860.0</ele><time>2026-04-10T14:41:37.178Z</time></trkpt><trkpt lat="41.7431233" lon="15.679825"><ele>860.0</ele><time>2026-04-10T14:41:38.183Z</time></trkpt><trkpt lat="41.7431933" lon="15.6799483"><ele>860.0</ele><time>2026-04-10T14:41:39.185Z</time></trkpt><trkpt lat="41.7432367" lon="15.6800833"><ele>860.0</ele><time>2026-04-10T14:41:40.179Z</time></trkpt><trkpt lat="41.7432567" lon="15.680235"><ele>860.0</ele><time>2026-04-10T14:41:41.18Z</time></trkpt><trkpt lat="41.7432583" lon="15.6804017"><ele>859.5</ele><time>2026-04-10T14:41:42.177Z</time></trkpt><trkpt lat="41.743255" lon="15.6805817"><ele>859.0</ele><time>2026-04-10T14:41:43.18Z</time></trkpt><trkpt lat="41.7432533" lon="15.68078"><ele>858.5</ele><time>2026-04-10T14:41:44.178Z</time></trkpt><trkpt lat="41.743255" lon="15.6809867"><ele>858.0</ele><time>2026-04-10T14:41:45.177Z</time></trkpt><trkpt lat="41.7432583" lon="15.6811983"><ele>858.0</ele><time>2026-04-10T14:41:46.178Z</time></trkpt><trkpt lat="41.74327" lon="15.681405"><ele>858.0</ele><time>2026-04-10T14:41:47.178Z</time></trkpt><trkpt lat="41.7432967" lon="15.6816033"><ele>858.0</ele><time>2026-04-10T14:41:48.182Z</time></trkpt><trkpt lat="41.7433467" lon="15.6818"><ele>857.6666666666667</ele><time>2026-04-10T14:41:49.177Z</time></trkpt><trkpt lat="41.743415" lon="15.6820017"><ele>857.3333333333334</ele><time>2026-04-10T14:41:50.179Z</time></trkpt><trkpt lat="41.743495" lon="15.6822183"><ele>857.0</ele><time>2026-04-10T14:41:51.179Z</time></trkpt><trkpt lat="41.743585" lon="15.6824483"><ele>856.0</ele><time>2026-04-10T14:41:52.177Z</time></trkpt><trkpt lat="41.7436717" lon="15.6826783"><ele>855.0</ele><time>2026-04-10T14:41:53.182Z</time></trkpt><trkpt lat="41.7437517" lon="15.6828967"><ele>854.0</ele><time>2026-04-10T14:41:54.181Z</time></trkpt><trkpt lat="41.743825" lon="15.6830983"><ele>854.0</ele><time>2026-04-10T14:41:55.178Z</time></trkpt><trkpt lat="41.743895" lon="15.6832817"><ele>854.0</ele><time>2026-04-10T14:41:56.18Z</time></trkpt><trkpt lat="41.7439633" lon="15.6834383"><ele>854.0</ele><time>2026-04-10T14:41:57.182Z</time></trkpt><trkpt lat="41.7440417" lon="15.6835583"><ele>854.0</ele><time>2026-04-10T14:41:58.183Z</time></trkpt><trkpt lat="41.7441317" lon="15.6836467"><ele>855.75</ele><time>2026-04-10T14:41:59.18Z</time></trkpt><trkpt lat="41.744235" lon="15.6837133"><ele>857.5</ele><time>2026-04-10T14:42:00.178Z</time></trkpt><trkpt lat="41.744355" lon="15.683765"><ele>859.25</ele><time>2026-04-10T14:42:01.183Z</time></trkpt><trkpt lat="41.7444933" lon="15.6838167"><ele>861.0</ele><time>2026-04-10T14:42:02.184Z</time></trkpt><trkpt lat="41.7446383" lon="15.683875"><ele>861.0</ele><time>2026-04-10T14:42:03.178Z</time></trkpt><trkpt lat="41.7447783" lon="15.6839317"><ele>861.0</ele><time>2026-04-10T14:42:04.177Z</time></trkpt><trkpt lat="41.7449083" lon="15.6839833"><ele>861.0</ele><time>2026-04-10T14:42:05.178Z</time></trkpt><trkpt lat="41.745025" lon="15.6840167"><ele>861.0</ele><time>2026-04-10T14:42:06.179Z</time></trkpt><trkpt lat="41.7451283" lon="15.68402"><ele>860.5999999999999</ele><time>2026-04-10T14:42:07.179Z</time></trkpt><trkpt lat="41.7452233" lon="15.6839867"><ele>860.1999999999999</ele><time>2026-04-10T14:42:08.182Z</time></trkpt><trkpt lat="41.7453083" lon="15.6839217"><ele>859.8000000000001</ele><time>2026-04-10T14:42:09.181Z</time></trkpt><trkpt lat="41.7453867" lon="15.68384"><ele>859.4000000000001</ele><time>2026-04-10T14:42:10.181Z</time></trkpt><trkpt lat="41.745465" lon="15.683765"><ele>859.0</ele><time>2026-04-10T14:42:11.18Z</time></trkpt><trkpt lat="41.7455533" lon="15.683735"><ele>859.0</ele><time>2026-04-10T14:42:12.178Z</time></trkpt><trkpt lat="41.7456433" lon="15.6837383"><ele>859.0000000000001</ele><time>2026-04-10T14:42:13.183Z</time></trkpt><trkpt lat="41.7457317" lon="15.6837817"><ele>859.0000000000001</ele><time>2026-04-10T14:42:14.178Z</time></trkpt><trkpt lat="41.7458117" lon="15.68386"><ele>859.0</ele><time>2026-04-10T14:42:15.179Z</time></trkpt><trkpt lat="41.7458633" lon="15.6839967"><ele>859.0</ele><time>2026-04-10T14:42:16.179Z</time></trkpt><trkpt lat="41.7459233" lon="15.6841467"><ele>859.0</ele><time>2026-04-10T14:42:17.182Z</time></trkpt><trkpt lat="41.745985" lon="15.6843183"><ele>859.0</ele><time>2026-04-10T14:42:18.181Z</time></trkpt><trkpt lat="41.74605" lon="15.684505"><ele>859.0</ele><time>2026-04-10T14:42:19.183Z</time></trkpt><trkpt lat="41.7461017" lon="15.6847083"><ele>858.3333333333333</ele><time>2026-04-10T14:42:20.18Z</time></trkpt><trkpt lat="41.7461283" lon="15.6849367"><ele>857.6666666666667</ele><time>2026-04-10T14:42:21.181Z</time></trkpt><trkpt lat="41.7461433" lon="15.6851883"><ele>857.0</ele><time>2026-04-10T14:42:22.178Z</time></trkpt><trkpt lat="41.7461583" lon="15.6854533"><ele>857.0</ele><time>2026-04-10T14:42:23.181Z</time></trkpt><trkpt lat="41.7461717" lon="15.6857217"><ele>857.0</ele><time>2026-04-10T14:42:24.183Z</time></trkpt><trkpt lat="41.7461883" lon="15.6859817"><ele>857.0</ele><time>2026-04-10T14:42:25.179Z</time></trkpt><trkpt lat="41.7462017" lon="15.68623"><ele>858.6666666666667</ele><time>2026-04-10T14:42:26.183Z</time></trkpt><trkpt lat="41.7462217" lon="15.68646"><ele>860.3333333333333</ele><time>2026-04-10T14:42:27.179Z</time></trkpt><trkpt lat="41.7462533" lon="15.686685"><ele>862.0</ele><time>2026-04-10T14:42:28.178Z</time></trkpt><trkpt lat="41.7463083" lon="15.686905"><ele>862.6666666666666</ele><time>2026-04-10T14:42:29.178Z</time></trkpt><trkpt lat="41.7463783" lon="15.6871317"><ele>863.3333333333333</ele><time>2026-04-10T14:42:30.184Z</time></trkpt><trkpt lat="41.746455" lon="15.6873683"><ele>864.0</ele><time>2026-04-10T14:42:31.18Z</time></trkpt><trkpt lat="41.7465417" lon="15.6876183"><ele>864.6666666666667</ele><time>2026-04-10T14:42:32.182Z</time></trkpt><trkpt lat="41.7466367" lon="15.6878817"><ele>865.3333333333334</ele><time>2026-04-10T14:42:33.183Z</time></trkpt><trkpt lat="41.7467317" lon="15.6881567"><ele>866.0</ele><time>2026-04-10T14:42:34.178Z</time></trkpt><trkpt lat="41.74683" lon="15.6884433"><ele>865.5</ele><time>2026-04-10T14:42:35.179Z</time></trkpt><trkpt lat="41.7469283" lon="15.68873"><ele>865.0</ele><time>2026-04-10T14:42:36.183Z</time></trkpt><trkpt lat="41.747025" lon="15.6890133"><ele>865.0</ele><time>2026-04-10T14:42:37.178Z</time></trkpt><trkpt lat="41.747125" lon="15.6893"><ele>865.0</ele><time>2026-04-10T14:42:38.179Z</time></trkpt><trkpt lat="41.74722" lon="15.689575"><ele>865.6666666666666</ele><time>2026-04-10T14:42:39.179Z</time></trkpt><trkpt lat="41.7473083" lon="15.6898317"><ele>866.3333333333333</ele><time>2026-04-10T14:42:40.185Z</time></trkpt><trkpt lat="41.7473917" lon="15.6900733"><ele>867.0</ele><time>2026-04-10T14:42:41.177Z</time></trkpt><trkpt lat="41.7474683" lon="15.6902933"><ele>867.0</ele><time>2026-04-10T14:42:42.183Z</time></trkpt><trkpt lat="41.7475333" lon="15.6904817"><ele>867.0</ele><time>2026-04-10T14:42:43.178Z</time></trkpt><trkpt lat="41.7475983" lon="15.6906367"><ele>867.0</ele><time>2026-04-10T14:42:44.178Z</time></trkpt><trkpt lat="41.7476683" lon="15.6907567"><ele>867.0</ele><time>2026-04-10T14:42:45.179Z</time></trkpt><trkpt lat="41.74775" lon="15.6908417"><ele>867.4000000000001</ele><time>2026-04-10T14:42:46.183Z</time></trkpt><trkpt lat="41.7478483" lon="15.6908917"><ele>867.8000000000001</ele><time>2026-04-10T14:42:47.181Z</time></trkpt><trkpt lat="41.7479433" lon="15.690915"><ele>868.2</ele><time>2026-04-10T14:42:48.179Z</time></trkpt><trkpt lat="41.7480433" lon="15.6909083"><ele>868.6</ele><time>2026-04-10T14:42:49.185Z</time></trkpt><trkpt lat="41.7481483" lon="15.6908667"><ele>869.0</ele><time>2026-04-10T14:42:50.181Z</time></trkpt><trkpt lat="41.7482517" lon="15.6907967"><ele>869.0</ele><time>2026-04-10T14:42:51.179Z</time></trkpt><trkpt lat="41.7483583" lon="15.6907033"><ele>869.0</ele><time>2026-04-10T14:42:52.178Z</time></trkpt><trkpt lat="41.7484733" lon="15.6906033"><ele>869.0</ele><time>2026-04-10T14:42:53.18Z</time></trkpt><trkpt lat="41.748595" lon="15.690505"><ele>869.0</ele><time>2026-04-10T14:42:54.177Z</time></trkpt><trkpt lat="41.748715" lon="15.6904117"><ele>867.5</ele><time>2026-04-10T14:42:55.179Z</time></trkpt><trkpt lat="41.7488317" lon="15.6903117"><ele>866.0</ele><time>2026-04-10T14:42:56.184Z</time></trkpt><trkpt lat="41.748955" lon="15.69022"><ele>864.5</ele><time>2026-04-10T14:42:57.178Z</time></trkpt><trkpt lat="41.74909" lon="15.6901583"><ele>863.0</ele><time>2026-04-10T14:42:58.179Z</time></trkpt><trkpt lat="41.7492317" lon="15.6901233"><ele>862.5</ele><time>2026-04-10T14:42:59.18Z</time></trkpt><trkpt lat="41.7493783" lon="15.6901017"><ele>862.0</ele><time>2026-04-10T14:43:00.181Z</time></trkpt><trkpt lat="41.7495267" lon="15.690075"><ele>861.5</ele><time>2026-04-10T14:43:01.18Z</time></trkpt><trkpt lat="41.749665" lon="15.6900533"><ele>861.0</ele><time>2026-04-10T14:43:02.18Z</time></trkpt><trkpt lat="41.7497917" lon="15.6900083"><ele>861.0</ele><time>2026-04-10T14:43:03.178Z</time></trkpt><trkpt lat="41.7499083" lon="15.6899367"><ele>861.0</ele><time>2026-04-10T14:43:04.187Z</time></trkpt><trkpt lat="41.750015" lon="15.6898533"><ele>861.0</ele><time>2026-04-10T14:43:05.183Z</time></trkpt><trkpt lat="41.750115" lon="15.689775"><ele>861.0</ele><time>2026-04-10T14:43:06.179Z</time></trkpt><trkpt lat="41.7502083" lon="15.68974"><ele>860.8</ele><time>2026-04-10T14:43:07.179Z</time></trkpt><trkpt lat="41.7502967" lon="15.6897433"><ele>860.5999999999999</ele><time>2026-04-10T14:43:08.183Z</time></trkpt><trkpt lat="41.7503783" lon="15.6897833"><ele>860.4</ele><time>2026-04-10T14:43:09.179Z</time></trkpt><trkpt lat="41.75046" lon="15.6898717"><ele>860.2</ele><time>2026-04-10T14:43:10.177Z</time></trkpt><trkpt lat="41.7505317" lon="15.690005"><ele>860.0</ele><time>2026-04-10T14:43:11.188Z</time></trkpt><trkpt lat="41.7505917" lon="15.69016"><ele>860.0</ele><time>2026-04-10T14:43:12.179Z</time></trkpt><trkpt lat="41.750645" lon="15.6903367"><ele>860.0</ele><time>2026-04-10T14:43:13.18Z</time></trkpt><trkpt lat="41.7506967" lon="15.69053"><ele>860.0</ele><time>2026-04-10T14:43:14.179Z</time></trkpt><trkpt lat="41.7507533" lon="15.690725"><ele>860.0</ele><time>2026-04-10T14:43:15.176Z</time></trkpt><trkpt lat="41.7508117" lon="15.6909183"><ele>860.0</ele><time>2026-04-10T14:43:16.183Z</time></trkpt><trkpt lat="41.750875" lon="15.6911033"><ele>860.0</ele><time>2026-04-10T14:43:17.178Z</time></trkpt><trkpt lat="41.7509467" lon="15.6912683"><ele>860.0</ele><time>2026-04-10T14:43:18.178Z</time></trkpt><trkpt lat="41.7510317" lon="15.69141"><ele>860.0</ele><time>2026-04-10T14:43:19.179Z</time></trkpt><trkpt lat="41.7511317" lon="15.69153"><ele>860.0</ele><time>2026-04-10T14:43:20.185Z</time></trkpt><trkpt lat="41.7512483" lon="15.691635"><ele>860.0</ele><time>2026-04-10T14:43:21.182Z</time></trkpt><trkpt lat="41.7513817" lon="15.6917333"><ele>860.0</ele><time>2026-04-10T14:43:22.178Z</time></trkpt><trkpt lat="41.7515233" lon="15.69183"><ele>860.0</ele><time>2026-04-10T14:43:23.178Z</time></trkpt><trkpt lat="41.7516633" lon="15.6919367"><ele>860.0</ele><time>2026-04-10T14:43:24.178Z</time></trkpt><trkpt lat="41.7518" lon="15.6920467"><ele>861.0</ele><time>2026-04-10T14:43:25.185Z</time></trkpt><trkpt lat="41.7519267" lon="15.6921617"><ele>862.0</ele><time>2026-04-10T14:43:26.183Z</time></trkpt><trkpt lat="41.7520367" lon="15.692295"><ele>863.0</ele><time>2026-04-10T14:43:27.179Z</time></trkpt><trkpt lat="41.7521367" lon="15.69244"><ele>864.0</ele><time>2026-04-10T14:43:28.178Z</time></trkpt><trkpt lat="41.75223" lon="15.6925933"><ele>864.0</ele><time>2026-04-10T14:43:29.182Z</time></trkpt><trkpt lat="41.7523217" lon="15.69274"><ele>864.0</ele><time>2026-04-10T14:43:30.186Z</time></trkpt><trkpt lat="41.7524133" lon="15.69287"><ele>864.0</ele><time>2026-04-10T14:43:31.177Z</time></trkpt><trkpt lat="41.7525183" lon="15.6929717"><ele>864.0</ele><time>2026-04-10T14:43:32.187Z</time></trkpt><trkpt lat="41.7526367" lon="15.6930467"><ele>866.0</ele><time>2026-04-10T14:43:33.178Z</time></trkpt><trkpt lat="41.7527683" lon="15.6931117"><ele>868.0</ele><time>2026-04-10T14:43:34.194Z</time></trkpt><trkpt lat="41.75291" lon="15.6931717"><ele>870.0</ele><time>2026-04-10T14:43:35.18Z</time></trkpt><trkpt lat="41.7530617" lon="15.6932333"><ele>872.0</ele><time>2026-04-10T14:43:36.177Z</time></trkpt><trkpt lat="41.75322" lon="15.6932917"><ele>872.0</ele><time>2026-04-10T14:43:37.18Z</time></trkpt><trkpt lat="41.75337" lon="15.6933467"><ele>872.0</ele><time>2026-04-10T14:43:38.179Z</time></trkpt><trkpt lat="41.75351" lon="15.6934083"><ele>872.0</ele><time>2026-04-10T14:43:39.179Z</time></trkpt><trkpt lat="41.7536417" lon="15.69348"><ele>872.0</ele><time>2026-04-10T14:43:40.178Z</time></trkpt><trkpt lat="41.7537683" lon="15.6935667"><ele>873.75</ele><time>2026-04-10T14:43:41.179Z</time></trkpt><trkpt lat="41.7538983" lon="15.6936617"><ele>875.5</ele><time>2026-04-10T14:43:42.178Z</time></trkpt><trkpt lat="41.754025" lon="15.69376"><ele>877.25</ele><time>2026-04-10T14:43:43.183Z</time></trkpt><trkpt lat="41.7541433" lon="15.6938483"><ele>879.0</ele><time>2026-04-10T14:43:44.185Z</time></trkpt><trkpt lat="41.754255" lon="15.693925"><ele>879.0</ele><time>2026-04-10T14:43:45.179Z</time></trkpt><trkpt lat="41.7543583" lon="15.6939733"><ele>879.0000000000001</ele><time>2026-04-10T14:43:46.18Z</time></trkpt><trkpt lat="41.7544583" lon="15.6939833"><ele>879.0000000000001</ele><time>2026-04-10T14:43:47.181Z</time></trkpt><trkpt lat="41.7545626" lon="15.6939595"><ele>879.0</ele><time>2026-04-10T14:43:48.178Z</time></trkpt><trkpt lat="41.7546712" lon="15.6939023"><ele>879.0</ele><time>2026-04-10T14:43:49.182Z</time></trkpt><trkpt lat="41.7547833" lon="15.693827"><ele>879.5</ele><time>2026-04-10T14:43:50.179Z</time></trkpt><trkpt lat="41.754893" lon="15.6937447"><ele>880.0</ele><time>2026-04-10T14:43:51.182Z</time></trkpt><trkpt lat="41.755001" lon="15.6936659"><ele>880.5</ele><time>2026-04-10T14:43:52.185Z</time></trkpt><trkpt lat="41.7551109" lon="15.6935952"><ele>881.0</ele><time>2026-04-10T14:43:53.177Z</time></trkpt><trkpt lat="41.7552194" lon="15.6935459"><ele>880.8</ele><time>2026-04-10T14:43:54.183Z</time></trkpt><trkpt lat="41.7553231" lon="15.6935329"><ele>880.5999999999999</ele><time>2026-04-10T14:43:55.18Z</time></trkpt><trkpt lat="41.7554259" lon="15.6935604"><ele>880.4</ele><time>2026-04-10T14:43:56.178Z</time></trkpt><trkpt lat="41.7555281" lon="15.6936254"><ele>880.2</ele><time>2026-04-10T14:43:57.19Z</time></trkpt><trkpt lat="41.7556285" lon="15.6937092"><ele>880.0</ele><time>2026-04-10T14:43:58.181Z</time></trkpt><trkpt lat="41.7557317" lon="15.6937978"><ele>880.0</ele><time>2026-04-10T14:43:59.179Z</time></trkpt><trkpt lat="41.7558286" lon="15.693899"><ele>880.0</ele><time>2026-04-10T14:44:00.178Z</time></trkpt><trkpt lat="41.7559106" lon="15.6940282"><ele>880.0</ele><time>2026-04-10T14:44:01.177Z</time></trkpt><trkpt lat="41.7559732" lon="15.6941869"><ele>880.0</ele><time>2026-04-10T14:44:02.181Z</time></trkpt><trkpt lat="41.7560223" lon="15.6943662"><ele>880.0</ele><time>2026-04-10T14:44:03.177Z</time></trkpt><trkpt lat="41.7560656" lon="15.6945546"><ele>880.0</ele><time>2026-04-10T14:44:04.184Z</time></trkpt><trkpt lat="41.7561109" lon="15.6947429"><ele>880.0</ele><time>2026-04-10T14:44:05.177Z</time></trkpt><trkpt lat="41.7561573" lon="15.6949308"><ele>880.0</ele><time>2026-04-10T14:44:06.178Z</time></trkpt><trkpt lat="41.756202" lon="15.6951139"><ele>880.75</ele><time>2026-04-10T14:44:07.18Z</time></trkpt><trkpt lat="41.7562472" lon="15.695293"><ele>881.5</ele><time>2026-04-10T14:44:08.182Z</time></trkpt><trkpt lat="41.756292" lon="15.6954664"><ele>882.25</ele><time>2026-04-10T14:44:09.179Z</time></trkpt><trkpt lat="41.7563345" lon="15.6956314"><ele>883.0</ele><time>2026-04-10T14:44:10.178Z</time></trkpt><trkpt lat="41.7563841" lon="15.6957944"><ele>883.0</ele><time>2026-04-10T14:44:11.179Z</time></trkpt><trkpt lat="41.7564502" lon="15.6959471"><ele>883.0</ele><time>2026-04-10T14:44:12.179Z</time></trkpt><trkpt lat="41.7565356" lon="15.6960904"><ele>883.0</ele><time>2026-04-10T14:44:13.181Z</time></trkpt><trkpt lat="41.7566434" lon="15.6962223"><ele>883.0</ele><time>2026-04-10T14:44:14.181Z</time></trkpt><trkpt lat="41.7567727" lon="15.6963464"><ele>883.6666666666666</ele><time>2026-04-10T14:44:15.181Z</time></trkpt><trkpt lat="41.756928" lon="15.6964698"><ele>884.3333333333333</ele><time>2026-04-10T14:44:16.183Z</time></trkpt><trkpt lat="41.7570958" lon="15.6965969"><ele>885.0</ele><time>2026-04-10T14:44:17.178Z</time></trkpt><trkpt lat="41.7572611" lon="15.6967284"><ele>885.0</ele><time>2026-04-10T14:44:18.184Z</time></trkpt><trkpt lat="41.7574174" lon="15.6968557"><ele>885.0</ele><time>2026-04-10T14:44:19.178Z</time></trkpt><trkpt lat="41.757568" lon="15.6969803"><ele>885.0</ele><time>2026-04-10T14:44:20.182Z</time></trkpt><trkpt lat="41.7577108" lon="15.6971049"><ele>885.3333333333333</ele><time>2026-04-10T14:44:21.183Z</time></trkpt><trkpt lat="41.757849" lon="15.6972362"><ele>885.6666666666666</ele><time>2026-04-10T14:44:22.183Z</time></trkpt><trkpt lat="41.7579758" lon="15.6973888"><ele>886.0</ele><time>2026-04-10T14:44:23.177Z</time></trkpt><trkpt lat="41.7581096" lon="15.697563"><ele>886.0</ele><time>2026-04-10T14:44:24.177Z</time></trkpt><trkpt lat="41.7582479" lon="15.6977461"><ele>886.0</ele><time>2026-04-10T14:44:25.184Z</time></trkpt><trkpt lat="41.7583864" lon="15.697927"><ele>886.0</ele><time>2026-04-10T14:44:26.182Z</time></trkpt><trkpt lat="41.7585206" lon="15.6981129"><ele>886.0</ele><time>2026-04-10T14:44:27.18Z</time></trkpt><trkpt lat="41.7586484" lon="15.6982866"><ele>886.0</ele><time>2026-04-10T14:44:28.179Z</time></trkpt><trkpt lat="41.7587726" lon="15.6984441"><ele>886.0</ele><time>2026-04-10T14:44:29.181Z</time></trkpt><trkpt lat="41.7589024" lon="15.698581"><ele>886.3333333333333</ele><time>2026-04-10T14:44:30.179Z</time></trkpt><trkpt lat="41.7590312" lon="15.6986948"><ele>886.6666666666667</ele><time>2026-04-10T14:44:31.179Z</time></trkpt><trkpt lat="41.7591713" lon="15.6987861"><ele>887.0</ele><time>2026-04-10T14:44:32.18Z</time></trkpt><trkpt lat="41.7593266" lon="15.698865"><ele>887.6666666666667</ele><time>2026-04-10T14:44:33.179Z</time></trkpt><trkpt lat="41.7594873" lon="15.6989428"><ele>888.3333333333333</ele><time>2026-04-10T14:44:34.182Z</time></trkpt><trkpt lat="41.759644" lon="15.6990184"><ele>889.0</ele><time>2026-04-10T14:44:35.179Z</time></trkpt><trkpt lat="41.7597884" lon="15.6990927"><ele>889.0</ele><time>2026-04-10T14:44:36.181Z</time></trkpt><trkpt lat="41.7599214" lon="15.699163"><ele>889.0</ele><time>2026-04-10T14:44:37.185Z</time></trkpt><trkpt lat="41.7600427" lon="15.6992208"><ele>889.0</ele><time>2026-04-10T14:44:38.179Z</time></trkpt><trkpt lat="41.7601503" lon="15.699255"><ele>889.0</ele><time>2026-04-10T14:44:39.179Z</time></trkpt><trkpt lat="41.7602491" lon="15.6992584"><ele>888.2</ele><time>2026-04-10T14:44:40.179Z</time></trkpt><trkpt lat="41.7603414" lon="15.6992379"><ele>887.4000000000001</ele><time>2026-04-10T14:44:41.182Z</time></trkpt><trkpt lat="41.7604367" lon="15.6991912"><ele>886.6</ele><time>2026-04-10T14:44:42.18Z</time></trkpt><trkpt lat="41.7605408" lon="15.6991307"><ele>885.8</ele><time>2026-04-10T14:44:43.179Z</time></trkpt><trkpt lat="41.7606557" lon="15.6990631"><ele>885.0</ele><time>2026-04-10T14:44:44.178Z</time></trkpt><trkpt lat="41.7607828" lon="15.6989869"><ele>885.0</ele><time>2026-04-10T14:44:45.187Z</time></trkpt><trkpt lat="41.7609141" lon="15.6989118"><ele>885.0</ele><time>2026-04-10T14:44:46.178Z</time></trkpt><trkpt lat="41.7610434" lon="15.6988432"><ele>885.0</ele><time>2026-04-10T14:44:47.177Z</time></trkpt><trkpt lat="41.7611644" lon="15.6987794"><ele>885.0</ele><time>2026-04-10T14:44:48.177Z</time></trkpt><trkpt lat="41.7612758" lon="15.6987177"><ele>884.4</ele><time>2026-04-10T14:44:49.184Z</time></trkpt><trkpt lat="41.7613779" lon="15.6986667"><ele>883.8</ele><time>2026-04-10T14:44:50.179Z</time></trkpt><trkpt lat="41.7614773" lon="15.6986421"><ele>883.2</ele><time>2026-04-10T14:44:51.179Z</time></trkpt><trkpt lat="41.761567" lon="15.6986589"><ele>882.6</ele><time>2026-04-10T14:44:52.178Z</time></trkpt><trkpt lat="41.7616522" lon="15.6987056"><ele>882.0</ele><time>2026-04-10T14:44:53.18Z</time></trkpt><trkpt lat="41.7617138" lon="15.6987942"><ele>882.0</ele><time>2026-04-10T14:44:54.179Z</time></trkpt><trkpt lat="41.7617519" lon="15.6989095"><ele>882.0</ele><time>2026-04-10T14:44:55.185Z</time></trkpt><trkpt lat="41.76177" lon="15.6990458"><ele>882.0</ele><time>2026-04-10T14:44:56.182Z</time></trkpt><trkpt lat="41.7617768" lon="15.6992031"><ele>882.0</ele><time>2026-04-10T14:44:57.178Z</time></trkpt><trkpt lat="41.7617848" lon="15.6993676"><ele>882.0</ele><time>2026-04-10T14:44:58.18Z</time></trkpt><trkpt lat="41.7617969" lon="15.6995389"><ele>882.0</ele><time>2026-04-10T14:44:59.177Z</time></trkpt><trkpt lat="41.7618123" lon="15.6997121"><ele>882.0</ele><time>2026-04-10T14:45:00.178Z</time></trkpt><trkpt lat="41.761836" lon="15.6998852"><ele>882.0</ele><time>2026-04-10T14:45:01.179Z</time></trkpt><trkpt lat="41.7618737" lon="15.7000481"><ele>882.0</ele><time>2026-04-10T14:45:02.182Z</time></trkpt><trkpt lat="41.7619287" lon="15.700198"><ele>880.75</ele><time>2026-04-10T14:45:03.18Z</time></trkpt><trkpt lat="41.7619967" lon="15.7003371"><ele>879.5</ele><time>2026-04-10T14:45:04.179Z</time></trkpt><trkpt lat="41.7620752" lon="15.7004716"><ele>878.25</ele><time>2026-04-10T14:45:05.178Z</time></trkpt><trkpt lat="41.7621583" lon="15.7006058"><ele>877.0</ele><time>2026-04-10T14:45:06.178Z</time></trkpt><trkpt lat="41.7622321" lon="15.7007431"><ele>877.0</ele><time>2026-04-10T14:45:07.178Z</time></trkpt><trkpt lat="41.7622909" lon="15.7008896"><ele>877.0</ele><time>2026-04-10T14:45:08.182Z</time></trkpt><trkpt lat="41.7623261" lon="15.7010494"><ele>877.0</ele><time>2026-04-10T14:45:09.184Z</time></trkpt><trkpt lat="41.7623438" lon="15.7012209"><ele>877.0</ele><time>2026-04-10T14:45:10.181Z</time></trkpt><trkpt lat="41.7623451" lon="15.7014066"><ele>877.3333333333333</ele><time>2026-04-10T14:45:11.18Z</time></trkpt><trkpt lat="41.7623326" lon="15.701608"><ele>877.6666666666667</ele><time>2026-04-10T14:45:12.184Z</time></trkpt><trkpt lat="41.7623159" lon="15.7018318"><ele>878.0</ele><time>2026-04-10T14:45:13.18Z</time></trkpt><trkpt lat="41.7622986" lon="15.7020764"><ele>878.0</ele><time>2026-04-10T14:45:14.183Z</time></trkpt><trkpt lat="41.762281" lon="15.7023266"><ele>878.0</ele><time>2026-04-10T14:45:15.181Z</time></trkpt><trkpt lat="41.7622639" lon="15.7025741"><ele>878.0</ele><time>2026-04-10T14:45:16.18Z</time></trkpt><trkpt lat="41.7622484" lon="15.7028131"><ele>877.6666666666667</ele><time>2026-04-10T14:45:17.179Z</time></trkpt><trkpt lat="41.7622338" lon="15.7030376"><ele>877.3333333333333</ele><time>2026-04-10T14:45:18.178Z</time></trkpt><trkpt lat="41.7622203" lon="15.7032459"><ele>877.0</ele><time>2026-04-10T14:45:19.18Z</time></trkpt><trkpt lat="41.7622143" lon="15.7034357"><ele>875.5</ele><time>2026-04-10T14:45:20.18Z</time></trkpt><trkpt lat="41.7622266" lon="15.703604"><ele>874.0</ele><time>2026-04-10T14:45:21.182Z</time></trkpt><trkpt lat="41.7622644" lon="15.7037487"><ele>872.5</ele><time>2026-04-10T14:45:22.179Z</time></trkpt><trkpt lat="41.7623211" lon="15.703871"><ele>871.0</ele><time>2026-04-10T14:45:23.18Z</time></trkpt><trkpt lat="41.7624007" lon="15.7039684"><ele>871.0</ele><time>2026-04-10T14:45:24.178Z</time></trkpt><trkpt lat="41.7624988" lon="15.704042"><ele>871.0</ele><time>2026-04-10T14:45:25.18Z</time></trkpt><trkpt lat="41.762609" lon="15.7040941"><ele>871.0</ele><time>2026-04-10T14:45:26.18Z</time></trkpt><trkpt lat="41.7627272" lon="15.7041397"><ele>871.0</ele><time>2026-04-10T14:45:27.181Z</time></trkpt><trkpt lat="41.7628467" lon="15.7042017"><ele>871.25</ele><time>2026-04-10T14:45:28.178Z</time></trkpt><trkpt lat="41.76295" lon="15.704295"><ele>871.5</ele><time>2026-04-10T14:45:29.18Z</time></trkpt><trkpt lat="41.76304" lon="15.7044133"><ele>871.75</ele><time>2026-04-10T14:45:30.187Z</time></trkpt><trkpt lat="41.763105" lon="15.704545"><ele>872.0</ele><time>2026-04-10T14:45:31.181Z</time></trkpt><trkpt lat="41.7631533" lon="15.7046867"><ele>871.5</ele><time>2026-04-10T14:45:32.182Z</time></trkpt><trkpt lat="41.7631767" lon="15.7048383"><ele>871.0</ele><time>2026-04-10T14:45:33.181Z</time></trkpt><trkpt lat="41.7631717" lon="15.7049967"><ele>870.5</ele><time>2026-04-10T14:45:34.185Z</time></trkpt><trkpt lat="41.7631517" lon="15.7051667"><ele>870.0</ele><time>2026-04-10T14:45:35.182Z</time></trkpt><trkpt lat="41.7631117" lon="15.7053483"><ele>870.0</ele><time>2026-04-10T14:45:36.181Z</time></trkpt><trkpt lat="41.76306" lon="15.7055467"><ele>870.0</ele><time>2026-04-10T14:45:37.181Z</time></trkpt><trkpt lat="41.7630083" lon="15.70575"><ele>870.0</ele><time>2026-04-10T14:45:38.18Z</time></trkpt><trkpt lat="41.7629717" lon="15.7059667"><ele>870.3333333333333</ele><time>2026-04-10T14:45:39.181Z</time></trkpt><trkpt lat="41.7629567" lon="15.7062"><ele>870.6666666666666</ele><time>2026-04-10T14:45:40.183Z</time></trkpt><trkpt lat="41.7629533" lon="15.7064483"><ele>871.0</ele><time>2026-04-10T14:45:41.181Z</time></trkpt><trkpt lat="41.7629567" lon="15.7067133"><ele>871.6666666666666</ele><time>2026-04-10T14:45:42.18Z</time></trkpt><trkpt lat="41.7629583" lon="15.706985"><ele>872.3333333333333</ele><time>2026-04-10T14:45:43.181Z</time></trkpt><trkpt lat="41.762955" lon="15.707245"><ele>873.0</ele><time>2026-04-10T14:45:44.185Z</time></trkpt><trkpt lat="41.7629517" lon="15.70748"><ele>873.0</ele><time>2026-04-10T14:45:45.18Z</time></trkpt><trkpt lat="41.762955" lon="15.7076817"><ele>873.0</ele><time>2026-04-10T14:45:46.178Z</time></trkpt><trkpt lat="41.76297" lon="15.7078567"><ele>873.0</ele><time>2026-04-10T14:45:47.181Z</time></trkpt><trkpt lat="41.7630033" lon="15.708015"><ele>873.0</ele><time>2026-04-10T14:45:48.178Z</time></trkpt><trkpt lat="41.7630583" lon="15.708165"><ele>873.5</ele><time>2026-04-10T14:45:49.178Z</time></trkpt><trkpt lat="41.7631317" lon="15.7083067"><ele>874.0</ele><time>2026-04-10T14:45:50.182Z</time></trkpt><trkpt lat="41.7632233" lon="15.708445"><ele>874.5</ele><time>2026-04-10T14:45:51.181Z</time></trkpt><trkpt lat="41.76332" lon="15.7085917"><ele>875.0</ele><time>2026-04-10T14:45:52.181Z</time></trkpt><trkpt lat="41.76342" lon="15.7087467"><ele>875.0</ele><time>2026-04-10T14:45:53.179Z</time></trkpt><trkpt lat="41.76352" lon="15.7088967"><ele>875.0</ele><time>2026-04-10T14:45:54.178Z</time></trkpt><trkpt lat="41.7636067" lon="15.7090517"><ele>875.0</ele><time>2026-04-10T14:45:55.181Z</time></trkpt><trkpt lat="41.7636717" lon="15.709215"><ele>875.0</ele><time>2026-04-10T14:45:56.186Z</time></trkpt><trkpt lat="41.7637117" lon="15.7093883"><ele>874.0</ele><time>2026-04-10T14:45:57.178Z</time></trkpt><trkpt lat="41.7637383" lon="15.7095717"><ele>873.0</ele><time>2026-04-10T14:45:58.178Z</time></trkpt><trkpt lat="41.7637533" lon="15.7097633"><ele>872.0</ele><time>2026-04-10T14:45:59.18Z</time></trkpt><trkpt lat="41.76376" lon="15.7099617"><ele>871.0</ele><time>2026-04-10T14:46:00.181Z</time></trkpt><trkpt lat="41.7637633" lon="15.7101583"><ele>870.75</ele><time>2026-04-10T14:46:01.182Z</time></trkpt><trkpt lat="41.7637767" lon="15.710345"><ele>870.5</ele><time>2026-04-10T14:46:02.186Z</time></trkpt><trkpt lat="41.7638067" lon="15.710515"><ele>870.25</ele><time>2026-04-10T14:46:03.18Z</time></trkpt><trkpt lat="41.76386" lon="15.7106617"><ele>870.0</ele><time>2026-04-10T14:46:04.182Z</time></trkpt><trkpt lat="41.7639333" lon="15.71079"><ele>870.0</ele><time>2026-04-10T14:46:05.177Z</time></trkpt><trkpt lat="41.7640233" lon="15.710905"><ele>870.0</ele><time>2026-04-10T14:46:06.18Z</time></trkpt><trkpt lat="41.76413" lon="15.711015"><ele>870.0</ele><time>2026-04-10T14:46:07.177Z</time></trkpt><trkpt lat="41.7642517" lon="15.7111317"><ele>870.0</ele><time>2026-04-10T14:46:08.18Z</time></trkpt><trkpt lat="41.7643783" lon="15.711265"><ele>870.0</ele><time>2026-04-10T14:46:09.183Z</time></trkpt><trkpt lat="41.7645133" lon="15.7114183"><ele>870.0</ele><time>2026-04-10T14:46:10.179Z</time></trkpt><trkpt lat="41.76466" lon="15.7115783"><ele>870.0</ele><time>2026-04-10T14:46:11.184Z</time></trkpt><trkpt lat="41.764805" lon="15.7117417"><ele>870.0</ele><time>2026-04-10T14:46:12.182Z</time></trkpt><trkpt lat="41.7649417" lon="15.71189"><ele>870.0</ele><time>2026-04-10T14:46:13.181Z</time></trkpt><trkpt lat="41.7650633" lon="15.712015"><ele>870.0</ele><time>2026-04-10T14:46:14.178Z</time></trkpt><trkpt lat="41.7651717" lon="15.7120983"><ele>870.75</ele><time>2026-04-10T14:46:15.179Z</time></trkpt><trkpt lat="41.7652833" lon="15.7121483"><ele>871.5</ele><time>2026-04-10T14:46:16.179Z</time></trkpt><trkpt lat="41.7654" lon="15.71217"><ele>872.25</ele><time>2026-04-10T14:46:17.177Z</time></trkpt><trkpt lat="41.7655167" lon="15.71216"><ele>873.0</ele><time>2026-04-10T14:46:18.181Z</time></trkpt><trkpt lat="41.765645" lon="15.7121283"><ele>873.0</ele><time>2026-04-10T14:46:19.178Z</time></trkpt><trkpt lat="41.7657833" lon="15.712085"><ele>873.0</ele><time>2026-04-10T14:46:20.184Z</time></trkpt><trkpt lat="41.7659283" lon="15.7120433"><ele>873.0</ele><time>2026-04-10T14:46:21.18Z</time></trkpt><trkpt lat="41.76608" lon="15.7119983"><ele>873.0</ele><time>2026-04-10T14:46:22.18Z</time></trkpt><trkpt lat="41.766235" lon="15.7119483"><ele>873.6666666666667</ele><time>2026-04-10T14:46:23.18Z</time></trkpt><trkpt lat="41.7663917" lon="15.7118933"><ele>874.3333333333334</ele><time>2026-04-10T14:46:24.179Z</time></trkpt><trkpt lat="41.766545" lon="15.7118433"><ele>875.0</ele><time>2026-04-10T14:46:25.178Z</time></trkpt><trkpt lat="41.76669" lon="15.7118033"><ele>875.0</ele><time>2026-04-10T14:46:26.179Z</time></trkpt><trkpt lat="41.76683" lon="15.7117717"><ele>875.0</ele><time>2026-04-10T14:46:27.179Z</time></trkpt><trkpt lat="41.7669583" lon="15.7117617"><ele>875.0</ele><time>2026-04-10T14:46:28.181Z</time></trkpt><trkpt lat="41.7670733" lon="15.7117783"><ele>875.0</ele><time>2026-04-10T14:46:29.179Z</time></trkpt><trkpt lat="41.7671767" lon="15.711825"><ele>874.4</ele><time>2026-04-10T14:46:30.184Z</time></trkpt><trkpt lat="41.767265" lon="15.7118933"><ele>873.8</ele><time>2026-04-10T14:46:31.178Z</time></trkpt><trkpt lat="41.7673417" lon="15.711995"><ele>873.2</ele><time>2026-04-10T14:46:32.179Z</time></trkpt><trkpt lat="41.7674" lon="15.7121167"><ele>872.6</ele><time>2026-04-10T14:46:33.178Z</time></trkpt><trkpt lat="41.7674417" lon="15.7122483"><ele>872.0</ele><time>2026-04-10T14:46:34.177Z</time></trkpt><trkpt lat="41.7674483" lon="15.71239"><ele>872.0</ele><time>2026-04-10T14:46:35.19Z</time></trkpt><trkpt lat="41.767445" lon="15.7125417"><ele>872.0</ele><time>2026-04-10T14:46:36.178Z</time></trkpt><trkpt lat="41.7674367" lon="15.712705"><ele>872.0</ele><time>2026-04-10T14:46:37.18Z</time></trkpt><trkpt lat="41.7674267" lon="15.71288"><ele>872.0</ele><time>2026-04-10T14:46:38.177Z</time></trkpt><trkpt lat="41.7674233" lon="15.713065"><ele>871.75</ele><time>2026-04-10T14:46:39.178Z</time></trkpt><trkpt lat="41.7674183" lon="15.7132533"><ele>871.5</ele><time>2026-04-10T14:46:40.177Z</time></trkpt><trkpt lat="41.7674117" lon="15.713445"><ele>871.25</ele><time>2026-04-10T14:46:41.179Z</time></trkpt><trkpt lat="41.7673933" lon="15.7136367"><ele>871.0</ele><time>2026-04-10T14:46:42.18Z</time></trkpt><trkpt lat="41.76736" lon="15.71383"><ele>868.3333333333333</ele><time>2026-04-10T14:46:43.179Z</time></trkpt><trkpt lat="41.7673167" lon="15.7140233"><ele>865.6666666666667</ele><time>2026-04-10T14:46:44.183Z</time></trkpt><trkpt lat="41.7672683" lon="15.714215"><ele>863.0</ele><time>2026-04-10T14:46:45.178Z</time></trkpt><trkpt lat="41.7672283" lon="15.7144067"><ele>861.0</ele><time>2026-04-10T14:46:46.178Z</time></trkpt><trkpt lat="41.767195" lon="15.7146017"><ele>859.0</ele><time>2026-04-10T14:46:47.178Z</time></trkpt><trkpt lat="41.7671683" lon="15.71481"><ele>857.0</ele><time>2026-04-10T14:46:48.18Z</time></trkpt><trkpt lat="41.7671417" lon="15.715025"><ele>855.0</ele><time>2026-04-10T14:46:49.182Z</time></trkpt><trkpt lat="41.7671183" lon="15.7152383"><ele>853.0</ele><time>2026-04-10T14:46:50.181Z</time></trkpt><trkpt lat="41.7670933" lon="15.7154483"><ele>851.0</ele><time>2026-04-10T14:46:51.18Z</time></trkpt><trkpt lat="41.767065" lon="15.7156583"><ele>851.0</ele><time>2026-04-10T14:46:52.176Z</time></trkpt><trkpt lat="41.767035" lon="15.715865"><ele>851.0</ele><time>2026-04-10T14:46:53.178Z</time></trkpt><trkpt lat="41.7669933" lon="15.71606"><ele>851.0</ele><time>2026-04-10T14:46:54.178Z</time></trkpt><trkpt lat="41.7669333" lon="15.7162367"><ele>852.25</ele><time>2026-04-10T14:46:55.18Z</time></trkpt><trkpt lat="41.76685" lon="15.7163917"><ele>853.5</ele><time>2026-04-10T14:46:56.18Z</time></trkpt><trkpt lat="41.7667583" lon="15.716535"><ele>854.75</ele><time>2026-04-10T14:46:57.179Z</time></trkpt><trkpt lat="41.7666717" lon="15.71667"><ele>856.0</ele><time>2026-04-10T14:46:58.18Z</time></trkpt><trkpt lat="41.7666017" lon="15.7168083"><ele>853.25</ele><time>2026-04-10T14:46:59.18Z</time></trkpt><trkpt lat="41.7665483" lon="15.7169583"><ele>850.5</ele><time>2026-04-10T14:47:00.18Z</time></trkpt><trkpt lat="41.7665067" lon="15.7171267"><ele>847.75</ele><time>2026-04-10T14:47:01.18Z</time></trkpt><trkpt lat="41.766475" lon="15.717315"><ele>845.0</ele><time>2026-04-10T14:47:02.184Z</time></trkpt><trkpt lat="41.7664383" lon="15.7175117"><ele>845.0</ele><time>2026-04-10T14:47:03.182Z</time></trkpt><trkpt lat="41.7663917" lon="15.7177017"><ele>845.0</ele><time>2026-04-10T14:47:04.179Z</time></trkpt><trkpt lat="41.76633" lon="15.7178767"><ele>845.0</ele><time>2026-04-10T14:47:05.183Z</time></trkpt><trkpt lat="41.7662483" lon="15.71803"><ele>845.0</ele><time>2026-04-10T14:47:06.18Z</time></trkpt><trkpt lat="41.7661567" lon="15.7181683"><ele>846.25</ele><time>2026-04-10T14:47:07.183Z</time></trkpt><trkpt lat="41.7660567" lon="15.7182983"><ele>847.5</ele><time>2026-04-10T14:47:08.178Z</time></trkpt><trkpt lat="41.7659583" lon="15.7184283"><ele>848.75</ele><time>2026-04-10T14:47:09.179Z</time></trkpt><trkpt lat="41.76586" lon="15.71855"><ele>850.0</ele><time>2026-04-10T14:47:10.18Z</time></trkpt><trkpt lat="41.765785" lon="15.718665"><ele>847.6</ele><time>2026-04-10T14:47:11.18Z</time></trkpt><trkpt lat="41.7657383" lon="15.718785"><ele>845.2</ele><time>2026-04-10T14:47:12.183Z</time></trkpt><trkpt lat="41.7657133" lon="15.71891"><ele>842.8</ele><time>2026-04-10T14:47:13.181Z</time></trkpt><trkpt lat="41.76572" lon="15.7190467"><ele>840.4</ele><time>2026-04-10T14:47:14.181Z</time></trkpt><trkpt lat="41.7657367" lon="15.7191933"><ele>838.0</ele><time>2026-04-10T14:47:15.178Z</time></trkpt><trkpt lat="41.7657417" lon="15.7193567"><ele>834.5</ele><time>2026-04-10T14:47:16.178Z</time></trkpt><trkpt lat="41.7657283" lon="15.7195233"><ele>831.0</ele><time>2026-04-10T14:47:17.181Z</time></trkpt><trkpt lat="41.76569" lon="15.7196933"><ele>827.5</ele><time>2026-04-10T14:47:18.183Z</time></trkpt><trkpt lat="41.76562" lon="15.7198517"><ele>824.0</ele><time>2026-04-10T14:47:19.18Z</time></trkpt><trkpt lat="41.7655267" lon="15.7199983"><ele>824.0</ele><time>2026-04-10T14:47:20.185Z</time></trkpt><trkpt lat="41.7654233" lon="15.7201333"><ele>824.0</ele><time>2026-04-10T14:47:21.181Z</time></trkpt><trkpt lat="41.7653167" lon="15.7202567"><ele>824.0</ele><time>2026-04-10T14:47:22.181Z</time></trkpt><trkpt lat="41.7652033" lon="15.720375"><ele>824.0</ele><time>2026-04-10T14:47:23.182Z</time></trkpt><trkpt lat="41.76509" lon="15.7204917"><ele>824.5</ele><time>2026-04-10T14:47:24.178Z</time></trkpt><trkpt lat="41.7649717" lon="15.720595"><ele>825.0</ele><time>2026-04-10T14:47:25.185Z</time></trkpt><trkpt lat="41.764855" lon="15.72068"><ele>825.5</ele><time>2026-04-10T14:47:26.179Z</time></trkpt><trkpt lat="41.7647517" lon="15.7207483"><ele>826.0</ele><time>2026-04-10T14:47:27.181Z</time></trkpt><trkpt lat="41.7646683" lon="15.720825"><ele>825.9999999999999</ele><time>2026-04-10T14:47:28.179Z</time></trkpt><trkpt lat="41.7646067" lon="15.72091"><ele>826.0</ele><time>2026-04-10T14:47:29.179Z</time></trkpt><trkpt lat="41.76456" lon="15.720995"><ele>826.0</ele><time>2026-04-10T14:47:30.181Z</time></trkpt><trkpt lat="41.7645367" lon="15.7210817"><ele>826.0</ele><time>2026-04-10T14:47:31.181Z</time></trkpt><trkpt lat="41.7645583" lon="15.7211717"><ele>825.9999999999999</ele><time>2026-04-10T14:47:32.18Z</time></trkpt><trkpt lat="41.7645867" lon="15.7212567"><ele>826.0</ele><time>2026-04-10T14:47:33.182Z</time></trkpt><trkpt lat="41.7646383" lon="15.7213333"><ele>826.8</ele><time>2026-04-10T14:47:34.177Z</time></trkpt><trkpt lat="41.7647083" lon="15.7213783"><ele>827.5999999999999</ele><time>2026-04-10T14:47:35.178Z</time></trkpt><trkpt lat="41.7647817" lon="15.7214017"><ele>828.4</ele><time>2026-04-10T14:47:36.18Z</time></trkpt><trkpt lat="41.7648767" lon="15.7213933"><ele>829.2</ele><time>2026-04-10T14:47:37.179Z</time></trkpt><trkpt lat="41.7649867" lon="15.7213567"><ele>830.0</ele><time>2026-04-10T14:47:38.183Z</time></trkpt><trkpt lat="41.7651083" lon="15.72128"><ele>830.6666666666667</ele><time>2026-04-10T14:47:39.182Z</time></trkpt><trkpt lat="41.7652383" lon="15.7212017"><ele>831.3333333333333</ele><time>2026-04-10T14:47:40.187Z</time></trkpt><trkpt lat="41.7653833" lon="15.7211067"><ele>832.0</ele><time>2026-04-10T14:47:41.181Z</time></trkpt><trkpt lat="41.7655517" lon="15.7210017"><ele>827.3333333333333</ele><time>2026-04-10T14:47:42.178Z</time></trkpt><trkpt lat="41.7657383" lon="15.720895"><ele>822.6666666666667</ele><time>2026-04-10T14:47:43.186Z</time></trkpt><trkpt lat="41.76593" lon="15.7207917"><ele>818.0</ele><time>2026-04-10T14:47:44.183Z</time></trkpt><trkpt lat="41.7661233" lon="15.7206967"><ele>817.0</ele><time>2026-04-10T14:47:45.182Z</time></trkpt><trkpt lat="41.7663117" lon="15.7206133"><ele>816.0</ele><time>2026-04-10T14:47:46.18Z</time></trkpt><trkpt lat="41.7664933" lon="15.7205367"><ele>815.0</ele><time>2026-04-10T14:47:47.181Z</time></trkpt><trkpt lat="41.76667" lon="15.72046"><ele>815.0</ele><time>2026-04-10T14:47:48.183Z</time></trkpt><trkpt lat="41.7668533" lon="15.7204033"><ele>815.0</ele><time>2026-04-10T14:47:49.18Z</time></trkpt><trkpt lat="41.7670417" lon="15.7203617"><ele>815.0</ele><time>2026-04-10T14:47:50.181Z</time></trkpt><trkpt lat="41.7672317" lon="15.7203333"><ele>814.0</ele><time>2026-04-10T14:47:51.18Z</time></trkpt><trkpt lat="41.7674233" lon="15.72032"><ele>813.0</ele><time>2026-04-10T14:47:52.183Z</time></trkpt><trkpt lat="41.76761" lon="15.7203067"><ele>812.0</ele><time>2026-04-10T14:47:53.18Z</time></trkpt><trkpt lat="41.7677933" lon="15.7203033"><ele>809.3333333333334</ele><time>2026-04-10T14:47:54.18Z</time></trkpt><trkpt lat="41.76797" lon="15.720315"><ele>806.6666666666667</ele><time>2026-04-10T14:47:55.18Z</time></trkpt><trkpt lat="41.7681433" lon="15.720335"><ele>804.0</ele><time>2026-04-10T14:47:56.177Z</time></trkpt><trkpt lat="41.76832" lon="15.7203583"><ele>804.0</ele><time>2026-04-10T14:47:57.177Z</time></trkpt><trkpt lat="41.7685" lon="15.7203767"><ele>804.0</ele><time>2026-04-10T14:47:58.18Z</time></trkpt><trkpt lat="41.76868" lon="15.7203967"><ele>804.0</ele><time>2026-04-10T14:47:59.181Z</time></trkpt><trkpt lat="41.7688567" lon="15.7204167"><ele>800.3333333333333</ele><time>2026-04-10T14:48:00.178Z</time></trkpt><trkpt lat="41.7690333" lon="15.7204383"><ele>796.6666666666666</ele><time>2026-04-10T14:48:01.18Z</time></trkpt><trkpt lat="41.7692067" lon="15.7204717"><ele>793.0</ele><time>2026-04-10T14:48:02.179Z</time></trkpt><trkpt lat="41.7693767" lon="15.7205117"><ele>790.0</ele><time>2026-04-10T14:48:03.181Z</time></trkpt><trkpt lat="41.7695417" lon="15.7205633"><ele>787.0</ele><time>2026-04-10T14:48:04.179Z</time></trkpt><trkpt lat="41.7697" lon="15.72061"><ele>784.0</ele><time>2026-04-10T14:48:05.181Z</time></trkpt><trkpt lat="41.769855" lon="15.7206567"><ele>784.0</ele><time>2026-04-10T14:48:06.177Z</time></trkpt><trkpt lat="41.7700067" lon="15.7207017"><ele>784.0</ele><time>2026-04-10T14:48:07.18Z</time></trkpt><trkpt lat="41.7701583" lon="15.7207417"><ele>784.0</ele><time>2026-04-10T14:48:08.179Z</time></trkpt><trkpt lat="41.7703067" lon="15.7207817"><ele>782.25</ele><time>2026-04-10T14:48:09.181Z</time></trkpt><trkpt lat="41.7704483" lon="15.7208233"><ele>780.5</ele><time>2026-04-10T14:48:10.178Z</time></trkpt><trkpt lat="41.77058" lon="15.72086"><ele>778.75</ele><time>2026-04-10T14:48:11.179Z</time></trkpt><trkpt lat="41.7706983" lon="15.72088"><ele>777.0</ele><time>2026-04-10T14:48:12.179Z</time></trkpt><trkpt lat="41.7708067" lon="15.72088"><ele>777.0</ele><time>2026-04-10T14:48:13.18Z</time></trkpt><trkpt lat="41.7709117" lon="15.72085"><ele>777.0</ele><time>2026-04-10T14:48:14.18Z</time></trkpt><trkpt lat="41.7710083" lon="15.7207883"><ele>777.0</ele><time>2026-04-10T14:48:15.184Z</time></trkpt><trkpt lat="41.7711033" lon="15.7206867"><ele>777.0</ele><time>2026-04-10T14:48:16.183Z</time></trkpt><trkpt lat="41.7712067" lon="15.720565"><ele>774.0</ele><time>2026-04-10T14:48:17.179Z</time></trkpt><trkpt lat="41.7713183" lon="15.72043"><ele>771.0</ele><time>2026-04-10T14:48:18.181Z</time></trkpt><trkpt lat="41.771435" lon="15.7202833"><ele>768.0</ele><time>2026-04-10T14:48:19.186Z</time></trkpt><trkpt lat="41.7715483" lon="15.72014"><ele>768.0</ele><time>2026-04-10T14:48:20.183Z</time></trkpt><trkpt lat="41.7716617" lon="15.720005"><ele>768.0</ele><time>2026-04-10T14:48:21.184Z</time></trkpt><trkpt lat="41.77177" lon="15.7198933"><ele>768.0</ele><time>2026-04-10T14:48:22.183Z</time></trkpt><trkpt lat="41.77187" lon="15.71982"><ele>768.0</ele><time>2026-04-10T14:48:23.192Z</time></trkpt><trkpt lat="41.77197" lon="15.7197833"><ele>766.0</ele><time>2026-04-10T14:48:24.18Z</time></trkpt><trkpt lat="41.7720667" lon="15.71978"><ele>764.0</ele><time>2026-04-10T14:48:25.177Z</time></trkpt><trkpt lat="41.7721617" lon="15.71981"><ele>762.0</ele><time>2026-04-10T14:48:26.178Z</time></trkpt><trkpt lat="41.772255" lon="15.7198683"><ele>760.0</ele><time>2026-04-10T14:48:27.178Z</time></trkpt><trkpt lat="41.7723467" lon="15.7199467"><ele>758.0</ele><time>2026-04-10T14:48:28.18Z</time></trkpt><trkpt lat="41.7724417" lon="15.7200417"><ele>758.0</ele><time>2026-04-10T14:48:29.177Z</time></trkpt><trkpt lat="41.7725433" lon="15.7201533"><ele>758.0</ele><time>2026-04-10T14:48:30.179Z</time></trkpt><trkpt lat="41.7726533" lon="15.7202733"><ele>758.0</ele><time>2026-04-10T14:48:31.181Z</time></trkpt><trkpt lat="41.7727633" lon="15.720385"><ele>758.0</ele><time>2026-04-10T14:48:32.178Z</time></trkpt><trkpt lat="41.772865" lon="15.72049"><ele>757.0</ele><time>2026-04-10T14:48:33.18Z</time></trkpt><trkpt lat="41.7729567" lon="15.7206"><ele>756.0</ele><time>2026-04-10T14:48:34.179Z</time></trkpt><trkpt lat="41.7730333" lon="15.720715"><ele>755.0</ele><time>2026-04-10T14:48:35.18Z</time></trkpt><trkpt lat="41.7731" lon="15.7208317"><ele>754.0</ele><time>2026-04-10T14:48:36.179Z</time></trkpt><trkpt lat="41.77315" lon="15.7209533"><ele>753.8000000000001</ele><time>2026-04-10T14:48:37.177Z</time></trkpt><trkpt lat="41.7731883" lon="15.7210833"><ele>753.6</ele><time>2026-04-10T14:48:38.178Z</time></trkpt><trkpt lat="41.773215" lon="15.7212233"><ele>753.4</ele><time>2026-04-10T14:48:39.18Z</time></trkpt><trkpt lat="41.7732433" lon="15.7213717"><ele>753.2</ele><time>2026-04-10T14:48:40.178Z</time></trkpt><trkpt lat="41.7732717" lon="15.7215283"><ele>753.0</ele><time>2026-04-10T14:48:41.181Z</time></trkpt><trkpt lat="41.7733017" lon="15.721695"><ele>753.0</ele><time>2026-04-10T14:48:42.182Z</time></trkpt><trkpt lat="41.77334" lon="15.7218783"><ele>753.0</ele><time>2026-04-10T14:48:43.177Z</time></trkpt><trkpt lat="41.7733783" lon="15.7220867"><ele>753.0</ele><time>2026-04-10T14:48:44.187Z</time></trkpt><trkpt lat="41.7734233" lon="15.7223017"><ele>752.6666666666666</ele><time>2026-04-10T14:48:45.179Z</time></trkpt><trkpt lat="41.773465" lon="15.72251"><ele>752.3333333333333</ele><time>2026-04-10T14:48:46.182Z</time></trkpt><trkpt lat="41.7735017" lon="15.7227133"><ele>752.0</ele><time>2026-04-10T14:48:47.183Z</time></trkpt><trkpt lat="41.7735417" lon="15.7229233"><ele>749.6666666666666</ele><time>2026-04-10T14:48:48.18Z</time></trkpt><trkpt lat="41.7735867" lon="15.7231283"><ele>747.3333333333334</ele><time>2026-04-10T14:48:49.181Z</time></trkpt><trkpt lat="41.7736233" lon="15.7233217"><ele>745.0</ele><time>2026-04-10T14:48:50.185Z</time></trkpt><trkpt lat="41.7736483" lon="15.7235133"><ele>744.75</ele><time>2026-04-10T14:48:51.181Z</time></trkpt><trkpt lat="41.7736533" lon="15.7237"><ele>744.5</ele><time>2026-04-10T14:48:52.18Z</time></trkpt><trkpt lat="41.7736433" lon="15.7238833"><ele>744.25</ele><time>2026-04-10T14:48:53.18Z</time></trkpt><trkpt lat="41.7736183" lon="15.72407"><ele>744.0</ele><time>2026-04-10T14:48:54.179Z</time></trkpt><trkpt lat="41.7735717" lon="15.7242733"><ele>742.6666666666666</ele><time>2026-04-10T14:48:55.181Z</time></trkpt><trkpt lat="41.7735083" lon="15.724495"><ele>741.3333333333333</ele><time>2026-04-10T14:48:56.181Z</time></trkpt><trkpt lat="41.77344" lon="15.72472"><ele>740.0</ele><time>2026-04-10T14:48:57.181Z</time></trkpt><trkpt lat="41.7733683" lon="15.724935"><ele>740.0</ele><time>2026-04-10T14:48:58.177Z</time></trkpt><trkpt lat="41.7733017" lon="15.7251417"><ele>740.0</ele><time>2026-04-10T14:48:59.18Z</time></trkpt><trkpt lat="41.7732333" lon="15.72534"><ele>740.0</ele><time>2026-04-10T14:49:00.178Z</time></trkpt><trkpt lat="41.7731633" lon="15.725525"><ele>739.0</ele><time>2026-04-10T14:49:01.186Z</time></trkpt><trkpt lat="41.77308" lon="15.725685"><ele>738.0</ele><time>2026-04-10T14:49:02.188Z</time></trkpt><trkpt lat="41.772985" lon="15.725825"><ele>737.0</ele><time>2026-04-10T14:49:03.183Z</time></trkpt><trkpt lat="41.7728783" lon="15.7259417"><ele>736.0</ele><time>2026-04-10T14:49:04.181Z</time></trkpt><trkpt lat="41.7727583" lon="15.726045"><ele>735.3333333333334</ele><time>2026-04-10T14:49:05.184Z</time></trkpt><trkpt lat="41.772625" lon="15.7261483"><ele>734.6666666666666</ele><time>2026-04-10T14:49:06.179Z</time></trkpt><trkpt lat="41.7724783" lon="15.7262617"><ele>734.0</ele><time>2026-04-10T14:49:07.179Z</time></trkpt><trkpt lat="41.772325" lon="15.7263783"><ele>734.0</ele><time>2026-04-10T14:49:08.181Z</time></trkpt><trkpt lat="41.7721733" lon="15.7264883"><ele>734.0</ele><time>2026-04-10T14:49:09.179Z</time></trkpt><trkpt lat="41.7720317" lon="15.72659"><ele>734.0</ele><time>2026-04-10T14:49:10.18Z</time></trkpt><trkpt lat="41.7718933" lon="15.7266817"><ele>734.5</ele><time>2026-04-10T14:49:11.178Z</time></trkpt><trkpt lat="41.77176" lon="15.7267567"><ele>735.0</ele><time>2026-04-10T14:49:12.179Z</time></trkpt><trkpt lat="41.771635" lon="15.72682"><ele>735.5</ele><time>2026-04-10T14:49:13.176Z</time></trkpt><trkpt lat="41.7715233" lon="15.7268867"><ele>736.0</ele><time>2026-04-10T14:49:14.178Z</time></trkpt><trkpt lat="41.771425" lon="15.726955"><ele>735.0</ele><time>2026-04-10T14:49:15.181Z</time></trkpt><trkpt lat="41.7713483" lon="15.7270517"><ele>734.0</ele><time>2026-04-10T14:49:16.179Z</time></trkpt><trkpt lat="41.771285" lon="15.7271633"><ele>733.0</ele><time>2026-04-10T14:49:17.181Z</time></trkpt><trkpt lat="41.7712267" lon="15.7272883"><ele>732.0</ele><time>2026-04-10T14:49:18.181Z</time></trkpt><trkpt lat="41.77118" lon="15.7274283"><ele>731.0</ele><time>2026-04-10T14:49:19.182Z</time></trkpt><trkpt lat="41.7711533" lon="15.72759"><ele>730.25</ele><time>2026-04-10T14:49:20.182Z</time></trkpt><trkpt lat="41.771145" lon="15.7277583"><ele>729.5</ele><time>2026-04-10T14:49:21.178Z</time></trkpt><trkpt lat="41.7711533" lon="15.7279283"><ele>728.75</ele><time>2026-04-10T14:49:22.179Z</time></trkpt><trkpt lat="41.7711767" lon="15.7281067"><ele>728.0</ele><time>2026-04-10T14:49:23.179Z</time></trkpt><trkpt lat="41.7712033" lon="15.7282917"><ele>728.0</ele><time>2026-04-10T14:49:24.181Z</time></trkpt><trkpt lat="41.7712317" lon="15.7284867"><ele>728.0</ele><time>2026-04-10T14:49:25.179Z</time></trkpt><trkpt lat="41.771255" lon="15.7286817"><ele>728.0</ele><time>2026-04-10T14:49:26.18Z</time></trkpt><trkpt lat="41.7712767" lon="15.7288683"><ele>728.0</ele><time>2026-04-10T14:49:27.181Z</time></trkpt><trkpt lat="41.7713" lon="15.7290417"><ele>727.8</ele><time>2026-04-10T14:49:28.178Z</time></trkpt><trkpt lat="41.7713217" lon="15.7292017"><ele>727.5999999999999</ele><time>2026-04-10T14:49:29.179Z</time></trkpt><trkpt lat="41.77134" lon="15.7293483"><ele>727.4000000000001</ele><time>2026-04-10T14:49:30.179Z</time></trkpt><trkpt lat="41.771365" lon="15.72949"><ele>727.2</ele><time>2026-04-10T14:49:31.181Z</time></trkpt><trkpt lat="41.771385" lon="15.7296283"><ele>727.0</ele><time>2026-04-10T14:49:32.18Z</time></trkpt><trkpt lat="41.7714017" lon="15.729765"><ele>726.4000000000001</ele><time>2026-04-10T14:49:33.179Z</time></trkpt><trkpt lat="41.7714217" lon="15.7298983"><ele>725.8000000000001</ele><time>2026-04-10T14:49:34.182Z</time></trkpt><trkpt lat="41.7714383" lon="15.7300367"><ele>725.2</ele><time>2026-04-10T14:49:35.179Z</time></trkpt><trkpt lat="41.7714517" lon="15.7301783"><ele>724.6</ele><time>2026-04-10T14:49:36.187Z</time></trkpt><trkpt lat="41.771465" lon="15.730325"><ele>724.0</ele><time>2026-04-10T14:49:37.18Z</time></trkpt><trkpt lat="41.771475" lon="15.7304833"><ele>723.25</ele><time>2026-04-10T14:49:38.183Z</time></trkpt><trkpt lat="41.7714833" lon="15.730655"><ele>722.5</ele><time>2026-04-10T14:49:39.179Z</time></trkpt><trkpt lat="41.7714917" lon="15.73083"><ele>721.75</ele><time>2026-04-10T14:49:40.177Z</time></trkpt><trkpt lat="41.7714883" lon="15.7310083"><ele>721.0</ele><time>2026-04-10T14:49:41.18Z</time></trkpt><trkpt lat="41.7714767" lon="15.7311883"><ele>720.25</ele><time>2026-04-10T14:49:42.183Z</time></trkpt><trkpt lat="41.77146" lon="15.7313767"><ele>719.5</ele><time>2026-04-10T14:49:43.184Z</time></trkpt><trkpt lat="41.77144" lon="15.7315733"><ele>718.75</ele><time>2026-04-10T14:49:44.179Z</time></trkpt><trkpt lat="41.7714233" lon="15.7317767"><ele>718.0</ele><time>2026-04-10T14:49:45.177Z</time></trkpt><trkpt lat="41.7714033" lon="15.73198"><ele>716.3333333333334</ele><time>2026-04-10T14:49:46.179Z</time></trkpt><trkpt lat="41.771385" lon="15.732185"><ele>714.6666666666666</ele><time>2026-04-10T14:49:47.18Z</time></trkpt><trkpt lat="41.7713667" lon="15.73239"><ele>713.0</ele><time>2026-04-10T14:49:48.184Z</time></trkpt><trkpt lat="41.7713467" lon="15.7325983"><ele>711.6666666666666</ele><time>2026-04-10T14:49:49.178Z</time></trkpt><trkpt lat="41.7713283" lon="15.7328083"><ele>710.3333333333334</ele><time>2026-04-10T14:49:50.178Z</time></trkpt><trkpt lat="41.7713117" lon="15.7330217"><ele>709.0</ele><time>2026-04-10T14:49:51.179Z</time></trkpt><trkpt lat="41.7712917" lon="15.7332383"><ele>709.0</ele><time>2026-04-10T14:49:52.184Z</time></trkpt><trkpt lat="41.771275" lon="15.7334617"><ele>709.0</ele><time>2026-04-10T14:49:53.184Z</time></trkpt><trkpt lat="41.7712583" lon="15.7336883"><ele>709.0</ele><time>2026-04-10T14:49:54.181Z</time></trkpt><trkpt lat="41.7712433" lon="15.7339183"><ele>707.3333333333334</ele><time>2026-04-10T14:49:55.18Z</time></trkpt><trkpt lat="41.7712267" lon="15.7341483"><ele>705.6666666666666</ele><time>2026-04-10T14:49:56.183Z</time></trkpt><trkpt lat="41.771205" lon="15.7343783"><ele>704.0</ele><time>2026-04-10T14:49:57.177Z</time></trkpt><trkpt lat="41.7711817" lon="15.73461"><ele>702.6666666666666</ele><time>2026-04-10T14:49:58.177Z</time></trkpt><trkpt lat="41.77116" lon="15.7348433"><ele>701.3333333333334</ele><time>2026-04-10T14:49:59.18Z</time></trkpt><trkpt lat="41.77114" lon="15.7350783"><ele>700.0</ele><time>2026-04-10T14:50:00.179Z</time></trkpt><trkpt lat="41.77112" lon="15.7353133"><ele>698.6666666666667</ele><time>2026-04-10T14:50:01.178Z</time></trkpt><trkpt lat="41.7711" lon="15.7355517"><ele>697.3333333333334</ele><time>2026-04-10T14:50:02.188Z</time></trkpt><trkpt lat="41.7710817" lon="15.7357917"><ele>696.0</ele><time>2026-04-10T14:50:03.181Z</time></trkpt><trkpt lat="41.77106" lon="15.73603"><ele>696.0</ele><time>2026-04-10T14:50:04.178Z</time></trkpt><trkpt lat="41.7710367" lon="15.7362667"><ele>696.0</ele><time>2026-04-10T14:50:05.179Z</time></trkpt><trkpt lat="41.7710133" lon="15.7364983"><ele>696.0</ele><time>2026-04-10T14:50:06.179Z</time></trkpt><trkpt lat="41.7709917" lon="15.7367317"><ele>694.3333333333334</ele><time>2026-04-10T14:50:07.181Z</time></trkpt><trkpt lat="41.77097" lon="15.7369667"><ele>692.6666666666667</ele><time>2026-04-10T14:50:08.182Z</time></trkpt><trkpt lat="41.77095" lon="15.7371967"><ele>691.0</ele><time>2026-04-10T14:50:09.178Z</time></trkpt><trkpt lat="41.7709333" lon="15.7374183"><ele>691.0</ele><time>2026-04-10T14:50:10.18Z</time></trkpt><trkpt lat="41.7709183" lon="15.737625"><ele>691.0</ele><time>2026-04-10T14:50:11.18Z</time></trkpt><trkpt lat="41.770905" lon="15.7378167"><ele>691.0</ele><time>2026-04-10T14:50:12.186Z</time></trkpt><trkpt lat="41.7708933" lon="15.7379967"><ele>691.0</ele><time>2026-04-10T14:50:13.181Z</time></trkpt><trkpt lat="41.77088" lon="15.73817"><ele>690.5</ele><time>2026-04-10T14:50:14.193Z</time></trkpt><trkpt lat="41.7708683" lon="15.7383383"><ele>690.0</ele><time>2026-04-10T14:50:15.177Z</time></trkpt><trkpt lat="41.7708567" lon="15.7385"><ele>689.5</ele><time>2026-04-10T14:50:16.176Z</time></trkpt><trkpt lat="41.7708433" lon="15.7386567"><ele>689.0</ele><time>2026-04-10T14:50:17.18Z</time></trkpt><trkpt lat="41.7708283" lon="15.73881"><ele>688.4000000000001</ele><time>2026-04-10T14:50:18.179Z</time></trkpt><trkpt lat="41.7708133" lon="15.7389567"><ele>687.8</ele><time>2026-04-10T14:50:19.178Z</time></trkpt><trkpt lat="41.7707967" lon="15.7391"><ele>687.2</ele><time>2026-04-10T14:50:20.18Z</time></trkpt><trkpt lat="41.7707783" lon="15.7392433"><ele>686.5999999999999</ele><time>2026-04-10T14:50:21.18Z</time></trkpt><trkpt lat="41.77076" lon="15.739385"><ele>686.0</ele><time>2026-04-10T14:50:22.182Z</time></trkpt><trkpt lat="41.77074" lon="15.7395367"><ele>685.0</ele><time>2026-04-10T14:50:23.181Z</time></trkpt><trkpt lat="41.770715" lon="15.7396967"><ele>684.0</ele><time>2026-04-10T14:50:24.18Z</time></trkpt><trkpt lat="41.77069" lon="15.7398717"><ele>683.0</ele><time>2026-04-10T14:50:25.178Z</time></trkpt><trkpt lat="41.770665" lon="15.7400567"><ele>682.0</ele><time>2026-04-10T14:50:26.18Z</time></trkpt><trkpt lat="41.7706367" lon="15.7402467"><ele>681.0</ele><time>2026-04-10T14:50:27.178Z</time></trkpt><trkpt lat="41.7706067" lon="15.7404533"><ele>680.0</ele><time>2026-04-10T14:50:28.177Z</time></trkpt><trkpt lat="41.7705733" lon="15.7406767"><ele>679.0</ele><time>2026-04-10T14:50:29.179Z</time></trkpt><trkpt lat="41.7705383" lon="15.7409067"><ele>678.0</ele><time>2026-04-10T14:50:30.176Z</time></trkpt><trkpt lat="41.7705033" lon="15.7411333"><ele>677.0</ele><time>2026-04-10T14:50:31.177Z</time></trkpt><trkpt lat="41.7704667" lon="15.7413517"><ele>676.0</ele><time>2026-04-10T14:50:32.179Z</time></trkpt><trkpt lat="41.770435" lon="15.7415633"><ele>676.0</ele><time>2026-04-10T14:50:33.179Z</time></trkpt><trkpt lat="41.7704033" lon="15.74178"><ele>676.0</ele><time>2026-04-10T14:50:34.178Z</time></trkpt><trkpt lat="41.770375" lon="15.742"><ele>676.0</ele><time>2026-04-10T14:50:35.183Z</time></trkpt><trkpt lat="41.77034" lon="15.7422267"><ele>675.3333333333334</ele><time>2026-04-10T14:50:36.178Z</time></trkpt><trkpt lat="41.7703067" lon="15.7424533"><ele>674.6666666666666</ele><time>2026-04-10T14:50:37.18Z</time></trkpt><trkpt lat="41.7702733" lon="15.7426767"><ele>674.0</ele><time>2026-04-10T14:50:38.178Z</time></trkpt><trkpt lat="41.77024" lon="15.7428883"><ele>673.3333333333333</ele><time>2026-04-10T14:50:39.19Z</time></trkpt><trkpt lat="41.7702033" lon="15.74309"><ele>672.6666666666666</ele><time>2026-04-10T14:50:40.186Z</time></trkpt><trkpt lat="41.7701617" lon="15.7432833"><ele>672.0</ele><time>2026-04-10T14:50:41.18Z</time></trkpt><trkpt lat="41.7701217" lon="15.7434767"><ele>673.0</ele><time>2026-04-10T14:50:42.178Z</time></trkpt><trkpt lat="41.7700833" lon="15.7436767"><ele>674.0</ele><time>2026-04-10T14:50:43.178Z</time></trkpt><trkpt lat="41.7700383" lon="15.7438917"><ele>675.0</ele><time>2026-04-10T14:50:44.179Z</time></trkpt><trkpt lat="41.7699867" lon="15.74412"><ele>675.0</ele><time>2026-04-10T14:50:45.181Z</time></trkpt><trkpt lat="41.769935" lon="15.7443583"><ele>675.0</ele><time>2026-04-10T14:50:46.188Z</time></trkpt><trkpt lat="41.7698867" lon="15.7445967"><ele>675.0</ele><time>2026-04-10T14:50:47.177Z</time></trkpt><trkpt lat="41.76984" lon="15.7448283"><ele>674.6666666666666</ele><time>2026-04-10T14:50:48.182Z</time></trkpt><trkpt lat="41.76979" lon="15.7450567"><ele>674.3333333333333</ele><time>2026-04-10T14:50:49.18Z</time></trkpt><trkpt lat="41.7697433" lon="15.7452833"><ele>674.0</ele><time>2026-04-10T14:50:50.179Z</time></trkpt><trkpt lat="41.7696983" lon="15.7455033"><ele>673.6666666666666</ele><time>2026-04-10T14:50:51.179Z</time></trkpt><trkpt lat="41.769655" lon="15.7457167"><ele>673.3333333333334</ele><time>2026-04-10T14:50:52.179Z</time></trkpt><trkpt lat="41.7696083" lon="15.7459317"><ele>673.0</ele><time>2026-04-10T14:50:53.179Z</time></trkpt><trkpt lat="41.7695633" lon="15.7461483"><ele>672.6666666666667</ele><time>2026-04-10T14:50:54.178Z</time></trkpt><trkpt lat="41.7695183" lon="15.7463667"><ele>672.3333333333334</ele><time>2026-04-10T14:50:55.177Z</time></trkpt><trkpt lat="41.7694717" lon="15.7465833"><ele>672.0</ele><time>2026-04-10T14:50:56.177Z</time></trkpt><trkpt lat="41.7694267" lon="15.7468"><ele>672.0</ele><time>2026-04-10T14:50:57.179Z</time></trkpt><trkpt lat="41.7693783" lon="15.7470183"><ele>672.0</ele><time>2026-04-10T14:50:58.189Z</time></trkpt><trkpt lat="41.7693283" lon="15.7472517"><ele>672.0</ele><time>2026-04-10T14:50:59.178Z</time></trkpt><trkpt lat="41.7692767" lon="15.7474917"><ele>672.3333333333334</ele><time>2026-04-10T14:51:00.187Z</time></trkpt><trkpt lat="41.76923" lon="15.7477367"><ele>672.6666666666667</ele><time>2026-04-10T14:51:01.185Z</time></trkpt><trkpt lat="41.7691817" lon="15.7479717"><ele>673.0</ele><time>2026-04-10T14:51:02.181Z</time></trkpt><trkpt lat="41.7691367" lon="15.7481967"><ele>673.0</ele><time>2026-04-10T14:51:03.18Z</time></trkpt><trkpt lat="41.7690917" lon="15.74841"><ele>673.0</ele><time>2026-04-10T14:51:04.186Z</time></trkpt><trkpt lat="41.76905" lon="15.74862"><ele>673.0</ele><time>2026-04-10T14:51:05.179Z</time></trkpt><trkpt lat="41.76902" lon="15.7488317"><ele>673.0</ele><time>2026-04-10T14:51:06.18Z</time></trkpt><trkpt lat="41.769" lon="15.749045"><ele>673.0</ele><time>2026-04-10T14:51:07.179Z</time></trkpt><trkpt lat="41.7689883" lon="15.7492683"><ele>673.0</ele><time>2026-04-10T14:51:08.183Z</time></trkpt><trkpt lat="41.768975" lon="15.7495067"><ele>673.0</ele><time>2026-04-10T14:51:09.177Z</time></trkpt><trkpt lat="41.768965" lon="15.7497517"><ele>673.0</ele><time>2026-04-10T14:51:10.18Z</time></trkpt><trkpt lat="41.7689567" lon="15.7500067"><ele>673.0</ele><time>2026-04-10T14:51:11.181Z</time></trkpt><trkpt lat="41.768945" lon="15.7502633"><ele>672.6666666666667</ele><time>2026-04-10T14:51:12.182Z</time></trkpt><trkpt lat="41.7689367" lon="15.7505167"><ele>672.3333333333334</ele><time>2026-04-10T14:51:13.185Z</time></trkpt><trkpt lat="41.7689283" lon="15.7507683"><ele>672.0</ele><time>2026-04-10T14:51:14.184Z</time></trkpt><trkpt lat="41.76892" lon="15.75102"><ele>672.0</ele><time>2026-04-10T14:51:15.18Z</time></trkpt><trkpt lat="41.76891" lon="15.7512733"><ele>672.0</ele><time>2026-04-10T14:51:16.18Z</time></trkpt><trkpt lat="41.7689" lon="15.7515183"><ele>672.0</ele><time>2026-04-10T14:51:17.18Z</time></trkpt><trkpt lat="41.7688933" lon="15.7517417"><ele>672.0</ele><time>2026-04-10T14:51:18.181Z</time></trkpt><trkpt lat="41.768885" lon="15.751925"><ele>672.0</ele><time>2026-04-10T14:51:19.188Z</time></trkpt><trkpt lat="41.76888" lon="15.7520617"><ele>672.0</ele><time>2026-04-10T14:51:20.186Z</time></trkpt><trkpt lat="41.7688783" lon="15.7521633"><ele>672.0</ele><time>2026-04-10T14:51:21.183Z</time></trkpt><trkpt lat="41.76889" lon="15.75228"><ele>672.0</ele><time>2026-04-10T14:51:23.181Z</time></trkpt><trkpt lat="41.7689667" lon="15.7523283"><ele>672.0</ele><time>2026-04-10T14:51:26.177Z</time></trkpt><trkpt lat="41.76905" lon="15.7523917"><ele>672.0</ele><time>2026-04-10T14:51:29.178Z</time></trkpt><trkpt lat="41.76912" lon="15.7524583"><ele>672.0</ele><time>2026-04-10T14:51:31.177Z</time></trkpt><trkpt lat="41.7692117" lon="15.7525217"><ele>672.0</ele><time>2026-04-10T14:51:33.179Z</time></trkpt><trkpt lat="41.7693017" lon="15.752565"><ele>672.0</ele><time>2026-04-10T14:51:35.178Z</time></trkpt><trkpt lat="41.7693733" lon="15.7525883"><ele>671.0</ele><time>2026-04-10T14:51:37.177Z</time></trkpt><trkpt lat="41.7694333" lon="15.7526167"><ele>671.0</ele><time>2026-04-10T14:51:39.177Z</time></trkpt><trkpt lat="41.76952" lon="15.75264"><ele>671.0</ele><time>2026-04-10T14:51:42.178Z</time></trkpt><trkpt lat="41.7695967" lon="15.75266"><ele>671.0</ele><time>2026-04-10T14:51:48.18Z</time></trkpt><trkpt lat="41.7695983" lon="15.752575"><ele>671.0</ele><time>2026-04-10T14:51:54.181Z</time></trkpt><trkpt lat="41.7695267" lon="15.7526183"><ele>671.0</ele><time>2026-04-10T14:51:59.177Z</time></trkpt><trkpt lat="41.76948" lon="15.7526983"><ele>671.0</ele><time>2026-04-10T14:52:02.185Z</time></trkpt></trkseg><trkseg><trkpt lat="41.7694096" lon="15.752576"><ele>671.25</ele><time>2026-04-10T15:20:30.965Z</time></trkpt><trkpt lat="41.7692467" lon="15.75256"><ele>671.5</ele><time>2026-04-10T15:20:48.186Z</time></trkpt><trkpt lat="41.7691617" lon="15.7525017"><ele>671.75</ele><time>2026-04-10T15:20:50.187Z</time></trkpt><trkpt lat="41.76907" lon="15.7524233"><ele>672.0</ele><time>2026-04-10T15:20:52.181Z</time></trkpt><trkpt lat="41.7689983" lon="15.7523567"><ele>672.0</ele><time>2026-04-10T15:20:54.185Z</time></trkpt><trkpt lat="41.7689333" lon="15.75231"><ele>672.0</ele><time>2026-04-10T15:20:56.191Z</time></trkpt><trkpt lat="41.7688667" lon="15.75232"><ele>672.0</ele><time>2026-04-10T15:21:00.193Z</time></trkpt><trkpt lat="41.7688383" lon="15.7524367"><ele>672.0</ele><time>2026-04-10T15:21:02.188Z</time></trkpt><trkpt lat="41.7688233" lon="15.7525417"><ele>672.0</ele><time>2026-04-10T15:21:03.181Z</time></trkpt><trkpt lat="41.76881" lon="15.75268"><ele>672.0</ele><time>2026-04-10T15:21:04.181Z</time></trkpt><trkpt lat="41.7688083" lon="15.75289"><ele>672.0</ele><time>2026-04-10T15:21:05.18Z</time></trkpt><trkpt lat="41.7688017" lon="15.753115"><ele>672.0</ele><time>2026-04-10T15:21:06.184Z</time></trkpt><trkpt lat="41.7687933" lon="15.75336"><ele>672.0</ele><time>2026-04-10T15:21:07.181Z</time></trkpt><trkpt lat="41.7687867" lon="15.7536183"><ele>671.6666666666666</ele><time>2026-04-10T15:21:08.184Z</time></trkpt><trkpt lat="41.7687783" lon="15.7538783"><ele>671.3333333333333</ele><time>2026-04-10T15:21:09.19Z</time></trkpt><trkpt lat="41.76877" lon="15.7541183"><ele>671.0</ele><time>2026-04-10T15:21:10.183Z</time></trkpt><trkpt lat="41.76876" lon="15.7543383"><ele>670.5</ele><time>2026-04-10T15:21:11.182Z</time></trkpt><trkpt lat="41.7687517" lon="15.7545417"><ele>670.0</ele><time>2026-04-10T15:21:12.182Z</time></trkpt><trkpt lat="41.7687483" lon="15.754725"><ele>669.5</ele><time>2026-04-10T15:21:13.18Z</time></trkpt><trkpt lat="41.76876" lon="15.75489"><ele>669.0</ele><time>2026-04-10T15:21:14.184Z</time></trkpt><trkpt lat="41.7687867" lon="15.7550483"><ele>666.75</ele><time>2026-04-10T15:21:15.18Z</time></trkpt><trkpt lat="41.7688317" lon="15.7552067"><ele>664.5</ele><time>2026-04-10T15:21:16.181Z</time></trkpt><trkpt lat="41.7688967" lon="15.7553717"><ele>662.25</ele><time>2026-04-10T15:21:17.18Z</time></trkpt><trkpt lat="41.7689883" lon="15.755555"><ele>660.0</ele><time>2026-04-10T15:21:18.179Z</time></trkpt><trkpt lat="41.7690967" lon="15.7557633"><ele>660.0</ele><time>2026-04-10T15:21:19.181Z</time></trkpt><trkpt lat="41.7692133" lon="15.7559817"><ele>660.0</ele><time>2026-04-10T15:21:20.18Z</time></trkpt><trkpt lat="41.769325" lon="15.756195"><ele>660.0</ele><time>2026-04-10T15:21:21.184Z</time></trkpt><trkpt lat="41.769435" lon="15.7563967"><ele>659.0</ele><time>2026-04-10T15:21:22.179Z</time></trkpt><trkpt lat="41.7695417" lon="15.75659"><ele>658.0</ele><time>2026-04-10T15:21:23.182Z</time></trkpt><trkpt lat="41.7696417" lon="15.7567767"><ele>657.0</ele><time>2026-04-10T15:21:24.18Z</time></trkpt><trkpt lat="41.7697367" lon="15.7569517"><ele>656.75</ele><time>2026-04-10T15:21:25.188Z</time></trkpt><trkpt lat="41.7698233" lon="15.7571183"><ele>656.5</ele><time>2026-04-10T15:21:26.187Z</time></trkpt><trkpt lat="41.7699067" lon="15.7572767"><ele>656.25</ele><time>2026-04-10T15:21:27.186Z</time></trkpt><trkpt lat="41.7699833" lon="15.75743"><ele>656.0</ele><time>2026-04-10T15:21:28.184Z</time></trkpt><trkpt lat="41.7700583" lon="15.7575783"><ele>655.8</ele><time>2026-04-10T15:21:29.185Z</time></trkpt><trkpt lat="41.7701233" lon="15.7577183"><ele>655.5999999999999</ele><time>2026-04-10T15:21:30.183Z</time></trkpt><trkpt lat="41.77018" lon="15.7578483"><ele>655.4</ele><time>2026-04-10T15:21:31.184Z</time></trkpt><trkpt lat="41.7702117" lon="15.75798"><ele>655.2</ele><time>2026-04-10T15:21:32.184Z</time></trkpt><trkpt lat="41.770225" lon="15.75812"><ele>655.0</ele><time>2026-04-10T15:21:33.179Z</time></trkpt><trkpt lat="41.770215" lon="15.758265"><ele>656.0</ele><time>2026-04-10T15:21:34.182Z</time></trkpt><trkpt lat="41.7701833" lon="15.7584233"><ele>657.0</ele><time>2026-04-10T15:21:35.193Z</time></trkpt><trkpt lat="41.7701317" lon="15.7585883"><ele>658.0</ele><time>2026-04-10T15:21:36.186Z</time></trkpt><trkpt lat="41.7700683" lon="15.758765"><ele>659.0</ele><time>2026-04-10T15:21:37.183Z</time></trkpt><trkpt lat="41.76999" lon="15.7589467"><ele>659.6666666666666</ele><time>2026-04-10T15:21:38.19Z</time></trkpt><trkpt lat="41.7699117" lon="15.759145"><ele>660.3333333333334</ele><time>2026-04-10T15:21:39.186Z</time></trkpt><trkpt lat="41.76983" lon="15.7593583"><ele>661.0</ele><time>2026-04-10T15:21:40.185Z</time></trkpt><trkpt lat="41.7697483" lon="15.7595667"><ele>661.0</ele><time>2026-04-10T15:21:41.183Z</time></trkpt><trkpt lat="41.7696733" lon="15.7597567"><ele>661.0</ele><time>2026-04-10T15:21:42.188Z</time></trkpt><trkpt lat="41.7696017" lon="15.7599283"><ele>661.0</ele><time>2026-04-10T15:21:43.182Z</time></trkpt><trkpt lat="41.7695333" lon="15.7600867"><ele>661.0</ele><time>2026-04-10T15:21:44.182Z</time></trkpt><trkpt lat="41.7694567" lon="15.7602317"><ele>661.0</ele><time>2026-04-10T15:21:45.186Z</time></trkpt><trkpt lat="41.7693667" lon="15.7603667"><ele>661.0</ele><time>2026-04-10T15:21:46.182Z</time></trkpt><trkpt lat="41.7692717" lon="15.7604967"><ele>661.0</ele><time>2026-04-10T15:21:47.177Z</time></trkpt><trkpt lat="41.7691683" lon="15.7606133"><ele>661.0</ele><time>2026-04-10T15:21:48.181Z</time></trkpt><trkpt lat="41.76906" lon="15.7607267"><ele>662.75</ele><time>2026-04-10T15:21:49.181Z</time></trkpt><trkpt lat="41.76896" lon="15.760845"><ele>664.5</ele><time>2026-04-10T15:21:50.185Z</time></trkpt><trkpt lat="41.7688717" lon="15.7609667"><ele>666.25</ele><time>2026-04-10T15:21:51.179Z</time></trkpt><trkpt lat="41.7687983" lon="15.7611033"><ele>668.0</ele><time>2026-04-10T15:21:52.182Z</time></trkpt><trkpt lat="41.7687383" lon="15.7612567"><ele>668.0</ele><time>2026-04-10T15:21:53.18Z</time></trkpt><trkpt lat="41.7686867" lon="15.76143"><ele>668.0</ele><time>2026-04-10T15:21:54.181Z</time></trkpt><trkpt lat="41.76863" lon="15.7616183"><ele>668.0</ele><time>2026-04-10T15:21:55.183Z</time></trkpt><trkpt lat="41.7685733" lon="15.7618233"><ele>670.0</ele><time>2026-04-10T15:21:56.182Z</time></trkpt><trkpt lat="41.76851" lon="15.7620467"><ele>672.0</ele><time>2026-04-10T15:21:57.185Z</time></trkpt><trkpt lat="41.768445" lon="15.7622667"><ele>674.0</ele><time>2026-04-10T15:21:58.184Z</time></trkpt><trkpt lat="41.7683867" lon="15.7624867"><ele>674.0</ele><time>2026-04-10T15:21:59.182Z</time></trkpt><trkpt lat="41.7683267" lon="15.7626917"><ele>674.0</ele><time>2026-04-10T15:22:00.178Z</time></trkpt><trkpt lat="41.7682717" lon="15.7628967"><ele>674.0</ele><time>2026-04-10T15:22:01.181Z</time></trkpt><trkpt lat="41.7682133" lon="15.7631067"><ele>674.3333333333333</ele><time>2026-04-10T15:22:02.188Z</time></trkpt><trkpt lat="41.7681567" lon="15.7633183"><ele>674.6666666666666</ele><time>2026-04-10T15:22:03.184Z</time></trkpt><trkpt lat="41.7680883" lon="15.7635333"><ele>675.0</ele><time>2026-04-10T15:22:04.186Z</time></trkpt><trkpt lat="41.7680217" lon="15.76375"><ele>675.0</ele><time>2026-04-10T15:22:05.183Z</time></trkpt><trkpt lat="41.7679617" lon="15.7639633"><ele>675.0</ele><time>2026-04-10T15:22:06.19Z</time></trkpt><trkpt lat="41.7679017" lon="15.7641617"><ele>675.0</ele><time>2026-04-10T15:22:07.185Z</time></trkpt><trkpt lat="41.7678433" lon="15.764365"><ele>675.0</ele><time>2026-04-10T15:22:08.191Z</time></trkpt><trkpt lat="41.767785" lon="15.764565"><ele>675.0</ele><time>2026-04-10T15:22:09.185Z</time></trkpt><trkpt lat="41.7677283" lon="15.76477"><ele>675.0</ele><time>2026-04-10T15:22:10.182Z</time></trkpt><trkpt lat="41.7676717" lon="15.7649833"><ele>677.0</ele><time>2026-04-10T15:22:11.188Z</time></trkpt><trkpt lat="41.76761" lon="15.7652017"><ele>679.0</ele><time>2026-04-10T15:22:12.182Z</time></trkpt><trkpt lat="41.7675433" lon="15.765425"><ele>681.0</ele><time>2026-04-10T15:22:13.18Z</time></trkpt><trkpt lat="41.76748" lon="15.7656417"><ele>681.0</ele><time>2026-04-10T15:22:14.18Z</time></trkpt><trkpt lat="41.7674183" lon="15.7658517"><ele>681.0</ele><time>2026-04-10T15:22:15.189Z</time></trkpt><trkpt lat="41.7673617" lon="15.766055"><ele>681.0</ele><time>2026-04-10T15:22:16.185Z</time></trkpt><trkpt lat="41.767305" lon="15.7662533"><ele>681.3333333333334</ele><time>2026-04-10T15:22:17.183Z</time></trkpt><trkpt lat="41.767255" lon="15.7664483"><ele>681.6666666666667</ele><time>2026-04-10T15:22:18.181Z</time></trkpt><trkpt lat="41.7672133" lon="15.76665"><ele>682.0</ele><time>2026-04-10T15:22:19.182Z</time></trkpt><trkpt lat="41.7671783" lon="15.766855"><ele>682.3333333333334</ele><time>2026-04-10T15:22:20.189Z</time></trkpt><trkpt lat="41.7671517" lon="15.7670733"><ele>682.6666666666666</ele><time>2026-04-10T15:22:21.188Z</time></trkpt><trkpt lat="41.7671317" lon="15.7673067"><ele>683.0</ele><time>2026-04-10T15:22:22.181Z</time></trkpt><trkpt lat="41.7671133" lon="15.7675517"><ele>684.3333333333333</ele><time>2026-04-10T15:22:23.186Z</time></trkpt><trkpt lat="41.7670983" lon="15.7678017"><ele>685.6666666666666</ele><time>2026-04-10T15:22:24.185Z</time></trkpt><trkpt lat="41.7670883" lon="15.7680533"><ele>687.0</ele><time>2026-04-10T15:22:25.183Z</time></trkpt><trkpt lat="41.7670767" lon="15.7683"><ele>686.3333333333334</ele><time>2026-04-10T15:22:26.185Z</time></trkpt><trkpt lat="41.7670683" lon="15.7685333"><ele>685.6666666666667</ele><time>2026-04-10T15:22:27.182Z</time></trkpt><trkpt lat="41.7670583" lon="15.7687583"><ele>685.0</ele><time>2026-04-10T15:22:28.178Z</time></trkpt><trkpt lat="41.7670517" lon="15.7689833"><ele>685.0</ele><time>2026-04-10T15:22:29.186Z</time></trkpt><trkpt lat="41.767035" lon="15.769205"><ele>685.0</ele><time>2026-04-10T15:22:30.181Z</time></trkpt><trkpt lat="41.7670217" lon="15.7694267"><ele>685.0</ele><time>2026-04-10T15:22:31.183Z</time></trkpt><trkpt lat="41.7670083" lon="15.7696467"><ele>684.3333333333334</ele><time>2026-04-10T15:22:32.189Z</time></trkpt><trkpt lat="41.7669967" lon="15.769865"><ele>683.6666666666666</ele><time>2026-04-10T15:22:33.187Z</time></trkpt><trkpt lat="41.766985" lon="15.7700783"><ele>683.0</ele><time>2026-04-10T15:22:34.188Z</time></trkpt><trkpt lat="41.7669717" lon="15.7702867"><ele>682.75</ele><time>2026-04-10T15:22:35.188Z</time></trkpt><trkpt lat="41.7669567" lon="15.7704867"><ele>682.5</ele><time>2026-04-10T15:22:36.185Z</time></trkpt><trkpt lat="41.7669417" lon="15.7706783"><ele>682.25</ele><time>2026-04-10T15:22:37.186Z</time></trkpt><trkpt lat="41.7669283" lon="15.7708767"><ele>682.0</ele><time>2026-04-10T15:22:38.185Z</time></trkpt><trkpt lat="41.766915" lon="15.7710833"><ele>681.6666666666667</ele><time>2026-04-10T15:22:39.188Z</time></trkpt><trkpt lat="41.766905" lon="15.771295"><ele>681.3333333333334</ele><time>2026-04-10T15:22:40.186Z</time></trkpt><trkpt lat="41.7668933" lon="15.771515"><ele>681.0</ele><time>2026-04-10T15:22:41.185Z</time></trkpt><trkpt lat="41.7668783" lon="15.7717417"><ele>681.0</ele><time>2026-04-10T15:22:42.188Z</time></trkpt><trkpt lat="41.766865" lon="15.7719717"><ele>681.0</ele><time>2026-04-10T15:22:43.188Z</time></trkpt><trkpt lat="41.76685" lon="15.772205"><ele>681.0</ele><time>2026-04-10T15:22:44.188Z</time></trkpt><trkpt lat="41.7668383" lon="15.7724383"><ele>683.0</ele><time>2026-04-10T15:22:45.186Z</time></trkpt><trkpt lat="41.766825" lon="15.7726667"><ele>685.0</ele><time>2026-04-10T15:22:46.183Z</time></trkpt><trkpt lat="41.7668117" lon="15.7728883"><ele>687.0</ele><time>2026-04-10T15:22:47.181Z</time></trkpt><trkpt lat="41.7668" lon="15.7731067"><ele>687.0</ele><time>2026-04-10T15:22:48.178Z</time></trkpt><trkpt lat="41.7667917" lon="15.77332"><ele>687.0</ele><time>2026-04-10T15:22:49.185Z</time></trkpt><trkpt lat="41.7667783" lon="15.7735183"><ele>687.0</ele><time>2026-04-10T15:22:50.183Z</time></trkpt><trkpt lat="41.76677" lon="15.773705"><ele>687.0</ele><time>2026-04-10T15:22:51.183Z</time></trkpt><trkpt lat="41.7667583" lon="15.773885"><ele>687.0</ele><time>2026-04-10T15:22:52.184Z</time></trkpt><trkpt lat="41.766745" lon="15.774065"><ele>687.0</ele><time>2026-04-10T15:22:53.189Z</time></trkpt><trkpt lat="41.7667167" lon="15.7742483"><ele>687.0</ele><time>2026-04-10T15:22:54.18Z</time></trkpt><trkpt lat="41.766675" lon="15.774445"><ele>687.0</ele><time>2026-04-10T15:22:55.184Z</time></trkpt><trkpt lat="41.766635" lon="15.7746533"><ele>686.0</ele><time>2026-04-10T15:22:56.182Z</time></trkpt><trkpt lat="41.7665917" lon="15.77487"><ele>685.0</ele><time>2026-04-10T15:22:57.18Z</time></trkpt><trkpt lat="41.7665483" lon="15.7750917"><ele>684.0</ele><time>2026-04-10T15:22:58.184Z</time></trkpt><trkpt lat="41.7665067" lon="15.7753133"><ele>683.0</ele><time>2026-04-10T15:22:59.181Z</time></trkpt><trkpt lat="41.7664583" lon="15.775525"><ele>682.0</ele><time>2026-04-10T15:23:00.182Z</time></trkpt><trkpt lat="41.76641" lon="15.775735"><ele>681.0</ele><time>2026-04-10T15:23:01.183Z</time></trkpt><trkpt lat="41.766365" lon="15.7759467"><ele>679.0</ele><time>2026-04-10T15:23:02.191Z</time></trkpt><trkpt lat="41.7663217" lon="15.7761567"><ele>677.0</ele><time>2026-04-10T15:23:03.189Z</time></trkpt><trkpt lat="41.7662817" lon="15.7763617"><ele>675.0</ele><time>2026-04-10T15:23:04.187Z</time></trkpt><trkpt lat="41.7662433" lon="15.7765567"><ele>675.0</ele><time>2026-04-10T15:23:05.188Z</time></trkpt><trkpt lat="41.7662117" lon="15.7767533"><ele>675.0</ele><time>2026-04-10T15:23:06.189Z</time></trkpt><trkpt lat="41.7661767" lon="15.7769483"><ele>675.0</ele><time>2026-04-10T15:23:07.187Z</time></trkpt><trkpt lat="41.7661367" lon="15.77716"><ele>674.3333333333334</ele><time>2026-04-10T15:23:08.189Z</time></trkpt><trkpt lat="41.76609" lon="15.777385"><ele>673.6666666666667</ele><time>2026-04-10T15:23:09.195Z</time></trkpt><trkpt lat="41.76605" lon="15.7776183"><ele>673.0</ele><time>2026-04-10T15:23:10.191Z</time></trkpt><trkpt lat="41.7660083" lon="15.7778467"><ele>673.0</ele><time>2026-04-10T15:23:11.191Z</time></trkpt><trkpt lat="41.7659633" lon="15.7780817"><ele>673.0</ele><time>2026-04-10T15:23:12.193Z</time></trkpt><trkpt lat="41.7659167" lon="15.77833"><ele>673.0</ele><time>2026-04-10T15:23:13.191Z</time></trkpt><trkpt lat="41.7658683" lon="15.77858"><ele>670.0</ele><time>2026-04-10T15:23:14.186Z</time></trkpt><trkpt lat="41.7658183" lon="15.7788217"><ele>667.0</ele><time>2026-04-10T15:23:15.194Z</time></trkpt><trkpt lat="41.7657733" lon="15.7790517"><ele>664.0</ele><time>2026-04-10T15:23:16.189Z</time></trkpt><trkpt lat="41.7657283" lon="15.7792783"><ele>661.3333333333334</ele><time>2026-04-10T15:23:17.196Z</time></trkpt><trkpt lat="41.7656867" lon="15.7794967"><ele>658.6666666666666</ele><time>2026-04-10T15:23:18.185Z</time></trkpt><trkpt lat="41.7656433" lon="15.7797033"><ele>656.0</ele><time>2026-04-10T15:23:19.186Z</time></trkpt><trkpt lat="41.7655933" lon="15.7798933"><ele>656.0</ele><time>2026-04-10T15:23:20.193Z</time></trkpt><trkpt lat="41.7655317" lon="15.78007"><ele>656.0</ele><time>2026-04-10T15:23:21.187Z</time></trkpt><trkpt lat="41.7654533" lon="15.7802383"><ele>656.0</ele><time>2026-04-10T15:23:22.188Z</time></trkpt><trkpt lat="41.7653667" lon="15.7804083"><ele>656.0</ele><time>2026-04-10T15:23:23.189Z</time></trkpt><trkpt lat="41.7652567" lon="15.780585"><ele>656.3333333333333</ele><time>2026-04-10T15:23:24.192Z</time></trkpt><trkpt lat="41.7651417" lon="15.7807717"><ele>656.6666666666666</ele><time>2026-04-10T15:23:25.188Z</time></trkpt><trkpt lat="41.7650233" lon="15.7809633"><ele>657.0</ele><time>2026-04-10T15:23:26.192Z</time></trkpt><trkpt lat="41.7649033" lon="15.7811567"><ele>654.0</ele><time>2026-04-10T15:23:27.189Z</time></trkpt><trkpt lat="41.764785" lon="15.7813483"><ele>651.0</ele><time>2026-04-10T15:23:28.188Z</time></trkpt><trkpt lat="41.7646667" lon="15.7815433"><ele>648.0</ele><time>2026-04-10T15:23:29.189Z</time></trkpt><trkpt lat="41.76455" lon="15.7817383"><ele>647.0</ele><time>2026-04-10T15:23:30.191Z</time></trkpt><trkpt lat="41.76444" lon="15.7819183"><ele>646.0</ele><time>2026-04-10T15:23:31.184Z</time></trkpt><trkpt lat="41.764345" lon="15.7820917"><ele>645.0</ele><time>2026-04-10T15:23:32.184Z</time></trkpt><trkpt lat="41.7642667" lon="15.7822533"><ele>645.5</ele><time>2026-04-10T15:23:33.183Z</time></trkpt><trkpt lat="41.7642083" lon="15.7824167"><ele>646.0</ele><time>2026-04-10T15:23:34.188Z</time></trkpt><trkpt lat="41.76416" lon="15.7825867"><ele>646.5</ele><time>2026-04-10T15:23:35.193Z</time></trkpt><trkpt lat="41.7641283" lon="15.78277"><ele>647.0</ele><time>2026-04-10T15:23:36.195Z</time></trkpt><trkpt lat="41.7641017" lon="15.7829683"><ele>647.0</ele><time>2026-04-10T15:23:37.193Z</time></trkpt><trkpt lat="41.7640733" lon="15.7831867"><ele>647.0</ele><time>2026-04-10T15:23:38.193Z</time></trkpt><trkpt lat="41.7640467" lon="15.7834183"><ele>647.0</ele><time>2026-04-10T15:23:39.19Z</time></trkpt><trkpt lat="41.7640167" lon="15.7836583"><ele>646.3333333333333</ele><time>2026-04-10T15:23:40.189Z</time></trkpt><trkpt lat="41.7639933" lon="15.78389"><ele>645.6666666666666</ele><time>2026-04-10T15:23:41.189Z</time></trkpt><trkpt lat="41.7639667" lon="15.7841283"><ele>645.0</ele><time>2026-04-10T15:23:42.194Z</time></trkpt><trkpt lat="41.7639433" lon="15.7843583"><ele>644.25</ele><time>2026-04-10T15:23:43.191Z</time></trkpt><trkpt lat="41.7639233" lon="15.784565"><ele>643.5</ele><time>2026-04-10T15:23:44.194Z</time></trkpt><trkpt lat="41.7639083" lon="15.7847483"><ele>642.75</ele><time>2026-04-10T15:23:45.194Z</time></trkpt><trkpt lat="41.76389" lon="15.78493"><ele>642.0</ele><time>2026-04-10T15:23:46.189Z</time></trkpt><trkpt lat="41.7638683" lon="15.7851233"><ele>641.0</ele><time>2026-04-10T15:23:47.191Z</time></trkpt><trkpt lat="41.7638467" lon="15.78532"><ele>640.0</ele><time>2026-04-10T15:23:48.189Z</time></trkpt><trkpt lat="41.7638233" lon="15.7855283"><ele>639.0</ele><time>2026-04-10T15:23:49.192Z</time></trkpt><trkpt lat="41.7637967" lon="15.7857433"><ele>639.0</ele><time>2026-04-10T15:23:50.187Z</time></trkpt><trkpt lat="41.7637683" lon="15.7859583"><ele>639.0</ele><time>2026-04-10T15:23:51.187Z</time></trkpt><trkpt lat="41.763735" lon="15.7861717"><ele>639.0</ele><time>2026-04-10T15:23:52.19Z</time></trkpt><trkpt lat="41.7636933" lon="15.7863733"><ele>638.6666666666666</ele><time>2026-04-10T15:23:53.187Z</time></trkpt><trkpt lat="41.7636433" lon="15.7865783"><ele>638.3333333333333</ele><time>2026-04-10T15:23:54.192Z</time></trkpt><trkpt lat="41.7635817" lon="15.7867817"><ele>638.0</ele><time>2026-04-10T15:23:55.192Z</time></trkpt><trkpt lat="41.7635067" lon="15.78699"><ele>637.3333333333333</ele><time>2026-04-10T15:23:56.195Z</time></trkpt><trkpt lat="41.7634183" lon="15.7872017"><ele>636.6666666666666</ele><time>2026-04-10T15:23:57.193Z</time></trkpt><trkpt lat="41.7633317" lon="15.7874033"><ele>636.0</ele><time>2026-04-10T15:23:58.191Z</time></trkpt><trkpt lat="41.7632533" lon="15.7875917"><ele>635.0</ele><time>2026-04-10T15:23:59.188Z</time></trkpt><trkpt lat="41.7631833" lon="15.7877633"><ele>634.0</ele><time>2026-04-10T15:24:00.192Z</time></trkpt><trkpt lat="41.7631217" lon="15.78791"><ele>633.0</ele><time>2026-04-10T15:24:01.188Z</time></trkpt><trkpt lat="41.763065" lon="15.788035"><ele>632.0</ele><time>2026-04-10T15:24:02.198Z</time></trkpt><trkpt lat="41.7630183" lon="15.7881367"><ele>632.0</ele><time>2026-04-10T15:24:03.19Z</time></trkpt><trkpt lat="41.7629817" lon="15.7882267"><ele>632.0</ele><time>2026-04-10T15:24:04.187Z</time></trkpt><trkpt lat="41.76294" lon="15.7883683"><ele>632.0</ele><time>2026-04-10T15:24:06.188Z</time></trkpt><trkpt lat="41.762935" lon="15.7885383"><ele>632.0</ele><time>2026-04-10T15:24:08.183Z</time></trkpt><trkpt lat="41.7629517" lon="15.78865"><ele>632.0</ele><time>2026-04-10T15:24:09.19Z</time></trkpt><trkpt lat="41.7629717" lon="15.788775"><ele>631.5</ele><time>2026-04-10T15:24:10.188Z</time></trkpt><trkpt lat="41.7629867" lon="15.7889283"><ele>631.0</ele><time>2026-04-10T15:24:11.187Z</time></trkpt><trkpt lat="41.762985" lon="15.789085"><ele>630.5</ele><time>2026-04-10T15:24:12.194Z</time></trkpt><trkpt lat="41.7629633" lon="15.7892383"><ele>630.0</ele><time>2026-04-10T15:24:13.186Z</time></trkpt><trkpt lat="41.7629217" lon="15.7893767"><ele>629.25</ele><time>2026-04-10T15:24:14.19Z</time></trkpt><trkpt lat="41.7628583" lon="15.78951"><ele>628.5</ele><time>2026-04-10T15:24:15.188Z</time></trkpt><trkpt lat="41.7627783" lon="15.7896467"><ele>627.75</ele><time>2026-04-10T15:24:16.186Z</time></trkpt><trkpt lat="41.7626767" lon="15.7898"><ele>627.0</ele><time>2026-04-10T15:24:17.192Z</time></trkpt><trkpt lat="41.76256" lon="15.7899733"><ele>630.0</ele><time>2026-04-10T15:24:18.186Z</time></trkpt><trkpt lat="41.76244" lon="15.7901467"><ele>633.0</ele><time>2026-04-10T15:24:19.184Z</time></trkpt><trkpt lat="41.7623167" lon="15.79033"><ele>636.0</ele><time>2026-04-10T15:24:20.185Z</time></trkpt><trkpt lat="41.7621817" lon="15.7905233"><ele>636.0</ele><time>2026-04-10T15:24:21.189Z</time></trkpt><trkpt lat="41.7620517" lon="15.7907217"><ele>636.0</ele><time>2026-04-10T15:24:22.185Z</time></trkpt><trkpt lat="41.76193" lon="15.79092"><ele>636.0</ele><time>2026-04-10T15:24:23.192Z</time></trkpt><trkpt lat="41.7618183" lon="15.791125"><ele>638.6666666666666</ele><time>2026-04-10T15:24:24.192Z</time></trkpt><trkpt lat="41.761705" lon="15.791335"><ele>641.3333333333333</ele><time>2026-04-10T15:24:25.191Z</time></trkpt><trkpt lat="41.761595" lon="15.7915383"><ele>644.0</ele><time>2026-04-10T15:24:26.192Z</time></trkpt><trkpt lat="41.7614967" lon="15.7917317"><ele>643.0</ele><time>2026-04-10T15:24:27.179Z</time></trkpt><trkpt lat="41.761395" lon="15.791925"><ele>642.0</ele><time>2026-04-10T15:24:28.194Z</time></trkpt><trkpt lat="41.7612917" lon="15.7921217"><ele>641.0</ele><time>2026-04-10T15:24:29.185Z</time></trkpt><trkpt lat="41.7611883" lon="15.7923217"><ele>641.0</ele><time>2026-04-10T15:24:30.187Z</time></trkpt><trkpt lat="41.7610833" lon="15.792515"><ele>641.0</ele><time>2026-04-10T15:24:31.188Z</time></trkpt><trkpt lat="41.760985" lon="15.7927017"><ele>641.0</ele><time>2026-04-10T15:24:32.187Z</time></trkpt><trkpt lat="41.7608817" lon="15.7928867"><ele>641.0</ele><time>2026-04-10T15:24:33.19Z</time></trkpt><trkpt lat="41.7607767" lon="15.793065"><ele>641.0</ele><time>2026-04-10T15:24:34.192Z</time></trkpt><trkpt lat="41.7606817" lon="15.79324"><ele>641.0</ele><time>2026-04-10T15:24:35.191Z</time></trkpt><trkpt lat="41.760595" lon="15.793415"><ele>640.0</ele><time>2026-04-10T15:24:36.191Z</time></trkpt><trkpt lat="41.760515" lon="15.7936"><ele>639.0</ele><time>2026-04-10T15:24:37.183Z</time></trkpt><trkpt lat="41.7604417" lon="15.7937883"><ele>638.0</ele><time>2026-04-10T15:24:38.184Z</time></trkpt><trkpt lat="41.76038" lon="15.7939783"><ele>638.0</ele><time>2026-04-10T15:24:39.19Z</time></trkpt><trkpt lat="41.7603283" lon="15.7941783"><ele>638.0</ele><time>2026-04-10T15:24:40.187Z</time></trkpt><trkpt lat="41.76028" lon="15.7943817"><ele>638.0</ele><time>2026-04-10T15:24:41.189Z</time></trkpt><trkpt lat="41.7602283" lon="15.7945833"><ele>641.3333333333333</ele><time>2026-04-10T15:24:42.184Z</time></trkpt><trkpt lat="41.760175" lon="15.7947867"><ele>644.6666666666666</ele><time>2026-04-10T15:24:43.179Z</time></trkpt><trkpt lat="41.7601183" lon="15.7949883"><ele>648.0</ele><time>2026-04-10T15:24:44.185Z</time></trkpt><trkpt lat="41.760065" lon="15.7951867"><ele>648.0</ele><time>2026-04-10T15:24:45.192Z</time></trkpt><trkpt lat="41.7600217" lon="15.795365"><ele>648.0</ele><time>2026-04-10T15:24:46.187Z</time></trkpt><trkpt lat="41.7599783" lon="15.7955333"><ele>648.0</ele><time>2026-04-10T15:24:47.181Z</time></trkpt><trkpt lat="41.759935" lon="15.7956917"><ele>648.0</ele><time>2026-04-10T15:24:48.192Z</time></trkpt><trkpt lat="41.7598983" lon="15.7958467"><ele>648.0</ele><time>2026-04-10T15:24:49.188Z</time></trkpt><trkpt lat="41.7598583" lon="15.7959933"><ele>648.0</ele><time>2026-04-10T15:24:50.198Z</time></trkpt><trkpt lat="41.7598167" lon="15.7961367"><ele>648.0</ele><time>2026-04-10T15:24:51.193Z</time></trkpt><trkpt lat="41.7597667" lon="15.7962817"><ele>648.0</ele><time>2026-04-10T15:24:52.19Z</time></trkpt><trkpt lat="41.7597133" lon="15.7964233"><ele>647.0</ele><time>2026-04-10T15:24:53.187Z</time></trkpt><trkpt lat="41.7596533" lon="15.7965667"><ele>646.0</ele><time>2026-04-10T15:24:54.193Z</time></trkpt><trkpt lat="41.7595867" lon="15.796705"><ele>645.0</ele><time>2026-04-10T15:24:55.196Z</time></trkpt><trkpt lat="41.7595167" lon="15.7968467"><ele>644.0</ele><time>2026-04-10T15:24:56.189Z</time></trkpt><trkpt lat="41.7594417" lon="15.7969883"><ele>643.75</ele><time>2026-04-10T15:24:57.179Z</time></trkpt><trkpt lat="41.759365" lon="15.7971433"><ele>643.5</ele><time>2026-04-10T15:24:58.181Z</time></trkpt><trkpt lat="41.759285" lon="15.7973167"><ele>643.25</ele><time>2026-04-10T15:24:59.18Z</time></trkpt><trkpt lat="41.7592017" lon="15.7974967"><ele>643.0</ele><time>2026-04-10T15:25:00.181Z</time></trkpt><trkpt lat="41.7591233" lon="15.79767"><ele>640.6666666666667</ele><time>2026-04-10T15:25:01.183Z</time></trkpt><trkpt lat="41.7590417" lon="15.7978417"><ele>638.3333333333334</ele><time>2026-04-10T15:25:02.184Z</time></trkpt><trkpt lat="41.758955" lon="15.79801"><ele>636.0</ele><time>2026-04-10T15:25:03.181Z</time></trkpt><trkpt lat="41.7588733" lon="15.7981833"><ele>636.0</ele><time>2026-04-10T15:25:04.186Z</time></trkpt><trkpt lat="41.758805" lon="15.7983633"><ele>636.0</ele><time>2026-04-10T15:25:05.182Z</time></trkpt><trkpt lat="41.758755" lon="15.7985517"><ele>636.0</ele><time>2026-04-10T15:25:06.184Z</time></trkpt><trkpt lat="41.7587217" lon="15.7987433"><ele>636.0</ele><time>2026-04-10T15:25:07.182Z</time></trkpt><trkpt lat="41.7587117" lon="15.7989317"><ele>635.5</ele><time>2026-04-10T15:25:08.184Z</time></trkpt><trkpt lat="41.7587117" lon="15.7991183"><ele>635.0</ele><time>2026-04-10T15:25:09.183Z</time></trkpt><trkpt lat="41.7587267" lon="15.7993067"><ele>634.5</ele><time>2026-04-10T15:25:10.188Z</time></trkpt><trkpt lat="41.7587517" lon="15.7995033"><ele>634.0</ele><time>2026-04-10T15:25:11.183Z</time></trkpt><trkpt lat="41.7587767" lon="15.7997017"><ele>634.0</ele><time>2026-04-10T15:25:12.181Z</time></trkpt><trkpt lat="41.7587917" lon="15.7999"><ele>634.0</ele><time>2026-04-10T15:25:13.182Z</time></trkpt><trkpt lat="41.7587917" lon="15.800095"><ele>634.0</ele><time>2026-04-10T15:25:14.185Z</time></trkpt><trkpt lat="41.7587817" lon="15.8002917"><ele>634.0</ele><time>2026-04-10T15:25:15.187Z</time></trkpt><trkpt lat="41.7587583" lon="15.8005"><ele>632.6666666666667</ele><time>2026-04-10T15:25:16.188Z</time></trkpt><trkpt lat="41.7587333" lon="15.800725"><ele>631.3333333333334</ele><time>2026-04-10T15:25:17.186Z</time></trkpt><trkpt lat="41.7586983" lon="15.8009683"><ele>630.0</ele><time>2026-04-10T15:25:18.195Z</time></trkpt><trkpt lat="41.758665" lon="15.8012217"><ele>629.3333333333334</ele><time>2026-04-10T15:25:19.189Z</time></trkpt><trkpt lat="41.7586317" lon="15.801485"><ele>628.6666666666667</ele><time>2026-04-10T15:25:20.194Z</time></trkpt><trkpt lat="41.758595" lon="15.8017517"><ele>628.0</ele><time>2026-04-10T15:25:21.193Z</time></trkpt><trkpt lat="41.75856" lon="15.8020067"><ele>628.0</ele><time>2026-04-10T15:25:22.192Z</time></trkpt><trkpt lat="41.7585267" lon="15.8022517"><ele>628.0</ele><time>2026-04-10T15:25:23.181Z</time></trkpt><trkpt lat="41.758495" lon="15.8024883"><ele>628.0</ele><time>2026-04-10T15:25:24.184Z</time></trkpt><trkpt lat="41.7584633" lon="15.802715"><ele>628.0</ele><time>2026-04-10T15:25:25.178Z</time></trkpt><trkpt lat="41.7584317" lon="15.8029333"><ele>628.0</ele><time>2026-04-10T15:25:26.179Z</time></trkpt><trkpt lat="41.7584" lon="15.8031517"><ele>628.0</ele><time>2026-04-10T15:25:27.177Z</time></trkpt><trkpt lat="41.7583683" lon="15.803365"><ele>627.5</ele><time>2026-04-10T15:25:28.182Z</time></trkpt><trkpt lat="41.7583333" lon="15.803565"><ele>627.0</ele><time>2026-04-10T15:25:29.184Z</time></trkpt><trkpt lat="41.7582917" lon="15.8037417"><ele>626.5</ele><time>2026-04-10T15:25:30.183Z</time></trkpt><trkpt lat="41.7582317" lon="15.8038983"><ele>626.0</ele><time>2026-04-10T15:25:31.183Z</time></trkpt><trkpt lat="41.7581517" lon="15.8040283"><ele>626.0</ele><time>2026-04-10T15:25:32.188Z</time></trkpt><trkpt lat="41.7580567" lon="15.8041417"><ele>626.0</ele><time>2026-04-10T15:25:33.177Z</time></trkpt><trkpt lat="41.7579433" lon="15.8042467"><ele>626.0</ele><time>2026-04-10T15:25:34.189Z</time></trkpt><trkpt lat="41.7578183" lon="15.8043467"><ele>626.0</ele><time>2026-04-10T15:25:35.187Z</time></trkpt><trkpt lat="41.7576983" lon="15.8044467"><ele>624.25</ele><time>2026-04-10T15:25:36.182Z</time></trkpt><trkpt lat="41.7575817" lon="15.804545"><ele>622.5</ele><time>2026-04-10T15:25:37.185Z</time></trkpt><trkpt lat="41.757455" lon="15.8046317"><ele>620.75</ele><time>2026-04-10T15:25:38.18Z</time></trkpt><trkpt lat="41.7573167" lon="15.804705"><ele>619.0</ele><time>2026-04-10T15:25:39.179Z</time></trkpt><trkpt lat="41.7571667" lon="15.80477"><ele>619.0</ele><time>2026-04-10T15:25:40.183Z</time></trkpt><trkpt lat="41.7570083" lon="15.8048317"><ele>619.0</ele><time>2026-04-10T15:25:41.18Z</time></trkpt><trkpt lat="41.7568433" lon="15.8048917"><ele>619.0</ele><time>2026-04-10T15:25:42.182Z</time></trkpt><trkpt lat="41.756685" lon="15.8049467"><ele>620.25</ele><time>2026-04-10T15:25:43.178Z</time></trkpt><trkpt lat="41.7565367" lon="15.805"><ele>621.5</ele><time>2026-04-10T15:25:44.187Z</time></trkpt><trkpt lat="41.756395" lon="15.8050517"><ele>622.75</ele><time>2026-04-10T15:25:45.182Z</time></trkpt><trkpt lat="41.7562617" lon="15.8050983"><ele>624.0</ele><time>2026-04-10T15:25:46.191Z</time></trkpt><trkpt lat="41.7561367" lon="15.8051467"><ele>624.8</ele><time>2026-04-10T15:25:47.181Z</time></trkpt><trkpt lat="41.7560283" lon="15.8051967"><ele>625.5999999999999</ele><time>2026-04-10T15:25:48.181Z</time></trkpt><trkpt lat="41.7559367" lon="15.8052417"><ele>626.4</ele><time>2026-04-10T15:25:49.187Z</time></trkpt><trkpt lat="41.7558683" lon="15.8053133"><ele>627.1999999999999</ele><time>2026-04-10T15:25:50.183Z</time></trkpt><trkpt lat="41.7558167" lon="15.80541"><ele>628.0</ele><time>2026-04-10T15:25:51.185Z</time></trkpt><trkpt lat="41.7557783" lon="15.805515"><ele>628.0</ele><time>2026-04-10T15:25:52.189Z</time></trkpt><trkpt lat="41.75576" lon="15.8056283"><ele>628.0</ele><time>2026-04-10T15:25:53.182Z</time></trkpt><trkpt lat="41.755775" lon="15.80575"><ele>628.0</ele><time>2026-04-10T15:25:54.182Z</time></trkpt><trkpt lat="41.7558233" lon="15.8058733"><ele>628.0</ele><time>2026-04-10T15:25:55.183Z</time></trkpt><trkpt lat="41.755885" lon="15.805985"><ele>628.0</ele><time>2026-04-10T15:25:56.182Z</time></trkpt><trkpt lat="41.75594" lon="15.8060917"><ele>628.6</ele><time>2026-04-10T15:25:57.181Z</time></trkpt><trkpt lat="41.7559833" lon="15.8062033"><ele>629.1999999999999</ele><time>2026-04-10T15:25:58.181Z</time></trkpt><trkpt lat="41.7560183" lon="15.8063233"><ele>629.8</ele><time>2026-04-10T15:25:59.18Z</time></trkpt><trkpt lat="41.7560383" lon="15.8064433"><ele>630.4</ele><time>2026-04-10T15:26:00.186Z</time></trkpt><trkpt lat="41.7560467" lon="15.8065583"><ele>631.0</ele><time>2026-04-10T15:26:01.184Z</time></trkpt><trkpt lat="41.7560433" lon="15.8066767"><ele>631.0</ele><time>2026-04-10T15:26:02.187Z</time></trkpt><trkpt lat="41.7560283" lon="15.8068017"><ele>631.0</ele><time>2026-04-10T15:26:03.187Z</time></trkpt><trkpt lat="41.75599" lon="15.80694"><ele>631.0</ele><time>2026-04-10T15:26:04.187Z</time></trkpt><trkpt lat="41.7559317" lon="15.8070933"><ele>631.0</ele><time>2026-04-10T15:26:05.19Z</time></trkpt><trkpt lat="41.7558633" lon="15.807265"><ele>630.6666666666667</ele><time>2026-04-10T15:26:06.189Z</time></trkpt><trkpt lat="41.755785" lon="15.807455"><ele>630.3333333333334</ele><time>2026-04-10T15:26:07.184Z</time></trkpt><trkpt lat="41.7557117" lon="15.8076467"><ele>630.0</ele><time>2026-04-10T15:26:08.189Z</time></trkpt><trkpt lat="41.7556333" lon="15.8078383"><ele>629.0</ele><time>2026-04-10T15:26:09.188Z</time></trkpt><trkpt lat="41.7555583" lon="15.80803"><ele>628.0</ele><time>2026-04-10T15:26:10.181Z</time></trkpt><trkpt lat="41.7554783" lon="15.8082217"><ele>627.0</ele><time>2026-04-10T15:26:11.181Z</time></trkpt><trkpt lat="41.755405" lon="15.808405"><ele>626.5</ele><time>2026-04-10T15:26:12.182Z</time></trkpt><trkpt lat="41.7553333" lon="15.808575"><ele>626.0</ele><time>2026-04-10T15:26:13.178Z</time></trkpt><trkpt lat="41.7552667" lon="15.8087367"><ele>625.5</ele><time>2026-04-10T15:26:14.182Z</time></trkpt><trkpt lat="41.7552033" lon="15.8089067"><ele>625.0</ele><time>2026-04-10T15:26:15.184Z</time></trkpt><trkpt lat="41.7551333" lon="15.8090767"><ele>626.25</ele><time>2026-04-10T15:26:16.188Z</time></trkpt><trkpt lat="41.755065" lon="15.8092467"><ele>627.5</ele><time>2026-04-10T15:26:17.182Z</time></trkpt><trkpt lat="41.755" lon="15.8094117"><ele>628.75</ele><time>2026-04-10T15:26:18.18Z</time></trkpt><trkpt lat="41.754935" lon="15.8095683"><ele>630.0</ele><time>2026-04-10T15:26:19.189Z</time></trkpt><trkpt lat="41.7548683" lon="15.80972"><ele>630.0</ele><time>2026-04-10T15:26:20.186Z</time></trkpt><trkpt lat="41.7547983" lon="15.80987"><ele>630.0</ele><time>2026-04-10T15:26:21.18Z</time></trkpt><trkpt lat="41.75473" lon="15.8100167"><ele>630.0</ele><time>2026-04-10T15:26:22.194Z</time></trkpt><trkpt lat="41.7546667" lon="15.8101583"><ele>630.0</ele><time>2026-04-10T15:26:23.185Z</time></trkpt><trkpt lat="41.754605" lon="15.8102933"><ele>628.6</ele><time>2026-04-10T15:26:24.189Z</time></trkpt><trkpt lat="41.7545433" lon="15.8104117"><ele>627.2</ele><time>2026-04-10T15:26:25.19Z</time></trkpt><trkpt lat="41.7544917" lon="15.8105117"><ele>625.8</ele><time>2026-04-10T15:26:26.191Z</time></trkpt><trkpt lat="41.754445" lon="15.8105967"><ele>624.4</ele><time>2026-04-10T15:26:27.181Z</time></trkpt><trkpt lat="41.7544133" lon="15.8107067"><ele>623.0</ele><time>2026-04-10T15:26:29.178Z</time></trkpt><trkpt lat="41.7544783" lon="15.8108083"><ele>623.0</ele><time>2026-04-10T15:26:32.19Z</time></trkpt><trkpt lat="41.75457" lon="15.8109217"><ele>623.0</ele><time>2026-04-10T15:26:34.182Z</time></trkpt><trkpt lat="41.7545983" lon="15.8110133"><ele>623.0</ele><time>2026-04-10T15:26:35.176Z</time></trkpt><trkpt lat="41.7546017" lon="15.8111217"><ele>623.0</ele><time>2026-04-10T15:26:36.181Z</time></trkpt><trkpt lat="41.754545" lon="15.8112583"><ele>623.0</ele><time>2026-04-10T15:26:37.177Z</time></trkpt><trkpt lat="41.754485" lon="15.81141"><ele>624.5</ele><time>2026-04-10T15:26:38.178Z</time></trkpt><trkpt lat="41.7544183" lon="15.81157"><ele>626.0</ele><time>2026-04-10T15:26:39.178Z</time></trkpt><trkpt lat="41.7543517" lon="15.8117333"><ele>627.5</ele><time>2026-04-10T15:26:40.181Z</time></trkpt><trkpt lat="41.7542867" lon="15.811905"><ele>629.0</ele><time>2026-04-10T15:26:41.18Z</time></trkpt><trkpt lat="41.7542433" lon="15.812085"><ele>629.0</ele><time>2026-04-10T15:26:42.179Z</time></trkpt><trkpt lat="41.754205" lon="15.81227"><ele>629.0</ele><time>2026-04-10T15:26:43.183Z</time></trkpt><trkpt lat="41.7541817" lon="15.81246"><ele>629.0</ele><time>2026-04-10T15:26:44.183Z</time></trkpt><trkpt lat="41.7541633" lon="15.81265"><ele>629.0</ele><time>2026-04-10T15:26:45.184Z</time></trkpt><trkpt lat="41.7541483" lon="15.81283"><ele>628.5</ele><time>2026-04-10T15:26:46.178Z</time></trkpt><trkpt lat="41.7541417" lon="15.813005"><ele>628.0</ele><time>2026-04-10T15:26:47.179Z</time></trkpt><trkpt lat="41.754155" lon="15.8131817"><ele>627.5</ele><time>2026-04-10T15:26:48.178Z</time></trkpt><trkpt lat="41.7541867" lon="15.813355"><ele>627.0</ele><time>2026-04-10T15:26:49.182Z</time></trkpt><trkpt lat="41.7542617" lon="15.8135217"><ele>627.0</ele><time>2026-04-10T15:26:50.181Z</time></trkpt><trkpt lat="41.7543583" lon="15.8136833"><ele>627.0</ele><time>2026-04-10T15:26:51.179Z</time></trkpt><trkpt lat="41.754465" lon="15.8138467"><ele>627.0</ele><time>2026-04-10T15:26:52.185Z</time></trkpt><trkpt lat="41.754575" lon="15.8140083"><ele>625.0</ele><time>2026-04-10T15:26:53.177Z</time></trkpt><trkpt lat="41.7546933" lon="15.8141617"><ele>623.0</ele><time>2026-04-10T15:26:54.183Z</time></trkpt><trkpt lat="41.754815" lon="15.8143117"><ele>621.0</ele><time>2026-04-10T15:26:55.176Z</time></trkpt><trkpt lat="41.7549333" lon="15.814455"><ele>621.0</ele><time>2026-04-10T15:26:56.18Z</time></trkpt><trkpt lat="41.7550517" lon="15.81458"><ele>621.0</ele><time>2026-04-10T15:26:57.177Z</time></trkpt><trkpt lat="41.7551817" lon="15.8146883"><ele>621.0</ele><time>2026-04-10T15:26:58.19Z</time></trkpt><trkpt lat="41.7553283" lon="15.8147783"><ele>618.0</ele><time>2026-04-10T15:26:59.182Z</time></trkpt><trkpt lat="41.7554833" lon="15.8148617"><ele>615.0</ele><time>2026-04-10T15:27:00.187Z</time></trkpt><trkpt lat="41.75563" lon="15.81494"><ele>612.0</ele><time>2026-04-10T15:27:01.178Z</time></trkpt><trkpt lat="41.755765" lon="15.8150117"><ele>612.0</ele><time>2026-04-10T15:27:02.184Z</time></trkpt><trkpt lat="41.7558833" lon="15.8150983"><ele>612.0</ele><time>2026-04-10T15:27:03.188Z</time></trkpt><trkpt lat="41.755985" lon="15.8152117"><ele>612.0</ele><time>2026-04-10T15:27:04.182Z</time></trkpt><trkpt lat="41.7560883" lon="15.8153517"><ele>612.0</ele><time>2026-04-10T15:27:05.183Z</time></trkpt><trkpt lat="41.756195" lon="15.8155233"><ele>610.0</ele><time>2026-04-10T15:27:06.187Z</time></trkpt><trkpt lat="41.7563067" lon="15.8157083"><ele>608.0</ele><time>2026-04-10T15:27:07.187Z</time></trkpt><trkpt lat="41.7564267" lon="15.815895"><ele>606.0</ele><time>2026-04-10T15:27:08.189Z</time></trkpt><trkpt lat="41.7565567" lon="15.8160917"><ele>605.0</ele><time>2026-04-10T15:27:09.187Z</time></trkpt><trkpt lat="41.756695" lon="15.816295"><ele>604.0</ele><time>2026-04-10T15:27:10.186Z</time></trkpt><trkpt lat="41.756825" lon="15.8164983"><ele>603.0</ele><time>2026-04-10T15:27:11.19Z</time></trkpt><trkpt lat="41.7569483" lon="15.8166967"><ele>602.0</ele><time>2026-04-10T15:27:12.194Z</time></trkpt><trkpt lat="41.757065" lon="15.816885"><ele>601.0</ele><time>2026-04-10T15:27:13.188Z</time></trkpt><trkpt lat="41.75717" lon="15.8170633"><ele>600.0</ele><time>2026-04-10T15:27:14.187Z</time></trkpt><trkpt lat="41.757265" lon="15.8172117"><ele>600.0</ele><time>2026-04-10T15:27:15.189Z</time></trkpt><trkpt lat="41.75735" lon="15.8173283"><ele>600.0</ele><time>2026-04-10T15:27:16.187Z</time></trkpt><trkpt lat="41.7574333" lon="15.81741"><ele>600.0</ele><time>2026-04-10T15:27:17.189Z</time></trkpt><trkpt lat="41.7575233" lon="15.8174517"><ele>600.0</ele><time>2026-04-10T15:27:18.192Z</time></trkpt><trkpt lat="41.7576167" lon="15.8174567"><ele>600.0</ele><time>2026-04-10T15:27:19.185Z</time></trkpt><trkpt lat="41.7577117" lon="15.8174167"><ele>601.25</ele><time>2026-04-10T15:27:20.192Z</time></trkpt><trkpt lat="41.75779" lon="15.8173433"><ele>602.5</ele><time>2026-04-10T15:27:21.184Z</time></trkpt><trkpt lat="41.7578467" lon="15.8172233"><ele>603.75</ele><time>2026-04-10T15:27:22.182Z</time></trkpt><trkpt lat="41.757895" lon="15.8170817"><ele>605.0</ele><time>2026-04-10T15:27:23.183Z</time></trkpt><trkpt lat="41.75795" lon="15.816915"><ele>605.0</ele><time>2026-04-10T15:27:24.187Z</time></trkpt><trkpt lat="41.75801" lon="15.8167317"><ele>605.0</ele><time>2026-04-10T15:27:25.183Z</time></trkpt><trkpt lat="41.758075" lon="15.8165333"><ele>605.0</ele><time>2026-04-10T15:27:26.185Z</time></trkpt><trkpt lat="41.7581517" lon="15.8163267"><ele>605.0</ele><time>2026-04-10T15:27:27.182Z</time></trkpt><trkpt lat="41.7582267" lon="15.8161167"><ele>605.0</ele><time>2026-04-10T15:27:28.189Z</time></trkpt><trkpt lat="41.7583017" lon="15.8159083"><ele>605.0</ele><time>2026-04-10T15:27:29.19Z</time></trkpt><trkpt lat="41.7583717" lon="15.8157217"><ele>605.25</ele><time>2026-04-10T15:27:30.191Z</time></trkpt><trkpt lat="41.7584367" lon="15.8155467"><ele>605.5</ele><time>2026-04-10T15:27:31.19Z</time></trkpt><trkpt lat="41.758485" lon="15.81538"><ele>605.75</ele><time>2026-04-10T15:27:32.19Z</time></trkpt><trkpt lat="41.75851" lon="15.8151983"><ele>606.0</ele><time>2026-04-10T15:27:33.192Z</time></trkpt><trkpt lat="41.7585067" lon="15.8150117"><ele>606.5</ele><time>2026-04-10T15:27:34.179Z</time></trkpt><trkpt lat="41.758485" lon="15.814845"><ele>607.0</ele><time>2026-04-10T15:27:35.184Z</time></trkpt><trkpt lat="41.7584833" lon="15.8146917"><ele>607.5</ele><time>2026-04-10T15:27:36.18Z</time></trkpt><trkpt lat="41.7585067" lon="15.8145317"><ele>608.0</ele><time>2026-04-10T15:27:37.185Z</time></trkpt><trkpt lat="41.7585367" lon="15.81435"><ele>609.5</ele><time>2026-04-10T15:27:38.192Z</time></trkpt><trkpt lat="41.7585683" lon="15.8141583"><ele>611.0</ele><time>2026-04-10T15:27:39.181Z</time></trkpt><trkpt lat="41.7585983" lon="15.813965"><ele>612.5</ele><time>2026-04-10T15:27:40.179Z</time></trkpt><trkpt lat="41.7586233" lon="15.8137733"><ele>614.0</ele><time>2026-04-10T15:27:41.185Z</time></trkpt><trkpt lat="41.7586367" lon="15.8135783"><ele>615.0</ele><time>2026-04-10T15:27:42.194Z</time></trkpt><trkpt lat="41.7586383" lon="15.8133867"><ele>616.0</ele><time>2026-04-10T15:27:43.188Z</time></trkpt><trkpt lat="41.7586483" lon="15.8131967"><ele>617.0</ele><time>2026-04-10T15:27:44.195Z</time></trkpt><trkpt lat="41.7586817" lon="15.81302"><ele>618.0</ele><time>2026-04-10T15:27:45.183Z</time></trkpt><trkpt lat="41.7587267" lon="15.812845"><ele>618.0</ele><time>2026-04-10T15:27:46.188Z</time></trkpt><trkpt lat="41.7587567" lon="15.81267"><ele>618.0</ele><time>2026-04-10T15:27:47.186Z</time></trkpt><trkpt lat="41.7587633" lon="15.8124833"><ele>618.0</ele><time>2026-04-10T15:27:48.186Z</time></trkpt><trkpt lat="41.7587583" lon="15.812285"><ele>618.0</ele><time>2026-04-10T15:27:49.189Z</time></trkpt><trkpt lat="41.7587417" lon="15.8120717"><ele>618.6666666666666</ele><time>2026-04-10T15:27:50.197Z</time></trkpt><trkpt lat="41.7587183" lon="15.8118417"><ele>619.3333333333333</ele><time>2026-04-10T15:27:51.19Z</time></trkpt><trkpt lat="41.7586883" lon="15.8116133"><ele>620.0</ele><time>2026-04-10T15:27:52.187Z</time></trkpt><trkpt lat="41.7586617" lon="15.8114017"><ele>621.0</ele><time>2026-04-10T15:27:53.188Z</time></trkpt><trkpt lat="41.7586333" lon="15.811195"><ele>622.0</ele><time>2026-04-10T15:27:54.179Z</time></trkpt><trkpt lat="41.7586067" lon="15.8109967"><ele>623.0</ele><time>2026-04-10T15:27:55.186Z</time></trkpt><trkpt lat="41.7585833" lon="15.810815"><ele>624.0</ele><time>2026-04-10T15:27:56.189Z</time></trkpt><trkpt lat="41.758565" lon="15.8106533"><ele>624.5</ele><time>2026-04-10T15:27:57.186Z</time></trkpt><trkpt lat="41.7585517" lon="15.8105033"><ele>625.0</ele><time>2026-04-10T15:27:58.187Z</time></trkpt><trkpt lat="41.7585617" lon="15.8103567"><ele>625.5</ele><time>2026-04-10T15:27:59.186Z</time></trkpt><trkpt lat="41.75859" lon="15.8102033"><ele>626.0</ele><time>2026-04-10T15:28:00.182Z</time></trkpt><trkpt lat="41.758625" lon="15.8100533"><ele>626.0</ele><time>2026-04-10T15:28:01.18Z</time></trkpt><trkpt lat="41.7586717" lon="15.8099017"><ele>626.0</ele><time>2026-04-10T15:28:02.18Z</time></trkpt><trkpt lat="41.758715" lon="15.809755"><ele>626.0</ele><time>2026-04-10T15:28:03.178Z</time></trkpt><trkpt lat="41.7587567" lon="15.8095967"><ele>626.0</ele><time>2026-04-10T15:28:04.185Z</time></trkpt><trkpt lat="41.758795" lon="15.80944"><ele>624.5</ele><time>2026-04-10T15:28:05.178Z</time></trkpt><trkpt lat="41.7588467" lon="15.8092917"><ele>623.0</ele><time>2026-04-10T15:28:06.181Z</time></trkpt><trkpt lat="41.7588967" lon="15.809145"><ele>621.5</ele><time>2026-04-10T15:28:07.186Z</time></trkpt><trkpt lat="41.758945" lon="15.809"><ele>620.0</ele><time>2026-04-10T15:28:08.184Z</time></trkpt><trkpt lat="41.7589917" lon="15.8088683"><ele>620.0</ele><time>2026-04-10T15:28:09.181Z</time></trkpt><trkpt lat="41.75904" lon="15.8087417"><ele>620.0</ele><time>2026-04-10T15:28:10.181Z</time></trkpt><trkpt lat="41.75909" lon="15.8086217"><ele>620.0</ele><time>2026-04-10T15:28:11.19Z</time></trkpt><trkpt lat="41.7591433" lon="15.8085233"><ele>620.0</ele><time>2026-04-10T15:28:12.185Z</time></trkpt><trkpt lat="41.7592033" lon="15.8084467"><ele>620.0</ele><time>2026-04-10T15:28:13.183Z</time></trkpt><trkpt lat="41.7592733" lon="15.8083933"><ele>620.5</ele><time>2026-04-10T15:28:14.185Z</time></trkpt><trkpt lat="41.7593517" lon="15.8083617"><ele>621.0</ele><time>2026-04-10T15:28:15.197Z</time></trkpt><trkpt lat="41.7594317" lon="15.80835"><ele>621.5</ele><time>2026-04-10T15:28:16.182Z</time></trkpt><trkpt lat="41.759515" lon="15.8083417"><ele>622.0</ele><time>2026-04-10T15:28:17.178Z</time></trkpt><trkpt lat="41.759595" lon="15.8083283"><ele>622.5</ele><time>2026-04-10T15:28:18.179Z</time></trkpt><trkpt lat="41.759675" lon="15.8083"><ele>623.0</ele><time>2026-04-10T15:28:19.182Z</time></trkpt><trkpt lat="41.7597567" lon="15.8082667"><ele>623.0</ele><time>2026-04-10T15:28:20.183Z</time></trkpt><trkpt lat="41.7598283" lon="15.8082167"><ele>623.0</ele><time>2026-04-10T15:28:21.182Z</time></trkpt><trkpt lat="41.7598717" lon="15.8081217"><ele>623.0</ele><time>2026-04-10T15:28:22.185Z</time></trkpt><trkpt lat="41.759905" lon="15.8078933"><ele>623.0</ele><time>2026-04-10T15:28:24.183Z</time></trkpt><trkpt lat="41.7599233" lon="15.8077667"><ele>623.0</ele><time>2026-04-10T15:28:25.181Z</time></trkpt><trkpt lat="41.7599483" lon="15.8076267"><ele>624.4</ele><time>2026-04-10T15:28:26.18Z</time></trkpt><trkpt lat="41.75998" lon="15.8074783"><ele>625.8</ele><time>2026-04-10T15:28:27.178Z</time></trkpt><trkpt lat="41.76001" lon="15.8073283"><ele>627.2</ele><time>2026-04-10T15:28:28.179Z</time></trkpt><trkpt lat="41.7600567" lon="15.8071967"><ele>628.6</ele><time>2026-04-10T15:28:29.179Z</time></trkpt><trkpt lat="41.7601217" lon="15.8070867"><ele>630.0</ele><time>2026-04-10T15:28:30.18Z</time></trkpt><trkpt lat="41.760205" lon="15.8069883"><ele>630.0</ele><time>2026-04-10T15:28:31.183Z</time></trkpt><trkpt lat="41.7603033" lon="15.8069"><ele>630.0</ele><time>2026-04-10T15:28:32.179Z</time></trkpt><trkpt lat="41.7604133" lon="15.8068067"><ele>630.0</ele><time>2026-04-10T15:28:33.184Z</time></trkpt><trkpt lat="41.760535" lon="15.8067017"><ele>630.0</ele><time>2026-04-10T15:28:34.177Z</time></trkpt><trkpt lat="41.7606533" lon="15.8065883"><ele>625.3333333333334</ele><time>2026-04-10T15:28:35.179Z</time></trkpt><trkpt lat="41.7607667" lon="15.806465"><ele>620.6666666666667</ele><time>2026-04-10T15:28:36.187Z</time></trkpt><trkpt lat="41.7608683" lon="15.806315"><ele>616.0</ele><time>2026-04-10T15:28:37.18Z</time></trkpt><trkpt lat="41.7609717" lon="15.8061517"><ele>618.6666666666667</ele><time>2026-04-10T15:28:38.189Z</time></trkpt><trkpt lat="41.7610783" lon="15.8059733"><ele>621.3333333333334</ele><time>2026-04-10T15:28:39.178Z</time></trkpt><trkpt lat="41.76118" lon="15.805785"><ele>624.0</ele><time>2026-04-10T15:28:40.18Z</time></trkpt><trkpt lat="41.76128" lon="15.80559"><ele>624.0</ele><time>2026-04-10T15:28:41.184Z</time></trkpt><trkpt lat="41.7613767" lon="15.8053933"><ele>624.0</ele><time>2026-04-10T15:28:42.179Z</time></trkpt><trkpt lat="41.761465" lon="15.8052033"><ele>624.0</ele><time>2026-04-10T15:28:43.184Z</time></trkpt><trkpt lat="41.7615483" lon="15.8050133"><ele>617.3333333333334</ele><time>2026-04-10T15:28:44.181Z</time></trkpt><trkpt lat="41.7616317" lon="15.80483"><ele>610.6666666666667</ele><time>2026-04-10T15:28:45.18Z</time></trkpt><trkpt lat="41.7617233" lon="15.8046467"><ele>604.0</ele><time>2026-04-10T15:28:46.177Z</time></trkpt><trkpt lat="41.7618317" lon="15.8044567"><ele>605.0</ele><time>2026-04-10T15:28:47.18Z</time></trkpt><trkpt lat="41.761955" lon="15.804265"><ele>606.0</ele><time>2026-04-10T15:28:48.182Z</time></trkpt><trkpt lat="41.76208" lon="15.8040783"><ele>607.0</ele><time>2026-04-10T15:28:49.183Z</time></trkpt><trkpt lat="41.7622017" lon="15.8038917"><ele>607.0</ele><time>2026-04-10T15:28:50.181Z</time></trkpt><trkpt lat="41.7623217" lon="15.80371"><ele>607.0</ele><time>2026-04-10T15:28:51.181Z</time></trkpt><trkpt lat="41.7624383" lon="15.80354"><ele>607.0</ele><time>2026-04-10T15:28:52.182Z</time></trkpt><trkpt lat="41.7625533" lon="15.8033817"><ele>602.0</ele><time>2026-04-10T15:28:53.18Z</time></trkpt><trkpt lat="41.7626667" lon="15.8032383"><ele>597.0</ele><time>2026-04-10T15:28:54.192Z</time></trkpt><trkpt lat="41.762785" lon="15.8031183"><ele>592.0</ele><time>2026-04-10T15:28:55.18Z</time></trkpt><trkpt lat="41.7629017" lon="15.80303"><ele>587.0</ele><time>2026-04-10T15:28:56.18Z</time></trkpt><trkpt lat="41.7630033" lon="15.8029867"><ele>587.0</ele><time>2026-04-10T15:28:57.181Z</time></trkpt><trkpt lat="41.76309" lon="15.8029883"><ele>587.0</ele><time>2026-04-10T15:28:58.181Z</time></trkpt><trkpt lat="41.763175" lon="15.8030167"><ele>587.0</ele><time>2026-04-10T15:28:59.178Z</time></trkpt><trkpt lat="41.76325" lon="15.8031067"><ele>587.0</ele><time>2026-04-10T15:29:00.18Z</time></trkpt><trkpt lat="41.7633283" lon="15.8032217"><ele>587.0</ele><time>2026-04-10T15:29:01.178Z</time></trkpt><trkpt lat="41.763415" lon="15.803365"><ele>583.6666666666666</ele><time>2026-04-10T15:29:02.184Z</time></trkpt><trkpt lat="41.7635067" lon="15.8035283"><ele>580.3333333333334</ele><time>2026-04-10T15:29:03.19Z</time></trkpt><trkpt lat="41.7635983" lon="15.8037033"><ele>577.0</ele><time>2026-04-10T15:29:04.18Z</time></trkpt><trkpt lat="41.76369" lon="15.803875"><ele>577.0</ele><time>2026-04-10T15:29:05.18Z</time></trkpt><trkpt lat="41.76378" lon="15.8040433"><ele>577.0</ele><time>2026-04-10T15:29:06.179Z</time></trkpt><trkpt lat="41.7638767" lon="15.804205"><ele>577.0</ele><time>2026-04-10T15:29:07.181Z</time></trkpt><trkpt lat="41.763985" lon="15.8043617"><ele>573.3333333333334</ele><time>2026-04-10T15:29:08.184Z</time></trkpt><trkpt lat="41.7641017" lon="15.804515"><ele>569.6666666666666</ele><time>2026-04-10T15:29:09.182Z</time></trkpt><trkpt lat="41.7642317" lon="15.80466"><ele>566.0</ele><time>2026-04-10T15:29:10.178Z</time></trkpt><trkpt lat="41.764365" lon="15.8047917"><ele>566.0</ele><time>2026-04-10T15:29:11.183Z</time></trkpt><trkpt lat="41.7644933" lon="15.80491"><ele>566.0</ele><time>2026-04-10T15:29:12.182Z</time></trkpt><trkpt lat="41.7646" lon="15.8050317"><ele>566.0</ele><time>2026-04-10T15:29:13.18Z</time></trkpt><trkpt lat="41.7646883" lon="15.805155"><ele>566.0</ele><time>2026-04-10T15:29:14.182Z</time></trkpt><trkpt lat="41.7647567" lon="15.8052967"><ele>569.0</ele><time>2026-04-10T15:29:15.185Z</time></trkpt><trkpt lat="41.7648083" lon="15.8054583"><ele>572.0</ele><time>2026-04-10T15:29:16.18Z</time></trkpt><trkpt lat="41.7648483" lon="15.805635"><ele>575.0</ele><time>2026-04-10T15:29:17.181Z</time></trkpt><trkpt lat="41.7648833" lon="15.805825"><ele>578.0</ele><time>2026-04-10T15:29:18.189Z</time></trkpt><trkpt lat="41.7649233" lon="15.80603"><ele>581.6666666666666</ele><time>2026-04-10T15:29:19.182Z</time></trkpt><trkpt lat="41.764955" lon="15.8062433"><ele>585.3333333333334</ele><time>2026-04-10T15:29:20.183Z</time></trkpt><trkpt lat="41.7649883" lon="15.8064617"><ele>589.0</ele><time>2026-04-10T15:29:21.18Z</time></trkpt><trkpt lat="41.7650167" lon="15.8066783"><ele>591.6666666666667</ele><time>2026-04-10T15:29:22.189Z</time></trkpt><trkpt lat="41.7650517" lon="15.8068867"><ele>594.3333333333334</ele><time>2026-04-10T15:29:23.18Z</time></trkpt><trkpt lat="41.7650867" lon="15.807085"><ele>597.0</ele><time>2026-04-10T15:29:24.182Z</time></trkpt><trkpt lat="41.7651283" lon="15.8072717"><ele>597.0</ele><time>2026-04-10T15:29:25.18Z</time></trkpt><trkpt lat="41.7651667" lon="15.8074483"><ele>597.0</ele><time>2026-04-10T15:29:26.181Z</time></trkpt><trkpt lat="41.765215" lon="15.8076167"><ele>597.0</ele><time>2026-04-10T15:29:27.182Z</time></trkpt><trkpt lat="41.765265" lon="15.80778"><ele>597.0</ele><time>2026-04-10T15:29:28.184Z</time></trkpt><trkpt lat="41.765315" lon="15.8079383"><ele>592.6</ele><time>2026-04-10T15:29:29.182Z</time></trkpt><trkpt lat="41.765355" lon="15.8080917"><ele>588.2</ele><time>2026-04-10T15:29:30.181Z</time></trkpt><trkpt lat="41.765395" lon="15.80823"><ele>583.8</ele><time>2026-04-10T15:29:31.182Z</time></trkpt><trkpt lat="41.76544" lon="15.80834"><ele>579.4</ele><time>2026-04-10T15:29:32.182Z</time></trkpt><trkpt lat="41.765495" lon="15.8084183"><ele>575.0</ele><time>2026-04-10T15:29:33.181Z</time></trkpt><trkpt lat="41.765565" lon="15.80848"><ele>575.0</ele><time>2026-04-10T15:29:34.181Z</time></trkpt><trkpt lat="41.7656483" lon="15.8084883"><ele>575.0</ele><time>2026-04-10T15:29:35.182Z</time></trkpt><trkpt lat="41.7657317" lon="15.8084833"><ele>575.0</ele><time>2026-04-10T15:29:36.178Z</time></trkpt><trkpt lat="41.7658083" lon="15.8084233"><ele>575.0</ele><time>2026-04-10T15:29:37.18Z</time></trkpt><trkpt lat="41.76588" lon="15.80832"><ele>575.0</ele><time>2026-04-10T15:29:38.18Z</time></trkpt><trkpt lat="41.7659583" lon="15.8082233"><ele>575.25</ele><time>2026-04-10T15:29:39.178Z</time></trkpt><trkpt lat="41.766045" lon="15.808135"><ele>575.5</ele><time>2026-04-10T15:29:40.178Z</time></trkpt><trkpt lat="41.7661483" lon="15.808075"><ele>575.75</ele><time>2026-04-10T15:29:41.177Z</time></trkpt><trkpt lat="41.76626" lon="15.8080317"><ele>576.0</ele><time>2026-04-10T15:29:42.181Z</time></trkpt><trkpt lat="41.766375" lon="15.8080017"><ele>576.0</ele><time>2026-04-10T15:29:43.18Z</time></trkpt><trkpt lat="41.7664883" lon="15.807975"><ele>576.0</ele><time>2026-04-10T15:29:44.183Z</time></trkpt><trkpt lat="41.7666" lon="15.807955"><ele>576.0</ele><time>2026-04-10T15:29:45.195Z</time></trkpt><trkpt lat="41.7667133" lon="15.80794"><ele>576.0</ele><time>2026-04-10T15:29:46.182Z</time></trkpt><trkpt lat="41.7668233" lon="15.8079333"><ele>573.0</ele><time>2026-04-10T15:29:47.181Z</time></trkpt><trkpt lat="41.7669283" lon="15.80794"><ele>570.0</ele><time>2026-04-10T15:29:48.182Z</time></trkpt><trkpt lat="41.7670367" lon="15.8079667"><ele>567.0</ele><time>2026-04-10T15:29:49.185Z</time></trkpt><trkpt lat="41.76714" lon="15.8080183"><ele>564.0</ele><time>2026-04-10T15:29:50.184Z</time></trkpt><trkpt lat="41.767245" lon="15.8080983"><ele>561.0</ele><time>2026-04-10T15:29:51.179Z</time></trkpt><trkpt lat="41.7673567" lon="15.8081917"><ele>561.0</ele><time>2026-04-10T15:29:52.182Z</time></trkpt><trkpt lat="41.76747" lon="15.8082967"><ele>561.0</ele><time>2026-04-10T15:29:53.178Z</time></trkpt><trkpt lat="41.7675817" lon="15.8084033"><ele>561.0</ele><time>2026-04-10T15:29:54.185Z</time></trkpt><trkpt lat="41.7676917" lon="15.8085117"><ele>561.0</ele><time>2026-04-10T15:29:55.179Z</time></trkpt><trkpt lat="41.7678" lon="15.8086167"><ele>560.0</ele><time>2026-04-10T15:29:56.179Z</time></trkpt><trkpt lat="41.76791" lon="15.808725"><ele>559.0</ele><time>2026-04-10T15:29:57.178Z</time></trkpt><trkpt lat="41.768015" lon="15.8088383"><ele>558.0</ele><time>2026-04-10T15:29:58.179Z</time></trkpt><trkpt lat="41.7681133" lon="15.808945"><ele>557.0</ele><time>2026-04-10T15:29:59.182Z</time></trkpt><trkpt lat="41.76821" lon="15.8090483"><ele>557.0</ele><time>2026-04-10T15:30:00.184Z</time></trkpt><trkpt lat="41.7683083" lon="15.8091467"><ele>557.0</ele><time>2026-04-10T15:30:01.179Z</time></trkpt><trkpt lat="41.768415" lon="15.809245"><ele>557.0</ele><time>2026-04-10T15:30:02.179Z</time></trkpt><trkpt lat="41.76853" lon="15.8093417"><ele>557.0</ele><time>2026-04-10T15:30:03.177Z</time></trkpt><trkpt lat="41.7686517" lon="15.809425"><ele>555.25</ele><time>2026-04-10T15:30:04.18Z</time></trkpt><trkpt lat="41.7687733" lon="15.8094983"><ele>553.5</ele><time>2026-04-10T15:30:05.18Z</time></trkpt><trkpt lat="41.768895" lon="15.80956"><ele>551.75</ele><time>2026-04-10T15:30:06.181Z</time></trkpt><trkpt lat="41.7690117" lon="15.8096133"><ele>550.0</ele><time>2026-04-10T15:30:07.181Z</time></trkpt><trkpt lat="41.7691167" lon="15.8096733"><ele>550.0</ele><time>2026-04-10T15:30:08.183Z</time></trkpt><trkpt lat="41.7692133" lon="15.809735"><ele>550.0</ele><time>2026-04-10T15:30:09.184Z</time></trkpt><trkpt lat="41.7692983" lon="15.8097967"><ele>550.0</ele><time>2026-04-10T15:30:10.179Z</time></trkpt><trkpt lat="41.769375" lon="15.8098583"><ele>550.0</ele><time>2026-04-10T15:30:11.18Z</time></trkpt><trkpt lat="41.7694333" lon="15.8099267"><ele>550.0</ele><time>2026-04-10T15:30:12.181Z</time></trkpt><trkpt lat="41.76947" lon="15.81001"><ele>550.0</ele><time>2026-04-10T15:30:13.178Z</time></trkpt><trkpt lat="41.76949" lon="15.81011"><ele>544.8</ele><time>2026-04-10T15:30:14.179Z</time></trkpt><trkpt lat="41.7694967" lon="15.81022"><ele>539.6</ele><time>2026-04-10T15:30:15.183Z</time></trkpt><trkpt lat="41.7694933" lon="15.8103467"><ele>534.4</ele><time>2026-04-10T15:30:16.178Z</time></trkpt><trkpt lat="41.7694867" lon="15.8104717"><ele>529.2</ele><time>2026-04-10T15:30:17.178Z</time></trkpt><trkpt lat="41.7694767" lon="15.8105983"><ele>524.0</ele><time>2026-04-10T15:30:18.178Z</time></trkpt><trkpt lat="41.7694533" lon="15.810725"><ele>524.0</ele><time>2026-04-10T15:30:19.178Z</time></trkpt><trkpt lat="41.7694217" lon="15.8108583"><ele>524.0</ele><time>2026-04-10T15:30:20.18Z</time></trkpt><trkpt lat="41.7693767" lon="15.8109967"><ele>524.0</ele><time>2026-04-10T15:30:21.18Z</time></trkpt><trkpt lat="41.7693233" lon="15.81113"><ele>524.0</ele><time>2026-04-10T15:30:22.18Z</time></trkpt><trkpt lat="41.76927" lon="15.81126"><ele>524.0</ele><time>2026-04-10T15:30:23.18Z</time></trkpt><trkpt lat="41.76922" lon="15.8113933"><ele>530.75</ele><time>2026-04-10T15:30:24.183Z</time></trkpt><trkpt lat="41.7691833" lon="15.81154"><ele>537.5</ele><time>2026-04-10T15:30:25.179Z</time></trkpt><trkpt lat="41.7691633" lon="15.8117017"><ele>544.25</ele><time>2026-04-10T15:30:26.186Z</time></trkpt><trkpt lat="41.7691517" lon="15.8118633"><ele>551.0</ele><time>2026-04-10T15:30:27.18Z</time></trkpt><trkpt lat="41.7691517" lon="15.81203"><ele>551.0</ele><time>2026-04-10T15:30:28.179Z</time></trkpt><trkpt lat="41.7691717" lon="15.8122017"><ele>551.0</ele><time>2026-04-10T15:30:29.183Z</time></trkpt><trkpt lat="41.7691933" lon="15.81238"><ele>551.0</ele><time>2026-04-10T15:30:30.178Z</time></trkpt><trkpt lat="41.7692283" lon="15.8125617"><ele>551.0</ele><time>2026-04-10T15:30:31.18Z</time></trkpt><trkpt lat="41.76926" lon="15.812745"><ele>550.0</ele><time>2026-04-10T15:30:32.184Z</time></trkpt><trkpt lat="41.769275" lon="15.8129283"><ele>549.0</ele><time>2026-04-10T15:30:33.179Z</time></trkpt><trkpt lat="41.76928" lon="15.8131033"><ele>548.0</ele><time>2026-04-10T15:30:34.182Z</time></trkpt><trkpt lat="41.7692717" lon="15.8132683"><ele>547.0</ele><time>2026-04-10T15:30:35.179Z</time></trkpt><trkpt lat="41.7692483" lon="15.81343"><ele>545.25</ele><time>2026-04-10T15:30:36.181Z</time></trkpt><trkpt lat="41.7692117" lon="15.8135883"><ele>543.5</ele><time>2026-04-10T15:30:37.18Z</time></trkpt><trkpt lat="41.7691683" lon="15.8137383"><ele>541.75</ele><time>2026-04-10T15:30:38.181Z</time></trkpt><trkpt lat="41.7691233" lon="15.8138817"><ele>540.0</ele><time>2026-04-10T15:30:39.181Z</time></trkpt><trkpt lat="41.7690717" lon="15.8140117"><ele>540.0</ele><time>2026-04-10T15:30:40.182Z</time></trkpt><trkpt lat="41.76905" lon="15.8141417"><ele>540.0</ele><time>2026-04-10T15:30:41.182Z</time></trkpt><trkpt lat="41.7690733" lon="15.8142717"><ele>540.0</ele><time>2026-04-10T15:30:42.179Z</time></trkpt><trkpt lat="41.76909" lon="15.8143883"><ele>540.0</ele><time>2026-04-10T15:30:43.179Z</time></trkpt><trkpt lat="41.7691333" lon="15.8144867"><ele>540.0</ele><time>2026-04-10T15:30:44.178Z</time></trkpt><trkpt lat="41.7691867" lon="15.8145683"><ele>540.0</ele><time>2026-04-10T15:30:45.183Z</time></trkpt><trkpt lat="41.7693183" lon="15.81462"><ele>540.0</ele><time>2026-04-10T15:30:47.182Z</time></trkpt><trkpt lat="41.769415" lon="15.8145967"><ele>540.0</ele><time>2026-04-10T15:30:48.182Z</time></trkpt><trkpt lat="41.769505" lon="15.8145567"><ele>540.0</ele><time>2026-04-10T15:30:49.178Z</time></trkpt><trkpt lat="41.7695883" lon="15.8144883"><ele>540.0</ele><time>2026-04-10T15:30:50.18Z</time></trkpt><trkpt lat="41.7696617" lon="15.8144133"><ele>539.5</ele><time>2026-04-10T15:30:51.179Z</time></trkpt><trkpt lat="41.769715" lon="15.8142717"><ele>539.0</ele><time>2026-04-10T15:30:52.177Z</time></trkpt><trkpt lat="41.7697667" lon="15.8141117"><ele>538.5</ele><time>2026-04-10T15:30:53.18Z</time></trkpt><trkpt lat="41.7698217" lon="15.8139167"><ele>538.0</ele><time>2026-04-10T15:30:54.181Z</time></trkpt><trkpt lat="41.76988" lon="15.81369"><ele>535.3333333333334</ele><time>2026-04-10T15:30:55.181Z</time></trkpt><trkpt lat="41.7699417" lon="15.813445"><ele>532.6666666666666</ele><time>2026-04-10T15:30:56.178Z</time></trkpt><trkpt lat="41.7700067" lon="15.8132067"><ele>530.0</ele><time>2026-04-10T15:30:57.177Z</time></trkpt><trkpt lat="41.7700717" lon="15.812985"><ele>530.0</ele><time>2026-04-10T15:30:58.178Z</time></trkpt><trkpt lat="41.770135" lon="15.8127767"><ele>530.0</ele><time>2026-04-10T15:30:59.179Z</time></trkpt><trkpt lat="41.7702017" lon="15.812575"><ele>530.0</ele><time>2026-04-10T15:31:00.185Z</time></trkpt><trkpt lat="41.7702733" lon="15.8123783"><ele>533.6666666666666</ele><time>2026-04-10T15:31:01.182Z</time></trkpt><trkpt lat="41.7703517" lon="15.8122033"><ele>537.3333333333334</ele><time>2026-04-10T15:31:02.18Z</time></trkpt><trkpt lat="41.7704383" lon="15.81203"><ele>541.0</ele><time>2026-04-10T15:31:03.179Z</time></trkpt><trkpt lat="41.7705417" lon="15.8118617"><ele>536.6666666666667</ele><time>2026-04-10T15:31:04.187Z</time></trkpt><trkpt lat="41.770655" lon="15.8117017"><ele>532.3333333333334</ele><time>2026-04-10T15:31:05.182Z</time></trkpt><trkpt lat="41.7707767" lon="15.8115367"><ele>528.0</ele><time>2026-04-10T15:31:06.179Z</time></trkpt><trkpt lat="41.7708917" lon="15.81136"><ele>528.0</ele><time>2026-04-10T15:31:07.178Z</time></trkpt><trkpt lat="41.7709983" lon="15.81118"><ele>528.0</ele><time>2026-04-10T15:31:08.181Z</time></trkpt><trkpt lat="41.7710917" lon="15.8110033"><ele>528.0</ele><time>2026-04-10T15:31:09.179Z</time></trkpt><trkpt lat="41.7711617" lon="15.8108267"><ele>527.5</ele><time>2026-04-10T15:31:10.179Z</time></trkpt><trkpt lat="41.7712083" lon="15.8106433"><ele>527.0</ele><time>2026-04-10T15:31:11.182Z</time></trkpt><trkpt lat="41.7712367" lon="15.8104567"><ele>526.5</ele><time>2026-04-10T15:31:12.18Z</time></trkpt><trkpt lat="41.771255" lon="15.8102783"><ele>526.0</ele><time>2026-04-10T15:31:13.178Z</time></trkpt><trkpt lat="41.7712717" lon="15.8101"><ele>526.0</ele><time>2026-04-10T15:31:14.178Z</time></trkpt><trkpt lat="41.7713017" lon="15.8099183"><ele>526.0</ele><time>2026-04-10T15:31:15.18Z</time></trkpt><trkpt lat="41.77135" lon="15.80974"><ele>526.0</ele><time>2026-04-10T15:31:16.184Z</time></trkpt><trkpt lat="41.7714233" lon="15.8095767"><ele>526.0</ele><time>2026-04-10T15:31:17.179Z</time></trkpt><trkpt lat="41.7715167" lon="15.8094417"><ele>526.0</ele><time>2026-04-10T15:31:18.178Z</time></trkpt><trkpt lat="41.7716283" lon="15.809335"><ele>526.0</ele><time>2026-04-10T15:31:19.179Z</time></trkpt><trkpt lat="41.7717483" lon="15.809255"><ele>526.0</ele><time>2026-04-10T15:31:20.181Z</time></trkpt><trkpt lat="41.7718733" lon="15.8092017"><ele>526.0</ele><time>2026-04-10T15:31:21.179Z</time></trkpt><trkpt lat="41.7719933" lon="15.8091767"><ele>526.0</ele><time>2026-04-10T15:31:22.18Z</time></trkpt><trkpt lat="41.7721067" lon="15.8091917"><ele>526.0</ele><time>2026-04-10T15:31:23.179Z</time></trkpt><trkpt lat="41.7722183" lon="15.8092433"><ele>526.0</ele><time>2026-04-10T15:31:24.179Z</time></trkpt><trkpt lat="41.7723367" lon="15.8093283"><ele>526.0</ele><time>2026-04-10T15:31:25.18Z</time></trkpt><trkpt lat="41.77246" lon="15.8094317"><ele>526.0</ele><time>2026-04-10T15:31:26.18Z</time></trkpt><trkpt lat="41.7725817" lon="15.8095217"><ele>526.0</ele><time>2026-04-10T15:31:27.181Z</time></trkpt><trkpt lat="41.7727" lon="15.8096"><ele>526.0</ele><time>2026-04-10T15:31:28.18Z</time></trkpt><trkpt lat="41.7728183" lon="15.8096517"><ele>526.0</ele><time>2026-04-10T15:31:29.182Z</time></trkpt><trkpt lat="41.7729383" lon="15.8096667"><ele>525.25</ele><time>2026-04-10T15:31:30.179Z</time></trkpt><trkpt lat="41.773055" lon="15.8096533"><ele>524.5</ele><time>2026-04-10T15:31:31.178Z</time></trkpt><trkpt lat="41.773165" lon="15.8096167"><ele>523.75</ele><time>2026-04-10T15:31:32.188Z</time></trkpt><trkpt lat="41.7732817" lon="15.8095517"><ele>523.0</ele><time>2026-04-10T15:31:33.179Z</time></trkpt><trkpt lat="41.77341" lon="15.8094633"><ele>523.6666666666667</ele><time>2026-04-10T15:31:34.182Z</time></trkpt><trkpt lat="41.7735533" lon="15.809365"><ele>524.3333333333334</ele><time>2026-04-10T15:31:35.182Z</time></trkpt><trkpt lat="41.773715" lon="15.8092533"><ele>525.0</ele><time>2026-04-10T15:31:36.179Z</time></trkpt><trkpt lat="41.7738883" lon="15.8091383"><ele>521.6666666666666</ele><time>2026-04-10T15:31:37.178Z</time></trkpt><trkpt lat="41.7740733" lon="15.80901"><ele>518.3333333333333</ele><time>2026-04-10T15:31:38.184Z</time></trkpt><trkpt lat="41.774255" lon="15.808885"><ele>515.0</ele><time>2026-04-10T15:31:39.179Z</time></trkpt><trkpt lat="41.7744267" lon="15.8087683"><ele>515.0</ele><time>2026-04-10T15:31:40.179Z</time></trkpt><trkpt lat="41.7745917" lon="15.8086517"><ele>515.0</ele><time>2026-04-10T15:31:41.183Z</time></trkpt><trkpt lat="41.7747467" lon="15.8085433"><ele>515.0</ele><time>2026-04-10T15:31:42.182Z</time></trkpt><trkpt lat="41.77489" lon="15.8084467"><ele>512.75</ele><time>2026-04-10T15:31:43.179Z</time></trkpt><trkpt lat="41.7750183" lon="15.808365"><ele>510.5</ele><time>2026-04-10T15:31:44.185Z</time></trkpt><trkpt lat="41.775125" lon="15.80831"><ele>508.25</ele><time>2026-04-10T15:31:45.181Z</time></trkpt><trkpt lat="41.7752233" lon="15.8083017"><ele>506.0</ele><time>2026-04-10T15:31:46.179Z</time></trkpt><trkpt lat="41.77532" lon="15.808325"><ele>505.25</ele><time>2026-04-10T15:31:47.178Z</time></trkpt><trkpt lat="41.7754017" lon="15.8083917"><ele>504.5</ele><time>2026-04-10T15:31:48.183Z</time></trkpt><trkpt lat="41.77547" lon="15.8085017"><ele>503.75</ele><time>2026-04-10T15:31:49.178Z</time></trkpt><trkpt lat="41.775535" lon="15.80864"><ele>503.0</ele><time>2026-04-10T15:31:50.18Z</time></trkpt><trkpt lat="41.775605" lon="15.8088"><ele>503.0</ele><time>2026-04-10T15:31:51.181Z</time></trkpt><trkpt lat="41.7756917" lon="15.8089717"><ele>503.0</ele><time>2026-04-10T15:31:52.184Z</time></trkpt><trkpt lat="41.7757817" lon="15.8091567"><ele>503.0</ele><time>2026-04-10T15:31:53.178Z</time></trkpt><trkpt lat="41.7758767" lon="15.8093467"><ele>504.3333333333333</ele><time>2026-04-10T15:31:54.179Z</time></trkpt><trkpt lat="41.7759667" lon="15.80953"><ele>505.66666666666663</ele><time>2026-04-10T15:31:55.189Z</time></trkpt><trkpt lat="41.7760533" lon="15.80971"><ele>507.0</ele><time>2026-04-10T15:31:56.178Z</time></trkpt><trkpt lat="41.7761383" lon="15.8098833"><ele>505.75</ele><time>2026-04-10T15:31:57.179Z</time></trkpt><trkpt lat="41.7762183" lon="15.810035"><ele>504.5</ele><time>2026-04-10T15:31:58.18Z</time></trkpt><trkpt lat="41.7763" lon="15.81015"><ele>503.25</ele><time>2026-04-10T15:31:59.179Z</time></trkpt><trkpt lat="41.77639" lon="15.81023"><ele>502.0</ele><time>2026-04-10T15:32:00.182Z</time></trkpt><trkpt lat="41.7764883" lon="15.8102783"><ele>502.0</ele><time>2026-04-10T15:32:01.181Z</time></trkpt><trkpt lat="41.776605" lon="15.810285"><ele>502.0</ele><time>2026-04-10T15:32:02.186Z</time></trkpt><trkpt lat="41.776735" lon="15.8102567"><ele>502.0</ele><time>2026-04-10T15:32:03.183Z</time></trkpt><trkpt lat="41.776875" lon="15.8102083"><ele>502.0</ele><time>2026-04-10T15:32:04.178Z</time></trkpt><trkpt lat="41.7770267" lon="15.8101567"><ele>499.33333333333337</ele><time>2026-04-10T15:32:05.182Z</time></trkpt><trkpt lat="41.77719" lon="15.8101"><ele>496.66666666666663</ele><time>2026-04-10T15:32:06.185Z</time></trkpt><trkpt lat="41.7773617" lon="15.8100433"><ele>494.0</ele><time>2026-04-10T15:32:07.183Z</time></trkpt><trkpt lat="41.777545" lon="15.809985"><ele>493.3333333333333</ele><time>2026-04-10T15:32:08.183Z</time></trkpt><trkpt lat="41.7777417" lon="15.8099217"><ele>492.66666666666663</ele><time>2026-04-10T15:32:09.179Z</time></trkpt><trkpt lat="41.7779467" lon="15.8098517"><ele>492.0</ele><time>2026-04-10T15:32:10.181Z</time></trkpt><trkpt lat="41.7781517" lon="15.8097817"><ele>492.0</ele><time>2026-04-10T15:32:11.181Z</time></trkpt><trkpt lat="41.7783567" lon="15.8097167"><ele>492.0</ele><time>2026-04-10T15:32:12.188Z</time></trkpt><trkpt lat="41.7785667" lon="15.8096533"><ele>492.0</ele><time>2026-04-10T15:32:13.181Z</time></trkpt><trkpt lat="41.7787867" lon="15.8095833"><ele>490.5</ele><time>2026-04-10T15:32:14.178Z</time></trkpt><trkpt lat="41.7790133" lon="15.8095083"><ele>489.0</ele><time>2026-04-10T15:32:15.181Z</time></trkpt><trkpt lat="41.7792367" lon="15.809435"><ele>488.66666666666663</ele><time>2026-04-10T15:32:16.181Z</time></trkpt><trkpt lat="41.7794567" lon="15.8093583"><ele>488.3333333333333</ele><time>2026-04-10T15:32:17.18Z</time></trkpt><trkpt lat="41.77967" lon="15.809285"><ele>488.0</ele><time>2026-04-10T15:32:18.182Z</time></trkpt><trkpt lat="41.779865" lon="15.8092167"><ele>486.0</ele><time>2026-04-10T15:32:19.181Z</time></trkpt><trkpt lat="41.7800383" lon="15.8091583"><ele>484.0</ele><time>2026-04-10T15:32:20.188Z</time></trkpt><trkpt lat="41.7802" lon="15.8091183"><ele>482.0</ele><time>2026-04-10T15:32:21.178Z</time></trkpt><trkpt lat="41.780345" lon="15.8091117"><ele>482.25</ele><time>2026-04-10T15:32:22.178Z</time></trkpt><trkpt lat="41.7804783" lon="15.809145"><ele>482.5</ele><time>2026-04-10T15:32:23.18Z</time></trkpt><trkpt lat="41.7806067" lon="15.8092183"><ele>482.75</ele><time>2026-04-10T15:32:24.179Z</time></trkpt><trkpt lat="41.7807367" lon="15.8093267"><ele>483.0</ele><time>2026-04-10T15:32:25.183Z</time></trkpt><trkpt lat="41.7808717" lon="15.8094517"><ele>483.0</ele><time>2026-04-10T15:32:26.179Z</time></trkpt><trkpt lat="41.7810133" lon="15.809585"><ele>483.0</ele><time>2026-04-10T15:32:27.179Z</time></trkpt><trkpt lat="41.781155" lon="15.8097217"><ele>483.0</ele><time>2026-04-10T15:32:28.177Z</time></trkpt><trkpt lat="41.7812883" lon="15.8098667"><ele>480.66666666666663</ele><time>2026-04-10T15:32:29.182Z</time></trkpt><trkpt lat="41.78141" lon="15.8100133"><ele>478.3333333333333</ele><time>2026-04-10T15:32:30.183Z</time></trkpt><trkpt lat="41.78151" lon="15.8101717"><ele>476.0</ele><time>2026-04-10T15:32:31.183Z</time></trkpt><trkpt lat="41.781595" lon="15.8103483"><ele>476.0</ele><time>2026-04-10T15:32:32.188Z</time></trkpt><trkpt lat="41.78167" lon="15.81054"><ele>476.0</ele><time>2026-04-10T15:32:33.182Z</time></trkpt><trkpt lat="41.7817467" lon="15.8107433"><ele>476.0</ele><time>2026-04-10T15:32:34.181Z</time></trkpt><trkpt lat="41.7818267" lon="15.8109517"><ele>472.3333333333333</ele><time>2026-04-10T15:32:35.178Z</time></trkpt><trkpt lat="41.7819067" lon="15.8111583"><ele>468.66666666666663</ele><time>2026-04-10T15:32:36.182Z</time></trkpt><trkpt lat="41.7819833" lon="15.81136"><ele>465.0</ele><time>2026-04-10T15:32:37.184Z</time></trkpt><trkpt lat="41.78205" lon="15.8115683"><ele>465.0</ele><time>2026-04-10T15:32:38.181Z</time></trkpt><trkpt lat="41.782105" lon="15.8117883"><ele>465.0</ele><time>2026-04-10T15:32:39.184Z</time></trkpt><trkpt lat="41.78215" lon="15.8120117"><ele>465.0</ele><time>2026-04-10T15:32:40.178Z</time></trkpt><trkpt lat="41.7822" lon="15.8122283"><ele>465.0</ele><time>2026-04-10T15:32:41.176Z</time></trkpt><trkpt lat="41.7822533" lon="15.8124317"><ele>465.0</ele><time>2026-04-10T15:32:42.179Z</time></trkpt><trkpt lat="41.7823033" lon="15.8126267"><ele>465.0</ele><time>2026-04-10T15:32:43.179Z</time></trkpt><trkpt lat="41.782365" lon="15.8128033"><ele>465.0</ele><time>2026-04-10T15:32:44.181Z</time></trkpt><trkpt lat="41.782445" lon="15.8129583"><ele>465.0</ele><time>2026-04-10T15:32:45.178Z</time></trkpt><trkpt lat="41.7825367" lon="15.813075"><ele>465.0</ele><time>2026-04-10T15:32:46.178Z</time></trkpt><trkpt lat="41.7826383" lon="15.8131533"><ele>465.0</ele><time>2026-04-10T15:32:47.179Z</time></trkpt><trkpt lat="41.7827583" lon="15.81319"><ele>463.66666666666663</ele><time>2026-04-10T15:32:48.182Z</time></trkpt><trkpt lat="41.7828917" lon="15.8131917"><ele>462.3333333333333</ele><time>2026-04-10T15:32:49.177Z</time></trkpt><trkpt lat="41.7830417" lon="15.813155"><ele>461.0</ele><time>2026-04-10T15:32:50.179Z</time></trkpt><trkpt lat="41.783205" lon="15.8130933"><ele>461.0</ele><time>2026-04-10T15:32:51.185Z</time></trkpt><trkpt lat="41.7833833" lon="15.8130167"><ele>461.0</ele><time>2026-04-10T15:32:52.18Z</time></trkpt><trkpt lat="41.7835717" lon="15.8129383"><ele>461.0</ele><time>2026-04-10T15:32:53.178Z</time></trkpt><trkpt lat="41.7837617" lon="15.81286"><ele>460.3333333333333</ele><time>2026-04-10T15:32:54.181Z</time></trkpt><trkpt lat="41.7839533" lon="15.8127817"><ele>459.66666666666663</ele><time>2026-04-10T15:32:55.182Z</time></trkpt><trkpt lat="41.7841483" lon="15.8126967"><ele>459.0</ele><time>2026-04-10T15:32:56.185Z</time></trkpt><trkpt lat="41.7843467" lon="15.812605"><ele>457.33333333333337</ele><time>2026-04-10T15:32:57.184Z</time></trkpt><trkpt lat="41.78455" lon="15.8125183"><ele>455.6666666666667</ele><time>2026-04-10T15:32:58.182Z</time></trkpt><trkpt lat="41.7847583" lon="15.812435"><ele>454.0</ele><time>2026-04-10T15:32:59.179Z</time></trkpt><trkpt lat="41.7849667" lon="15.812355"><ele>454.0</ele><time>2026-04-10T15:33:00.18Z</time></trkpt><trkpt lat="41.7851717" lon="15.8122767"><ele>454.0</ele><time>2026-04-10T15:33:01.181Z</time></trkpt><trkpt lat="41.7853717" lon="15.8121967"><ele>454.0</ele><time>2026-04-10T15:33:02.181Z</time></trkpt><trkpt lat="41.785565" lon="15.812115"><ele>454.0</ele><time>2026-04-10T15:33:03.181Z</time></trkpt><trkpt lat="41.7857483" lon="15.8120383"><ele>454.0</ele><time>2026-04-10T15:33:04.187Z</time></trkpt><trkpt lat="41.7859233" lon="15.8119617"><ele>454.0</ele><time>2026-04-10T15:33:05.184Z</time></trkpt><trkpt lat="41.7860917" lon="15.8118967"><ele>451.6666666666667</ele><time>2026-04-10T15:33:06.184Z</time></trkpt><trkpt lat="41.7862567" lon="15.8118333"><ele>449.33333333333337</ele><time>2026-04-10T15:33:07.178Z</time></trkpt><trkpt lat="41.78641" lon="15.8117733"><ele>447.0</ele><time>2026-04-10T15:33:08.179Z</time></trkpt><trkpt lat="41.78655" lon="15.81171"><ele>446.75</ele><time>2026-04-10T15:33:09.181Z</time></trkpt><trkpt lat="41.7866683" lon="15.81163"><ele>446.5</ele><time>2026-04-10T15:33:10.179Z</time></trkpt><trkpt lat="41.7867617" lon="15.8115217"><ele>446.25</ele><time>2026-04-10T15:33:11.186Z</time></trkpt><trkpt lat="41.786835" lon="15.8113817"><ele>446.0</ele><time>2026-04-10T15:33:12.178Z</time></trkpt><trkpt lat="41.7869033" lon="15.8112217"><ele>448.0</ele><time>2026-04-10T15:33:13.178Z</time></trkpt><trkpt lat="41.7869733" lon="15.8110367"><ele>450.0</ele><time>2026-04-10T15:33:14.178Z</time></trkpt><trkpt lat="41.7870483" lon="15.810835"><ele>452.0</ele><time>2026-04-10T15:33:15.179Z</time></trkpt><trkpt lat="41.7871333" lon="15.8106183"><ele>452.3333333333333</ele><time>2026-04-10T15:33:16.181Z</time></trkpt><trkpt lat="41.787225" lon="15.8103917"><ele>452.66666666666663</ele><time>2026-04-10T15:33:17.178Z</time></trkpt><trkpt lat="41.78732" lon="15.8101633"><ele>453.0</ele><time>2026-04-10T15:33:18.18Z</time></trkpt><trkpt lat="41.7874183" lon="15.8099117"><ele>451.5</ele><time>2026-04-10T15:33:19.179Z</time></trkpt><trkpt lat="41.7875217" lon="15.809645"><ele>450.0</ele><time>2026-04-10T15:33:20.179Z</time></trkpt><trkpt lat="41.7876317" lon="15.8093767"><ele>450.0</ele><time>2026-04-10T15:33:21.177Z</time></trkpt><trkpt lat="41.7877433" lon="15.8091083"><ele>450.0</ele><time>2026-04-10T15:33:22.182Z</time></trkpt><trkpt lat="41.7878533" lon="15.80884"><ele>450.0</ele><time>2026-04-10T15:33:23.18Z</time></trkpt><trkpt lat="41.7879617" lon="15.8085767"><ele>450.0</ele><time>2026-04-10T15:33:24.18Z</time></trkpt><trkpt lat="41.7880667" lon="15.8083133"><ele>450.0</ele><time>2026-04-10T15:33:25.181Z</time></trkpt><trkpt lat="41.788175" lon="15.8080483"><ele>449.33333333333337</ele><time>2026-04-10T15:33:26.183Z</time></trkpt><trkpt lat="41.7882817" lon="15.8077867"><ele>448.6666666666667</ele><time>2026-04-10T15:33:27.18Z</time></trkpt><trkpt lat="41.78839" lon="15.8075317"><ele>448.0</ele><time>2026-04-10T15:33:28.18Z</time></trkpt><trkpt lat="41.7884983" lon="15.8072733"><ele>449.5</ele><time>2026-04-10T15:33:29.183Z</time></trkpt><trkpt lat="41.7886133" lon="15.8070117"><ele>451.0</ele><time>2026-04-10T15:33:30.182Z</time></trkpt><trkpt lat="41.7887367" lon="15.8067383"><ele>451.0</ele><time>2026-04-10T15:33:31.181Z</time></trkpt><trkpt lat="41.7888683" lon="15.806455"><ele>451.0</ele><time>2026-04-10T15:33:32.193Z</time></trkpt><trkpt lat="41.7890033" lon="15.806165"><ele>448.5</ele><time>2026-04-10T15:33:33.186Z</time></trkpt><trkpt lat="41.7891367" lon="15.805875"><ele>446.0</ele><time>2026-04-10T15:33:34.185Z</time></trkpt><trkpt lat="41.789265" lon="15.805595"><ele>447.0</ele><time>2026-04-10T15:33:35.179Z</time></trkpt><trkpt lat="41.7893867" lon="15.8053333"><ele>448.0</ele><time>2026-04-10T15:33:36.183Z</time></trkpt><trkpt lat="41.7895033" lon="15.8050817"><ele>448.0</ele><time>2026-04-10T15:33:37.185Z</time></trkpt><trkpt lat="41.7896167" lon="15.80484"><ele>448.0</ele><time>2026-04-10T15:33:38.182Z</time></trkpt><trkpt lat="41.7897233" lon="15.8046117"><ele>448.0</ele><time>2026-04-10T15:33:39.179Z</time></trkpt><trkpt lat="41.789825" lon="15.804395"><ele>447.0</ele><time>2026-04-10T15:33:40.178Z</time></trkpt><trkpt lat="41.7899217" lon="15.80419"><ele>446.0</ele><time>2026-04-10T15:33:41.178Z</time></trkpt><trkpt lat="41.7900217" lon="15.8040033"><ele>445.0</ele><time>2026-04-10T15:33:42.18Z</time></trkpt><trkpt lat="41.79014" lon="15.803835"><ele>445.33333333333337</ele><time>2026-04-10T15:33:43.178Z</time></trkpt><trkpt lat="41.7902783" lon="15.8036817"><ele>445.66666666666663</ele><time>2026-04-10T15:33:44.179Z</time></trkpt><trkpt lat="41.7904283" lon="15.8035317"><ele>446.0</ele><time>2026-04-10T15:33:45.185Z</time></trkpt><trkpt lat="41.7905867" lon="15.803375"><ele>446.0</ele><time>2026-04-10T15:33:46.18Z</time></trkpt><trkpt lat="41.79075" lon="15.8032117"><ele>446.0</ele><time>2026-04-10T15:33:47.182Z</time></trkpt><trkpt lat="41.7909183" lon="15.8030483"><ele>446.0</ele><time>2026-04-10T15:33:48.179Z</time></trkpt><trkpt lat="41.7910967" lon="15.8028667"><ele>446.66666666666663</ele><time>2026-04-10T15:33:49.184Z</time></trkpt><trkpt lat="41.791275" lon="15.8026833"><ele>447.33333333333337</ele><time>2026-04-10T15:33:50.188Z</time></trkpt><trkpt lat="41.791455" lon="15.802505"><ele>448.0</ele><time>2026-04-10T15:33:51.183Z</time></trkpt><trkpt lat="41.79163" lon="15.8023333"><ele>448.0</ele><time>2026-04-10T15:33:52.184Z</time></trkpt><trkpt lat="41.7918" lon="15.8021617"><ele>448.0</ele><time>2026-04-10T15:33:53.181Z</time></trkpt><trkpt lat="41.7919633" lon="15.802"><ele>448.0</ele><time>2026-04-10T15:33:54.183Z</time></trkpt><trkpt lat="41.79212" lon="15.801835"><ele>448.6666666666667</ele><time>2026-04-10T15:33:55.185Z</time></trkpt><trkpt lat="41.792275" lon="15.8016617"><ele>449.33333333333337</ele><time>2026-04-10T15:33:56.179Z</time></trkpt><trkpt lat="41.7924333" lon="15.80148"><ele>450.0</ele><time>2026-04-10T15:33:57.18Z</time></trkpt><trkpt lat="41.792595" lon="15.801285"><ele>451.0</ele><time>2026-04-10T15:33:58.187Z</time></trkpt><trkpt lat="41.7927633" lon="15.801075"><ele>452.0</ele><time>2026-04-10T15:33:59.18Z</time></trkpt><trkpt lat="41.7929333" lon="15.8008617"><ele>450.3333333333333</ele><time>2026-04-10T15:34:00.181Z</time></trkpt><trkpt lat="41.793095" lon="15.8006583"><ele>448.66666666666663</ele><time>2026-04-10T15:34:01.178Z</time></trkpt><trkpt lat="41.7932467" lon="15.8004683"><ele>447.0</ele><time>2026-04-10T15:34:02.179Z</time></trkpt><trkpt lat="41.793395" lon="15.80029"><ele>446.33333333333337</ele><time>2026-04-10T15:34:03.187Z</time></trkpt><trkpt lat="41.7935417" lon="15.80013"><ele>445.6666666666667</ele><time>2026-04-10T15:34:04.179Z</time></trkpt><trkpt lat="41.7936967" lon="15.7999867"><ele>445.0</ele><time>2026-04-10T15:34:05.178Z</time></trkpt><trkpt lat="41.7938633" lon="15.7998417"><ele>445.0</ele><time>2026-04-10T15:34:06.181Z</time></trkpt><trkpt lat="41.7940367" lon="15.7996883"><ele>445.0</ele><time>2026-04-10T15:34:07.18Z</time></trkpt><trkpt lat="41.7942183" lon="15.7995283"><ele>445.0</ele><time>2026-04-10T15:34:08.184Z</time></trkpt><trkpt lat="41.7944067" lon="15.79937"><ele>442.0</ele><time>2026-04-10T15:34:09.181Z</time></trkpt><trkpt lat="41.7945983" lon="15.7992033"><ele>439.0</ele><time>2026-04-10T15:34:10.18Z</time></trkpt><trkpt lat="41.794795" lon="15.7990333"><ele>439.0</ele><time>2026-04-10T15:34:11.18Z</time></trkpt><trkpt lat="41.7949983" lon="15.79886"><ele>439.0</ele><time>2026-04-10T15:34:12.181Z</time></trkpt><trkpt lat="41.79521" lon="15.7986817"><ele>437.5</ele><time>2026-04-10T15:34:13.178Z</time></trkpt><trkpt lat="41.79543" lon="15.7984933"><ele>436.0</ele><time>2026-04-10T15:34:14.185Z</time></trkpt><trkpt lat="41.7956567" lon="15.7982983"><ele>436.0</ele><time>2026-04-10T15:34:15.181Z</time></trkpt><trkpt lat="41.7958867" lon="15.7981017"><ele>436.0</ele><time>2026-04-10T15:34:16.177Z</time></trkpt><trkpt lat="41.7961117" lon="15.7979083"><ele>435.0</ele><time>2026-04-10T15:34:17.178Z</time></trkpt><trkpt lat="41.7963333" lon="15.79772"><ele>434.0</ele><time>2026-04-10T15:34:18.182Z</time></trkpt><trkpt lat="41.7965483" lon="15.7975367"><ele>434.0</ele><time>2026-04-10T15:34:19.184Z</time></trkpt><trkpt lat="41.796755" lon="15.7973583"><ele>434.0</ele><time>2026-04-10T15:34:20.182Z</time></trkpt><trkpt lat="41.796955" lon="15.797195"><ele>434.3333333333333</ele><time>2026-04-10T15:34:21.185Z</time></trkpt><trkpt lat="41.7971517" lon="15.7970567"><ele>434.66666666666663</ele><time>2026-04-10T15:34:22.183Z</time></trkpt><trkpt lat="41.7973517" lon="15.7969517"><ele>435.0</ele><time>2026-04-10T15:34:23.184Z</time></trkpt><trkpt lat="41.7975617" lon="15.796865"><ele>431.0</ele><time>2026-04-10T15:34:24.18Z</time></trkpt><trkpt lat="41.7977783" lon="15.796775"><ele>427.0</ele><time>2026-04-10T15:34:25.18Z</time></trkpt><trkpt lat="41.7980017" lon="15.7966783"><ele>427.0</ele><time>2026-04-10T15:34:26.183Z</time></trkpt><trkpt lat="41.7982283" lon="15.7965783"><ele>427.0</ele><time>2026-04-10T15:34:27.181Z</time></trkpt><trkpt lat="41.79846" lon="15.7964767"><ele>427.5</ele><time>2026-04-10T15:34:28.18Z</time></trkpt><trkpt lat="41.7987017" lon="15.79637"><ele>428.0</ele><time>2026-04-10T15:34:29.183Z</time></trkpt><trkpt lat="41.79894" lon="15.7962633"><ele>428.0</ele><time>2026-04-10T15:34:30.182Z</time></trkpt><trkpt lat="41.79917" lon="15.7961617"><ele>428.0</ele><time>2026-04-10T15:34:31.182Z</time></trkpt><trkpt lat="41.7993883" lon="15.796065"><ele>425.3333333333333</ele><time>2026-04-10T15:34:32.18Z</time></trkpt><trkpt lat="41.7995983" lon="15.79597"><ele>422.66666666666663</ele><time>2026-04-10T15:34:33.182Z</time></trkpt><trkpt lat="41.799805" lon="15.795875"><ele>420.0</ele><time>2026-04-10T15:34:34.178Z</time></trkpt><trkpt lat="41.800015" lon="15.7957783"><ele>421.0</ele><time>2026-04-10T15:34:35.189Z</time></trkpt><trkpt lat="41.8002267" lon="15.79568"><ele>422.0</ele><time>2026-04-10T15:34:36.178Z</time></trkpt><trkpt lat="41.8004383" lon="15.795575"><ele>422.0</ele><time>2026-04-10T15:34:37.18Z</time></trkpt><trkpt lat="41.8006517" lon="15.7954667"><ele>422.0</ele><time>2026-04-10T15:34:38.179Z</time></trkpt><trkpt lat="41.8008583" lon="15.7953617"><ele>422.0</ele><time>2026-04-10T15:34:39.184Z</time></trkpt><trkpt lat="41.80106" lon="15.7952567"><ele>419.3333333333333</ele><time>2026-04-10T15:34:40.181Z</time></trkpt><trkpt lat="41.8012583" lon="15.7951533"><ele>416.66666666666663</ele><time>2026-04-10T15:34:41.188Z</time></trkpt><trkpt lat="41.8014533" lon="15.7950483"><ele>414.0</ele><time>2026-04-10T15:34:42.181Z</time></trkpt><trkpt lat="41.8016433" lon="15.7949467"><ele>414.0</ele><time>2026-04-10T15:34:43.184Z</time></trkpt><trkpt lat="41.8018267" lon="15.7948517"><ele>414.0</ele><time>2026-04-10T15:34:44.184Z</time></trkpt><trkpt lat="41.8020033" lon="15.7947617"><ele>414.0</ele><time>2026-04-10T15:34:45.182Z</time></trkpt><trkpt lat="41.802175" lon="15.7946683"><ele>412.33333333333337</ele><time>2026-04-10T15:34:46.18Z</time></trkpt><trkpt lat="41.8023433" lon="15.794565"><ele>410.6666666666667</ele><time>2026-04-10T15:34:47.18Z</time></trkpt><trkpt lat="41.802515" lon="15.794455"><ele>409.0</ele><time>2026-04-10T15:34:48.183Z</time></trkpt><trkpt lat="41.802685" lon="15.7943417"><ele>405.0</ele><time>2026-04-10T15:34:49.18Z</time></trkpt><trkpt lat="41.8028517" lon="15.7942267"><ele>401.0</ele><time>2026-04-10T15:34:50.178Z</time></trkpt><trkpt lat="41.8030117" lon="15.794115"><ele>397.0</ele><time>2026-04-10T15:34:51.182Z</time></trkpt><trkpt lat="41.8031717" lon="15.7940017"><ele>397.0</ele><time>2026-04-10T15:34:52.178Z</time></trkpt><trkpt lat="41.8033317" lon="15.7938833"><ele>397.0</ele><time>2026-04-10T15:34:53.179Z</time></trkpt><trkpt lat="41.8034867" lon="15.7937617"><ele>397.0</ele><time>2026-04-10T15:34:54.18Z</time></trkpt><trkpt lat="41.8036383" lon="15.7936233"><ele>394.6666666666667</ele><time>2026-04-10T15:34:55.182Z</time></trkpt><trkpt lat="41.8037833" lon="15.7934783"><ele>392.33333333333337</ele><time>2026-04-10T15:34:56.181Z</time></trkpt><trkpt lat="41.8039167" lon="15.7933217"><ele>390.0</ele><time>2026-04-10T15:34:57.186Z</time></trkpt><trkpt lat="41.804045" lon="15.7931633"><ele>390.0</ele><time>2026-04-10T15:34:58.179Z</time></trkpt><trkpt lat="41.8041717" lon="15.79299"><ele>390.0</ele><time>2026-04-10T15:34:59.177Z</time></trkpt><trkpt lat="41.804295" lon="15.792795"><ele>390.0</ele><time>2026-04-10T15:35:00.18Z</time></trkpt><trkpt lat="41.8044217" lon="15.7925933"><ele>384.0</ele><time>2026-04-10T15:35:01.18Z</time></trkpt><trkpt lat="41.8045533" lon="15.792385"><ele>378.0</ele><time>2026-04-10T15:35:02.184Z</time></trkpt><trkpt lat="41.8046867" lon="15.792175"><ele>372.0</ele><time>2026-04-10T15:35:03.181Z</time></trkpt><trkpt lat="41.8048233" lon="15.79197"><ele>367.0</ele><time>2026-04-10T15:35:04.185Z</time></trkpt><trkpt lat="41.8049583" lon="15.7917733"><ele>362.0</ele><time>2026-04-10T15:35:05.184Z</time></trkpt><trkpt lat="41.8050933" lon="15.7915817"><ele>357.0</ele><time>2026-04-10T15:35:06.186Z</time></trkpt><trkpt lat="41.8052283" lon="15.7913867"><ele>357.0</ele><time>2026-04-10T15:35:07.182Z</time></trkpt><trkpt lat="41.8053617" lon="15.7911917"><ele>357.0</ele><time>2026-04-10T15:35:08.184Z</time></trkpt><trkpt lat="41.8054933" lon="15.790995"><ele>357.0</ele><time>2026-04-10T15:35:09.184Z</time></trkpt><trkpt lat="41.8056233" lon="15.7907933"><ele>359.6666666666667</ele><time>2026-04-10T15:35:10.187Z</time></trkpt><trkpt lat="41.805755" lon="15.790585"><ele>362.33333333333337</ele><time>2026-04-10T15:35:11.181Z</time></trkpt><trkpt lat="41.8058917" lon="15.7903717"><ele>365.0</ele><time>2026-04-10T15:35:12.182Z</time></trkpt><trkpt lat="41.8060333" lon="15.7901583"><ele>365.0</ele><time>2026-04-10T15:35:13.18Z</time></trkpt><trkpt lat="41.8061733" lon="15.789945"><ele>365.0</ele><time>2026-04-10T15:35:14.181Z</time></trkpt><trkpt lat="41.80631" lon="15.78973"><ele>365.0</ele><time>2026-04-10T15:35:15.19Z</time></trkpt><trkpt lat="41.8064367" lon="15.7895133"><ele>371.6666666666667</ele><time>2026-04-10T15:35:16.184Z</time></trkpt><trkpt lat="41.806565" lon="15.7892933"><ele>378.33333333333337</ele><time>2026-04-10T15:35:17.178Z</time></trkpt><trkpt lat="41.8066933" lon="15.78907"><ele>385.0</ele><time>2026-04-10T15:35:18.189Z</time></trkpt><trkpt lat="41.8068217" lon="15.7888383"><ele>376.6666666666667</ele><time>2026-04-10T15:35:19.185Z</time></trkpt><trkpt lat="41.80695" lon="15.7885983"><ele>368.33333333333337</ele><time>2026-04-10T15:35:20.184Z</time></trkpt><trkpt lat="41.8070717" lon="15.7883583"><ele>360.0</ele><time>2026-04-10T15:35:21.183Z</time></trkpt><trkpt lat="41.8071917" lon="15.7881333"><ele>360.0</ele><time>2026-04-10T15:35:22.186Z</time></trkpt><trkpt lat="41.8073083" lon="15.787905"><ele>360.0</ele><time>2026-04-10T15:35:23.182Z</time></trkpt><trkpt lat="41.8074167" lon="15.78766"><ele>360.0</ele><time>2026-04-10T15:35:24.179Z</time></trkpt><trkpt lat="41.8075167" lon="15.787395"><ele>352.0</ele><time>2026-04-10T15:35:25.181Z</time></trkpt><trkpt lat="41.8076167" lon="15.78712"><ele>344.0</ele><time>2026-04-10T15:35:26.182Z</time></trkpt><trkpt lat="41.8077283" lon="15.7868433"><ele>344.0</ele><time>2026-04-10T15:35:27.183Z</time></trkpt><trkpt lat="41.807835" lon="15.7865483"><ele>344.0</ele><time>2026-04-10T15:35:28.184Z</time></trkpt><trkpt lat="41.807945" lon="15.78625"><ele>349.0</ele><time>2026-04-10T15:35:29.182Z</time></trkpt><trkpt lat="41.80805" lon="15.7859517"><ele>354.0</ele><time>2026-04-10T15:35:30.179Z</time></trkpt><trkpt lat="41.80815" lon="15.7856617"><ele>354.0</ele><time>2026-04-10T15:35:31.178Z</time></trkpt><trkpt lat="41.8082483" lon="15.7853783"><ele>354.0</ele><time>2026-04-10T15:35:32.191Z</time></trkpt><trkpt lat="41.8083367" lon="15.7851083"><ele>357.0</ele><time>2026-04-10T15:35:33.181Z</time></trkpt><trkpt lat="41.808415" lon="15.784845"><ele>360.0</ele><time>2026-04-10T15:35:34.179Z</time></trkpt><trkpt lat="41.8084933" lon="15.7845933"><ele>363.0</ele><time>2026-04-10T15:35:35.182Z</time></trkpt><trkpt lat="41.8085683" lon="15.7843533"><ele>353.0</ele><time>2026-04-10T15:35:36.18Z</time></trkpt><trkpt lat="41.8086467" lon="15.7841217"><ele>343.0</ele><time>2026-04-10T15:35:37.181Z</time></trkpt><trkpt lat="41.8087217" lon="15.7839033"><ele>333.0</ele><time>2026-04-10T15:35:38.183Z</time></trkpt><trkpt lat="41.8088033" lon="15.783695"><ele>337.6666666666667</ele><time>2026-04-10T15:35:39.178Z</time></trkpt><trkpt lat="41.8088867" lon="15.783495"><ele>342.33333333333337</ele><time>2026-04-10T15:35:40.186Z</time></trkpt><trkpt lat="41.8089683" lon="15.78331"><ele>347.0</ele><time>2026-04-10T15:35:41.179Z</time></trkpt><trkpt lat="41.8090517" lon="15.78314"><ele>347.0</ele><time>2026-04-10T15:35:42.179Z</time></trkpt><trkpt lat="41.8091267" lon="15.78299"><ele>347.0</ele><time>2026-04-10T15:35:43.178Z</time></trkpt><trkpt lat="41.80919" lon="15.7828633"><ele>347.0</ele><time>2026-04-10T15:35:44.183Z</time></trkpt><trkpt lat="41.8092417" lon="15.782755"><ele>347.0</ele><time>2026-04-10T15:35:45.177Z</time></trkpt><trkpt lat="41.8092833" lon="15.78267"><ele>347.0</ele><time>2026-04-10T15:35:46.184Z</time></trkpt><trkpt lat="41.8093233" lon="15.7826033"><ele>347.0</ele><time>2026-04-10T15:35:47.178Z</time></trkpt><trkpt lat="41.8094167" lon="15.7825533"><ele>347.0</ele><time>2026-04-10T15:35:49.181Z</time></trkpt><trkpt lat="41.8094533" lon="15.7826883"><ele>347.0</ele><time>2026-04-10T15:35:51.18Z</time></trkpt><trkpt lat="41.8094333" lon="15.7827817"><ele>347.0</ele><time>2026-04-10T15:35:52.177Z</time></trkpt><trkpt lat="41.8093983" lon="15.782865"><ele>347.0</ele><time>2026-04-10T15:35:53.178Z</time></trkpt><trkpt lat="41.8093383" lon="15.782965"><ele>347.0</ele><time>2026-04-10T15:35:54.179Z</time></trkpt><trkpt lat="41.80926" lon="15.78308"><ele>347.0</ele><time>2026-04-10T15:35:55.178Z</time></trkpt><trkpt lat="41.809185" lon="15.7832117"><ele>347.0</ele><time>2026-04-10T15:35:56.186Z</time></trkpt><trkpt lat="41.8091117" lon="15.7833517"><ele>347.0</ele><time>2026-04-10T15:35:57.18Z</time></trkpt><trkpt lat="41.8090467" lon="15.7835"><ele>347.0</ele><time>2026-04-10T15:35:58.183Z</time></trkpt><trkpt lat="41.808995" lon="15.7836717"><ele>342.33333333333337</ele><time>2026-04-10T15:35:59.179Z</time></trkpt><trkpt lat="41.8089483" lon="15.7838767"><ele>337.6666666666667</ele><time>2026-04-10T15:36:00.18Z</time></trkpt><trkpt lat="41.8089033" lon="15.7841133"><ele>333.0</ele><time>2026-04-10T15:36:01.18Z</time></trkpt><trkpt lat="41.8088483" lon="15.7843717"><ele>329.0</ele><time>2026-04-10T15:36:02.181Z</time></trkpt><trkpt lat="41.8087933" lon="15.7846317"><ele>325.0</ele><time>2026-04-10T15:36:03.181Z</time></trkpt><trkpt lat="41.8087383" lon="15.7849033"><ele>321.0</ele><time>2026-04-10T15:36:04.182Z</time></trkpt><trkpt lat="41.8086883" lon="15.7851967"><ele>314.5</ele><time>2026-04-10T15:36:05.177Z</time></trkpt><trkpt lat="41.8086367" lon="15.785505"><ele>308.0</ele><time>2026-04-10T15:36:06.178Z</time></trkpt><trkpt lat="41.8085867" lon="15.78581"><ele>303.6666666666667</ele><time>2026-04-10T15:36:07.189Z</time></trkpt><trkpt lat="41.808545" lon="15.7861033"><ele>299.3333333333333</ele><time>2026-04-10T15:36:08.179Z</time></trkpt><trkpt lat="41.8085067" lon="15.7863817"><ele>295.0</ele><time>2026-04-10T15:36:09.182Z</time></trkpt><trkpt lat="41.8084717" lon="15.7866517"><ele>307.3333333333333</ele><time>2026-04-10T15:36:10.18Z</time></trkpt><trkpt lat="41.80844" lon="15.7869167"><ele>319.6666666666667</ele><time>2026-04-10T15:36:11.181Z</time></trkpt><trkpt lat="41.8084067" lon="15.78718"><ele>332.0</ele><time>2026-04-10T15:36:12.181Z</time></trkpt><trkpt lat="41.80837" lon="15.7874367"><ele>326.6666666666667</ele><time>2026-04-10T15:36:13.183Z</time></trkpt><trkpt lat="41.8083333" lon="15.7876817"><ele>321.3333333333333</ele><time>2026-04-10T15:36:14.18Z</time></trkpt><trkpt lat="41.8082867" lon="15.7879217"><ele>316.0</ele><time>2026-04-10T15:36:15.178Z</time></trkpt><trkpt lat="41.8082367" lon="15.7881617"><ele>316.0</ele><time>2026-04-10T15:36:16.177Z</time></trkpt><trkpt lat="41.8081717" lon="15.7883983"><ele>316.0</ele><time>2026-04-10T15:36:17.178Z</time></trkpt><trkpt lat="41.808095" lon="15.7886383"><ele>316.0</ele><time>2026-04-10T15:36:18.18Z</time></trkpt><trkpt lat="41.80801" lon="15.7888867"><ele>311.0</ele><time>2026-04-10T15:36:19.181Z</time></trkpt><trkpt lat="41.807925" lon="15.78913"><ele>306.0</ele><time>2026-04-10T15:36:20.181Z</time></trkpt><trkpt lat="41.8078417" lon="15.7893667"><ele>301.0</ele><time>2026-04-10T15:36:21.182Z</time></trkpt><trkpt lat="41.8077583" lon="15.7895967"><ele>302.0</ele><time>2026-04-10T15:36:22.177Z</time></trkpt><trkpt lat="41.80767" lon="15.7898283"><ele>303.0</ele><time>2026-04-10T15:36:23.179Z</time></trkpt><trkpt lat="41.8075817" lon="15.7900617"><ele>304.0</ele><time>2026-04-10T15:36:24.18Z</time></trkpt><trkpt lat="41.8074867" lon="15.7902933"><ele>304.0</ele><time>2026-04-10T15:36:25.178Z</time></trkpt><trkpt lat="41.8073933" lon="15.7905267"><ele>304.0</ele><time>2026-04-10T15:36:26.19Z</time></trkpt><trkpt lat="41.8073017" lon="15.7907517"><ele>304.0</ele><time>2026-04-10T15:36:27.18Z</time></trkpt><trkpt lat="41.8072117" lon="15.790965"><ele>296.66666666666663</ele><time>2026-04-10T15:36:28.18Z</time></trkpt><trkpt lat="41.8071233" lon="15.7911667"><ele>289.3333333333333</ele><time>2026-04-10T15:36:29.179Z</time></trkpt><trkpt lat="41.8070317" lon="15.7913567"><ele>282.0</ele><time>2026-04-10T15:36:30.18Z</time></trkpt><trkpt lat="41.8069433" lon="15.7915383"><ele>282.0</ele><time>2026-04-10T15:36:31.179Z</time></trkpt><trkpt lat="41.8068433" lon="15.791705"><ele>282.0</ele><time>2026-04-10T15:36:32.184Z</time></trkpt><trkpt lat="41.8067383" lon="15.7918717"><ele>282.0</ele><time>2026-04-10T15:36:33.183Z</time></trkpt><trkpt lat="41.8066233" lon="15.792045"><ele>286.3333333333333</ele><time>2026-04-10T15:36:34.179Z</time></trkpt><trkpt lat="41.8065067" lon="15.7922317"><ele>290.66666666666663</ele><time>2026-04-10T15:36:35.192Z</time></trkpt><trkpt lat="41.80639" lon="15.7924167"><ele>295.0</ele><time>2026-04-10T15:36:36.181Z</time></trkpt><trkpt lat="41.8062783" lon="15.7926"><ele>300.66666666666663</ele><time>2026-04-10T15:36:37.179Z</time></trkpt><trkpt lat="41.806175" lon="15.7927767"><ele>306.3333333333333</ele><time>2026-04-10T15:36:38.178Z</time></trkpt><trkpt lat="41.8060783" lon="15.7929517"><ele>312.0</ele><time>2026-04-10T15:36:39.18Z</time></trkpt><trkpt lat="41.80599" lon="15.7931283"><ele>312.0</ele><time>2026-04-10T15:36:40.178Z</time></trkpt><trkpt lat="41.8059133" lon="15.793305"><ele>312.0</ele><time>2026-04-10T15:36:41.183Z</time></trkpt><trkpt lat="41.8058517" lon="15.793485"><ele>312.0</ele><time>2026-04-10T15:36:42.177Z</time></trkpt><trkpt lat="41.8058033" lon="15.79367"><ele>312.0</ele><time>2026-04-10T15:36:43.181Z</time></trkpt><trkpt lat="41.805755" lon="15.7938517"><ele>307.25</ele><time>2026-04-10T15:36:44.18Z</time></trkpt><trkpt lat="41.8057067" lon="15.794025"><ele>302.5</ele><time>2026-04-10T15:36:45.178Z</time></trkpt><trkpt lat="41.8056533" lon="15.7941933"><ele>297.75</ele><time>2026-04-10T15:36:46.178Z</time></trkpt><trkpt lat="41.8055917" lon="15.79435"><ele>293.0</ele><time>2026-04-10T15:36:47.181Z</time></trkpt><trkpt lat="41.8055233" lon="15.7944867"><ele>289.8</ele><time>2026-04-10T15:36:48.177Z</time></trkpt><trkpt lat="41.8054467" lon="15.7946"><ele>286.6</ele><time>2026-04-10T15:36:49.183Z</time></trkpt><trkpt lat="41.8053717" lon="15.7946983"><ele>283.4</ele><time>2026-04-10T15:36:50.178Z</time></trkpt><trkpt lat="41.805295" lon="15.7947933"><ele>280.2</ele><time>2026-04-10T15:36:51.184Z</time></trkpt><trkpt lat="41.8052367" lon="15.7949017"><ele>277.0</ele><time>2026-04-10T15:36:52.178Z</time></trkpt><trkpt lat="41.8052117" lon="15.7950167"><ele>277.0</ele><time>2026-04-10T15:36:53.188Z</time></trkpt><trkpt lat="41.8052083" lon="15.795125"><ele>277.0</ele><time>2026-04-10T15:36:54.18Z</time></trkpt><trkpt lat="41.8052133" lon="15.7952333"><ele>277.0</ele><time>2026-04-10T15:36:55.187Z</time></trkpt><trkpt lat="41.8052433" lon="15.7953467"><ele>277.0</ele><time>2026-04-10T15:36:56.182Z</time></trkpt><trkpt lat="41.8053067" lon="15.7954633"><ele>277.0</ele><time>2026-04-10T15:36:57.18Z</time></trkpt><trkpt lat="41.805395" lon="15.795585"><ele>278.0</ele><time>2026-04-10T15:36:58.18Z</time></trkpt><trkpt lat="41.8054783" lon="15.79571"><ele>279.0</ele><time>2026-04-10T15:36:59.18Z</time></trkpt><trkpt lat="41.805555" lon="15.7958383"><ele>280.0</ele><time>2026-04-10T15:37:00.182Z</time></trkpt><trkpt lat="41.8056167" lon="15.7959683"><ele>281.0</ele><time>2026-04-10T15:37:01.184Z</time></trkpt><trkpt lat="41.8056667" lon="15.7960917"><ele>282.5</ele><time>2026-04-10T15:37:02.182Z</time></trkpt><trkpt lat="41.805695" lon="15.7962183"><ele>284.0</ele><time>2026-04-10T15:37:03.188Z</time></trkpt><trkpt lat="41.8057033" lon="15.7963567"><ele>285.5</ele><time>2026-04-10T15:37:04.179Z</time></trkpt><trkpt lat="41.805705" lon="15.7965217"><ele>287.0</ele><time>2026-04-10T15:37:05.182Z</time></trkpt><trkpt lat="41.8057" lon="15.7967"><ele>285.5</ele><time>2026-04-10T15:37:06.18Z</time></trkpt><trkpt lat="41.8056883" lon="15.7968733"><ele>284.0</ele><time>2026-04-10T15:37:07.181Z</time></trkpt><trkpt lat="41.8056767" lon="15.79704"><ele>282.5</ele><time>2026-04-10T15:37:08.185Z</time></trkpt><trkpt lat="41.805665" lon="15.797215"><ele>281.0</ele><time>2026-04-10T15:37:09.192Z</time></trkpt><trkpt lat="41.8056567" lon="15.7973967"><ele>281.0</ele><time>2026-04-10T15:37:10.179Z</time></trkpt><trkpt lat="41.8056417" lon="15.7975733"><ele>281.0</ele><time>2026-04-10T15:37:11.18Z</time></trkpt><trkpt lat="41.80563" lon="15.7977533"><ele>281.0</ele><time>2026-04-10T15:37:12.178Z</time></trkpt><trkpt lat="41.80562" lon="15.7979367"><ele>281.0</ele><time>2026-04-10T15:37:13.179Z</time></trkpt><trkpt lat="41.8056067" lon="15.79812"><ele>280.0</ele><time>2026-04-10T15:37:14.181Z</time></trkpt><trkpt lat="41.80559" lon="15.7983083"><ele>279.0</ele><time>2026-04-10T15:37:15.18Z</time></trkpt><trkpt lat="41.8055767" lon="15.7985017"><ele>278.0</ele><time>2026-04-10T15:37:16.179Z</time></trkpt><trkpt lat="41.8055683" lon="15.79869"><ele>277.0</ele><time>2026-04-10T15:37:17.18Z</time></trkpt><trkpt lat="41.8055667" lon="15.7988717"><ele>276.5</ele><time>2026-04-10T15:37:18.182Z</time></trkpt><trkpt lat="41.8055667" lon="15.79905"><ele>276.0</ele><time>2026-04-10T15:37:19.18Z</time></trkpt><trkpt lat="41.8055767" lon="15.7992217"><ele>275.5</ele><time>2026-04-10T15:37:20.18Z</time></trkpt><trkpt lat="41.805585" lon="15.7993867"><ele>275.0</ele><time>2026-04-10T15:37:21.179Z</time></trkpt><trkpt lat="41.8055883" lon="15.7995483"><ele>273.25</ele><time>2026-04-10T15:37:22.185Z</time></trkpt><trkpt lat="41.805585" lon="15.7997117"><ele>271.5</ele><time>2026-04-10T15:37:23.177Z</time></trkpt><trkpt lat="41.8055683" lon="15.79987"><ele>269.75</ele><time>2026-04-10T15:37:24.182Z</time></trkpt><trkpt lat="41.8055283" lon="15.8000233"><ele>268.0</ele><time>2026-04-10T15:37:25.181Z</time></trkpt><trkpt lat="41.805475" lon="15.800165"><ele>266.25</ele><time>2026-04-10T15:37:26.183Z</time></trkpt><trkpt lat="41.8054217" lon="15.8003067"><ele>264.5</ele><time>2026-04-10T15:37:27.18Z</time></trkpt><trkpt lat="41.805385" lon="15.8004633"><ele>262.75</ele><time>2026-04-10T15:37:28.185Z</time></trkpt><trkpt lat="41.805355" lon="15.8006183"><ele>261.0</ele><time>2026-04-10T15:37:29.18Z</time></trkpt><trkpt lat="41.805335" lon="15.8007733"><ele>261.0</ele><time>2026-04-10T15:37:30.186Z</time></trkpt><trkpt lat="41.8053267" lon="15.80093"><ele>261.0</ele><time>2026-04-10T15:37:31.18Z</time></trkpt><trkpt lat="41.8053317" lon="15.8010867"><ele>261.0</ele><time>2026-04-10T15:37:32.179Z</time></trkpt><trkpt lat="41.8053517" lon="15.8012383"><ele>261.0</ele><time>2026-04-10T15:37:33.179Z</time></trkpt><trkpt lat="41.8053717" lon="15.80138"><ele>260.6</ele><time>2026-04-10T15:37:34.177Z</time></trkpt><trkpt lat="41.8053867" lon="15.8015167"><ele>260.20000000000005</ele><time>2026-04-10T15:37:35.18Z</time></trkpt><trkpt lat="41.8053833" lon="15.8016517"><ele>259.79999999999995</ele><time>2026-04-10T15:37:36.177Z</time></trkpt><trkpt lat="41.8053483" lon="15.80178"><ele>259.4</ele><time>2026-04-10T15:37:37.181Z</time></trkpt><trkpt lat="41.8052833" lon="15.8018967"><ele>259.0</ele><time>2026-04-10T15:37:38.18Z</time></trkpt><trkpt lat="41.8052" lon="15.8019917"><ele>261.75</ele><time>2026-04-10T15:37:39.181Z</time></trkpt><trkpt lat="41.8050967" lon="15.8020683"><ele>264.5</ele><time>2026-04-10T15:37:40.181Z</time></trkpt><trkpt lat="41.80499" lon="15.8021483"><ele>267.25</ele><time>2026-04-10T15:37:41.181Z</time></trkpt><trkpt lat="41.8048933" lon="15.80225"><ele>270.0</ele><time>2026-04-10T15:37:42.177Z</time></trkpt><trkpt lat="41.8048167" lon="15.8023617"><ele>270.0</ele><time>2026-04-10T15:37:43.18Z</time></trkpt><trkpt lat="41.8047633" lon="15.8024883"><ele>270.0</ele><time>2026-04-10T15:37:44.18Z</time></trkpt><trkpt lat="41.804735" lon="15.8026067"><ele>270.0</ele><time>2026-04-10T15:37:45.18Z</time></trkpt><trkpt lat="41.8047333" lon="15.8027183"><ele>270.0</ele><time>2026-04-10T15:37:46.179Z</time></trkpt><trkpt lat="41.8047617" lon="15.8028133"><ele>270.0</ele><time>2026-04-10T15:37:47.182Z</time></trkpt><trkpt lat="41.8048233" lon="15.8028733"><ele>270.0</ele><time>2026-04-10T15:37:48.188Z</time></trkpt><trkpt lat="41.8048917" lon="15.8029183"><ele>270.5</ele><time>2026-04-10T15:37:49.178Z</time></trkpt><trkpt lat="41.805" lon="15.8029183"><ele>271.0</ele><time>2026-04-10T15:37:50.179Z</time></trkpt><trkpt lat="41.8051333" lon="15.8028967"><ele>271.5</ele><time>2026-04-10T15:37:51.178Z</time></trkpt><trkpt lat="41.8052667" lon="15.8028717"><ele>272.0</ele><time>2026-04-10T15:37:52.183Z</time></trkpt><trkpt lat="41.8053917" lon="15.8028533"><ele>276.75</ele><time>2026-04-10T15:37:53.182Z</time></trkpt><trkpt lat="41.8055033" lon="15.8028383"><ele>281.5</ele><time>2026-04-10T15:37:54.184Z</time></trkpt><trkpt lat="41.805615" lon="15.8028167"><ele>286.25</ele><time>2026-04-10T15:37:55.177Z</time></trkpt><trkpt lat="41.8057317" lon="15.8027767"><ele>291.0</ele><time>2026-04-10T15:37:56.178Z</time></trkpt><trkpt lat="41.8058467" lon="15.802705"><ele>291.25</ele><time>2026-04-10T15:37:57.18Z</time></trkpt><trkpt lat="41.8059583" lon="15.80261"><ele>291.5</ele><time>2026-04-10T15:37:58.178Z</time></trkpt><trkpt lat="41.8060567" lon="15.8024983"><ele>291.75</ele><time>2026-04-10T15:37:59.178Z</time></trkpt><trkpt lat="41.8061433" lon="15.8023783"><ele>292.0</ele><time>2026-04-10T15:38:00.183Z</time></trkpt><trkpt lat="41.8062133" lon="15.802225"><ele>292.0</ele><time>2026-04-10T15:38:01.178Z</time></trkpt><trkpt lat="41.806275" lon="15.802055"><ele>292.0</ele><time>2026-04-10T15:38:02.18Z</time></trkpt><trkpt lat="41.806325" lon="15.8018867"><ele>292.0</ele><time>2026-04-10T15:38:03.177Z</time></trkpt><trkpt lat="41.8063633" lon="15.8017217"><ele>292.0</ele><time>2026-04-10T15:38:04.179Z</time></trkpt><trkpt lat="41.8063983" lon="15.80155"><ele>287.5</ele><time>2026-04-10T15:38:05.18Z</time></trkpt><trkpt lat="41.8064383" lon="15.8013767"><ele>283.0</ele><time>2026-04-10T15:38:06.184Z</time></trkpt><trkpt lat="41.806485" lon="15.801205"><ele>278.5</ele><time>2026-04-10T15:38:07.182Z</time></trkpt><trkpt lat="41.8065367" lon="15.8010417"><ele>274.0</ele><time>2026-04-10T15:38:08.18Z</time></trkpt><trkpt lat="41.80659" lon="15.80088"><ele>276.5</ele><time>2026-04-10T15:38:09.185Z</time></trkpt><trkpt lat="41.8066517" lon="15.8007183"><ele>279.0</ele><time>2026-04-10T15:38:10.18Z</time></trkpt><trkpt lat="41.806715" lon="15.8005567"><ele>281.5</ele><time>2026-04-10T15:38:11.182Z</time></trkpt><trkpt lat="41.8067767" lon="15.8004"><ele>284.0</ele><time>2026-04-10T15:38:12.18Z</time></trkpt><trkpt lat="41.806845" lon="15.8002433"><ele>279.75</ele><time>2026-04-10T15:38:13.179Z</time></trkpt><trkpt lat="41.80692" lon="15.80008"><ele>275.5</ele><time>2026-04-10T15:38:14.182Z</time></trkpt><trkpt lat="41.8069967" lon="15.79992"><ele>271.25</ele><time>2026-04-10T15:38:15.181Z</time></trkpt><trkpt lat="41.8070717" lon="15.7997633"><ele>267.0</ele><time>2026-04-10T15:38:16.18Z</time></trkpt><trkpt lat="41.807145" lon="15.799605"><ele>267.0</ele><time>2026-04-10T15:38:17.181Z</time></trkpt><trkpt lat="41.8072167" lon="15.79945"><ele>267.0</ele><time>2026-04-10T15:38:18.178Z</time></trkpt><trkpt lat="41.8072967" lon="15.7993117"><ele>267.0</ele><time>2026-04-10T15:38:19.18Z</time></trkpt><trkpt lat="41.807395" lon="15.79918"><ele>267.0</ele><time>2026-04-10T15:38:20.181Z</time></trkpt><trkpt lat="41.8075083" lon="15.79905"><ele>267.0</ele><time>2026-04-10T15:38:21.187Z</time></trkpt><trkpt lat="41.8076267" lon="15.7989183"><ele>267.0</ele><time>2026-04-10T15:38:22.179Z</time></trkpt><trkpt lat="41.8077483" lon="15.7987817"><ele>267.0</ele><time>2026-04-10T15:38:23.18Z</time></trkpt><trkpt lat="41.8078633" lon="15.7986417"><ele>262.3333333333333</ele><time>2026-04-10T15:38:24.179Z</time></trkpt><trkpt lat="41.807975" lon="15.7984933"><ele>257.66666666666663</ele><time>2026-04-10T15:38:25.178Z</time></trkpt><trkpt lat="41.808085" lon="15.7983383"><ele>253.0</ele><time>2026-04-10T15:38:26.178Z</time></trkpt><trkpt lat="41.808195" lon="15.7981783"><ele>253.0</ele><time>2026-04-10T15:38:27.183Z</time></trkpt><trkpt lat="41.8083067" lon="15.7980183"><ele>253.0</ele><time>2026-04-10T15:38:28.18Z</time></trkpt><trkpt lat="41.80842" lon="15.7978517"><ele>253.0</ele><time>2026-04-10T15:38:29.179Z</time></trkpt><trkpt lat="41.80853" lon="15.7976733"><ele>253.33333333333331</ele><time>2026-04-10T15:38:30.179Z</time></trkpt><trkpt lat="41.8086317" lon="15.7974917"><ele>253.66666666666669</ele><time>2026-04-10T15:38:31.181Z</time></trkpt><trkpt lat="41.808725" lon="15.7973117"><ele>254.0</ele><time>2026-04-10T15:38:32.181Z</time></trkpt><trkpt lat="41.8088133" lon="15.797135"><ele>254.0</ele><time>2026-04-10T15:38:33.178Z</time></trkpt><trkpt lat="41.8088967" lon="15.79696"><ele>254.0</ele><time>2026-04-10T15:38:34.178Z</time></trkpt><trkpt lat="41.8089783" lon="15.79679"><ele>254.0</ele><time>2026-04-10T15:38:35.182Z</time></trkpt><trkpt lat="41.80906" lon="15.796625"><ele>252.0</ele><time>2026-04-10T15:38:36.178Z</time></trkpt><trkpt lat="41.8091417" lon="15.796465"><ele>250.0</ele><time>2026-04-10T15:38:37.176Z</time></trkpt><trkpt lat="41.8092217" lon="15.7963033"><ele>248.0</ele><time>2026-04-10T15:38:38.18Z</time></trkpt><trkpt lat="41.8093" lon="15.7961433"><ele>246.0</ele><time>2026-04-10T15:38:39.179Z</time></trkpt><trkpt lat="41.8093767" lon="15.795985"><ele>246.0</ele><time>2026-04-10T15:38:40.179Z</time></trkpt><trkpt lat="41.8094533" lon="15.7958267"><ele>246.0</ele><time>2026-04-10T15:38:41.183Z</time></trkpt><trkpt lat="41.80953" lon="15.7956683"><ele>246.0</ele><time>2026-04-10T15:38:42.181Z</time></trkpt><trkpt lat="41.80961" lon="15.7955167"><ele>246.0</ele><time>2026-04-10T15:38:43.182Z</time></trkpt><trkpt lat="41.80969" lon="15.7953733"><ele>246.0</ele><time>2026-04-10T15:38:44.179Z</time></trkpt><trkpt lat="41.80977" lon="15.7952333"><ele>246.0</ele><time>2026-04-10T15:38:45.178Z</time></trkpt><trkpt lat="41.8098433" lon="15.79509"><ele>246.0</ele><time>2026-04-10T15:38:46.178Z</time></trkpt><trkpt lat="41.8099167" lon="15.79494"><ele>246.0</ele><time>2026-04-10T15:38:47.178Z</time></trkpt><trkpt lat="41.809995" lon="15.7947917"><ele>245.75</ele><time>2026-04-10T15:38:48.183Z</time></trkpt><trkpt lat="41.8100817" lon="15.79465"><ele>245.5</ele><time>2026-04-10T15:38:49.181Z</time></trkpt><trkpt lat="41.8101717" lon="15.7945167"><ele>245.25</ele><time>2026-04-10T15:38:50.181Z</time></trkpt><trkpt lat="41.810265" lon="15.7943917"><ele>245.0</ele><time>2026-04-10T15:38:51.178Z</time></trkpt><trkpt lat="41.8103583" lon="15.7942733"><ele>240.75</ele><time>2026-04-10T15:38:52.18Z</time></trkpt><trkpt lat="41.810445" lon="15.794155"><ele>236.5</ele><time>2026-04-10T15:38:53.177Z</time></trkpt><trkpt lat="41.8105333" lon="15.7940417"><ele>232.25</ele><time>2026-04-10T15:38:54.18Z</time></trkpt><trkpt lat="41.8106333" lon="15.7939333"><ele>228.0</ele><time>2026-04-10T15:38:55.188Z</time></trkpt><trkpt lat="41.8107417" lon="15.7938267"><ele>228.0</ele><time>2026-04-10T15:38:56.185Z</time></trkpt><trkpt lat="41.810855" lon="15.793715"><ele>228.0</ele><time>2026-04-10T15:38:57.18Z</time></trkpt><trkpt lat="41.81097" lon="15.793605"><ele>228.0</ele><time>2026-04-10T15:38:58.178Z</time></trkpt><trkpt lat="41.811085" lon="15.7934967"><ele>228.0</ele><time>2026-04-10T15:38:59.182Z</time></trkpt><trkpt lat="41.8112" lon="15.793395"><ele>226.0</ele><time>2026-04-10T15:39:00.18Z</time></trkpt><trkpt lat="41.8113117" lon="15.793295"><ele>224.0</ele><time>2026-04-10T15:39:01.178Z</time></trkpt><trkpt lat="41.8114283" lon="15.793205"><ele>222.0</ele><time>2026-04-10T15:39:02.18Z</time></trkpt><trkpt lat="41.811555" lon="15.7931367"><ele>220.0</ele><time>2026-04-10T15:39:03.178Z</time></trkpt><trkpt lat="41.8116833" lon="15.7930883"><ele>220.0</ele><time>2026-04-10T15:39:04.18Z</time></trkpt><trkpt lat="41.8118167" lon="15.7930517"><ele>220.0</ele><time>2026-04-10T15:39:05.177Z</time></trkpt><trkpt lat="41.8119633" lon="15.793035"><ele>220.0</ele><time>2026-04-10T15:39:06.177Z</time></trkpt><trkpt lat="41.8121133" lon="15.793035"><ele>220.0</ele><time>2026-04-10T15:39:07.179Z</time></trkpt><trkpt lat="41.8122567" lon="15.7930383"><ele>219.25</ele><time>2026-04-10T15:39:08.179Z</time></trkpt><trkpt lat="41.8123983" lon="15.793035"><ele>218.5</ele><time>2026-04-10T15:39:09.183Z</time></trkpt><trkpt lat="41.8125367" lon="15.7930283"><ele>217.75</ele><time>2026-04-10T15:39:10.178Z</time></trkpt><trkpt lat="41.81267" lon="15.7930267"><ele>217.0</ele><time>2026-04-10T15:39:11.179Z</time></trkpt><trkpt lat="41.8128033" lon="15.7930283"><ele>214.75</ele><time>2026-04-10T15:39:12.19Z</time></trkpt><trkpt lat="41.8129317" lon="15.79305"><ele>212.5</ele><time>2026-04-10T15:39:13.18Z</time></trkpt><trkpt lat="41.813055" lon="15.793095"><ele>210.25</ele><time>2026-04-10T15:39:14.18Z</time></trkpt><trkpt lat="41.813175" lon="15.793155"><ele>208.0</ele><time>2026-04-10T15:39:15.18Z</time></trkpt><trkpt lat="41.81329" lon="15.7932267"><ele>208.0</ele><time>2026-04-10T15:39:16.184Z</time></trkpt><trkpt lat="41.8134033" lon="15.79331"><ele>208.0</ele><time>2026-04-10T15:39:17.181Z</time></trkpt><trkpt lat="41.8135117" lon="15.7933983"><ele>208.0</ele><time>2026-04-10T15:39:18.181Z</time></trkpt><trkpt lat="41.8136217" lon="15.793495"><ele>208.0</ele><time>2026-04-10T15:39:19.181Z</time></trkpt><trkpt lat="41.8137367" lon="15.7935917"><ele>206.75</ele><time>2026-04-10T15:39:20.18Z</time></trkpt><trkpt lat="41.8138533" lon="15.7936867"><ele>205.5</ele><time>2026-04-10T15:39:21.178Z</time></trkpt><trkpt lat="41.8139667" lon="15.7937817"><ele>204.25</ele><time>2026-04-10T15:39:22.181Z</time></trkpt><trkpt lat="41.8140667" lon="15.7938817"><ele>203.0</ele><time>2026-04-10T15:39:23.181Z</time></trkpt><trkpt lat="41.8141517" lon="15.7939983"><ele>203.0</ele><time>2026-04-10T15:39:24.181Z</time></trkpt><trkpt lat="41.8142233" lon="15.7941283"><ele>203.0</ele><time>2026-04-10T15:39:25.18Z</time></trkpt><trkpt lat="41.8142833" lon="15.7942667"><ele>203.0</ele><time>2026-04-10T15:39:26.18Z</time></trkpt><trkpt lat="41.814335" lon="15.7944033"><ele>203.0</ele><time>2026-04-10T15:39:27.183Z</time></trkpt><trkpt lat="41.8143767" lon="15.794525"><ele>204.2</ele><time>2026-04-10T15:39:28.186Z</time></trkpt><trkpt lat="41.8144" lon="15.7946433"><ele>205.4</ele><time>2026-04-10T15:39:29.181Z</time></trkpt><trkpt lat="41.8143983" lon="15.794765"><ele>206.6</ele><time>2026-04-10T15:39:30.18Z</time></trkpt><trkpt lat="41.8143783" lon="15.7948817"><ele>207.79999999999998</ele><time>2026-04-10T15:39:31.179Z</time></trkpt><trkpt lat="41.8143483" lon="15.7949967"><ele>209.0</ele><time>2026-04-10T15:39:32.179Z</time></trkpt><trkpt lat="41.814315" lon="15.7951167"><ele>209.66666666666669</ele><time>2026-04-10T15:39:33.178Z</time></trkpt><trkpt lat="41.81428" lon="15.7952433"><ele>210.33333333333334</ele><time>2026-04-10T15:39:34.182Z</time></trkpt><trkpt lat="41.814245" lon="15.79537"><ele>211.0</ele><time>2026-04-10T15:39:35.182Z</time></trkpt><trkpt lat="41.8142133" lon="15.7954867"><ele>211.66666666666669</ele><time>2026-04-10T15:39:36.183Z</time></trkpt><trkpt lat="41.8141867" lon="15.79559"><ele>212.33333333333334</ele><time>2026-04-10T15:39:37.178Z</time></trkpt><trkpt lat="41.8141733" lon="15.7956783"><ele>213.0</ele><time>2026-04-10T15:39:38.19Z</time></trkpt><trkpt lat="41.8142117" lon="15.7958083"><ele>213.0</ele><time>2026-04-10T15:39:40.182Z</time></trkpt><trkpt lat="41.8143067" lon="15.795815"><ele>213.0</ele><time>2026-04-10T15:39:42.178Z</time></trkpt><trkpt lat="41.81436" lon="15.7957617"><ele>213.0</ele><time>2026-04-10T15:39:43.178Z</time></trkpt><trkpt lat="41.8144117" lon="15.79566"><ele>213.0</ele><time>2026-04-10T15:39:44.182Z</time></trkpt><trkpt lat="41.814445" lon="15.7955117"><ele>213.0</ele><time>2026-04-10T15:39:45.178Z</time></trkpt><trkpt lat="41.8144833" lon="15.795355"><ele>212.0</ele><time>2026-04-10T15:39:46.181Z</time></trkpt><trkpt lat="41.8145467" lon="15.7952"><ele>211.0</ele><time>2026-04-10T15:39:47.179Z</time></trkpt><trkpt lat="41.8146217" lon="15.7950583"><ele>210.0</ele><time>2026-04-10T15:39:48.182Z</time></trkpt><trkpt lat="41.8147033" lon="15.7949233"><ele>209.0</ele><time>2026-04-10T15:39:49.182Z</time></trkpt><trkpt lat="41.8147767" lon="15.7947867"><ele>209.0</ele><time>2026-04-10T15:39:50.18Z</time></trkpt><trkpt lat="41.8148233" lon="15.7946383"><ele>209.0</ele><time>2026-04-10T15:39:51.18Z</time></trkpt><trkpt lat="41.8148467" lon="15.7944767"><ele>209.0</ele><time>2026-04-10T15:39:52.178Z</time></trkpt><trkpt lat="41.81485" lon="15.7943033"><ele>209.0</ele><time>2026-04-10T15:39:53.178Z</time></trkpt><trkpt lat="41.81485" lon="15.7940983"><ele>204.66666666666669</ele><time>2026-04-10T15:39:54.178Z</time></trkpt><trkpt lat="41.8148667" lon="15.7938917"><ele>200.33333333333331</ele><time>2026-04-10T15:39:55.178Z</time></trkpt><trkpt lat="41.8148883" lon="15.79369"><ele>196.0</ele><time>2026-04-10T15:39:56.18Z</time></trkpt><trkpt lat="41.814915" lon="15.7934967"><ele>194.0</ele><time>2026-04-10T15:39:57.181Z</time></trkpt><trkpt lat="41.81494" lon="15.7933033"><ele>192.0</ele><time>2026-04-10T15:39:58.184Z</time></trkpt><trkpt lat="41.8149617" lon="15.7931133"><ele>190.0</ele><time>2026-04-10T15:39:59.179Z</time></trkpt><trkpt lat="41.8149817" lon="15.7929333"><ele>188.0</ele><time>2026-04-10T15:40:00.183Z</time></trkpt><trkpt lat="41.8150133" lon="15.7927583"><ele>189.25</ele><time>2026-04-10T15:40:01.177Z</time></trkpt><trkpt lat="41.81506" lon="15.7925917"><ele>190.5</ele><time>2026-04-10T15:40:02.179Z</time></trkpt><trkpt lat="41.8151333" lon="15.79244"><ele>191.75</ele><time>2026-04-10T15:40:03.179Z</time></trkpt><trkpt lat="41.8152283" lon="15.7923117"><ele>193.0</ele><time>2026-04-10T15:40:04.181Z</time></trkpt><trkpt lat="41.8153383" lon="15.7922"><ele>193.0</ele><time>2026-04-10T15:40:05.179Z</time></trkpt><trkpt lat="41.8154517" lon="15.7920967"><ele>193.0</ele><time>2026-04-10T15:40:06.179Z</time></trkpt><trkpt lat="41.8155617" lon="15.7920033"><ele>193.0</ele><time>2026-04-10T15:40:07.181Z</time></trkpt><trkpt lat="41.8156667" lon="15.7919133"><ele>193.0</ele><time>2026-04-10T15:40:08.179Z</time></trkpt><trkpt lat="41.8157633" lon="15.7918233"><ele>190.5</ele><time>2026-04-10T15:40:09.182Z</time></trkpt><trkpt lat="41.8158567" lon="15.7917367"><ele>188.0</ele><time>2026-04-10T15:40:10.179Z</time></trkpt><trkpt lat="41.8159533" lon="15.791655"><ele>185.5</ele><time>2026-04-10T15:40:11.185Z</time></trkpt><trkpt lat="41.8160517" lon="15.7915733"><ele>183.0</ele><time>2026-04-10T15:40:12.179Z</time></trkpt><trkpt lat="41.8161533" lon="15.791485"><ele>183.0</ele><time>2026-04-10T15:40:13.178Z</time></trkpt><trkpt lat="41.81626" lon="15.79139"><ele>183.0</ele><time>2026-04-10T15:40:14.184Z</time></trkpt><trkpt lat="41.8163717" lon="15.791295"><ele>183.0</ele><time>2026-04-10T15:40:15.179Z</time></trkpt><trkpt lat="41.81648" lon="15.7911983"><ele>183.0</ele><time>2026-04-10T15:40:16.186Z</time></trkpt><trkpt lat="41.8165833" lon="15.7911083"><ele>183.0</ele><time>2026-04-10T15:40:17.189Z</time></trkpt><trkpt lat="41.81668" lon="15.7910167"><ele>183.0</ele><time>2026-04-10T15:40:18.179Z</time></trkpt><trkpt lat="41.8167667" lon="15.79092"><ele>183.0</ele><time>2026-04-10T15:40:19.194Z</time></trkpt><trkpt lat="41.81684" lon="15.7908117"><ele>183.0</ele><time>2026-04-10T15:40:20.188Z</time></trkpt><trkpt lat="41.8168967" lon="15.790685"><ele>184.75</ele><time>2026-04-10T15:40:21.187Z</time></trkpt><trkpt lat="41.816945" lon="15.7905333"><ele>186.5</ele><time>2026-04-10T15:40:22.182Z</time></trkpt><trkpt lat="41.816995" lon="15.7903783"><ele>188.25</ele><time>2026-04-10T15:40:23.187Z</time></trkpt><trkpt lat="41.8170483" lon="15.790215"><ele>190.0</ele><time>2026-04-10T15:40:24.184Z</time></trkpt><trkpt lat="41.8171083" lon="15.7900583"><ele>186.0</ele><time>2026-04-10T15:40:25.191Z</time></trkpt><trkpt lat="41.81718" lon="15.78992"><ele>182.0</ele><time>2026-04-10T15:40:26.192Z</time></trkpt><trkpt lat="41.817255" lon="15.7897883"><ele>178.0</ele><time>2026-04-10T15:40:27.185Z</time></trkpt><trkpt lat="41.8173383" lon="15.7896617"><ele>174.0</ele><time>2026-04-10T15:40:28.188Z</time></trkpt><trkpt lat="41.8174267" lon="15.7895317"><ele>174.0</ele><time>2026-04-10T15:40:29.189Z</time></trkpt><trkpt lat="41.8175217" lon="15.789405"><ele>174.0</ele><time>2026-04-10T15:40:30.183Z</time></trkpt><trkpt lat="41.8176167" lon="15.7892717"><ele>174.0</ele><time>2026-04-10T15:40:31.185Z</time></trkpt><trkpt lat="41.81771" lon="15.78913"><ele>174.0</ele><time>2026-04-10T15:40:32.184Z</time></trkpt><trkpt lat="41.8178033" lon="15.788985"><ele>174.25</ele><time>2026-04-10T15:40:33.182Z</time></trkpt><trkpt lat="41.8179" lon="15.788845"><ele>174.5</ele><time>2026-04-10T15:40:34.199Z</time></trkpt><trkpt lat="41.818" lon="15.7887067"><ele>174.75</ele><time>2026-04-10T15:40:35.19Z</time></trkpt><trkpt lat="41.8181067" lon="15.7885733"><ele>175.0</ele><time>2026-04-10T15:40:36.186Z</time></trkpt><trkpt lat="41.8182117" lon="15.7884483"><ele>173.5</ele><time>2026-04-10T15:40:37.185Z</time></trkpt><trkpt lat="41.8183167" lon="15.7883267"><ele>172.0</ele><time>2026-04-10T15:40:38.187Z</time></trkpt><trkpt lat="41.8184267" lon="15.788195"><ele>170.5</ele><time>2026-04-10T15:40:39.18Z</time></trkpt><trkpt lat="41.8185467" lon="15.7880533"><ele>169.0</ele><time>2026-04-10T15:40:40.19Z</time></trkpt><trkpt lat="41.8186833" lon="15.787915"><ele>169.0</ele><time>2026-04-10T15:40:41.189Z</time></trkpt><trkpt lat="41.818825" lon="15.787795"><ele>169.0</ele><time>2026-04-10T15:40:42.189Z</time></trkpt><trkpt lat="41.8189583" lon="15.7876783"><ele>169.0</ele><time>2026-04-10T15:40:43.19Z</time></trkpt><trkpt lat="41.81908" lon="15.78754"><ele>167.33333333333334</ele><time>2026-04-10T15:40:44.198Z</time></trkpt><trkpt lat="41.8191983" lon="15.78739"><ele>165.66666666666666</ele><time>2026-04-10T15:40:45.188Z</time></trkpt><trkpt lat="41.8193167" lon="15.7872533"><ele>164.0</ele><time>2026-04-10T15:40:46.188Z</time></trkpt><trkpt lat="41.8194333" lon="15.7871217"><ele>164.0</ele><time>2026-04-10T15:40:47.182Z</time></trkpt><trkpt lat="41.8195433" lon="15.7869867"><ele>164.0</ele><time>2026-04-10T15:40:48.188Z</time></trkpt><trkpt lat="41.819635" lon="15.78684"><ele>164.0</ele><time>2026-04-10T15:40:49.181Z</time></trkpt><trkpt lat="41.8197183" lon="15.7866833"><ele>164.0</ele><time>2026-04-10T15:40:50.191Z</time></trkpt><trkpt lat="41.8197967" lon="15.7865083"><ele>160.5</ele><time>2026-04-10T15:40:51.201Z</time></trkpt><trkpt lat="41.8198767" lon="15.7863333"><ele>157.0</ele><time>2026-04-10T15:40:52.189Z</time></trkpt><trkpt lat="41.819965" lon="15.7861717"><ele>153.5</ele><time>2026-04-10T15:40:53.188Z</time></trkpt><trkpt lat="41.8200533" lon="15.7860167"><ele>150.0</ele><time>2026-04-10T15:40:54.183Z</time></trkpt><trkpt lat="41.82014" lon="15.7858617"><ele>151.33333333333334</ele><time>2026-04-10T15:40:55.18Z</time></trkpt><trkpt lat="41.820225" lon="15.7857017"><ele>152.66666666666669</ele><time>2026-04-10T15:40:56.185Z</time></trkpt><trkpt lat="41.8203133" lon="15.7855283"><ele>154.0</ele><time>2026-04-10T15:40:57.179Z</time></trkpt><trkpt lat="41.820405" lon="15.7853467"><ele>148.66666666666669</ele><time>2026-04-10T15:40:58.181Z</time></trkpt><trkpt lat="41.8205" lon="15.7851633"><ele>143.33333333333334</ele><time>2026-04-10T15:40:59.187Z</time></trkpt><trkpt lat="41.8205917" lon="15.784975"><ele>138.0</ele><time>2026-04-10T15:41:00.188Z</time></trkpt><trkpt lat="41.8206767" lon="15.78479"><ele>138.0</ele><time>2026-04-10T15:41:01.187Z</time></trkpt><trkpt lat="41.8207583" lon="15.78461"><ele>138.0</ele><time>2026-04-10T15:41:02.183Z</time></trkpt><trkpt lat="41.8208333" lon="15.7844333"><ele>138.0</ele><time>2026-04-10T15:41:03.183Z</time></trkpt><trkpt lat="41.820905" lon="15.784265"><ele>139.5</ele><time>2026-04-10T15:41:04.182Z</time></trkpt><trkpt lat="41.82098" lon="15.7841067"><ele>141.0</ele><time>2026-04-10T15:41:05.199Z</time></trkpt><trkpt lat="41.821055" lon="15.7839567"><ele>142.5</ele><time>2026-04-10T15:41:06.184Z</time></trkpt><trkpt lat="41.8211283" lon="15.78381"><ele>144.0</ele><time>2026-04-10T15:41:07.18Z</time></trkpt><trkpt lat="41.8211983" lon="15.7836633"><ele>144.0</ele><time>2026-04-10T15:41:08.18Z</time></trkpt><trkpt lat="41.8212733" lon="15.7835267"><ele>144.0</ele><time>2026-04-10T15:41:09.182Z</time></trkpt><trkpt lat="41.8213567" lon="15.7833983"><ele>144.0</ele><time>2026-04-10T15:41:10.186Z</time></trkpt><trkpt lat="41.821445" lon="15.78328"><ele>144.0</ele><time>2026-04-10T15:41:11.183Z</time></trkpt><trkpt lat="41.82154" lon="15.7831733"><ele>140.75</ele><time>2026-04-10T15:41:12.184Z</time></trkpt><trkpt lat="41.8216367" lon="15.7830683"><ele>137.5</ele><time>2026-04-10T15:41:13.178Z</time></trkpt><trkpt lat="41.8217317" lon="15.7829533"><ele>134.25</ele><time>2026-04-10T15:41:14.183Z</time></trkpt><trkpt lat="41.821825" lon="15.78282"><ele>131.0</ele><time>2026-04-10T15:41:15.181Z</time></trkpt><trkpt lat="41.8219167" lon="15.782685"><ele>126.75</ele><time>2026-04-10T15:41:16.182Z</time></trkpt><trkpt lat="41.8220017" lon="15.7825517"><ele>122.5</ele><time>2026-04-10T15:41:17.188Z</time></trkpt><trkpt lat="41.822085" lon="15.78242"><ele>118.25</ele><time>2026-04-10T15:41:18.187Z</time></trkpt><trkpt lat="41.8221617" lon="15.7822933"><ele>114.0</ele><time>2026-04-10T15:41:19.186Z</time></trkpt><trkpt lat="41.8222333" lon="15.78217"><ele>114.0</ele><time>2026-04-10T15:41:20.184Z</time></trkpt><trkpt lat="41.8222983" lon="15.7820617"><ele>114.0</ele><time>2026-04-10T15:41:21.182Z</time></trkpt><trkpt lat="41.82235" lon="15.7819533"><ele>114.0</ele><time>2026-04-10T15:41:22.18Z</time></trkpt><trkpt lat="41.8223883" lon="15.7818417"><ele>114.0</ele><time>2026-04-10T15:41:23.181Z</time></trkpt><trkpt lat="41.8223983" lon="15.7817167"><ele>114.0</ele><time>2026-04-10T15:41:24.184Z</time></trkpt><trkpt lat="41.8223833" lon="15.78159"><ele>117.80000000000001</ele><time>2026-04-10T15:41:25.194Z</time></trkpt><trkpt lat="41.82236" lon="15.7814533"><ele>121.60000000000001</ele><time>2026-04-10T15:41:26.179Z</time></trkpt><trkpt lat="41.8223433" lon="15.7813117"><ele>125.4</ele><time>2026-04-10T15:41:27.181Z</time></trkpt><trkpt lat="41.822335" lon="15.7811617"><ele>129.20000000000002</ele><time>2026-04-10T15:41:28.181Z</time></trkpt><trkpt lat="41.8223367" lon="15.7810017"><ele>133.0</ele><time>2026-04-10T15:41:29.183Z</time></trkpt><trkpt lat="41.8223417" lon="15.780835"><ele>135.0</ele><time>2026-04-10T15:41:30.188Z</time></trkpt><trkpt lat="41.8223483" lon="15.7806667"><ele>137.0</ele><time>2026-04-10T15:41:31.191Z</time></trkpt><trkpt lat="41.82236" lon="15.7804967"><ele>139.0</ele><time>2026-04-10T15:41:32.185Z</time></trkpt><trkpt lat="41.8223733" lon="15.78032"><ele>141.0</ele><time>2026-04-10T15:41:33.186Z</time></trkpt><trkpt lat="41.8223833" lon="15.7801267"><ele>141.0</ele><time>2026-04-10T15:41:34.188Z</time></trkpt><trkpt lat="41.8223867" lon="15.7799367"><ele>141.0</ele><time>2026-04-10T15:41:35.187Z</time></trkpt><trkpt lat="41.82239" lon="15.779765"><ele>141.0</ele><time>2026-04-10T15:41:36.187Z</time></trkpt><trkpt lat="41.8223967" lon="15.7795983"><ele>141.0</ele><time>2026-04-10T15:41:37.183Z</time></trkpt><trkpt lat="41.8224117" lon="15.7794317"><ele>141.25</ele><time>2026-04-10T15:41:38.185Z</time></trkpt><trkpt lat="41.822445" lon="15.77926"><ele>141.5</ele><time>2026-04-10T15:41:39.184Z</time></trkpt><trkpt lat="41.82248" lon="15.7790817"><ele>141.75</ele><time>2026-04-10T15:41:40.18Z</time></trkpt><trkpt lat="41.8225183" lon="15.77891"><ele>142.0</ele><time>2026-04-10T15:41:41.181Z</time></trkpt><trkpt lat="41.8225633" lon="15.7787317"><ele>142.0</ele><time>2026-04-10T15:41:42.187Z</time></trkpt><trkpt lat="41.8226117" lon="15.778545"><ele>142.0</ele><time>2026-04-10T15:41:43.185Z</time></trkpt><trkpt lat="41.82266" lon="15.7783617"><ele>142.0</ele><time>2026-04-10T15:41:44.182Z</time></trkpt><trkpt lat="41.8227083" lon="15.778185"><ele>142.0</ele><time>2026-04-10T15:41:45.18Z</time></trkpt><trkpt lat="41.8227567" lon="15.7780083"><ele>146.0</ele><time>2026-04-10T15:41:46.183Z</time></trkpt><trkpt lat="41.822815" lon="15.77784"><ele>150.0</ele><time>2026-04-10T15:41:47.188Z</time></trkpt><trkpt lat="41.8228767" lon="15.7776733"><ele>154.0</ele><time>2026-04-10T15:41:48.189Z</time></trkpt><trkpt lat="41.8229417" lon="15.77751"><ele>158.0</ele><time>2026-04-10T15:41:49.179Z</time></trkpt><trkpt lat="41.8230117" lon="15.7773533"><ele>158.0</ele><time>2026-04-10T15:41:50.193Z</time></trkpt><trkpt lat="41.8230883" lon="15.777205"><ele>158.0</ele><time>2026-04-10T15:41:51.19Z</time></trkpt><trkpt lat="41.8231717" lon="15.7770633"><ele>158.0</ele><time>2026-04-10T15:41:52.193Z</time></trkpt><trkpt lat="41.82325" lon="15.77693"><ele>158.0</ele><time>2026-04-10T15:41:53.19Z</time></trkpt><trkpt lat="41.8233267" lon="15.776805"><ele>159.5</ele><time>2026-04-10T15:41:54.187Z</time></trkpt><trkpt lat="41.8234133" lon="15.7766767"><ele>161.0</ele><time>2026-04-10T15:41:55.198Z</time></trkpt><trkpt lat="41.82351" lon="15.7765433"><ele>162.5</ele><time>2026-04-10T15:41:56.182Z</time></trkpt><trkpt lat="41.8236183" lon="15.77641"><ele>164.0</ele><time>2026-04-10T15:41:57.183Z</time></trkpt><trkpt lat="41.8237317" lon="15.7762767"><ele>164.0</ele><time>2026-04-10T15:41:58.191Z</time></trkpt><trkpt lat="41.8238383" lon="15.776145"><ele>164.0</ele><time>2026-04-10T15:41:59.186Z</time></trkpt><trkpt lat="41.8239383" lon="15.77602"><ele>164.0</ele><time>2026-04-10T15:42:00.182Z</time></trkpt><trkpt lat="41.8240317" lon="15.7758967"><ele>164.0</ele><time>2026-04-10T15:42:01.181Z</time></trkpt><trkpt lat="41.8241167" lon="15.775775"><ele>164.75</ele><time>2026-04-10T15:42:02.194Z</time></trkpt><trkpt lat="41.8241983" lon="15.7756567"><ele>165.5</ele><time>2026-04-10T15:42:03.18Z</time></trkpt><trkpt lat="41.8242767" lon="15.775535"><ele>166.25</ele><time>2026-04-10T15:42:04.185Z</time></trkpt><trkpt lat="41.8243583" lon="15.7754033"><ele>167.0</ele><time>2026-04-10T15:42:05.181Z</time></trkpt><trkpt lat="41.82444" lon="15.77528"><ele>163.75</ele><time>2026-04-10T15:42:06.19Z</time></trkpt><trkpt lat="41.82452" lon="15.7751717"><ele>160.5</ele><time>2026-04-10T15:42:07.185Z</time></trkpt><trkpt lat="41.824605" lon="15.7750733"><ele>157.25</ele><time>2026-04-10T15:42:08.185Z</time></trkpt><trkpt lat="41.8247017" lon="15.7749833"><ele>154.0</ele><time>2026-04-10T15:42:09.187Z</time></trkpt><trkpt lat="41.824805" lon="15.7748967"><ele>154.0</ele><time>2026-04-10T15:42:10.187Z</time></trkpt><trkpt lat="41.8249067" lon="15.7748017"><ele>154.0</ele><time>2026-04-10T15:42:11.184Z</time></trkpt><trkpt lat="41.8250083" lon="15.7746983"><ele>154.0</ele><time>2026-04-10T15:42:12.184Z</time></trkpt><trkpt lat="41.825105" lon="15.7745917"><ele>154.0</ele><time>2026-04-10T15:42:13.183Z</time></trkpt><trkpt lat="41.82519" lon="15.7744817"><ele>154.8</ele><time>2026-04-10T15:42:14.187Z</time></trkpt><trkpt lat="41.8252717" lon="15.774375"><ele>155.60000000000002</ele><time>2026-04-10T15:42:15.18Z</time></trkpt><trkpt lat="41.8253517" lon="15.77427"><ele>156.4</ele><time>2026-04-10T15:42:16.187Z</time></trkpt><trkpt lat="41.8254217" lon="15.7741783"><ele>157.20000000000002</ele><time>2026-04-10T15:42:17.181Z</time></trkpt><trkpt lat="41.8254917" lon="15.7741"><ele>158.0</ele><time>2026-04-10T15:42:18.184Z</time></trkpt><trkpt lat="41.825565" lon="15.77403"><ele>158.0</ele><time>2026-04-10T15:42:19.182Z</time></trkpt><trkpt lat="41.825645" lon="15.7739633"><ele>158.0</ele><time>2026-04-10T15:42:20.186Z</time></trkpt><trkpt lat="41.8257267" lon="15.7738983"><ele>158.0</ele><time>2026-04-10T15:42:21.186Z</time></trkpt><trkpt lat="41.825805" lon="15.7738283"><ele>158.0</ele><time>2026-04-10T15:42:22.187Z</time></trkpt><trkpt lat="41.82588" lon="15.77376"><ele>158.0</ele><time>2026-04-10T15:42:23.187Z</time></trkpt><trkpt lat="41.825955" lon="15.7736933"><ele>158.83333333333331</ele><time>2026-04-10T15:42:24.184Z</time></trkpt><trkpt lat="41.82603" lon="15.7736267"><ele>159.66666666666666</ele><time>2026-04-10T15:42:25.181Z</time></trkpt><trkpt lat="41.826095" lon="15.77354"><ele>160.5</ele><time>2026-04-10T15:42:26.183Z</time></trkpt><trkpt lat="41.826145" lon="15.773445"><ele>161.33333333333334</ele><time>2026-04-10T15:42:27.192Z</time></trkpt><trkpt lat="41.8261783" lon="15.7733417"><ele>162.16666666666669</ele><time>2026-04-10T15:42:28.179Z</time></trkpt><trkpt lat="41.8262183" lon="15.77326"><ele>163.0</ele><time>2026-04-10T15:42:29.183Z</time></trkpt><trkpt lat="41.82625" lon="15.7731583"><ele>163.0</ele><time>2026-04-10T15:42:30.183Z</time></trkpt><trkpt lat="41.8262833" lon="15.77306"><ele>163.0</ele><time>2026-04-10T15:42:31.187Z</time></trkpt><trkpt lat="41.826325" lon="15.77298"><ele>163.0</ele><time>2026-04-10T15:42:32.188Z</time></trkpt><trkpt lat="41.8263667" lon="15.7729"><ele>163.0</ele><time>2026-04-10T15:42:33.181Z</time></trkpt><trkpt lat="41.8264183" lon="15.7728417"><ele>163.0</ele><time>2026-04-10T15:42:34.179Z</time></trkpt><trkpt lat="41.8264917" lon="15.7727917"><ele>163.0</ele><time>2026-04-10T15:42:35.188Z</time></trkpt><trkpt lat="41.8265833" lon="15.77277"><ele>163.0</ele><time>2026-04-10T15:42:36.192Z</time></trkpt><trkpt lat="41.82667" lon="15.7727467"><ele>163.0</ele><time>2026-04-10T15:42:37.187Z</time></trkpt><trkpt lat="41.8267583" lon="15.772725"><ele>163.0</ele><time>2026-04-10T15:42:38.184Z</time></trkpt><trkpt lat="41.826845" lon="15.7727133"><ele>163.0</ele><time>2026-04-10T15:42:39.18Z</time></trkpt><trkpt lat="41.82692" lon="15.7727"><ele>163.0</ele><time>2026-04-10T15:42:40.186Z</time></trkpt><trkpt lat="41.826985" lon="15.7726967"><ele>163.0</ele><time>2026-04-10T15:42:41.183Z</time></trkpt><trkpt lat="41.8271067" lon="15.772665"><ele>162.20000000000002</ele><time>2026-04-10T15:42:43.185Z</time></trkpt><trkpt lat="41.8271717" lon="15.772675"><ele>161.4</ele><time>2026-04-10T15:42:44.184Z</time></trkpt><trkpt lat="41.82727" lon="15.7727233"><ele>160.60000000000002</ele><time>2026-04-10T15:42:46.182Z</time></trkpt><trkpt lat="41.8273917" lon="15.772785"><ele>159.8</ele><time>2026-04-10T15:42:56.181Z</time></trkpt><trkpt lat="41.8274683" lon="15.772725"><ele>159.0</ele><time>2026-04-10T15:42:58.185Z</time></trkpt><trkpt lat="41.82751" lon="15.7726583"><ele>159.0</ele><time>2026-04-10T15:42:59.183Z</time></trkpt><trkpt lat="41.8275483" lon="15.7725717"><ele>159.0</ele><time>2026-04-10T15:43:00.183Z</time></trkpt><trkpt lat="41.8275917" lon="15.7724967"><ele>159.0</ele><time>2026-04-10T15:43:01.179Z</time></trkpt><trkpt lat="41.82763" lon="15.772425"><ele>159.0</ele><time>2026-04-10T15:43:02.18Z</time></trkpt><trkpt lat="41.8276867" lon="15.7722967"><ele>159.0</ele><time>2026-04-10T15:43:04.191Z</time></trkpt><trkpt lat="41.827755" lon="15.7721717"><ele>159.0</ele><time>2026-04-10T15:43:06.187Z</time></trkpt><trkpt lat="41.8278" lon="15.7720967"><ele>159.0</ele><time>2026-04-10T15:43:07.189Z</time></trkpt><trkpt lat="41.8278533" lon="15.7720117"><ele>159.0</ele><time>2026-04-10T15:43:08.179Z</time></trkpt><trkpt lat="41.8279133" lon="15.7719167"><ele>159.0</ele><time>2026-04-10T15:43:09.189Z</time></trkpt><trkpt lat="41.8279767" lon="15.7718217"><ele>159.0</ele><time>2026-04-10T15:43:10.188Z</time></trkpt><trkpt lat="41.8280383" lon="15.7717283"><ele>159.0</ele><time>2026-04-10T15:43:11.187Z</time></trkpt><trkpt lat="41.8280983" lon="15.771645"><ele>158.5</ele><time>2026-04-10T15:43:12.186Z</time></trkpt><trkpt lat="41.8281517" lon="15.77156"><ele>158.0</ele><time>2026-04-10T15:43:13.19Z</time></trkpt><trkpt lat="41.8282" lon="15.771475"><ele>157.5</ele><time>2026-04-10T15:43:14.19Z</time></trkpt><trkpt lat="41.8282467" lon="15.7713883"><ele>157.0</ele><time>2026-04-10T15:43:15.181Z</time></trkpt><trkpt lat="41.828295" lon="15.771305"><ele>156.5</ele><time>2026-04-10T15:43:16.185Z</time></trkpt><trkpt lat="41.8283433" lon="15.771225"><ele>156.0</ele><time>2026-04-10T15:43:17.193Z</time></trkpt><trkpt lat="41.828385" lon="15.7711517"><ele>156.0</ele><time>2026-04-10T15:43:18.188Z</time></trkpt><trkpt lat="41.8284317" lon="15.7710867"><ele>156.0</ele><time>2026-04-10T15:43:19.188Z</time></trkpt><trkpt lat="41.82848" lon="15.7710117"><ele>156.0</ele><time>2026-04-10T15:43:20.188Z</time></trkpt><trkpt lat="41.82853" lon="15.77093"><ele>156.0</ele><time>2026-04-10T15:43:21.191Z</time></trkpt><trkpt lat="41.8285767" lon="15.7708383"><ele>156.0</ele><time>2026-04-10T15:43:22.18Z</time></trkpt><trkpt lat="41.8286217" lon="15.7707467"><ele>156.0</ele><time>2026-04-10T15:43:23.188Z</time></trkpt><trkpt lat="41.8286767" lon="15.7706633"><ele>155.5</ele><time>2026-04-10T15:43:24.181Z</time></trkpt><trkpt lat="41.8287283" lon="15.7705767"><ele>155.0</ele><time>2026-04-10T15:43:25.18Z</time></trkpt><trkpt lat="41.82878" lon="15.77049"><ele>154.5</ele><time>2026-04-10T15:43:26.184Z</time></trkpt><trkpt lat="41.8288383" lon="15.770405"><ele>154.0</ele><time>2026-04-10T15:43:27.187Z</time></trkpt><trkpt lat="41.8288933" lon="15.7703067"><ele>153.5</ele><time>2026-04-10T15:43:28.182Z</time></trkpt><trkpt lat="41.828955" lon="15.7702167"><ele>153.0</ele><time>2026-04-10T15:43:29.182Z</time></trkpt><trkpt lat="41.82901" lon="15.770115"><ele>152.8</ele><time>2026-04-10T15:43:30.182Z</time></trkpt><trkpt lat="41.8290667" lon="15.7700167"><ele>152.60000000000002</ele><time>2026-04-10T15:43:31.183Z</time></trkpt><trkpt lat="41.8291283" lon="15.76992"><ele>152.39999999999998</ele><time>2026-04-10T15:43:32.189Z</time></trkpt><trkpt lat="41.82919" lon="15.7698183"><ele>152.2</ele><time>2026-04-10T15:43:33.188Z</time></trkpt><trkpt lat="41.8292483" lon="15.7697233"><ele>152.0</ele><time>2026-04-10T15:43:34.18Z</time></trkpt><trkpt lat="41.829305" lon="15.769635"><ele>152.16666666666666</ele><time>2026-04-10T15:43:35.184Z</time></trkpt><trkpt lat="41.8293467" lon="15.7695467"><ele>152.33333333333331</ele><time>2026-04-10T15:43:36.183Z</time></trkpt><trkpt lat="41.8293883" lon="15.7694717"><ele>152.5</ele><time>2026-04-10T15:43:37.187Z</time></trkpt><trkpt lat="41.8294517" lon="15.7693767"><ele>152.66666666666666</ele><time>2026-04-10T15:43:39.186Z</time></trkpt><trkpt lat="41.8295267" lon="15.76934"><ele>152.83333333333334</ele><time>2026-04-10T15:43:42.188Z</time></trkpt><trkpt lat="41.829595" lon="15.769385"><ele>153.0</ele><time>2026-04-10T15:43:44.184Z</time></trkpt><trkpt lat="41.8296583" lon="15.7694567"><ele>153.0</ele><time>2026-04-10T15:43:46.187Z</time></trkpt><trkpt lat="41.8297083" lon="15.7695267"><ele>153.0</ele><time>2026-04-10T15:43:48.179Z</time></trkpt><trkpt lat="41.8297567" lon="15.7696033"><ele>153.0</ele><time>2026-04-10T15:43:50.189Z</time></trkpt><trkpt lat="41.829825" lon="15.76968"><ele>153.0</ele><time>2026-04-10T15:43:52.181Z</time></trkpt><trkpt lat="41.829925" lon="15.76977"><ele>153.0</ele><time>2026-04-10T15:43:54.187Z</time></trkpt><trkpt lat="41.8299917" lon="15.76984"><ele>153.0</ele><time>2026-04-10T15:43:55.181Z</time></trkpt><trkpt lat="41.8300617" lon="15.76992"><ele>153.0</ele><time>2026-04-10T15:43:56.187Z</time></trkpt><trkpt lat="41.830125" lon="15.7699933"><ele>153.0</ele><time>2026-04-10T15:43:57.185Z</time></trkpt><trkpt lat="41.8301817" lon="15.7700567"><ele>153.0</ele><time>2026-04-10T15:43:58.182Z</time></trkpt><trkpt lat="41.830235" lon="15.770105"><ele>153.0</ele><time>2026-04-10T15:43:59.185Z</time></trkpt><trkpt lat="41.83032" lon="15.77018"><ele>153.0</ele><time>2026-04-10T15:44:01.182Z</time></trkpt><trkpt lat="41.830425" lon="15.7701317"><ele>153.0</ele><time>2026-04-10T15:44:10.184Z</time></trkpt><trkpt lat="41.8304533" lon="15.770055"><ele>154.5</ele><time>2026-04-10T15:44:11.183Z</time></trkpt><trkpt lat="41.830485" lon="15.76993"><ele>156.0</ele><time>2026-04-10T15:44:12.184Z</time></trkpt><trkpt lat="41.8305083" lon="15.7697817"><ele>157.5</ele><time>2026-04-10T15:44:13.189Z</time></trkpt><trkpt lat="41.830535" lon="15.7696133"><ele>159.0</ele><time>2026-04-10T15:44:14.183Z</time></trkpt><trkpt lat="41.830565" lon="15.769435"><ele>158.25</ele><time>2026-04-10T15:44:15.183Z</time></trkpt><trkpt lat="41.8305967" lon="15.769265"><ele>157.5</ele><time>2026-04-10T15:44:16.179Z</time></trkpt><trkpt lat="41.8306317" lon="15.7690917"><ele>156.75</ele><time>2026-04-10T15:44:17.183Z</time></trkpt><trkpt lat="41.8306633" lon="15.768905"><ele>156.0</ele><time>2026-04-10T15:44:18.186Z</time></trkpt><trkpt lat="41.8306967" lon="15.7687133"><ele>154.66666666666666</ele><time>2026-04-10T15:44:19.183Z</time></trkpt><trkpt lat="41.8307333" lon="15.76851"><ele>153.33333333333331</ele><time>2026-04-10T15:44:20.187Z</time></trkpt><trkpt lat="41.8307683" lon="15.7683133"><ele>152.0</ele><time>2026-04-10T15:44:21.179Z</time></trkpt><trkpt lat="41.8308" lon="15.7681217"><ele>152.0</ele><time>2026-04-10T15:44:22.186Z</time></trkpt><trkpt lat="41.83083" lon="15.7679217"><ele>152.0</ele><time>2026-04-10T15:44:23.188Z</time></trkpt><trkpt lat="41.83086" lon="15.7677217"><ele>152.0</ele><time>2026-04-10T15:44:24.185Z</time></trkpt><trkpt lat="41.8308883" lon="15.7675367"><ele>152.0</ele><time>2026-04-10T15:44:25.188Z</time></trkpt><trkpt lat="41.8309183" lon="15.7673617"><ele>152.5</ele><time>2026-04-10T15:44:26.196Z</time></trkpt><trkpt lat="41.8309517" lon="15.76719"><ele>153.0</ele><time>2026-04-10T15:44:27.19Z</time></trkpt><trkpt lat="41.8309867" lon="15.7670117"><ele>153.5</ele><time>2026-04-10T15:44:28.187Z</time></trkpt><trkpt lat="41.8310167" lon="15.7668233"><ele>154.0</ele><time>2026-04-10T15:44:29.186Z</time></trkpt><trkpt lat="41.8310467" lon="15.766635"><ele>154.0</ele><time>2026-04-10T15:44:30.188Z</time></trkpt><trkpt lat="41.83108" lon="15.7664483"><ele>154.0</ele><time>2026-04-10T15:44:31.183Z</time></trkpt><trkpt lat="41.8311133" lon="15.766265"><ele>154.0</ele><time>2026-04-10T15:44:32.183Z</time></trkpt><trkpt lat="41.831145" lon="15.7660883"><ele>154.0</ele><time>2026-04-10T15:44:33.189Z</time></trkpt><trkpt lat="41.831175" lon="15.7659183"><ele>154.25</ele><time>2026-04-10T15:44:34.179Z</time></trkpt><trkpt lat="41.8312067" lon="15.7657433"><ele>154.5</ele><time>2026-04-10T15:44:35.187Z</time></trkpt><trkpt lat="41.8312383" lon="15.7655683"><ele>154.75</ele><time>2026-04-10T15:44:36.186Z</time></trkpt><trkpt lat="41.83127" lon="15.7653917"><ele>155.0</ele><time>2026-04-10T15:44:37.183Z</time></trkpt><trkpt lat="41.8313017" lon="15.76522"><ele>154.25</ele><time>2026-04-10T15:44:38.189Z</time></trkpt><trkpt lat="41.8313317" lon="15.7650517"><ele>153.5</ele><time>2026-04-10T15:44:39.179Z</time></trkpt><trkpt lat="41.8313583" lon="15.7648883"><ele>152.75</ele><time>2026-04-10T15:44:40.181Z</time></trkpt><trkpt lat="41.831385" lon="15.764725"><ele>152.0</ele><time>2026-04-10T15:44:41.18Z</time></trkpt><trkpt lat="41.8314017" lon="15.76456"><ele>152.0</ele><time>2026-04-10T15:44:42.186Z</time></trkpt><trkpt lat="41.83141" lon="15.7644067"><ele>152.0</ele><time>2026-04-10T15:44:43.192Z</time></trkpt><trkpt lat="41.8314183" lon="15.7642583"><ele>152.0</ele><time>2026-04-10T15:44:44.181Z</time></trkpt><trkpt lat="41.83142" lon="15.7641133"><ele>152.0</ele><time>2026-04-10T15:44:45.184Z</time></trkpt><trkpt lat="41.8314183" lon="15.7639617"><ele>152.0</ele><time>2026-04-10T15:44:46.182Z</time></trkpt><trkpt lat="41.8314167" lon="15.7638067"><ele>151.75</ele><time>2026-04-10T15:44:47.184Z</time></trkpt><trkpt lat="41.8314133" lon="15.76365"><ele>151.5</ele><time>2026-04-10T15:44:48.18Z</time></trkpt><trkpt lat="41.83141" lon="15.7634867"><ele>151.25</ele><time>2026-04-10T15:44:49.189Z</time></trkpt><trkpt lat="41.8314067" lon="15.7633267"><ele>151.0</ele><time>2026-04-10T15:44:50.191Z</time></trkpt><trkpt lat="41.831405" lon="15.7631667"><ele>151.0</ele><time>2026-04-10T15:44:51.189Z</time></trkpt><trkpt lat="41.831405" lon="15.763"><ele>151.0</ele><time>2026-04-10T15:44:52.18Z</time></trkpt><trkpt lat="41.8314033" lon="15.7628283"><ele>151.0</ele><time>2026-04-10T15:44:53.182Z</time></trkpt><trkpt lat="41.8314017" lon="15.76265"><ele>151.0</ele><time>2026-04-10T15:44:54.183Z</time></trkpt><trkpt lat="41.8314" lon="15.7624667"><ele>151.0</ele><time>2026-04-10T15:44:55.182Z</time></trkpt><trkpt lat="41.8314" lon="15.7622817"><ele>151.0</ele><time>2026-04-10T15:44:56.181Z</time></trkpt><trkpt lat="41.8314" lon="15.7620983"><ele>151.0</ele><time>2026-04-10T15:44:57.195Z</time></trkpt><trkpt lat="41.8314" lon="15.761925"><ele>151.0</ele><time>2026-04-10T15:44:58.183Z</time></trkpt><trkpt lat="41.8313967" lon="15.7617583"><ele>150.75</ele><time>2026-04-10T15:44:59.183Z</time></trkpt><trkpt lat="41.8313933" lon="15.7615883"><ele>150.5</ele><time>2026-04-10T15:45:00.191Z</time></trkpt><trkpt lat="41.8313917" lon="15.7614083"><ele>150.25</ele><time>2026-04-10T15:45:01.185Z</time></trkpt><trkpt lat="41.8313917" lon="15.7612183"><ele>150.0</ele><time>2026-04-10T15:45:02.188Z</time></trkpt><trkpt lat="41.8313967" lon="15.7610233"><ele>150.0</ele><time>2026-04-10T15:45:03.183Z</time></trkpt><trkpt lat="41.8314067" lon="15.7608333"><ele>150.0</ele><time>2026-04-10T15:45:04.18Z</time></trkpt><trkpt lat="41.8314267" lon="15.7606533"><ele>150.0</ele><time>2026-04-10T15:45:05.18Z</time></trkpt><trkpt lat="41.83145" lon="15.7604767"><ele>150.0</ele><time>2026-04-10T15:45:06.179Z</time></trkpt><trkpt lat="41.8314733" lon="15.7602967"><ele>149.25</ele><time>2026-04-10T15:45:07.179Z</time></trkpt><trkpt lat="41.8315" lon="15.7601133"><ele>148.5</ele><time>2026-04-10T15:45:08.182Z</time></trkpt><trkpt lat="41.8315267" lon="15.7599283"><ele>147.75</ele><time>2026-04-10T15:45:09.181Z</time></trkpt><trkpt lat="41.8315533" lon="15.7597417"><ele>147.0</ele><time>2026-04-10T15:45:10.181Z</time></trkpt><trkpt lat="41.8315783" lon="15.7595517"><ele>145.75</ele><time>2026-04-10T15:45:11.181Z</time></trkpt><trkpt lat="41.831605" lon="15.7593633"><ele>144.5</ele><time>2026-04-10T15:45:12.179Z</time></trkpt><trkpt lat="41.83163" lon="15.7591833"><ele>143.25</ele><time>2026-04-10T15:45:13.179Z</time></trkpt><trkpt lat="41.8316567" lon="15.7590067"><ele>142.0</ele><time>2026-04-10T15:45:14.184Z</time></trkpt><trkpt lat="41.8316817" lon="15.7588317"><ele>142.0</ele><time>2026-04-10T15:45:15.179Z</time></trkpt><trkpt lat="41.8317067" lon="15.7586517"><ele>142.0</ele><time>2026-04-10T15:45:16.184Z</time></trkpt><trkpt lat="41.831735" lon="15.7584683"><ele>142.0</ele><time>2026-04-10T15:45:17.179Z</time></trkpt><trkpt lat="41.831765" lon="15.7582883"><ele>142.0</ele><time>2026-04-10T15:45:18.182Z</time></trkpt><trkpt lat="41.8318033" lon="15.7581067"><ele>142.33333333333334</ele><time>2026-04-10T15:45:19.184Z</time></trkpt><trkpt lat="41.8318567" lon="15.7579183"><ele>142.66666666666666</ele><time>2026-04-10T15:45:20.185Z</time></trkpt><trkpt lat="41.8319183" lon="15.7577267"><ele>143.0</ele><time>2026-04-10T15:45:21.188Z</time></trkpt><trkpt lat="41.8319767" lon="15.7575367"><ele>143.0</ele><time>2026-04-10T15:45:22.178Z</time></trkpt><trkpt lat="41.8320333" lon="15.7573533"><ele>143.0</ele><time>2026-04-10T15:45:23.178Z</time></trkpt><trkpt lat="41.83209" lon="15.757175"><ele>143.0</ele><time>2026-04-10T15:45:24.178Z</time></trkpt><trkpt lat="41.832145" lon="15.7570033"><ele>143.0</ele><time>2026-04-10T15:45:25.182Z</time></trkpt><trkpt lat="41.8322017" lon="15.7568317"><ele>141.0</ele><time>2026-04-10T15:45:26.183Z</time></trkpt><trkpt lat="41.8322633" lon="15.756655"><ele>139.0</ele><time>2026-04-10T15:45:27.178Z</time></trkpt><trkpt lat="41.8323217" lon="15.75648"><ele>137.0</ele><time>2026-04-10T15:45:28.18Z</time></trkpt><trkpt lat="41.832375" lon="15.75631"><ele>135.0</ele><time>2026-04-10T15:45:29.18Z</time></trkpt><trkpt lat="41.8324183" lon="15.7561483"><ele>133.75</ele><time>2026-04-10T15:45:30.179Z</time></trkpt><trkpt lat="41.8324517" lon="15.7559933"><ele>132.5</ele><time>2026-04-10T15:45:31.193Z</time></trkpt><trkpt lat="41.83247" lon="15.7558367"><ele>131.25</ele><time>2026-04-10T15:45:32.186Z</time></trkpt><trkpt lat="41.83247" lon="15.7556683"><ele>130.0</ele><time>2026-04-10T15:45:33.177Z</time></trkpt><trkpt lat="41.8324567" lon="15.755495"><ele>130.0</ele><time>2026-04-10T15:45:34.18Z</time></trkpt><trkpt lat="41.83244" lon="15.7553167"><ele>130.0</ele><time>2026-04-10T15:45:35.186Z</time></trkpt><trkpt lat="41.8324183" lon="15.7551267"><ele>130.0</ele><time>2026-04-10T15:45:36.185Z</time></trkpt><trkpt lat="41.8324" lon="15.7549317"><ele>130.0</ele><time>2026-04-10T15:45:37.189Z</time></trkpt><trkpt lat="41.8323833" lon="15.7547383"><ele>129.25</ele><time>2026-04-10T15:45:38.187Z</time></trkpt><trkpt lat="41.8323683" lon="15.7545567"><ele>128.5</ele><time>2026-04-10T15:45:39.183Z</time></trkpt><trkpt lat="41.8323533" lon="15.7543783"><ele>127.75</ele><time>2026-04-10T15:45:40.19Z</time></trkpt><trkpt lat="41.8323367" lon="15.7541967"><ele>127.0</ele><time>2026-04-10T15:45:41.181Z</time></trkpt><trkpt lat="41.8323233" lon="15.7540167"><ele>126.0</ele><time>2026-04-10T15:45:42.179Z</time></trkpt><trkpt lat="41.83231" lon="15.7538333"><ele>125.0</ele><time>2026-04-10T15:45:43.18Z</time></trkpt><trkpt lat="41.8322917" lon="15.75365"><ele>124.0</ele><time>2026-04-10T15:45:44.185Z</time></trkpt><trkpt lat="41.8322717" lon="15.7534683"><ele>123.0</ele><time>2026-04-10T15:45:45.18Z</time></trkpt><trkpt lat="41.8322483" lon="15.7532867"><ele>123.0</ele><time>2026-04-10T15:45:46.181Z</time></trkpt><trkpt lat="41.83222" lon="15.7531067"><ele>123.0</ele><time>2026-04-10T15:45:47.184Z</time></trkpt><trkpt lat="41.8321833" lon="15.7529333"><ele>123.0</ele><time>2026-04-10T15:45:48.187Z</time></trkpt><trkpt lat="41.83214" lon="15.75276"><ele>123.0</ele><time>2026-04-10T15:45:49.187Z</time></trkpt><trkpt lat="41.8320917" lon="15.7525967"><ele>123.0</ele><time>2026-04-10T15:45:50.187Z</time></trkpt><trkpt lat="41.8320433" lon="15.7524483"><ele>123.00000000000001</ele><time>2026-04-10T15:45:51.189Z</time></trkpt><trkpt lat="41.8319983" lon="15.7523117"><ele>123.00000000000001</ele><time>2026-04-10T15:45:52.193Z</time></trkpt><trkpt lat="41.8319567" lon="15.7521833"><ele>123.0</ele><time>2026-04-10T15:45:53.182Z</time></trkpt><trkpt lat="41.8319183" lon="15.7520617"><ele>123.0</ele><time>2026-04-10T15:45:54.186Z</time></trkpt><trkpt lat="41.83188" lon="15.75194"><ele>123.0</ele><time>2026-04-10T15:45:55.189Z</time></trkpt><trkpt lat="41.831845" lon="15.75181"><ele>123.00000000000001</ele><time>2026-04-10T15:45:56.193Z</time></trkpt><trkpt lat="41.831825" lon="15.75167"><ele>123.00000000000001</ele><time>2026-04-10T15:45:57.185Z</time></trkpt><trkpt lat="41.831825" lon="15.751525"><ele>123.0</ele><time>2026-04-10T15:45:58.178Z</time></trkpt><trkpt lat="41.831855" lon="15.7513833"><ele>123.0</ele><time>2026-04-10T15:45:59.192Z</time></trkpt><trkpt lat="41.83191" lon="15.75125"><ele>123.0</ele><time>2026-04-10T15:46:00.182Z</time></trkpt><trkpt lat="41.831985" lon="15.751115"><ele>123.0</ele><time>2026-04-10T15:46:01.185Z</time></trkpt><trkpt lat="41.8320667" lon="15.750975"><ele>123.0</ele><time>2026-04-10T15:46:02.18Z</time></trkpt><trkpt lat="41.832145" lon="15.7508167"><ele>123.0</ele><time>2026-04-10T15:46:03.182Z</time></trkpt><trkpt lat="41.8322083" lon="15.75064"><ele>123.66666666666666</ele><time>2026-04-10T15:46:04.189Z</time></trkpt><trkpt lat="41.8322567" lon="15.7504417"><ele>124.33333333333333</ele><time>2026-04-10T15:46:05.179Z</time></trkpt><trkpt lat="41.8323017" lon="15.7502217"><ele>125.0</ele><time>2026-04-10T15:46:06.181Z</time></trkpt><trkpt lat="41.8323433" lon="15.7500017"><ele>126.33333333333333</ele><time>2026-04-10T15:46:07.179Z</time></trkpt><trkpt lat="41.8323833" lon="15.7497817"><ele>127.66666666666666</ele><time>2026-04-10T15:46:08.18Z</time></trkpt><trkpt lat="41.8324267" lon="15.7495517"><ele>129.0</ele><time>2026-04-10T15:46:09.182Z</time></trkpt><trkpt lat="41.8324733" lon="15.7493067"><ele>130.0</ele><time>2026-04-10T15:46:10.186Z</time></trkpt><trkpt lat="41.8325233" lon="15.7490583"><ele>131.0</ele><time>2026-04-10T15:46:11.178Z</time></trkpt><trkpt lat="41.8325733" lon="15.74881"><ele>132.0</ele><time>2026-04-10T15:46:12.184Z</time></trkpt><trkpt lat="41.8326217" lon="15.748575"><ele>131.25</ele><time>2026-04-10T15:46:13.181Z</time></trkpt><trkpt lat="41.832665" lon="15.7483617"><ele>130.5</ele><time>2026-04-10T15:46:14.182Z</time></trkpt><trkpt lat="41.8327033" lon="15.7481717"><ele>129.75</ele><time>2026-04-10T15:46:15.187Z</time></trkpt><trkpt lat="41.83274" lon="15.748"><ele>129.0</ele><time>2026-04-10T15:46:16.182Z</time></trkpt><trkpt lat="41.8327733" lon="15.747845"><ele>130.0</ele><time>2026-04-10T15:46:17.186Z</time></trkpt><trkpt lat="41.8328083" lon="15.7476883"><ele>131.0</ele><time>2026-04-10T15:46:18.191Z</time></trkpt><trkpt lat="41.8328417" lon="15.7475283"><ele>132.0</ele><time>2026-04-10T15:46:19.183Z</time></trkpt><trkpt lat="41.8328767" lon="15.747365"><ele>133.0</ele><time>2026-04-10T15:46:20.181Z</time></trkpt><trkpt lat="41.8329" lon="15.7472067"><ele>133.0</ele><time>2026-04-10T15:46:21.189Z</time></trkpt><trkpt lat="41.8329133" lon="15.7470433"><ele>133.0</ele><time>2026-04-10T15:46:22.185Z</time></trkpt><trkpt lat="41.8329183" lon="15.7468583"><ele>133.0</ele><time>2026-04-10T15:46:23.186Z</time></trkpt><trkpt lat="41.832915" lon="15.7466517"><ele>133.0</ele><time>2026-04-10T15:46:24.183Z</time></trkpt><trkpt lat="41.8329083" lon="15.74643"><ele>134.0</ele><time>2026-04-10T15:46:25.179Z</time></trkpt><trkpt lat="41.8328983" lon="15.7461883"><ele>135.0</ele><time>2026-04-10T15:46:26.192Z</time></trkpt><trkpt lat="41.8328933" lon="15.7459267"><ele>136.0</ele><time>2026-04-10T15:46:27.184Z</time></trkpt><trkpt lat="41.8328917" lon="15.7456483"><ele>137.33333333333334</ele><time>2026-04-10T15:46:28.182Z</time></trkpt><trkpt lat="41.8328883" lon="15.745365"><ele>138.66666666666666</ele><time>2026-04-10T15:46:29.188Z</time></trkpt><trkpt lat="41.8328817" lon="15.745075"><ele>140.0</ele><time>2026-04-10T15:46:30.184Z</time></trkpt><trkpt lat="41.832875" lon="15.7447783"><ele>140.33333333333331</ele><time>2026-04-10T15:46:31.186Z</time></trkpt><trkpt lat="41.83287" lon="15.7444883"><ele>140.66666666666666</ele><time>2026-04-10T15:46:32.191Z</time></trkpt><trkpt lat="41.8328667" lon="15.7442133"><ele>141.0</ele><time>2026-04-10T15:46:33.194Z</time></trkpt><trkpt lat="41.8328583" lon="15.7439433"><ele>141.33333333333334</ele><time>2026-04-10T15:46:34.191Z</time></trkpt><trkpt lat="41.83285" lon="15.74368"><ele>141.66666666666669</ele><time>2026-04-10T15:46:35.189Z</time></trkpt><trkpt lat="41.832845" lon="15.7434233"><ele>142.0</ele><time>2026-04-10T15:46:36.194Z</time></trkpt><trkpt lat="41.8328433" lon="15.7431817"><ele>142.0</ele><time>2026-04-10T15:46:37.187Z</time></trkpt><trkpt lat="41.8328483" lon="15.7429517"><ele>142.0</ele><time>2026-04-10T15:46:38.181Z</time></trkpt><trkpt lat="41.832865" lon="15.742725"><ele>142.0</ele><time>2026-04-10T15:46:39.177Z</time></trkpt><trkpt lat="41.8329" lon="15.7425017"><ele>143.66666666666669</ele><time>2026-04-10T15:46:40.181Z</time></trkpt><trkpt lat="41.8329517" lon="15.7422833"><ele>145.33333333333334</ele><time>2026-04-10T15:46:41.19Z</time></trkpt><trkpt lat="41.8330183" lon="15.7420717"><ele>147.0</ele><time>2026-04-10T15:46:42.181Z</time></trkpt><trkpt lat="41.83309" lon="15.7418717"><ele>149.66666666666666</ele><time>2026-04-10T15:46:43.187Z</time></trkpt><trkpt lat="41.8331583" lon="15.7416767"><ele>152.33333333333331</ele><time>2026-04-10T15:46:44.183Z</time></trkpt><trkpt lat="41.8332267" lon="15.7414917"><ele>155.0</ele><time>2026-04-10T15:46:45.182Z</time></trkpt><trkpt lat="41.8332917" lon="15.7413117"><ele>155.0</ele><time>2026-04-10T15:46:46.183Z</time></trkpt><trkpt lat="41.83336" lon="15.74113"><ele>155.0</ele><time>2026-04-10T15:46:47.185Z</time></trkpt><trkpt lat="41.833435" lon="15.74094"><ele>155.0</ele><time>2026-04-10T15:46:48.189Z</time></trkpt><trkpt lat="41.8335233" lon="15.74074"><ele>156.0</ele><time>2026-04-10T15:46:49.181Z</time></trkpt><trkpt lat="41.8336133" lon="15.740535"><ele>157.0</ele><time>2026-04-10T15:46:50.185Z</time></trkpt><trkpt lat="41.8336967" lon="15.74033"><ele>158.0</ele><time>2026-04-10T15:46:51.187Z</time></trkpt><trkpt lat="41.8337767" lon="15.740125"><ele>158.0</ele><time>2026-04-10T15:46:52.187Z</time></trkpt><trkpt lat="41.8338533" lon="15.7399267"><ele>158.0</ele><time>2026-04-10T15:46:53.188Z</time></trkpt><trkpt lat="41.8339233" lon="15.7397283"><ele>158.0</ele><time>2026-04-10T15:46:54.183Z</time></trkpt><trkpt lat="41.833995" lon="15.7395317"><ele>161.0</ele><time>2026-04-10T15:46:55.18Z</time></trkpt><trkpt lat="41.8340683" lon="15.73933"><ele>164.0</ele><time>2026-04-10T15:46:56.179Z</time></trkpt><trkpt lat="41.8341417" lon="15.7391283"><ele>167.0</ele><time>2026-04-10T15:46:57.185Z</time></trkpt><trkpt lat="41.834215" lon="15.7389283"><ele>167.0</ele><time>2026-04-10T15:46:58.187Z</time></trkpt><trkpt lat="41.8343" lon="15.73874"><ele>167.0</ele><time>2026-04-10T15:46:59.185Z</time></trkpt><trkpt lat="41.834395" lon="15.7385667"><ele>167.0</ele><time>2026-04-10T15:47:00.178Z</time></trkpt><trkpt lat="41.8344967" lon="15.7383967"><ele>166.0</ele><time>2026-04-10T15:47:01.181Z</time></trkpt><trkpt lat="41.8345967" lon="15.7382283"><ele>165.0</ele><time>2026-04-10T15:47:02.186Z</time></trkpt><trkpt lat="41.834695" lon="15.7380567"><ele>164.0</ele><time>2026-04-10T15:47:03.181Z</time></trkpt><trkpt lat="41.8347867" lon="15.7378783"><ele>166.33333333333331</ele><time>2026-04-10T15:47:04.18Z</time></trkpt><trkpt lat="41.8348683" lon="15.737685"><ele>168.66666666666666</ele><time>2026-04-10T15:47:05.187Z</time></trkpt><trkpt lat="41.834945" lon="15.7374867"><ele>171.0</ele><time>2026-04-10T15:47:06.192Z</time></trkpt><trkpt lat="41.83501" lon="15.7372883"><ele>171.0</ele><time>2026-04-10T15:47:07.18Z</time></trkpt><trkpt lat="41.835065" lon="15.73709"><ele>171.0</ele><time>2026-04-10T15:47:08.191Z</time></trkpt><trkpt lat="41.8351167" lon="15.7369033"><ele>171.0</ele><time>2026-04-10T15:47:09.18Z</time></trkpt><trkpt lat="41.83516" lon="15.73674"><ele>171.0</ele><time>2026-04-10T15:47:10.183Z</time></trkpt><trkpt lat="41.83519" lon="15.7366"><ele>170.8</ele><time>2026-04-10T15:47:11.18Z</time></trkpt><trkpt lat="41.8352033" lon="15.7364683"><ele>170.60000000000002</ele><time>2026-04-10T15:47:12.187Z</time></trkpt><trkpt lat="41.835195" lon="15.7363467"><ele>170.4</ele><time>2026-04-10T15:47:13.182Z</time></trkpt><trkpt lat="41.8351717" lon="15.7362367"><ele>170.2</ele><time>2026-04-10T15:47:14.182Z</time></trkpt><trkpt lat="41.8351283" lon="15.736135"><ele>170.0</ele><time>2026-04-10T15:47:15.185Z</time></trkpt><trkpt lat="41.835055" lon="15.7360433"><ele>170.0</ele><time>2026-04-10T15:47:16.183Z</time></trkpt><trkpt lat="41.8349717" lon="15.7359533"><ele>170.0</ele><time>2026-04-10T15:47:17.18Z</time></trkpt><trkpt lat="41.834895" lon="15.7358567"><ele>170.0</ele><time>2026-04-10T15:47:18.187Z</time></trkpt><trkpt lat="41.8348367" lon="15.7357417"><ele>170.0</ele><time>2026-04-10T15:47:19.186Z</time></trkpt><trkpt lat="41.83479" lon="15.7356183"><ele>170.0</ele><time>2026-04-10T15:47:20.192Z</time></trkpt><trkpt lat="41.8347733" lon="15.7354983"><ele>170.0</ele><time>2026-04-10T15:47:21.187Z</time></trkpt><trkpt lat="41.83478" lon="15.7353917"><ele>170.0</ele><time>2026-04-10T15:47:22.177Z</time></trkpt><trkpt lat="41.8348133" lon="15.7353017"><ele>170.0</ele><time>2026-04-10T15:47:23.184Z</time></trkpt><trkpt lat="41.8348683" lon="15.73523"><ele>170.0</ele><time>2026-04-10T15:47:24.18Z</time></trkpt><trkpt lat="41.83495" lon="15.7351817"><ele>170.0</ele><time>2026-04-10T15:47:25.178Z</time></trkpt><trkpt lat="41.835055" lon="15.735145"><ele>170.0</ele><time>2026-04-10T15:47:26.181Z</time></trkpt><trkpt lat="41.8351417" lon="15.7350867"><ele>166.75</ele><time>2026-04-10T15:47:27.185Z</time></trkpt><trkpt lat="41.8352033" lon="15.735005"><ele>163.5</ele><time>2026-04-10T15:47:28.179Z</time></trkpt><trkpt lat="41.83526" lon="15.7348967"><ele>160.25</ele><time>2026-04-10T15:47:29.188Z</time></trkpt><trkpt lat="41.8353183" lon="15.734735"><ele>157.0</ele><time>2026-04-10T15:47:30.191Z</time></trkpt><trkpt lat="41.835385" lon="15.7345517"><ele>160.33333333333334</ele><time>2026-04-10T15:47:31.182Z</time></trkpt><trkpt lat="41.8354583" lon="15.7343467"><ele>163.66666666666666</ele><time>2026-04-10T15:47:32.189Z</time></trkpt><trkpt lat="41.8355383" lon="15.734125"><ele>167.0</ele><time>2026-04-10T15:47:33.183Z</time></trkpt><trkpt lat="41.83562" lon="15.7339033"><ele>167.0</ele><time>2026-04-10T15:47:34.185Z</time></trkpt><trkpt lat="41.8357" lon="15.733695"><ele>167.0</ele><time>2026-04-10T15:47:35.184Z</time></trkpt><trkpt lat="41.8357783" lon="15.7335083"><ele>167.0</ele><time>2026-04-10T15:47:36.182Z</time></trkpt><trkpt lat="41.8358583" lon="15.7333417"><ele>165.75</ele><time>2026-04-10T15:47:37.178Z</time></trkpt><trkpt lat="41.8359367" lon="15.7331917"><ele>164.5</ele><time>2026-04-10T15:47:38.18Z</time></trkpt><trkpt lat="41.8360017" lon="15.733035"><ele>163.25</ele><time>2026-04-10T15:47:39.181Z</time></trkpt><trkpt lat="41.8360483" lon="15.7328583"><ele>162.0</ele><time>2026-04-10T15:47:40.182Z</time></trkpt><trkpt lat="41.8360817" lon="15.73267"><ele>162.0</ele><time>2026-04-10T15:47:41.181Z</time></trkpt><trkpt lat="41.8361067" lon="15.73248"><ele>162.0</ele><time>2026-04-10T15:47:42.181Z</time></trkpt><trkpt lat="41.83614" lon="15.7322983"><ele>162.0</ele><time>2026-04-10T15:47:43.18Z</time></trkpt><trkpt lat="41.836195" lon="15.732125"><ele>162.0</ele><time>2026-04-10T15:47:44.182Z</time></trkpt><trkpt lat="41.8362733" lon="15.7319583"><ele>165.66666666666666</ele><time>2026-04-10T15:47:45.181Z</time></trkpt><trkpt lat="41.8363667" lon="15.7317867"><ele>169.33333333333331</ele><time>2026-04-10T15:47:46.187Z</time></trkpt><trkpt lat="41.83647" lon="15.7316033"><ele>173.0</ele><time>2026-04-10T15:47:47.185Z</time></trkpt><trkpt lat="41.8365717" lon="15.73142"><ele>173.0</ele><time>2026-04-10T15:47:48.179Z</time></trkpt><trkpt lat="41.83667" lon="15.7312517"><ele>173.0</ele><time>2026-04-10T15:47:49.181Z</time></trkpt><trkpt lat="41.8367567" lon="15.7311"><ele>173.0</ele><time>2026-04-10T15:47:50.185Z</time></trkpt><trkpt lat="41.836825" lon="15.73096"><ele>173.0</ele><time>2026-04-10T15:47:51.183Z</time></trkpt><trkpt lat="41.8368733" lon="15.7308217"><ele>170.5</ele><time>2026-04-10T15:47:52.182Z</time></trkpt><trkpt lat="41.8369" lon="15.73067"><ele>168.0</ele><time>2026-04-10T15:47:53.187Z</time></trkpt><trkpt lat="41.8369067" lon="15.7304983"><ele>165.5</ele><time>2026-04-10T15:47:54.192Z</time></trkpt><trkpt lat="41.836905" lon="15.730305"><ele>163.0</ele><time>2026-04-10T15:47:55.186Z</time></trkpt><trkpt lat="41.8369" lon="15.7301"><ele>162.66666666666669</ele><time>2026-04-10T15:47:56.181Z</time></trkpt><trkpt lat="41.8369017" lon="15.7298867"><ele>162.33333333333334</ele><time>2026-04-10T15:47:57.187Z</time></trkpt><trkpt lat="41.8369167" lon="15.7296667"><ele>162.0</ele><time>2026-04-10T15:47:58.183Z</time></trkpt><trkpt lat="41.8369533" lon="15.7294417"><ele>163.0</ele><time>2026-04-10T15:47:59.19Z</time></trkpt><trkpt lat="41.8370033" lon="15.7292117"><ele>164.0</ele><time>2026-04-10T15:48:00.187Z</time></trkpt><trkpt lat="41.8370617" lon="15.72899"><ele>165.0</ele><time>2026-04-10T15:48:01.183Z</time></trkpt><trkpt lat="41.83712" lon="15.7287833"><ele>165.0</ele><time>2026-04-10T15:48:02.188Z</time></trkpt><trkpt lat="41.8371733" lon="15.7285933"><ele>165.0</ele><time>2026-04-10T15:48:03.179Z</time></trkpt><trkpt lat="41.8372217" lon="15.7284167"><ele>165.0</ele><time>2026-04-10T15:48:04.179Z</time></trkpt><trkpt lat="41.8372583" lon="15.728245"><ele>165.0</ele><time>2026-04-10T15:48:05.189Z</time></trkpt><trkpt lat="41.8372817" lon="15.728075"><ele>166.0</ele><time>2026-04-10T15:48:06.188Z</time></trkpt><trkpt lat="41.8372867" lon="15.7279067"><ele>167.0</ele><time>2026-04-10T15:48:07.189Z</time></trkpt><trkpt lat="41.8372617" lon="15.727755"><ele>168.0</ele><time>2026-04-10T15:48:08.184Z</time></trkpt><trkpt lat="41.8372183" lon="15.7276317"><ele>169.0</ele><time>2026-04-10T15:48:09.184Z</time></trkpt><trkpt lat="41.8371717" lon="15.72754"><ele>170.0</ele><time>2026-04-10T15:48:10.18Z</time></trkpt><trkpt lat="41.8371233" lon="15.7274683"><ele>170.66666666666666</ele><time>2026-04-10T15:48:11.189Z</time></trkpt><trkpt lat="41.837085" lon="15.7273967"><ele>171.33333333333331</ele><time>2026-04-10T15:48:12.177Z</time></trkpt><trkpt lat="41.8370667" lon="15.7273117"><ele>172.0</ele><time>2026-04-10T15:48:13.187Z</time></trkpt><trkpt lat="41.8370783" lon="15.7272117"><ele>172.66666666666666</ele><time>2026-04-10T15:48:14.186Z</time></trkpt><trkpt lat="41.837125" lon="15.7270983"><ele>173.33333333333334</ele><time>2026-04-10T15:48:15.179Z</time></trkpt><trkpt lat="41.8372" lon="15.7269817"><ele>174.0</ele><time>2026-04-10T15:48:16.185Z</time></trkpt><trkpt lat="41.83728" lon="15.7268583"><ele>175.5</ele><time>2026-04-10T15:48:17.183Z</time></trkpt><trkpt lat="41.8373483" lon="15.726715"><ele>177.0</ele><time>2026-04-10T15:48:18.185Z</time></trkpt><trkpt lat="41.8373933" lon="15.7265367"><ele>178.5</ele><time>2026-04-10T15:48:19.184Z</time></trkpt><trkpt lat="41.8374233" lon="15.72633"><ele>180.0</ele><time>2026-04-10T15:48:20.179Z</time></trkpt><trkpt lat="41.8374483" lon="15.72609"><ele>181.33333333333334</ele><time>2026-04-10T15:48:21.182Z</time></trkpt><trkpt lat="41.8374783" lon="15.7258233"><ele>182.66666666666669</ele><time>2026-04-10T15:48:22.185Z</time></trkpt><trkpt lat="41.8375133" lon="15.7255533"><ele>184.0</ele><time>2026-04-10T15:48:23.183Z</time></trkpt><trkpt lat="41.83755" lon="15.7252817"><ele>185.0</ele><time>2026-04-10T15:48:24.182Z</time></trkpt><trkpt lat="41.837585" lon="15.7250167"><ele>186.0</ele><time>2026-04-10T15:48:25.183Z</time></trkpt><trkpt lat="41.8376183" lon="15.72477"><ele>187.0</ele><time>2026-04-10T15:48:26.187Z</time></trkpt><trkpt lat="41.8376483" lon="15.7245367"><ele>182.0</ele><time>2026-04-10T15:48:27.183Z</time></trkpt><trkpt lat="41.8376883" lon="15.7243067"><ele>177.0</ele><time>2026-04-10T15:48:28.189Z</time></trkpt><trkpt lat="41.8377417" lon="15.724085"><ele>172.0</ele><time>2026-04-10T15:48:29.181Z</time></trkpt><trkpt lat="41.8378133" lon="15.7238617"><ele>172.0</ele><time>2026-04-10T15:48:30.18Z</time></trkpt><trkpt lat="41.837895" lon="15.7236283"><ele>172.0</ele><time>2026-04-10T15:48:31.181Z</time></trkpt><trkpt lat="41.837975" lon="15.7234"><ele>172.0</ele><time>2026-04-10T15:48:32.187Z</time></trkpt><trkpt lat="41.8380517" lon="15.7231817"><ele>174.33333333333334</ele><time>2026-04-10T15:48:33.182Z</time></trkpt><trkpt lat="41.83813" lon="15.7229633"><ele>176.66666666666666</ele><time>2026-04-10T15:48:34.187Z</time></trkpt><trkpt lat="41.838205" lon="15.7227367"><ele>179.0</ele><time>2026-04-10T15:48:35.187Z</time></trkpt><trkpt lat="41.8382717" lon="15.7225117"><ele>182.0</ele><time>2026-04-10T15:48:36.192Z</time></trkpt><trkpt lat="41.8383333" lon="15.7222967"><ele>185.0</ele><time>2026-04-10T15:48:37.182Z</time></trkpt><trkpt lat="41.8383933" lon="15.7220983"><ele>188.0</ele><time>2026-04-10T15:48:38.185Z</time></trkpt><trkpt lat="41.8384433" lon="15.7219117"><ele>183.66666666666666</ele><time>2026-04-10T15:48:39.183Z</time></trkpt><trkpt lat="41.8384817" lon="15.72172"><ele>179.33333333333334</ele><time>2026-04-10T15:48:40.183Z</time></trkpt><trkpt lat="41.8385083" lon="15.7215083"><ele>175.0</ele><time>2026-04-10T15:48:41.182Z</time></trkpt><trkpt lat="41.838525" lon="15.7212817"><ele>174.66666666666669</ele><time>2026-04-10T15:48:42.179Z</time></trkpt><trkpt lat="41.83854" lon="15.7210467"><ele>174.33333333333334</ele><time>2026-04-10T15:48:43.184Z</time></trkpt><trkpt lat="41.8385467" lon="15.7208033"><ele>174.0</ele><time>2026-04-10T15:48:44.183Z</time></trkpt><trkpt lat="41.8385517" lon="15.720555"><ele>174.0</ele><time>2026-04-10T15:48:45.185Z</time></trkpt><trkpt lat="41.8385633" lon="15.72031"><ele>174.0</ele><time>2026-04-10T15:48:46.19Z</time></trkpt><trkpt lat="41.8385733" lon="15.720075"><ele>174.0</ele><time>2026-04-10T15:48:47.188Z</time></trkpt><trkpt lat="41.8385883" lon="15.7198517"><ele>174.33333333333334</ele><time>2026-04-10T15:48:48.189Z</time></trkpt><trkpt lat="41.8386133" lon="15.7196383"><ele>174.66666666666669</ele><time>2026-04-10T15:48:49.185Z</time></trkpt><trkpt lat="41.8386367" lon="15.7194233"><ele>175.0</ele><time>2026-04-10T15:48:50.198Z</time></trkpt><trkpt lat="41.8386483" lon="15.7192017"><ele>175.0</ele><time>2026-04-10T15:48:51.181Z</time></trkpt><trkpt lat="41.838655" lon="15.7189733"><ele>175.0</ele><time>2026-04-10T15:48:52.19Z</time></trkpt><trkpt lat="41.8386617" lon="15.71875"><ele>175.0</ele><time>2026-04-10T15:48:53.182Z</time></trkpt><trkpt lat="41.8386717" lon="15.7185283"><ele>175.66666666666669</ele><time>2026-04-10T15:48:54.188Z</time></trkpt><trkpt lat="41.8387067" lon="15.718315"><ele>176.33333333333334</ele><time>2026-04-10T15:48:55.183Z</time></trkpt><trkpt lat="41.838755" lon="15.7181117"><ele>177.0</ele><time>2026-04-10T15:48:56.192Z</time></trkpt><trkpt lat="41.8388117" lon="15.7179083"><ele>179.66666666666666</ele><time>2026-04-10T15:48:57.19Z</time></trkpt><trkpt lat="41.838865" lon="15.7177017"><ele>182.33333333333331</ele><time>2026-04-10T15:48:58.191Z</time></trkpt><trkpt lat="41.8389183" lon="15.717485"><ele>185.0</ele><time>2026-04-10T15:48:59.188Z</time></trkpt><trkpt lat="41.8389733" lon="15.71726"><ele>185.0</ele><time>2026-04-10T15:49:00.189Z</time></trkpt><trkpt lat="41.8390317" lon="15.71703"><ele>185.0</ele><time>2026-04-10T15:49:01.19Z</time></trkpt><trkpt lat="41.839095" lon="15.71679"><ele>185.0</ele><time>2026-04-10T15:49:02.183Z</time></trkpt><trkpt lat="41.839155" lon="15.716555"><ele>187.66666666666666</ele><time>2026-04-10T15:49:03.194Z</time></trkpt><trkpt lat="41.83921" lon="15.7163317"><ele>190.33333333333331</ele><time>2026-04-10T15:49:04.19Z</time></trkpt><trkpt lat="41.839265" lon="15.71611"><ele>193.0</ele><time>2026-04-10T15:49:05.182Z</time></trkpt><trkpt lat="41.839325" lon="15.7158833"><ele>189.0</ele><time>2026-04-10T15:49:06.192Z</time></trkpt><trkpt lat="41.8393833" lon="15.715655"><ele>185.0</ele><time>2026-04-10T15:49:07.189Z</time></trkpt><trkpt lat="41.8394433" lon="15.7154317"><ele>181.0</ele><time>2026-04-10T15:49:08.193Z</time></trkpt><trkpt lat="41.8395067" lon="15.71522"><ele>181.0</ele><time>2026-04-10T15:49:09.18Z</time></trkpt><trkpt lat="41.8395767" lon="15.7150167"><ele>181.0</ele><time>2026-04-10T15:49:10.186Z</time></trkpt><trkpt lat="41.8396467" lon="15.7148133"><ele>181.0</ele><time>2026-04-10T15:49:11.179Z</time></trkpt><trkpt lat="41.83971" lon="15.714615"><ele>181.0</ele><time>2026-04-10T15:49:12.193Z</time></trkpt><trkpt lat="41.8397617" lon="15.7144217"><ele>181.0</ele><time>2026-04-10T15:49:13.183Z</time></trkpt><trkpt lat="41.8398" lon="15.714225"><ele>181.0</ele><time>2026-04-10T15:49:14.186Z</time></trkpt><trkpt lat="41.8398183" lon="15.7140183"><ele>184.0</ele><time>2026-04-10T15:49:15.178Z</time></trkpt><trkpt lat="41.8398217" lon="15.7138067"><ele>187.0</ele><time>2026-04-10T15:49:16.186Z</time></trkpt><trkpt lat="41.8398217" lon="15.7135917"><ele>190.0</ele><time>2026-04-10T15:49:17.188Z</time></trkpt><trkpt lat="41.83983" lon="15.7133683"><ele>191.33333333333334</ele><time>2026-04-10T15:49:18.185Z</time></trkpt><trkpt lat="41.8398483" lon="15.7131333"><ele>192.66666666666669</ele><time>2026-04-10T15:49:19.189Z</time></trkpt><trkpt lat="41.8398767" lon="15.712885"><ele>194.0</ele><time>2026-04-10T15:49:20.189Z</time></trkpt><trkpt lat="41.8399167" lon="15.71263"><ele>195.0</ele><time>2026-04-10T15:49:21.193Z</time></trkpt><trkpt lat="41.8399667" lon="15.71238"><ele>196.0</ele><time>2026-04-10T15:49:22.191Z</time></trkpt><trkpt lat="41.8400233" lon="15.7121383"><ele>197.0</ele><time>2026-04-10T15:49:23.182Z</time></trkpt><trkpt lat="41.840075" lon="15.711895"><ele>199.66666666666669</ele><time>2026-04-10T15:49:24.18Z</time></trkpt><trkpt lat="41.8401183" lon="15.7116433"><ele>202.33333333333331</ele><time>2026-04-10T15:49:25.185Z</time></trkpt><trkpt lat="41.8401617" lon="15.711375"><ele>205.0</ele><time>2026-04-10T15:49:26.187Z</time></trkpt><trkpt lat="41.8402033" lon="15.71109"><ele>198.0</ele><time>2026-04-10T15:49:27.181Z</time></trkpt><trkpt lat="41.84025" lon="15.7108"><ele>191.0</ele><time>2026-04-10T15:49:28.195Z</time></trkpt><trkpt lat="41.8403067" lon="15.7105217"><ele>184.0</ele><time>2026-04-10T15:49:29.193Z</time></trkpt><trkpt lat="41.8403633" lon="15.710255"><ele>186.66666666666669</ele><time>2026-04-10T15:49:30.189Z</time></trkpt><trkpt lat="41.8404183" lon="15.7099933"><ele>189.33333333333334</ele><time>2026-04-10T15:49:31.19Z</time></trkpt><trkpt lat="41.8404717" lon="15.70974"><ele>192.0</ele><time>2026-04-10T15:49:32.189Z</time></trkpt><trkpt lat="41.840525" lon="15.7094983"><ele>194.66666666666669</ele><time>2026-04-10T15:49:33.19Z</time></trkpt><trkpt lat="41.8405733" lon="15.7092783"><ele>197.33333333333334</ele><time>2026-04-10T15:49:34.183Z</time></trkpt><trkpt lat="41.840615" lon="15.7090567"><ele>200.0</ele><time>2026-04-10T15:49:35.188Z</time></trkpt><trkpt lat="41.8406467" lon="15.7088283"><ele>200.0</ele><time>2026-04-10T15:49:36.19Z</time></trkpt><trkpt lat="41.840665" lon="15.7085917"><ele>200.0</ele><time>2026-04-10T15:49:37.188Z</time></trkpt><trkpt lat="41.8406817" lon="15.7083517"><ele>200.0</ele><time>2026-04-10T15:49:38.189Z</time></trkpt><trkpt lat="41.8407067" lon="15.708115"><ele>202.0</ele><time>2026-04-10T15:49:39.193Z</time></trkpt><trkpt lat="41.8407383" lon="15.7078833"><ele>204.0</ele><time>2026-04-10T15:49:40.192Z</time></trkpt><trkpt lat="41.8407767" lon="15.7076567"><ele>206.0</ele><time>2026-04-10T15:49:41.187Z</time></trkpt><trkpt lat="41.8408317" lon="15.7074333"><ele>207.66666666666669</ele><time>2026-04-10T15:49:42.186Z</time></trkpt><trkpt lat="41.8409017" lon="15.7072083"><ele>209.33333333333331</ele><time>2026-04-10T15:49:43.183Z</time></trkpt><trkpt lat="41.8409833" lon="15.7069767"><ele>211.0</ele><time>2026-04-10T15:49:44.196Z</time></trkpt><trkpt lat="41.8410733" lon="15.7067383"><ele>208.0</ele><time>2026-04-10T15:49:45.183Z</time></trkpt><trkpt lat="41.8411683" lon="15.7064917"><ele>205.0</ele><time>2026-04-10T15:49:46.18Z</time></trkpt><trkpt lat="41.8412667" lon="15.706245"><ele>202.0</ele><time>2026-04-10T15:49:47.183Z</time></trkpt><trkpt lat="41.8413567" lon="15.706"><ele>202.0</ele><time>2026-04-10T15:49:48.194Z</time></trkpt><trkpt lat="41.8414483" lon="15.7057667"><ele>202.0</ele><time>2026-04-10T15:49:49.192Z</time></trkpt><trkpt lat="41.841535" lon="15.7055383"><ele>202.0</ele><time>2026-04-10T15:49:50.189Z</time></trkpt><trkpt lat="41.841625" lon="15.705315"><ele>197.66666666666666</ele><time>2026-04-10T15:49:51.186Z</time></trkpt><trkpt lat="41.8417133" lon="15.7051017"><ele>193.33333333333331</ele><time>2026-04-10T15:49:52.184Z</time></trkpt><trkpt lat="41.8417967" lon="15.7049017"><ele>189.0</ele><time>2026-04-10T15:49:53.188Z</time></trkpt><trkpt lat="41.8418667" lon="15.7047017"><ele>189.0</ele><time>2026-04-10T15:49:54.183Z</time></trkpt><trkpt lat="41.841925" lon="15.7044933"><ele>189.0</ele><time>2026-04-10T15:49:55.187Z</time></trkpt><trkpt lat="41.8419817" lon="15.7042733"><ele>189.0</ele><time>2026-04-10T15:49:56.191Z</time></trkpt><trkpt lat="41.8420417" lon="15.7040467"><ele>192.0</ele><time>2026-04-10T15:49:57.184Z</time></trkpt><trkpt lat="41.8421017" lon="15.7038183"><ele>195.0</ele><time>2026-04-10T15:49:58.187Z</time></trkpt><trkpt lat="41.8421583" lon="15.7036"><ele>198.0</ele><time>2026-04-10T15:49:59.191Z</time></trkpt><trkpt lat="41.842215" lon="15.7033867"><ele>200.0</ele><time>2026-04-10T15:50:00.186Z</time></trkpt><trkpt lat="41.8422717" lon="15.7031783"><ele>202.0</ele><time>2026-04-10T15:50:01.192Z</time></trkpt><trkpt lat="41.842335" lon="15.7029733"><ele>204.0</ele><time>2026-04-10T15:50:02.186Z</time></trkpt><trkpt lat="41.8424017" lon="15.7027683"><ele>207.66666666666669</ele><time>2026-04-10T15:50:03.188Z</time></trkpt><trkpt lat="41.8424683" lon="15.7025667"><ele>211.33333333333334</ele><time>2026-04-10T15:50:04.186Z</time></trkpt><trkpt lat="41.8425383" lon="15.7023617"><ele>215.0</ele><time>2026-04-10T15:50:05.187Z</time></trkpt><trkpt lat="41.8426133" lon="15.7021517"><ele>209.66666666666669</ele><time>2026-04-10T15:50:06.18Z</time></trkpt><trkpt lat="41.8426967" lon="15.7019417"><ele>204.33333333333331</ele><time>2026-04-10T15:50:07.181Z</time></trkpt><trkpt lat="41.8427917" lon="15.7017367"><ele>199.0</ele><time>2026-04-10T15:50:08.186Z</time></trkpt><trkpt lat="41.8428933" lon="15.701535"><ele>199.0</ele><time>2026-04-10T15:50:09.182Z</time></trkpt><trkpt lat="41.843005" lon="15.7013383"><ele>199.0</ele><time>2026-04-10T15:50:10.191Z</time></trkpt><trkpt lat="41.8431167" lon="15.7011583"><ele>199.0</ele><time>2026-04-10T15:50:11.185Z</time></trkpt><trkpt lat="41.8432267" lon="15.7009933"><ele>195.0</ele><time>2026-04-10T15:50:12.184Z</time></trkpt><trkpt lat="41.84333" lon="15.700825"><ele>191.0</ele><time>2026-04-10T15:50:13.185Z</time></trkpt><trkpt lat="41.84342" lon="15.7006467"><ele>187.0</ele><time>2026-04-10T15:50:14.182Z</time></trkpt><trkpt lat="41.8435" lon="15.70046"><ele>187.0</ele><time>2026-04-10T15:50:15.19Z</time></trkpt><trkpt lat="41.8435683" lon="15.70026"><ele>187.0</ele><time>2026-04-10T15:50:16.179Z</time></trkpt><trkpt lat="41.8436167" lon="15.70004"><ele>187.0</ele><time>2026-04-10T15:50:17.187Z</time></trkpt><trkpt lat="41.8436483" lon="15.6998167"><ele>190.66666666666669</ele><time>2026-04-10T15:50:18.186Z</time></trkpt><trkpt lat="41.8436833" lon="15.6996033"><ele>194.33333333333334</ele><time>2026-04-10T15:50:19.192Z</time></trkpt><trkpt lat="41.8437333" lon="15.699405"><ele>198.0</ele><time>2026-04-10T15:50:20.181Z</time></trkpt><trkpt lat="41.8437967" lon="15.6992167"><ele>201.66666666666669</ele><time>2026-04-10T15:50:21.19Z</time></trkpt><trkpt lat="41.8438767" lon="15.6990383"><ele>205.33333333333334</ele><time>2026-04-10T15:50:22.192Z</time></trkpt><trkpt lat="41.8439767" lon="15.6988767"><ele>209.0</ele><time>2026-04-10T15:50:23.181Z</time></trkpt><trkpt lat="41.8440967" lon="15.6987233"><ele>206.33333333333334</ele><time>2026-04-10T15:50:24.181Z</time></trkpt><trkpt lat="41.8442317" lon="15.6985767"><ele>203.66666666666669</ele><time>2026-04-10T15:50:25.188Z</time></trkpt><trkpt lat="41.8443667" lon="15.6984317"><ele>201.0</ele><time>2026-04-10T15:50:26.192Z</time></trkpt><trkpt lat="41.844485" lon="15.698285"><ele>201.0</ele><time>2026-04-10T15:50:27.182Z</time></trkpt><trkpt lat="41.8445683" lon="15.6981183"><ele>201.0</ele><time>2026-04-10T15:50:28.185Z</time></trkpt><trkpt lat="41.8446367" lon="15.69794"><ele>201.0</ele><time>2026-04-10T15:50:29.18Z</time></trkpt><trkpt lat="41.8446883" lon="15.6977383"><ele>204.66666666666669</ele><time>2026-04-10T15:50:30.181Z</time></trkpt><trkpt lat="41.8447317" lon="15.697515"><ele>208.33333333333334</ele><time>2026-04-10T15:50:31.199Z</time></trkpt><trkpt lat="41.8447783" lon="15.6972833"><ele>212.0</ele><time>2026-04-10T15:50:32.189Z</time></trkpt><trkpt lat="41.84483" lon="15.6970417"><ele>214.33333333333334</ele><time>2026-04-10T15:50:33.179Z</time></trkpt><trkpt lat="41.8448783" lon="15.6968"><ele>216.66666666666669</ele><time>2026-04-10T15:50:34.192Z</time></trkpt><trkpt lat="41.8449283" lon="15.6965583"><ele>219.0</ele><time>2026-04-10T15:50:35.192Z</time></trkpt><trkpt lat="41.8449817" lon="15.6963183"><ele>219.0</ele><time>2026-04-10T15:50:36.183Z</time></trkpt><trkpt lat="41.8450483" lon="15.6960883"><ele>219.0</ele><time>2026-04-10T15:50:37.188Z</time></trkpt><trkpt lat="41.8451317" lon="15.6958817"><ele>219.0</ele><time>2026-04-10T15:50:38.186Z</time></trkpt><trkpt lat="41.8452317" lon="15.6957033"><ele>219.66666666666669</ele><time>2026-04-10T15:50:39.19Z</time></trkpt><trkpt lat="41.8453467" lon="15.695545"><ele>220.33333333333334</ele><time>2026-04-10T15:50:40.189Z</time></trkpt><trkpt lat="41.8454733" lon="15.69539"><ele>221.0</ele><time>2026-04-10T15:50:41.192Z</time></trkpt><trkpt lat="41.845605" lon="15.695225"><ele>221.0</ele><time>2026-04-10T15:50:42.191Z</time></trkpt><trkpt lat="41.84573" lon="15.6950467"><ele>221.0</ele><time>2026-04-10T15:50:43.193Z</time></trkpt><trkpt lat="41.8458467" lon="15.69485"><ele>221.0</ele><time>2026-04-10T15:50:44.185Z</time></trkpt><trkpt lat="41.8459567" lon="15.6946433"><ele>217.0</ele><time>2026-04-10T15:50:45.187Z</time></trkpt><trkpt lat="41.84606" lon="15.6944483"><ele>213.0</ele><time>2026-04-10T15:50:46.189Z</time></trkpt><trkpt lat="41.8461533" lon="15.6942617"><ele>209.0</ele><time>2026-04-10T15:50:47.181Z</time></trkpt><trkpt lat="41.8462333" lon="15.6940683"><ele>209.0</ele><time>2026-04-10T15:50:48.186Z</time></trkpt><trkpt lat="41.8463017" lon="15.6938633"><ele>209.0</ele><time>2026-04-10T15:50:49.184Z</time></trkpt><trkpt lat="41.84636" lon="15.693645"><ele>209.0</ele><time>2026-04-10T15:50:50.178Z</time></trkpt><trkpt lat="41.846415" lon="15.693415"><ele>211.66666666666669</ele><time>2026-04-10T15:50:51.186Z</time></trkpt><trkpt lat="41.8464633" lon="15.693175"><ele>214.33333333333331</ele><time>2026-04-10T15:50:52.185Z</time></trkpt><trkpt lat="41.8465117" lon="15.6929283"><ele>217.0</ele><time>2026-04-10T15:50:53.181Z</time></trkpt><trkpt lat="41.84656" lon="15.69269"><ele>219.66666666666666</ele><time>2026-04-10T15:50:54.183Z</time></trkpt><trkpt lat="41.8466083" lon="15.6924667"><ele>222.33333333333331</ele><time>2026-04-10T15:50:55.188Z</time></trkpt><trkpt lat="41.8466633" lon="15.69226"><ele>225.0</ele><time>2026-04-10T15:50:56.191Z</time></trkpt><trkpt lat="41.8467383" lon="15.69207"><ele>221.66666666666669</ele><time>2026-04-10T15:50:57.188Z</time></trkpt><trkpt lat="41.84683" lon="15.6918883"><ele>218.33333333333334</ele><time>2026-04-10T15:50:58.185Z</time></trkpt><trkpt lat="41.8469333" lon="15.6917083"><ele>215.0</ele><time>2026-04-10T15:50:59.187Z</time></trkpt><trkpt lat="41.84705" lon="15.691535"><ele>215.0</ele><time>2026-04-10T15:51:00.185Z</time></trkpt><trkpt lat="41.84718" lon="15.6913683"><ele>215.0</ele><time>2026-04-10T15:51:01.185Z</time></trkpt><trkpt lat="41.8473217" lon="15.6911967"><ele>215.0</ele><time>2026-04-10T15:51:02.187Z</time></trkpt><trkpt lat="41.847465" lon="15.6910133"><ele>212.66666666666669</ele><time>2026-04-10T15:51:03.186Z</time></trkpt><trkpt lat="41.8476067" lon="15.690815"><ele>210.33333333333331</ele><time>2026-04-10T15:51:04.183Z</time></trkpt><trkpt lat="41.847745" lon="15.6906083"><ele>208.0</ele><time>2026-04-10T15:51:05.187Z</time></trkpt><trkpt lat="41.8478717" lon="15.6904117"><ele>212.0</ele><time>2026-04-10T15:51:06.184Z</time></trkpt><trkpt lat="41.8479917" lon="15.6902283"><ele>216.0</ele><time>2026-04-10T15:51:07.186Z</time></trkpt><trkpt lat="41.8480967" lon="15.690055"><ele>220.0</ele><time>2026-04-10T15:51:08.19Z</time></trkpt><trkpt lat="41.848185" lon="15.6898867"><ele>220.0</ele><time>2026-04-10T15:51:09.179Z</time></trkpt><trkpt lat="41.84826" lon="15.6897117"><ele>220.0</ele><time>2026-04-10T15:51:10.188Z</time></trkpt><trkpt lat="41.8483167" lon="15.68952"><ele>220.0</ele><time>2026-04-10T15:51:11.189Z</time></trkpt><trkpt lat="41.8483733" lon="15.6893283"><ele>217.33333333333331</ele><time>2026-04-10T15:51:12.181Z</time></trkpt><trkpt lat="41.8484417" lon="15.6891333"><ele>214.66666666666669</ele><time>2026-04-10T15:51:13.193Z</time></trkpt><trkpt lat="41.8485333" lon="15.6889467"><ele>212.0</ele><time>2026-04-10T15:51:14.197Z</time></trkpt><trkpt lat="41.8486483" lon="15.6887783"><ele>212.0</ele><time>2026-04-10T15:51:15.191Z</time></trkpt><trkpt lat="41.84877" lon="15.6886067"><ele>212.0</ele><time>2026-04-10T15:51:16.178Z</time></trkpt><trkpt lat="41.8488933" lon="15.6884267"><ele>212.0</ele><time>2026-04-10T15:51:17.183Z</time></trkpt><trkpt lat="41.8490183" lon="15.68824"><ele>214.33333333333334</ele><time>2026-04-10T15:51:18.19Z</time></trkpt><trkpt lat="41.849135" lon="15.6880317"><ele>216.66666666666669</ele><time>2026-04-10T15:51:19.191Z</time></trkpt><trkpt lat="41.84925" lon="15.6878133"><ele>219.0</ele><time>2026-04-10T15:51:20.19Z</time></trkpt><trkpt lat="41.8493683" lon="15.6875933"><ele>219.0</ele><time>2026-04-10T15:51:21.191Z</time></trkpt><trkpt lat="41.84949" lon="15.6873833"><ele>219.0</ele><time>2026-04-10T15:51:22.184Z</time></trkpt><trkpt lat="41.8496167" lon="15.6871967"><ele>219.0</ele><time>2026-04-10T15:51:23.198Z</time></trkpt><trkpt lat="41.8497533" lon="15.6870333"><ele>220.0</ele><time>2026-04-10T15:51:24.189Z</time></trkpt><trkpt lat="41.8499" lon="15.686885"><ele>221.0</ele><time>2026-04-10T15:51:25.192Z</time></trkpt><trkpt lat="41.8500483" lon="15.6867533"><ele>222.0</ele><time>2026-04-10T15:51:26.182Z</time></trkpt><trkpt lat="41.85019" lon="15.6866367"><ele>222.0</ele><time>2026-04-10T15:51:27.191Z</time></trkpt><trkpt lat="41.8503233" lon="15.6865317"><ele>222.0</ele><time>2026-04-10T15:51:28.183Z</time></trkpt><trkpt lat="41.8504467" lon="15.6864233"><ele>222.0</ele><time>2026-04-10T15:51:29.182Z</time></trkpt><trkpt lat="41.8505533" lon="15.6862933"><ele>222.0</ele><time>2026-04-10T15:51:30.18Z</time></trkpt><trkpt lat="41.85064" lon="15.6861417"><ele>222.25</ele><time>2026-04-10T15:51:31.18Z</time></trkpt><trkpt lat="41.8507233" lon="15.6859833"><ele>222.5</ele><time>2026-04-10T15:51:32.185Z</time></trkpt><trkpt lat="41.8508233" lon="15.6858517"><ele>222.75</ele><time>2026-04-10T15:51:33.185Z</time></trkpt><trkpt lat="41.850945" lon="15.68574"><ele>223.0</ele><time>2026-04-10T15:51:34.192Z</time></trkpt><trkpt lat="41.851085" lon="15.6856417"><ele>223.0</ele><time>2026-04-10T15:51:35.188Z</time></trkpt><trkpt lat="41.851235" lon="15.68555"><ele>223.0</ele><time>2026-04-10T15:51:36.192Z</time></trkpt><trkpt lat="41.8513867" lon="15.6854617"><ele>223.0</ele><time>2026-04-10T15:51:37.189Z</time></trkpt><trkpt lat="41.8515333" lon="15.6853817"><ele>223.0</ele><time>2026-04-10T15:51:38.179Z</time></trkpt><trkpt lat="41.851675" lon="15.6853133"><ele>223.0</ele><time>2026-04-10T15:51:39.182Z</time></trkpt><trkpt lat="41.8518033" lon="15.6852433"><ele>223.0</ele><time>2026-04-10T15:51:40.189Z</time></trkpt><trkpt lat="41.8519117" lon="15.6851483"><ele>223.0</ele><time>2026-04-10T15:51:41.18Z</time></trkpt><trkpt lat="41.8520083" lon="15.6850267"><ele>223.25</ele><time>2026-04-10T15:51:42.185Z</time></trkpt><trkpt lat="41.8520883" lon="15.68488"><ele>223.5</ele><time>2026-04-10T15:51:43.183Z</time></trkpt><trkpt lat="41.8521717" lon="15.6847283"><ele>223.75</ele><time>2026-04-10T15:51:44.181Z</time></trkpt><trkpt lat="41.8522617" lon="15.6845617"><ele>224.0</ele><time>2026-04-10T15:51:45.183Z</time></trkpt><trkpt lat="41.8523567" lon="15.6843817"><ele>227.0</ele><time>2026-04-10T15:51:46.19Z</time></trkpt><trkpt lat="41.8524483" lon="15.684185"><ele>230.0</ele><time>2026-04-10T15:51:47.178Z</time></trkpt><trkpt lat="41.8525367" lon="15.68398"><ele>233.0</ele><time>2026-04-10T15:51:48.181Z</time></trkpt><trkpt lat="41.8526233" lon="15.6837883"><ele>231.0</ele><time>2026-04-10T15:51:49.182Z</time></trkpt><trkpt lat="41.8527133" lon="15.683615"><ele>229.0</ele><time>2026-04-10T15:51:50.181Z</time></trkpt><trkpt lat="41.8528133" lon="15.6834567"><ele>227.0</ele><time>2026-04-10T15:51:51.19Z</time></trkpt><trkpt lat="41.8529283" lon="15.6833"><ele>227.0</ele><time>2026-04-10T15:51:52.191Z</time></trkpt><trkpt lat="41.853055" lon="15.6831417"><ele>227.0</ele><time>2026-04-10T15:51:53.185Z</time></trkpt><trkpt lat="41.8532" lon="15.6829833"><ele>227.0</ele><time>2026-04-10T15:51:54.193Z</time></trkpt><trkpt lat="41.85335" lon="15.6828267"><ele>226.0</ele><time>2026-04-10T15:51:55.183Z</time></trkpt><trkpt lat="41.8535017" lon="15.6826717"><ele>225.0</ele><time>2026-04-10T15:51:56.19Z</time></trkpt><trkpt lat="41.8536483" lon="15.6825233"><ele>224.0</ele><time>2026-04-10T15:51:57.188Z</time></trkpt><trkpt lat="41.8537883" lon="15.6823617"><ele>224.0</ele><time>2026-04-10T15:51:58.199Z</time></trkpt><trkpt lat="41.8539233" lon="15.6821917"><ele>224.0</ele><time>2026-04-10T15:51:59.187Z</time></trkpt><trkpt lat="41.85406" lon="15.68202"><ele>224.0</ele><time>2026-04-10T15:52:00.19Z</time></trkpt><trkpt lat="41.8541883" lon="15.681855"><ele>223.0</ele><time>2026-04-10T15:52:01.189Z</time></trkpt><trkpt lat="41.85431" lon="15.6816867"><ele>222.0</ele><time>2026-04-10T15:52:02.188Z</time></trkpt><trkpt lat="41.854425" lon="15.681505"><ele>221.0</ele><time>2026-04-10T15:52:03.188Z</time></trkpt><trkpt lat="41.8545267" lon="15.6813133"><ele>221.0</ele><time>2026-04-10T15:52:04.181Z</time></trkpt><trkpt lat="41.8546183" lon="15.6811183"><ele>221.0</ele><time>2026-04-10T15:52:05.188Z</time></trkpt><trkpt lat="41.85472" lon="15.6809333"><ele>221.0</ele><time>2026-04-10T15:52:06.179Z</time></trkpt><trkpt lat="41.8548383" lon="15.6807583"><ele>221.66666666666669</ele><time>2026-04-10T15:52:07.186Z</time></trkpt><trkpt lat="41.8549567" lon="15.6806033"><ele>222.33333333333331</ele><time>2026-04-10T15:52:08.185Z</time></trkpt><trkpt lat="41.8550833" lon="15.6804683"><ele>223.0</ele><time>2026-04-10T15:52:09.184Z</time></trkpt><trkpt lat="41.8552233" lon="15.68036"><ele>227.66666666666666</ele><time>2026-04-10T15:52:10.186Z</time></trkpt><trkpt lat="41.8553767" lon="15.680265"><ele>232.33333333333331</ele><time>2026-04-10T15:52:11.183Z</time></trkpt><trkpt lat="41.8555433" lon="15.680185"><ele>237.0</ele><time>2026-04-10T15:52:12.183Z</time></trkpt><trkpt lat="41.8557167" lon="15.6801267"><ele>237.0</ele><time>2026-04-10T15:52:13.189Z</time></trkpt><trkpt lat="41.8558933" lon="15.680085"><ele>237.0</ele><time>2026-04-10T15:52:14.186Z</time></trkpt><trkpt lat="41.8560683" lon="15.6800333"><ele>237.0</ele><time>2026-04-10T15:52:15.186Z</time></trkpt><trkpt lat="41.8562317" lon="15.6799617"><ele>234.33333333333331</ele><time>2026-04-10T15:52:16.181Z</time></trkpt><trkpt lat="41.8563917" lon="15.679865"><ele>231.66666666666666</ele><time>2026-04-10T15:52:17.184Z</time></trkpt><trkpt lat="41.8565533" lon="15.6797467"><ele>229.0</ele><time>2026-04-10T15:52:18.185Z</time></trkpt><trkpt lat="41.8567217" lon="15.6796233"><ele>230.66666666666666</ele><time>2026-04-10T15:52:19.184Z</time></trkpt><trkpt lat="41.8568833" lon="15.67951"><ele>232.33333333333331</ele><time>2026-04-10T15:52:20.183Z</time></trkpt><trkpt lat="41.857035" lon="15.6794033"><ele>234.0</ele><time>2026-04-10T15:52:21.182Z</time></trkpt><trkpt lat="41.8571767" lon="15.6792967"><ele>234.0</ele><time>2026-04-10T15:52:22.18Z</time></trkpt><trkpt lat="41.8573083" lon="15.679185"><ele>234.0</ele><time>2026-04-10T15:52:23.195Z</time></trkpt><trkpt lat="41.8574333" lon="15.67905"><ele>234.0</ele><time>2026-04-10T15:52:24.184Z</time></trkpt><trkpt lat="41.857555" lon="15.67889"><ele>232.0</ele><time>2026-04-10T15:52:25.191Z</time></trkpt><trkpt lat="41.8576717" lon="15.6787067"><ele>230.0</ele><time>2026-04-10T15:52:26.195Z</time></trkpt><trkpt lat="41.857795" lon="15.67851"><ele>228.0</ele><time>2026-04-10T15:52:27.182Z</time></trkpt><trkpt lat="41.8579167" lon="15.6783167"><ele>228.0</ele><time>2026-04-10T15:52:28.192Z</time></trkpt><trkpt lat="41.85803" lon="15.67813"><ele>228.0</ele><time>2026-04-10T15:52:29.191Z</time></trkpt><trkpt lat="41.85814" lon="15.6779583"><ele>228.0</ele><time>2026-04-10T15:52:30.185Z</time></trkpt><trkpt lat="41.858255" lon="15.677805"><ele>228.0</ele><time>2026-04-10T15:52:31.186Z</time></trkpt><trkpt lat="41.85838" lon="15.6776717"><ele>228.0</ele><time>2026-04-10T15:52:32.192Z</time></trkpt><trkpt lat="41.8585133" lon="15.6775467"><ele>228.0</ele><time>2026-04-10T15:52:33.187Z</time></trkpt><trkpt lat="41.858645" lon="15.6774217"><ele>228.0</ele><time>2026-04-10T15:52:34.181Z</time></trkpt><trkpt lat="41.858775" lon="15.6772917"><ele>228.0</ele><time>2026-04-10T15:52:35.181Z</time></trkpt><trkpt lat="41.8589067" lon="15.6771617"><ele>228.0</ele><time>2026-04-10T15:52:36.181Z</time></trkpt><trkpt lat="41.8590433" lon="15.6770333"><ele>228.0</ele><time>2026-04-10T15:52:37.181Z</time></trkpt><trkpt lat="41.85918" lon="15.6769033"><ele>228.0</ele><time>2026-04-10T15:52:38.186Z</time></trkpt><trkpt lat="41.8593117" lon="15.676765"><ele>228.0</ele><time>2026-04-10T15:52:39.187Z</time></trkpt><trkpt lat="41.8594417" lon="15.6766133"><ele>228.0</ele><time>2026-04-10T15:52:40.181Z</time></trkpt><trkpt lat="41.8595667" lon="15.6764533"><ele>228.0</ele><time>2026-04-10T15:52:41.189Z</time></trkpt><trkpt lat="41.8596883" lon="15.6762967"><ele>228.0</ele><time>2026-04-10T15:52:42.181Z</time></trkpt><trkpt lat="41.8597967" lon="15.6761433"><ele>231.33333333333331</ele><time>2026-04-10T15:52:43.187Z</time></trkpt><trkpt lat="41.8598933" lon="15.6759833"><ele>234.66666666666666</ele><time>2026-04-10T15:52:44.193Z</time></trkpt><trkpt lat="41.859975" lon="15.6758117"><ele>238.0</ele><time>2026-04-10T15:52:45.191Z</time></trkpt><trkpt lat="41.8600467" lon="15.6756217"><ele>233.33333333333331</ele><time>2026-04-10T15:52:46.187Z</time></trkpt><trkpt lat="41.8601167" lon="15.6754167"><ele>228.66666666666669</ele><time>2026-04-10T15:52:47.183Z</time></trkpt><trkpt lat="41.8601933" lon="15.6752"><ele>224.0</ele><time>2026-04-10T15:52:48.185Z</time></trkpt><trkpt lat="41.8602883" lon="15.674975"><ele>224.0</ele><time>2026-04-10T15:52:49.182Z</time></trkpt><trkpt lat="41.8603933" lon="15.6747467"><ele>224.0</ele><time>2026-04-10T15:52:50.185Z</time></trkpt><trkpt lat="41.860505" lon="15.6745117"><ele>224.0</ele><time>2026-04-10T15:52:51.188Z</time></trkpt><trkpt lat="41.860625" lon="15.67427"><ele>226.0</ele><time>2026-04-10T15:52:52.194Z</time></trkpt><trkpt lat="41.86074" lon="15.6740383"><ele>228.0</ele><time>2026-04-10T15:52:53.193Z</time></trkpt><trkpt lat="41.8608533" lon="15.6738133"><ele>230.0</ele><time>2026-04-10T15:52:54.187Z</time></trkpt><trkpt lat="41.86097" lon="15.6736033"><ele>230.0</ele><time>2026-04-10T15:52:55.185Z</time></trkpt><trkpt lat="41.8610883" lon="15.6734083"><ele>230.0</ele><time>2026-04-10T15:52:56.187Z</time></trkpt><trkpt lat="41.8612067" lon="15.67323"><ele>230.0</ele><time>2026-04-10T15:52:57.18Z</time></trkpt><trkpt lat="41.8613233" lon="15.6730683"><ele>230.0</ele><time>2026-04-10T15:52:58.183Z</time></trkpt><trkpt lat="41.8614367" lon="15.672925"><ele>230.0</ele><time>2026-04-10T15:52:59.186Z</time></trkpt><trkpt lat="41.8615383" lon="15.6727967"><ele>230.0</ele><time>2026-04-10T15:53:00.179Z</time></trkpt><trkpt lat="41.8616217" lon="15.67267"><ele>230.0</ele><time>2026-04-10T15:53:01.183Z</time></trkpt><trkpt lat="41.8616933" lon="15.6725333"><ele>230.25</ele><time>2026-04-10T15:53:02.181Z</time></trkpt><trkpt lat="41.861755" lon="15.67238"><ele>230.5</ele><time>2026-04-10T15:53:03.18Z</time></trkpt><trkpt lat="41.8618083" lon="15.67221"><ele>230.75</ele><time>2026-04-10T15:53:04.18Z</time></trkpt><trkpt lat="41.8618617" lon="15.6720217"><ele>231.0</ele><time>2026-04-10T15:53:05.189Z</time></trkpt><trkpt lat="41.861915" lon="15.6718133"><ele>231.0</ele><time>2026-04-10T15:53:06.18Z</time></trkpt><trkpt lat="41.8619767" lon="15.6715883"><ele>231.0</ele><time>2026-04-10T15:53:07.18Z</time></trkpt><trkpt lat="41.8620433" lon="15.6713583"><ele>231.0</ele><time>2026-04-10T15:53:08.194Z</time></trkpt><trkpt lat="41.8621083" lon="15.6711333"><ele>232.0</ele><time>2026-04-10T15:53:09.186Z</time></trkpt><trkpt lat="41.8621683" lon="15.67092"><ele>233.0</ele><time>2026-04-10T15:53:10.179Z</time></trkpt><trkpt lat="41.8622267" lon="15.6707133"><ele>234.0</ele><time>2026-04-10T15:53:11.188Z</time></trkpt><trkpt lat="41.862295" lon="15.6705117"><ele>234.0</ele><time>2026-04-10T15:53:12.186Z</time></trkpt><trkpt lat="41.8623783" lon="15.6703183"><ele>234.0</ele><time>2026-04-10T15:53:13.182Z</time></trkpt><trkpt lat="41.8624767" lon="15.67013"><ele>234.0</ele><time>2026-04-10T15:53:14.187Z</time></trkpt><trkpt lat="41.8625783" lon="15.6699467"><ele>232.66666666666669</ele><time>2026-04-10T15:53:15.183Z</time></trkpt><trkpt lat="41.86267" lon="15.66977"><ele>231.33333333333334</ele><time>2026-04-10T15:53:16.184Z</time></trkpt><trkpt lat="41.86275" lon="15.6695967"><ele>230.0</ele><time>2026-04-10T15:53:17.189Z</time></trkpt><trkpt lat="41.862815" lon="15.6694183"><ele>230.0</ele><time>2026-04-10T15:53:18.188Z</time></trkpt><trkpt lat="41.86287" lon="15.6692183"><ele>230.0</ele><time>2026-04-10T15:53:19.184Z</time></trkpt><trkpt lat="41.8629183" lon="15.6690117"><ele>230.0</ele><time>2026-04-10T15:53:20.186Z</time></trkpt><trkpt lat="41.86297" lon="15.6688083"><ele>230.66666666666669</ele><time>2026-04-10T15:53:21.187Z</time></trkpt><trkpt lat="41.8630283" lon="15.6686033"><ele>231.33333333333331</ele><time>2026-04-10T15:53:22.192Z</time></trkpt><trkpt lat="41.8631017" lon="15.6684017"><ele>232.0</ele><time>2026-04-10T15:53:23.181Z</time></trkpt><trkpt lat="41.863175" lon="15.6681983"><ele>232.0</ele><time>2026-04-10T15:53:24.179Z</time></trkpt><trkpt lat="41.863245" lon="15.6680017"><ele>232.0</ele><time>2026-04-10T15:53:25.196Z</time></trkpt><trkpt lat="41.8633133" lon="15.6678183"><ele>232.0</ele><time>2026-04-10T15:53:26.182Z</time></trkpt><trkpt lat="41.863375" lon="15.6676433"><ele>233.0</ele><time>2026-04-10T15:53:27.19Z</time></trkpt><trkpt lat="41.8634233" lon="15.6674733"><ele>234.0</ele><time>2026-04-10T15:53:28.18Z</time></trkpt><trkpt lat="41.8634517" lon="15.667305"><ele>235.0</ele><time>2026-04-10T15:53:29.18Z</time></trkpt><trkpt lat="41.8634667" lon="15.6671317"><ele>236.0</ele><time>2026-04-10T15:53:30.179Z</time></trkpt><trkpt lat="41.8634667" lon="15.6669483"><ele>235.75</ele><time>2026-04-10T15:53:31.187Z</time></trkpt><trkpt lat="41.8634483" lon="15.6667667"><ele>235.5</ele><time>2026-04-10T15:53:32.195Z</time></trkpt><trkpt lat="41.8634183" lon="15.66659"><ele>235.25</ele><time>2026-04-10T15:53:33.188Z</time></trkpt><trkpt lat="41.8633917" lon="15.6664283"><ele>235.0</ele><time>2026-04-10T15:53:34.188Z</time></trkpt><trkpt lat="41.86339" lon="15.666265"><ele>235.25</ele><time>2026-04-10T15:53:35.188Z</time></trkpt><trkpt lat="41.8634133" lon="15.6660967"><ele>235.5</ele><time>2026-04-10T15:53:36.187Z</time></trkpt><trkpt lat="41.86346" lon="15.6659167"><ele>235.75</ele><time>2026-04-10T15:53:37.193Z</time></trkpt><trkpt lat="41.8635233" lon="15.66572"><ele>236.0</ele><time>2026-04-10T15:53:38.189Z</time></trkpt><trkpt lat="41.8636017" lon="15.6655017"><ele>230.66666666666669</ele><time>2026-04-10T15:53:39.191Z</time></trkpt><trkpt lat="41.86369" lon="15.6652717"><ele>225.33333333333331</ele><time>2026-04-10T15:53:40.186Z</time></trkpt><trkpt lat="41.863785" lon="15.6650383"><ele>220.0</ele><time>2026-04-10T15:53:41.192Z</time></trkpt><trkpt lat="41.86388" lon="15.664805"><ele>220.0</ele><time>2026-04-10T15:53:42.191Z</time></trkpt><trkpt lat="41.863975" lon="15.6645533"><ele>220.0</ele><time>2026-04-10T15:53:43.185Z</time></trkpt><trkpt lat="41.864065" lon="15.6642883"><ele>220.0</ele><time>2026-04-10T15:53:44.189Z</time></trkpt><trkpt lat="41.8641483" lon="15.664015"><ele>216.5</ele><time>2026-04-10T15:53:45.185Z</time></trkpt><trkpt lat="41.8642267" lon="15.6637333"><ele>213.0</ele><time>2026-04-10T15:53:46.185Z</time></trkpt><trkpt lat="41.8643067" lon="15.66345"><ele>213.0</ele><time>2026-04-10T15:53:47.186Z</time></trkpt><trkpt lat="41.864385" lon="15.6631783"><ele>213.0</ele><time>2026-04-10T15:53:48.18Z</time></trkpt><trkpt lat="41.8644667" lon="15.6629167"><ele>213.0</ele><time>2026-04-10T15:53:49.189Z</time></trkpt><trkpt lat="41.8645467" lon="15.662665"><ele>215.66666666666669</ele><time>2026-04-10T15:53:50.182Z</time></trkpt><trkpt lat="41.8646283" lon="15.6624267"><ele>218.33333333333334</ele><time>2026-04-10T15:53:51.184Z</time></trkpt><trkpt lat="41.86471" lon="15.662205"><ele>221.0</ele><time>2026-04-10T15:53:52.189Z</time></trkpt><trkpt lat="41.8647983" lon="15.6620033"><ele>223.66666666666669</ele><time>2026-04-10T15:53:53.188Z</time></trkpt><trkpt lat="41.864895" lon="15.6618233"><ele>226.33333333333331</ele><time>2026-04-10T15:53:54.182Z</time></trkpt><trkpt lat="41.8650017" lon="15.6616733"><ele>229.0</ele><time>2026-04-10T15:53:55.192Z</time></trkpt><trkpt lat="41.8651167" lon="15.6615533"><ele>225.75</ele><time>2026-04-10T15:53:56.187Z</time></trkpt><trkpt lat="41.865225" lon="15.66145"><ele>222.5</ele><time>2026-04-10T15:53:57.181Z</time></trkpt><trkpt lat="41.8653117" lon="15.6613283"><ele>219.25</ele><time>2026-04-10T15:53:58.178Z</time></trkpt><trkpt lat="41.86538" lon="15.6611933"><ele>216.0</ele><time>2026-04-10T15:53:59.179Z</time></trkpt><trkpt lat="41.8654283" lon="15.6610467"><ele>216.0</ele><time>2026-04-10T15:54:00.18Z</time></trkpt><trkpt lat="41.8654483" lon="15.6608883"><ele>216.0</ele><time>2026-04-10T15:54:01.177Z</time></trkpt><trkpt lat="41.86544" lon="15.6607217"><ele>216.0</ele><time>2026-04-10T15:54:02.188Z</time></trkpt><trkpt lat="41.8654083" lon="15.6605567"><ele>216.0</ele><time>2026-04-10T15:54:03.189Z</time></trkpt><trkpt lat="41.8653717" lon="15.660405"><ele>218.0</ele><time>2026-04-10T15:54:04.187Z</time></trkpt><trkpt lat="41.8653483" lon="15.6602667"><ele>220.00000000000003</ele><time>2026-04-10T15:54:05.19Z</time></trkpt><trkpt lat="41.865355" lon="15.6601367"><ele>222.00000000000003</ele><time>2026-04-10T15:54:06.186Z</time></trkpt><trkpt lat="41.8653983" lon="15.66003"><ele>224.0</ele><time>2026-04-10T15:54:07.187Z</time></trkpt><trkpt lat="41.8654617" lon="15.6599433"><ele>226.0</ele><time>2026-04-10T15:54:08.184Z</time></trkpt><trkpt lat="41.86554" lon="15.6598817"><ele>226.0</ele><time>2026-04-10T15:54:09.19Z</time></trkpt><trkpt lat="41.8656283" lon="15.659835"><ele>226.0</ele><time>2026-04-10T15:54:10.185Z</time></trkpt><trkpt lat="41.8657267" lon="15.6597783"><ele>226.0</ele><time>2026-04-10T15:54:11.188Z</time></trkpt><trkpt lat="41.865835" lon="15.6597"><ele>226.0</ele><time>2026-04-10T15:54:12.18Z</time></trkpt><trkpt lat="41.8659483" lon="15.6595883"><ele>222.33333333333331</ele><time>2026-04-10T15:54:13.194Z</time></trkpt><trkpt lat="41.8660567" lon="15.6594483"><ele>218.66666666666669</ele><time>2026-04-10T15:54:14.192Z</time></trkpt><trkpt lat="41.8661533" lon="15.6592767"><ele>215.0</ele><time>2026-04-10T15:54:15.184Z</time></trkpt><trkpt lat="41.866235" lon="15.659085"><ele>215.0</ele><time>2026-04-10T15:54:16.186Z</time></trkpt><trkpt lat="41.8663167" lon="15.658885"><ele>215.0</ele><time>2026-04-10T15:54:17.18Z</time></trkpt><trkpt lat="41.8664033" lon="15.65868"><ele>215.0</ele><time>2026-04-10T15:54:18.187Z</time></trkpt><trkpt lat="41.8664933" lon="15.6584717"><ele>219.33333333333334</ele><time>2026-04-10T15:54:19.189Z</time></trkpt><trkpt lat="41.8665883" lon="15.6582517"><ele>223.66666666666669</ele><time>2026-04-10T15:54:20.188Z</time></trkpt><trkpt lat="41.866685" lon="15.6580217"><ele>228.0</ele><time>2026-04-10T15:54:21.191Z</time></trkpt><trkpt lat="41.866785" lon="15.6577867"><ele>221.33333333333331</ele><time>2026-04-10T15:54:22.184Z</time></trkpt><trkpt lat="41.866885" lon="15.6575567"><ele>214.66666666666666</ele><time>2026-04-10T15:54:23.188Z</time></trkpt><trkpt lat="41.8669817" lon="15.6573283"><ele>208.0</ele><time>2026-04-10T15:54:24.185Z</time></trkpt><trkpt lat="41.8670783" lon="15.6570933"><ele>212.0</ele><time>2026-04-10T15:54:25.187Z</time></trkpt><trkpt lat="41.867175" lon="15.656855"><ele>216.0</ele><time>2026-04-10T15:54:26.197Z</time></trkpt><trkpt lat="41.8672667" lon="15.656615"><ele>220.0</ele><time>2026-04-10T15:54:27.188Z</time></trkpt><trkpt lat="41.8673517" lon="15.65637"><ele>220.0</ele><time>2026-04-10T15:54:28.189Z</time></trkpt><trkpt lat="41.8674317" lon="15.6561233"><ele>220.0</ele><time>2026-04-10T15:54:29.182Z</time></trkpt><trkpt lat="41.8675117" lon="15.655885"><ele>220.0</ele><time>2026-04-10T15:54:30.182Z</time></trkpt><trkpt lat="41.86759" lon="15.65566"><ele>216.0</ele><time>2026-04-10T15:54:31.186Z</time></trkpt><trkpt lat="41.8676667" lon="15.6554483"><ele>212.0</ele><time>2026-04-10T15:54:32.188Z</time></trkpt><trkpt lat="41.867735" lon="15.65524"><ele>208.0</ele><time>2026-04-10T15:54:33.189Z</time></trkpt><trkpt lat="41.8677883" lon="15.6550283"><ele>208.0</ele><time>2026-04-10T15:54:34.185Z</time></trkpt><trkpt lat="41.8678317" lon="15.6548133"><ele>208.0</ele><time>2026-04-10T15:54:35.181Z</time></trkpt><trkpt lat="41.8678683" lon="15.6545883"><ele>208.0</ele><time>2026-04-10T15:54:36.193Z</time></trkpt><trkpt lat="41.8679017" lon="15.6543533"><ele>210.33333333333331</ele><time>2026-04-10T15:54:37.184Z</time></trkpt><trkpt lat="41.8679433" lon="15.654115"><ele>212.66666666666669</ele><time>2026-04-10T15:54:38.188Z</time></trkpt><trkpt lat="41.8679967" lon="15.6538733"><ele>215.0</ele><time>2026-04-10T15:54:39.184Z</time></trkpt><trkpt lat="41.868055" lon="15.6536233"><ele>219.0</ele><time>2026-04-10T15:54:40.188Z</time></trkpt><trkpt lat="41.86812" lon="15.653375"><ele>223.0</ele><time>2026-04-10T15:54:41.188Z</time></trkpt><trkpt lat="41.8681917" lon="15.6531283"><ele>227.0</ele><time>2026-04-10T15:54:42.191Z</time></trkpt><trkpt lat="41.868255" lon="15.652875"><ele>230.33333333333334</ele><time>2026-04-10T15:54:43.183Z</time></trkpt><trkpt lat="41.8683117" lon="15.6526267"><ele>233.66666666666669</ele><time>2026-04-10T15:54:44.189Z</time></trkpt><trkpt lat="41.86836" lon="15.6523883"><ele>237.0</ele><time>2026-04-10T15:54:45.189Z</time></trkpt><trkpt lat="41.8684033" lon="15.65216"><ele>230.75</ele><time>2026-04-10T15:54:46.185Z</time></trkpt><trkpt lat="41.8684517" lon="15.651955"><ele>224.5</ele><time>2026-04-10T15:54:47.182Z</time></trkpt><trkpt lat="41.8685067" lon="15.651775"><ele>218.25</ele><time>2026-04-10T15:54:48.186Z</time></trkpt><trkpt lat="41.86855" lon="15.6516117"><ele>212.0</ele><time>2026-04-10T15:54:49.189Z</time></trkpt><trkpt lat="41.868575" lon="15.65144"><ele>212.0</ele><time>2026-04-10T15:54:50.181Z</time></trkpt><trkpt lat="41.8685817" lon="15.6512483"><ele>212.0</ele><time>2026-04-10T15:54:51.182Z</time></trkpt><trkpt lat="41.8685833" lon="15.6510367"><ele>212.0</ele><time>2026-04-10T15:54:52.19Z</time></trkpt><trkpt lat="41.8685867" lon="15.6508033"><ele>213.0</ele><time>2026-04-10T15:54:53.183Z</time></trkpt><trkpt lat="41.8686017" lon="15.6505633"><ele>214.0</ele><time>2026-04-10T15:54:54.18Z</time></trkpt><trkpt lat="41.8686217" lon="15.6503333"><ele>215.0</ele><time>2026-04-10T15:54:55.19Z</time></trkpt><trkpt lat="41.8686433" lon="15.6501083"><ele>216.0</ele><time>2026-04-10T15:54:56.193Z</time></trkpt><trkpt lat="41.8686617" lon="15.6498783"><ele>217.0</ele><time>2026-04-10T15:54:57.179Z</time></trkpt><trkpt lat="41.8686667" lon="15.6496333"><ele>218.0</ele><time>2026-04-10T15:54:58.185Z</time></trkpt><trkpt lat="41.8686683" lon="15.6493733"><ele>218.33333333333334</ele><time>2026-04-10T15:54:59.181Z</time></trkpt><trkpt lat="41.8686683" lon="15.6491133"><ele>218.66666666666669</ele><time>2026-04-10T15:55:00.185Z</time></trkpt><trkpt lat="41.8686717" lon="15.6488533"><ele>219.0</ele><time>2026-04-10T15:55:01.186Z</time></trkpt><trkpt lat="41.8686767" lon="15.6485933"><ele>219.66666666666669</ele><time>2026-04-10T15:55:02.181Z</time></trkpt><trkpt lat="41.8686883" lon="15.6483333"><ele>220.33333333333334</ele><time>2026-04-10T15:55:03.181Z</time></trkpt><trkpt lat="41.8687033" lon="15.6480783"><ele>221.0</ele><time>2026-04-10T15:55:04.185Z</time></trkpt><trkpt lat="41.868715" lon="15.6478217"><ele>222.0</ele><time>2026-04-10T15:55:05.189Z</time></trkpt><trkpt lat="41.868725" lon="15.647565"><ele>223.0</ele><time>2026-04-10T15:55:06.18Z</time></trkpt><trkpt lat="41.86873" lon="15.647315"><ele>224.0</ele><time>2026-04-10T15:55:07.184Z</time></trkpt><trkpt lat="41.868735" lon="15.6470783"><ele>224.33333333333334</ele><time>2026-04-10T15:55:08.189Z</time></trkpt><trkpt lat="41.8687367" lon="15.646845"><ele>224.66666666666669</ele><time>2026-04-10T15:55:09.182Z</time></trkpt><trkpt lat="41.8687317" lon="15.6466167"><ele>225.0</ele><time>2026-04-10T15:55:10.181Z</time></trkpt><trkpt lat="41.8687217" lon="15.6463883"><ele>225.0</ele><time>2026-04-10T15:55:11.179Z</time></trkpt><trkpt lat="41.8687067" lon="15.6461667"><ele>225.0</ele><time>2026-04-10T15:55:12.183Z</time></trkpt><trkpt lat="41.868695" lon="15.645955"><ele>225.0</ele><time>2026-04-10T15:55:13.179Z</time></trkpt><trkpt lat="41.86869" lon="15.6457467"><ele>225.0</ele><time>2026-04-10T15:55:14.19Z</time></trkpt><trkpt lat="41.86869" lon="15.6455417"><ele>225.0</ele><time>2026-04-10T15:55:15.184Z</time></trkpt><trkpt lat="41.86869" lon="15.6453417"><ele>225.0</ele><time>2026-04-10T15:55:16.18Z</time></trkpt><trkpt lat="41.86869" lon="15.6451467"><ele>225.0</ele><time>2026-04-10T15:55:17.189Z</time></trkpt><trkpt lat="41.8686933" lon="15.6449667"><ele>224.75</ele><time>2026-04-10T15:55:18.18Z</time></trkpt><trkpt lat="41.8686783" lon="15.644785"><ele>224.5</ele><time>2026-04-10T15:55:19.19Z</time></trkpt><trkpt lat="41.8686383" lon="15.644595"><ele>224.25</ele><time>2026-04-10T15:55:20.183Z</time></trkpt><trkpt lat="41.8685783" lon="15.6443983"><ele>224.0</ele><time>2026-04-10T15:55:21.191Z</time></trkpt><trkpt lat="41.8685" lon="15.6442033"><ele>230.33333333333334</ele><time>2026-04-10T15:55:22.193Z</time></trkpt><trkpt lat="41.868415" lon="15.6440217"><ele>236.66666666666669</ele><time>2026-04-10T15:55:23.187Z</time></trkpt><trkpt lat="41.8683367" lon="15.6438467"><ele>243.0</ele><time>2026-04-10T15:55:24.191Z</time></trkpt><trkpt lat="41.86827" lon="15.643665"><ele>241.0</ele><time>2026-04-10T15:55:25.182Z</time></trkpt><trkpt lat="41.868215" lon="15.6434683"><ele>239.0</ele><time>2026-04-10T15:55:26.184Z</time></trkpt><trkpt lat="41.8681717" lon="15.6432617"><ele>237.0</ele><time>2026-04-10T15:55:27.183Z</time></trkpt><trkpt lat="41.8681367" lon="15.6430517"><ele>237.0</ele><time>2026-04-10T15:55:28.186Z</time></trkpt><trkpt lat="41.86812" lon="15.64284"><ele>237.0</ele><time>2026-04-10T15:55:29.186Z</time></trkpt><trkpt lat="41.86812" lon="15.6426367"><ele>237.0</ele><time>2026-04-10T15:55:30.19Z</time></trkpt><trkpt lat="41.8681317" lon="15.6424467"><ele>236.0</ele><time>2026-04-10T15:55:31.189Z</time></trkpt><trkpt lat="41.8681267" lon="15.64226"><ele>235.0</ele><time>2026-04-10T15:55:32.188Z</time></trkpt><trkpt lat="41.8681" lon="15.64207"><ele>234.0</ele><time>2026-04-10T15:55:33.179Z</time></trkpt><trkpt lat="41.8680567" lon="15.64187"><ele>233.0</ele><time>2026-04-10T15:55:34.188Z</time></trkpt><trkpt lat="41.8679983" lon="15.6416583"><ele>232.66666666666669</ele><time>2026-04-10T15:55:35.178Z</time></trkpt><trkpt lat="41.867935" lon="15.6414367"><ele>232.33333333333331</ele><time>2026-04-10T15:55:36.182Z</time></trkpt><trkpt lat="41.8678767" lon="15.64122"><ele>232.0</ele><time>2026-04-10T15:55:37.182Z</time></trkpt><trkpt lat="41.8678233" lon="15.6410183"><ele>231.0</ele><time>2026-04-10T15:55:38.183Z</time></trkpt><trkpt lat="41.8677767" lon="15.6408267"><ele>230.0</ele><time>2026-04-10T15:55:39.184Z</time></trkpt><trkpt lat="41.8677283" lon="15.64065"><ele>229.0</ele><time>2026-04-10T15:55:40.19Z</time></trkpt><trkpt lat="41.8676683" lon="15.6405017"><ele>228.0</ele><time>2026-04-10T15:55:41.19Z</time></trkpt><trkpt lat="41.8675983" lon="15.640375"><ele>229.75</ele><time>2026-04-10T15:55:42.189Z</time></trkpt><trkpt lat="41.867515" lon="15.6402717"><ele>231.5</ele><time>2026-04-10T15:55:43.184Z</time></trkpt><trkpt lat="41.86742" lon="15.6401933"><ele>233.25</ele><time>2026-04-10T15:55:44.177Z</time></trkpt><trkpt lat="41.867315" lon="15.6401383"><ele>235.0</ele><time>2026-04-10T15:55:45.183Z</time></trkpt><trkpt lat="41.8672083" lon="15.6400783"><ele>235.0</ele><time>2026-04-10T15:55:46.187Z</time></trkpt><trkpt lat="41.8671067" lon="15.6399983"><ele>235.0</ele><time>2026-04-10T15:55:47.188Z</time></trkpt><trkpt lat="41.8670033" lon="15.6398967"><ele>235.0</ele><time>2026-04-10T15:55:48.197Z</time></trkpt><trkpt lat="41.8668983" lon="15.6397833"><ele>235.0</ele><time>2026-04-10T15:55:49.179Z</time></trkpt><trkpt lat="41.8667933" lon="15.63966"><ele>236.0</ele><time>2026-04-10T15:55:50.186Z</time></trkpt><trkpt lat="41.86669" lon="15.639525"><ele>237.0</ele><time>2026-04-10T15:55:51.192Z</time></trkpt><trkpt lat="41.866595" lon="15.639385"><ele>238.0</ele><time>2026-04-10T15:55:52.181Z</time></trkpt><trkpt lat="41.8665133" lon="15.6392283"><ele>239.0</ele><time>2026-04-10T15:55:53.179Z</time></trkpt><trkpt lat="41.8664467" lon="15.6390532"><ele>239.0</ele><time>2026-04-10T15:55:54.187Z</time></trkpt><trkpt lat="41.8663986" lon="15.6388775"><ele>239.0</ele><time>2026-04-10T15:55:55.183Z</time></trkpt><trkpt lat="41.8663685" lon="15.6387024"><ele>239.0</ele><time>2026-04-10T15:55:56.188Z</time></trkpt><trkpt lat="41.866362" lon="15.6385206"><ele>239.0</ele><time>2026-04-10T15:55:57.181Z</time></trkpt><trkpt lat="41.8663784" lon="15.6383319"><ele>239.0</ele><time>2026-04-10T15:55:58.178Z</time></trkpt><trkpt lat="41.8664136" lon="15.6381371"><ele>239.0</ele><time>2026-04-10T15:55:59.178Z</time></trkpt><trkpt lat="41.8664548" lon="15.637935"><ele>239.0</ele><time>2026-04-10T15:56:00.183Z</time></trkpt><trkpt lat="41.8664844" lon="15.637722"><ele>238.66666666666669</ele><time>2026-04-10T15:56:01.184Z</time></trkpt><trkpt lat="41.8665035" lon="15.6374982"><ele>238.33333333333331</ele><time>2026-04-10T15:56:02.194Z</time></trkpt><trkpt lat="41.8665094" lon="15.6372665"><ele>238.0</ele><time>2026-04-10T15:56:03.189Z</time></trkpt><trkpt lat="41.866497" lon="15.6370314"><ele>237.66666666666666</ele><time>2026-04-10T15:56:04.19Z</time></trkpt><trkpt lat="41.8664738" lon="15.636809"><ele>237.33333333333331</ele><time>2026-04-10T15:56:05.191Z</time></trkpt><trkpt lat="41.8664456" lon="15.636608"><ele>237.0</ele><time>2026-04-10T15:56:06.194Z</time></trkpt><trkpt lat="41.8664146" lon="15.636435"><ele>237.0</ele><time>2026-04-10T15:56:07.191Z</time></trkpt><trkpt lat="41.8663772" lon="15.636292"><ele>237.0</ele><time>2026-04-10T15:56:08.192Z</time></trkpt><trkpt lat="41.8663246" lon="15.6361872"><ele>237.0</ele><time>2026-04-10T15:56:09.178Z</time></trkpt><trkpt lat="41.8662498" lon="15.6361079"><ele>237.0</ele><time>2026-04-10T15:56:10.182Z</time></trkpt><trkpt lat="41.8661468" lon="15.6360446"><ele>237.0</ele><time>2026-04-10T15:56:11.18Z</time></trkpt><trkpt lat="41.8660197" lon="15.6359883"><ele>238.25</ele><time>2026-04-10T15:56:12.178Z</time></trkpt><trkpt lat="41.8658826" lon="15.6359332"><ele>239.5</ele><time>2026-04-10T15:56:13.177Z</time></trkpt><trkpt lat="41.8657476" lon="15.635871"><ele>240.75</ele><time>2026-04-10T15:56:14.188Z</time></trkpt><trkpt lat="41.8656331" lon="15.6357916"><ele>242.0</ele><time>2026-04-10T15:56:15.18Z</time></trkpt><trkpt lat="41.8655396" lon="15.6356895"><ele>242.0</ele><time>2026-04-10T15:56:16.182Z</time></trkpt><trkpt lat="41.8654665" lon="15.6355629"><ele>242.0</ele><time>2026-04-10T15:56:17.179Z</time></trkpt><trkpt lat="41.8654064" lon="15.6354224"><ele>242.0</ele><time>2026-04-10T15:56:18.18Z</time></trkpt><trkpt lat="41.8653509" lon="15.6352881"><ele>242.0</ele><time>2026-04-10T15:56:19.179Z</time></trkpt><trkpt lat="41.8652846" lon="15.6351744"><ele>242.5</ele><time>2026-04-10T15:56:20.18Z</time></trkpt><trkpt lat="41.865197" lon="15.635086"><ele>243.0</ele><time>2026-04-10T15:56:21.179Z</time></trkpt><trkpt lat="41.8650861" lon="15.6350188"><ele>243.5</ele><time>2026-04-10T15:56:22.181Z</time></trkpt><trkpt lat="41.8649567" lon="15.6349583"><ele>244.0</ele><time>2026-04-10T15:56:23.189Z</time></trkpt><trkpt lat="41.8648184" lon="15.6348975"><ele>244.0</ele><time>2026-04-10T15:56:24.18Z</time></trkpt><trkpt lat="41.8646707" lon="15.634829"><ele>244.0</ele><time>2026-04-10T15:56:25.178Z</time></trkpt><trkpt lat="41.86451" lon="15.6347591"><ele>244.0</ele><time>2026-04-10T15:56:26.18Z</time></trkpt><trkpt lat="41.864335" lon="15.6346883"><ele>242.0</ele><time>2026-04-10T15:56:27.179Z</time></trkpt><trkpt lat="41.8641667" lon="15.6346167"><ele>240.0</ele><time>2026-04-10T15:56:28.183Z</time></trkpt><trkpt lat="41.8640033" lon="15.6345467"><ele>238.0</ele><time>2026-04-10T15:56:29.177Z</time></trkpt><trkpt lat="41.8638417" lon="15.63447"><ele>238.0</ele><time>2026-04-10T15:56:30.178Z</time></trkpt><trkpt lat="41.86368" lon="15.6343983"><ele>238.0</ele><time>2026-04-10T15:56:31.184Z</time></trkpt><trkpt lat="41.8635183" lon="15.6343317"><ele>238.0</ele><time>2026-04-10T15:56:32.182Z</time></trkpt><trkpt lat="41.86337" lon="15.6342617"><ele>240.66666666666666</ele><time>2026-04-10T15:56:33.178Z</time></trkpt><trkpt lat="41.8632317" lon="15.6341833"><ele>243.33333333333331</ele><time>2026-04-10T15:56:34.18Z</time></trkpt><trkpt lat="41.8630967" lon="15.6340933"><ele>246.0</ele><time>2026-04-10T15:56:35.178Z</time></trkpt><trkpt lat="41.862965" lon="15.6339817"><ele>246.0</ele><time>2026-04-10T15:56:36.178Z</time></trkpt><trkpt lat="41.8628333" lon="15.63386"><ele>246.0</ele><time>2026-04-10T15:56:37.179Z</time></trkpt><trkpt lat="41.862695" lon="15.6337317"><ele>246.0</ele><time>2026-04-10T15:56:38.179Z</time></trkpt><trkpt lat="41.86255" lon="15.633605"><ele>245.66666666666669</ele><time>2026-04-10T15:56:39.179Z</time></trkpt><trkpt lat="41.8624017" lon="15.6334783"><ele>245.33333333333334</ele><time>2026-04-10T15:56:40.179Z</time></trkpt><trkpt lat="41.8622617" lon="15.6333483"><ele>245.0</ele><time>2026-04-10T15:56:41.191Z</time></trkpt><trkpt lat="41.862125" lon="15.633215"><ele>245.0</ele><time>2026-04-10T15:56:42.189Z</time></trkpt><trkpt lat="41.8619933" lon="15.63308"><ele>245.0</ele><time>2026-04-10T15:56:43.179Z</time></trkpt><trkpt lat="41.8618683" lon="15.6329383"><ele>245.0</ele><time>2026-04-10T15:56:44.195Z</time></trkpt><trkpt lat="41.8617583" lon="15.6327933"><ele>245.5</ele><time>2026-04-10T15:56:45.192Z</time></trkpt><trkpt lat="41.8616517" lon="15.6326583"><ele>246.0</ele><time>2026-04-10T15:56:46.19Z</time></trkpt><trkpt lat="41.86155" lon="15.6325383"><ele>246.5</ele><time>2026-04-10T15:56:47.189Z</time></trkpt><trkpt lat="41.8614483" lon="15.6324417"><ele>247.0</ele><time>2026-04-10T15:56:48.18Z</time></trkpt><trkpt lat="41.8613383" lon="15.632365"><ele>247.0</ele><time>2026-04-10T15:56:49.182Z</time></trkpt><trkpt lat="41.8612133" lon="15.6323033"><ele>247.0</ele><time>2026-04-10T15:56:50.191Z</time></trkpt><trkpt lat="41.861075" lon="15.6322433"><ele>247.0</ele><time>2026-04-10T15:56:51.186Z</time></trkpt><trkpt lat="41.8609317" lon="15.63217"><ele>247.0</ele><time>2026-04-10T15:56:52.183Z</time></trkpt><trkpt lat="41.8607867" lon="15.632085"><ele>246.66666666666666</ele><time>2026-04-10T15:56:53.183Z</time></trkpt><trkpt lat="41.8606483" lon="15.6319917"><ele>246.33333333333331</ele><time>2026-04-10T15:56:54.179Z</time></trkpt><trkpt lat="41.8605133" lon="15.6318833"><ele>246.0</ele><time>2026-04-10T15:56:55.182Z</time></trkpt><trkpt lat="41.86038" lon="15.6317583"><ele>246.0</ele><time>2026-04-10T15:56:56.18Z</time></trkpt><trkpt lat="41.8602467" lon="15.6316183"><ele>246.0</ele><time>2026-04-10T15:56:57.183Z</time></trkpt><trkpt lat="41.8601117" lon="15.6314767"><ele>246.0</ele><time>2026-04-10T15:56:58.187Z</time></trkpt><trkpt lat="41.859975" lon="15.6313283"><ele>246.66666666666669</ele><time>2026-04-10T15:56:59.181Z</time></trkpt><trkpt lat="41.8598317" lon="15.6311717"><ele>247.33333333333334</ele><time>2026-04-10T15:57:00.189Z</time></trkpt><trkpt lat="41.8596883" lon="15.6310083"><ele>248.0</ele><time>2026-04-10T15:57:01.185Z</time></trkpt><trkpt lat="41.8595467" lon="15.6308467"><ele>248.0</ele><time>2026-04-10T15:57:02.186Z</time></trkpt><trkpt lat="41.8594083" lon="15.6306917"><ele>248.0</ele><time>2026-04-10T15:57:03.184Z</time></trkpt><trkpt lat="41.85928" lon="15.6305367"><ele>248.0</ele><time>2026-04-10T15:57:04.191Z</time></trkpt><trkpt lat="41.8591583" lon="15.630375"><ele>249.33333333333334</ele><time>2026-04-10T15:57:05.182Z</time></trkpt><trkpt lat="41.8590517" lon="15.6302167"><ele>250.66666666666669</ele><time>2026-04-10T15:57:06.18Z</time></trkpt><trkpt lat="41.8589583" lon="15.6300583"><ele>252.0</ele><time>2026-04-10T15:57:07.189Z</time></trkpt><trkpt lat="41.8588833" lon="15.629895"><ele>252.0</ele><time>2026-04-10T15:57:08.19Z</time></trkpt><trkpt lat="41.858825" lon="15.629715"><ele>252.0</ele><time>2026-04-10T15:57:09.184Z</time></trkpt><trkpt lat="41.8587767" lon="15.6295217"><ele>252.0</ele><time>2026-04-10T15:57:10.185Z</time></trkpt><trkpt lat="41.858735" lon="15.6293117"><ele>250.66666666666669</ele><time>2026-04-10T15:57:11.182Z</time></trkpt><trkpt lat="41.858695" lon="15.6290933"><ele>249.33333333333334</ele><time>2026-04-10T15:57:12.187Z</time></trkpt><trkpt lat="41.8586583" lon="15.6288767"><ele>248.0</ele><time>2026-04-10T15:57:13.183Z</time></trkpt><trkpt lat="41.8586183" lon="15.6286767"><ele>246.75</ele><time>2026-04-10T15:57:14.185Z</time></trkpt><trkpt lat="41.8585683" lon="15.6284983"><ele>245.5</ele><time>2026-04-10T15:57:15.194Z</time></trkpt><trkpt lat="41.8584967" lon="15.6283433"><ele>244.25</ele><time>2026-04-10T15:57:16.19Z</time></trkpt><trkpt lat="41.8584067" lon="15.6282117"><ele>243.0</ele><time>2026-04-10T15:57:17.186Z</time></trkpt><trkpt lat="41.8583017" lon="15.628095"><ele>246.5</ele><time>2026-04-10T15:57:18.185Z</time></trkpt><trkpt lat="41.8581833" lon="15.6280033"><ele>250.0</ele><time>2026-04-10T15:57:19.182Z</time></trkpt><trkpt lat="41.8580567" lon="15.6279417"><ele>253.5</ele><time>2026-04-10T15:57:20.186Z</time></trkpt><trkpt lat="41.8579167" lon="15.6279083"><ele>257.0</ele><time>2026-04-10T15:57:21.184Z</time></trkpt><trkpt lat="41.857765" lon="15.62788"><ele>259.33333333333337</ele><time>2026-04-10T15:57:22.183Z</time></trkpt><trkpt lat="41.857605" lon="15.62786"><ele>261.6666666666667</ele><time>2026-04-10T15:57:23.181Z</time></trkpt><trkpt lat="41.8574433" lon="15.6278633"><ele>264.0</ele><time>2026-04-10T15:57:24.185Z</time></trkpt><trkpt lat="41.857295" lon="15.6278817"><ele>264.0</ele><time>2026-04-10T15:57:25.187Z</time></trkpt><trkpt lat="41.8571583" lon="15.6278983"><ele>264.0</ele><time>2026-04-10T15:57:26.183Z</time></trkpt><trkpt lat="41.857025" lon="15.6278983"><ele>264.0</ele><time>2026-04-10T15:57:27.179Z</time></trkpt><trkpt lat="41.8568933" lon="15.6278633"><ele>264.0</ele><time>2026-04-10T15:57:28.187Z</time></trkpt><trkpt lat="41.8567617" lon="15.627805"><ele>261.3333333333333</ele><time>2026-04-10T15:57:29.18Z</time></trkpt><trkpt lat="41.8566217" lon="15.6277333"><ele>258.66666666666663</ele><time>2026-04-10T15:57:30.185Z</time></trkpt><trkpt lat="41.8564733" lon="15.6276583"><ele>256.0</ele><time>2026-04-10T15:57:31.187Z</time></trkpt><trkpt lat="41.8563217" lon="15.6275767"><ele>256.0</ele><time>2026-04-10T15:57:32.181Z</time></trkpt><trkpt lat="41.8561683" lon="15.6274867"><ele>256.0</ele><time>2026-04-10T15:57:33.181Z</time></trkpt><trkpt lat="41.85602" lon="15.627385"><ele>256.0</ele><time>2026-04-10T15:57:34.184Z</time></trkpt><trkpt lat="41.8558767" lon="15.6272733"><ele>256.0</ele><time>2026-04-10T15:57:35.187Z</time></trkpt><trkpt lat="41.8557333" lon="15.6271517"><ele>256.0</ele><time>2026-04-10T15:57:36.194Z</time></trkpt><trkpt lat="41.85559" lon="15.6270183"><ele>256.0</ele><time>2026-04-10T15:57:37.19Z</time></trkpt><trkpt lat="41.855435" lon="15.6268767"><ele>256.0</ele><time>2026-04-10T15:57:38.192Z</time></trkpt><trkpt lat="41.85528" lon="15.626735"><ele>256.0</ele><time>2026-04-10T15:57:39.181Z</time></trkpt><trkpt lat="41.855135" lon="15.6265967"><ele>256.0</ele><time>2026-04-10T15:57:40.188Z</time></trkpt><trkpt lat="41.8549933" lon="15.6264617"><ele>255.66666666666666</ele><time>2026-04-10T15:57:41.181Z</time></trkpt><trkpt lat="41.8548433" lon="15.6263233"><ele>255.33333333333331</ele><time>2026-04-10T15:57:42.183Z</time></trkpt><trkpt lat="41.85469" lon="15.6261767"><ele>255.0</ele><time>2026-04-10T15:57:43.179Z</time></trkpt><trkpt lat="41.8545417" lon="15.6260367"><ele>255.0</ele><time>2026-04-10T15:57:44.193Z</time></trkpt><trkpt lat="41.8544067" lon="15.6259033"><ele>255.0</ele><time>2026-04-10T15:57:45.189Z</time></trkpt><trkpt lat="41.8542883" lon="15.6257617"><ele>255.0</ele><time>2026-04-10T15:57:46.187Z</time></trkpt><trkpt lat="41.854185" lon="15.6256033"><ele>256.3333333333333</ele><time>2026-04-10T15:57:47.181Z</time></trkpt><trkpt lat="41.8540883" lon="15.6254317"><ele>257.66666666666663</ele><time>2026-04-10T15:57:48.18Z</time></trkpt><trkpt lat="41.8539867" lon="15.62525"><ele>259.0</ele><time>2026-04-10T15:57:49.19Z</time></trkpt><trkpt lat="41.8538733" lon="15.62506"><ele>259.0</ele><time>2026-04-10T15:57:50.189Z</time></trkpt><trkpt lat="41.8537583" lon="15.6248567"><ele>259.0</ele><time>2026-04-10T15:57:51.182Z</time></trkpt><trkpt lat="41.8536433" lon="15.6246533"><ele>259.0</ele><time>2026-04-10T15:57:52.184Z</time></trkpt><trkpt lat="41.8535267" lon="15.6244517"><ele>260.66666666666663</ele><time>2026-04-10T15:57:53.186Z</time></trkpt><trkpt lat="41.8534067" lon="15.6242467"><ele>262.3333333333333</ele><time>2026-04-10T15:57:54.185Z</time></trkpt><trkpt lat="41.8532817" lon="15.624035"><ele>264.0</ele><time>2026-04-10T15:57:55.195Z</time></trkpt><trkpt lat="41.8531567" lon="15.6238233"><ele>261.3333333333333</ele><time>2026-04-10T15:57:56.195Z</time></trkpt><trkpt lat="41.85303" lon="15.623615"><ele>258.66666666666663</ele><time>2026-04-10T15:57:57.188Z</time></trkpt><trkpt lat="41.8529033" lon="15.6234133"><ele>256.0</ele><time>2026-04-10T15:57:58.187Z</time></trkpt><trkpt lat="41.8527683" lon="15.62322"><ele>256.0</ele><time>2026-04-10T15:57:59.193Z</time></trkpt><trkpt lat="41.85263" lon="15.6230233"><ele>256.0</ele><time>2026-04-10T15:58:00.186Z</time></trkpt><trkpt lat="41.85249" lon="15.6228317"><ele>256.0</ele><time>2026-04-10T15:58:01.188Z</time></trkpt><trkpt lat="41.8523583" lon="15.6226483"><ele>258.66666666666663</ele><time>2026-04-10T15:58:02.189Z</time></trkpt><trkpt lat="41.8522317" lon="15.6224733"><ele>261.3333333333333</ele><time>2026-04-10T15:58:03.181Z</time></trkpt><trkpt lat="41.8521083" lon="15.6223017"><ele>264.0</ele><time>2026-04-10T15:58:04.183Z</time></trkpt><trkpt lat="41.85199" lon="15.622135"><ele>265.6666666666667</ele><time>2026-04-10T15:58:05.188Z</time></trkpt><trkpt lat="41.8518783" lon="15.6219783"><ele>267.33333333333337</ele><time>2026-04-10T15:58:06.181Z</time></trkpt><trkpt lat="41.8517717" lon="15.62183"><ele>269.0</ele><time>2026-04-10T15:58:07.181Z</time></trkpt><trkpt lat="41.8516717" lon="15.62169"><ele>269.0</ele><time>2026-04-10T15:58:08.195Z</time></trkpt><trkpt lat="41.8515767" lon="15.62156"><ele>269.0</ele><time>2026-04-10T15:58:09.188Z</time></trkpt><trkpt lat="41.8514817" lon="15.621435"><ele>269.0</ele><time>2026-04-10T15:58:10.186Z</time></trkpt><trkpt lat="41.8513817" lon="15.6213167"><ele>269.0</ele><time>2026-04-10T15:58:11.194Z</time></trkpt><trkpt lat="41.8512683" lon="15.621205"><ele>269.5</ele><time>2026-04-10T15:58:12.179Z</time></trkpt><trkpt lat="41.85115" lon="15.621095"><ele>270.0</ele><time>2026-04-10T15:58:13.18Z</time></trkpt><trkpt lat="41.85103" lon="15.6209817"><ele>270.5</ele><time>2026-04-10T15:58:14.182Z</time></trkpt><trkpt lat="41.8509117" lon="15.6208717"><ele>271.0</ele><time>2026-04-10T15:58:15.186Z</time></trkpt><trkpt lat="41.8507967" lon="15.6207683"><ele>271.0</ele><time>2026-04-10T15:58:16.181Z</time></trkpt><trkpt lat="41.85068" lon="15.6206683"><ele>271.0</ele><time>2026-04-10T15:58:17.18Z</time></trkpt><trkpt lat="41.8505683" lon="15.6205633"><ele>271.0</ele><time>2026-04-10T15:58:18.19Z</time></trkpt><trkpt lat="41.8504567" lon="15.6204417"><ele>271.0</ele><time>2026-04-10T15:58:19.187Z</time></trkpt><trkpt lat="41.8503467" lon="15.6203017"><ele>270.5</ele><time>2026-04-10T15:58:20.18Z</time></trkpt><trkpt lat="41.8502367" lon="15.620155"><ele>270.0</ele><time>2026-04-10T15:58:21.186Z</time></trkpt><trkpt lat="41.8501317" lon="15.6200167"><ele>269.5</ele><time>2026-04-10T15:58:22.179Z</time></trkpt><trkpt lat="41.8500333" lon="15.6199083"><ele>269.0</ele><time>2026-04-10T15:58:23.186Z</time></trkpt><trkpt lat="41.8499417" lon="15.6198383"><ele>269.0</ele><time>2026-04-10T15:58:24.182Z</time></trkpt><trkpt lat="41.849845" lon="15.6198117"><ele>269.0</ele><time>2026-04-10T15:58:25.181Z</time></trkpt><trkpt lat="41.8497433" lon="15.6198183"><ele>269.0</ele><time>2026-04-10T15:58:26.177Z</time></trkpt><trkpt lat="41.8496417" lon="15.6198517"><ele>269.0</ele><time>2026-04-10T15:58:27.189Z</time></trkpt><trkpt lat="41.8495417" lon="15.619875"><ele>269.0</ele><time>2026-04-10T15:58:28.18Z</time></trkpt><trkpt lat="41.8494467" lon="15.6198583"><ele>269.0</ele><time>2026-04-10T15:58:29.183Z</time></trkpt><trkpt lat="41.8493617" lon="15.6198"><ele>269.0</ele><time>2026-04-10T15:58:30.177Z</time></trkpt><trkpt lat="41.8492883" lon="15.6197067"><ele>269.0</ele><time>2026-04-10T15:58:31.185Z</time></trkpt><trkpt lat="41.8492417" lon="15.61959"><ele>269.0</ele><time>2026-04-10T15:58:32.181Z</time></trkpt><trkpt lat="41.8492317" lon="15.6194533"><ele>269.0</ele><time>2026-04-10T15:58:33.179Z</time></trkpt><trkpt lat="41.8492433" lon="15.6193"><ele>270.25</ele><time>2026-04-10T15:58:34.191Z</time></trkpt><trkpt lat="41.8492617" lon="15.6191267"><ele>271.5</ele><time>2026-04-10T15:58:35.187Z</time></trkpt><trkpt lat="41.8492767" lon="15.6189267"><ele>272.75</ele><time>2026-04-10T15:58:36.19Z</time></trkpt><trkpt lat="41.8492867" lon="15.6187017"><ele>274.0</ele><time>2026-04-10T15:58:37.181Z</time></trkpt><trkpt lat="41.849295" lon="15.6184783"><ele>271.0</ele><time>2026-04-10T15:58:38.199Z</time></trkpt><trkpt lat="41.8493" lon="15.6182733"><ele>268.0</ele><time>2026-04-10T15:58:39.187Z</time></trkpt><trkpt lat="41.8493067" lon="15.618075"><ele>265.0</ele><time>2026-04-10T15:58:40.186Z</time></trkpt><trkpt lat="41.8493117" lon="15.6178833"><ele>262.0</ele><time>2026-04-10T15:58:41.184Z</time></trkpt><trkpt lat="41.8493167" lon="15.6177"><ele>261.4</ele><time>2026-04-10T15:58:42.184Z</time></trkpt><trkpt lat="41.8493167" lon="15.6175367"><ele>260.79999999999995</ele><time>2026-04-10T15:58:43.182Z</time></trkpt><trkpt lat="41.8493033" lon="15.6174"><ele>260.2</ele><time>2026-04-10T15:58:44.178Z</time></trkpt><trkpt lat="41.8492667" lon="15.6172867"><ele>259.59999999999997</ele><time>2026-04-10T15:58:45.185Z</time></trkpt><trkpt lat="41.8492067" lon="15.6171883"><ele>259.0</ele><time>2026-04-10T15:58:46.179Z</time></trkpt><trkpt lat="41.8491267" lon="15.6171033"><ele>260.0</ele><time>2026-04-10T15:58:47.183Z</time></trkpt><trkpt lat="41.8490317" lon="15.61703"><ele>261.0</ele><time>2026-04-10T15:58:48.192Z</time></trkpt><trkpt lat="41.848935" lon="15.61694"><ele>262.0</ele><time>2026-04-10T15:58:49.181Z</time></trkpt><trkpt lat="41.8488417" lon="15.6168233"><ele>263.0</ele><time>2026-04-10T15:58:50.18Z</time></trkpt><trkpt lat="41.84876" lon="15.6166717"><ele>263.0</ele><time>2026-04-10T15:58:51.182Z</time></trkpt><trkpt lat="41.8486867" lon="15.616495"><ele>263.0</ele><time>2026-04-10T15:58:52.189Z</time></trkpt><trkpt lat="41.8486167" lon="15.6163233"><ele>263.0</ele><time>2026-04-10T15:58:53.192Z</time></trkpt><trkpt lat="41.848545" lon="15.61616"><ele>263.0</ele><time>2026-04-10T15:58:54.182Z</time></trkpt><trkpt lat="41.8484617" lon="15.6160033"><ele>264.6666666666667</ele><time>2026-04-10T15:58:55.186Z</time></trkpt><trkpt lat="41.8483567" lon="15.6158417"><ele>266.3333333333333</ele><time>2026-04-10T15:58:56.179Z</time></trkpt><trkpt lat="41.8482383" lon="15.6156733"><ele>268.0</ele><time>2026-04-10T15:58:57.187Z</time></trkpt><trkpt lat="41.8481233" lon="15.61551"><ele>268.0</ele><time>2026-04-10T15:58:58.185Z</time></trkpt><trkpt lat="41.8480133" lon="15.6153517"><ele>268.0</ele><time>2026-04-10T15:58:59.189Z</time></trkpt><trkpt lat="41.8479033" lon="15.6151933"><ele>268.0</ele><time>2026-04-10T15:59:00.192Z</time></trkpt><trkpt lat="41.8478033" lon="15.6150417"><ele>268.25</ele><time>2026-04-10T15:59:01.184Z</time></trkpt><trkpt lat="41.8477067" lon="15.6148983"><ele>268.5</ele><time>2026-04-10T15:59:02.181Z</time></trkpt><trkpt lat="41.84763" lon="15.6147517"><ele>268.75</ele><time>2026-04-10T15:59:03.181Z</time></trkpt><trkpt lat="41.8475733" lon="15.6145983"><ele>269.0</ele><time>2026-04-10T15:59:04.194Z</time></trkpt><trkpt lat="41.847545" lon="15.6144317"><ele>269.0</ele><time>2026-04-10T15:59:05.178Z</time></trkpt><trkpt lat="41.847535" lon="15.6142517"><ele>269.0</ele><time>2026-04-10T15:59:06.183Z</time></trkpt><trkpt lat="41.847525" lon="15.614065"><ele>269.0</ele><time>2026-04-10T15:59:07.193Z</time></trkpt><trkpt lat="41.8475017" lon="15.6138717"><ele>269.0</ele><time>2026-04-10T15:59:08.178Z</time></trkpt><trkpt lat="41.8474567" lon="15.6136617"><ele>267.6666666666667</ele><time>2026-04-10T15:59:09.189Z</time></trkpt><trkpt lat="41.8474017" lon="15.6134367"><ele>266.3333333333333</ele><time>2026-04-10T15:59:10.187Z</time></trkpt><trkpt lat="41.8473383" lon="15.6131967"><ele>265.0</ele><time>2026-04-10T15:59:11.181Z</time></trkpt><trkpt lat="41.847275" lon="15.6129483"><ele>263.3333333333333</ele><time>2026-04-10T15:59:12.179Z</time></trkpt><trkpt lat="41.8472083" lon="15.61269"><ele>261.6666666666667</ele><time>2026-04-10T15:59:13.187Z</time></trkpt><trkpt lat="41.8471383" lon="15.6124183"><ele>260.0</ele><time>2026-04-10T15:59:14.186Z</time></trkpt><trkpt lat="41.8470667" lon="15.6121383"><ele>258.33333333333337</ele><time>2026-04-10T15:59:15.18Z</time></trkpt><trkpt lat="41.8469967" lon="15.6118567"><ele>256.6666666666667</ele><time>2026-04-10T15:59:16.182Z</time></trkpt><trkpt lat="41.84693" lon="15.6115817"><ele>255.0</ele><time>2026-04-10T15:59:17.181Z</time></trkpt><trkpt lat="41.846865" lon="15.6113117"><ele>253.33333333333331</ele><time>2026-04-10T15:59:18.189Z</time></trkpt><trkpt lat="41.8467967" lon="15.6110433"><ele>251.66666666666666</ele><time>2026-04-10T15:59:19.185Z</time></trkpt><trkpt lat="41.8467283" lon="15.6107683"><ele>250.0</ele><time>2026-04-10T15:59:20.185Z</time></trkpt><trkpt lat="41.846665" lon="15.6104917"><ele>255.33333333333331</ele><time>2026-04-10T15:59:21.185Z</time></trkpt><trkpt lat="41.8466067" lon="15.610215"><ele>260.6666666666667</ele><time>2026-04-10T15:59:22.194Z</time></trkpt><trkpt lat="41.84655" lon="15.6099383"><ele>266.0</ele><time>2026-04-10T15:59:23.181Z</time></trkpt><trkpt lat="41.8464967" lon="15.6096683"><ele>264.33333333333337</ele><time>2026-04-10T15:59:24.188Z</time></trkpt><trkpt lat="41.8464467" lon="15.60941"><ele>262.6666666666667</ele><time>2026-04-10T15:59:25.187Z</time></trkpt><trkpt lat="41.8463983" lon="15.6091633"><ele>261.0</ele><time>2026-04-10T15:59:26.183Z</time></trkpt><trkpt lat="41.8463533" lon="15.608915"><ele>261.0</ele><time>2026-04-10T15:59:27.187Z</time></trkpt><trkpt lat="41.8463033" lon="15.6086683"><ele>261.0</ele><time>2026-04-10T15:59:28.18Z</time></trkpt><trkpt lat="41.846245" lon="15.6084167"><ele>261.0</ele><time>2026-04-10T15:59:29.181Z</time></trkpt><trkpt lat="41.846175" lon="15.6081633"><ele>259.3333333333333</ele><time>2026-04-10T15:59:30.182Z</time></trkpt><trkpt lat="41.8461" lon="15.607905"><ele>257.66666666666663</ele><time>2026-04-10T15:59:31.192Z</time></trkpt><trkpt lat="41.846025" lon="15.6076433"><ele>256.0</ele><time>2026-04-10T15:59:32.181Z</time></trkpt><trkpt lat="41.8459533" lon="15.6073867"><ele>259.0</ele><time>2026-04-10T15:59:33.181Z</time></trkpt><trkpt lat="41.845885" lon="15.6071383"><ele>262.0</ele><time>2026-04-10T15:59:34.189Z</time></trkpt><trkpt lat="41.8458183" lon="15.6068933"><ele>265.0</ele><time>2026-04-10T15:59:35.184Z</time></trkpt><trkpt lat="41.845745" lon="15.6066467"><ele>265.0</ele><time>2026-04-10T15:59:36.182Z</time></trkpt><trkpt lat="41.8456633" lon="15.6064017"><ele>265.0</ele><time>2026-04-10T15:59:37.183Z</time></trkpt><trkpt lat="41.84557" lon="15.606165"><ele>265.0</ele><time>2026-04-10T15:59:38.191Z</time></trkpt><trkpt lat="41.8454733" lon="15.60593"><ele>263.3333333333333</ele><time>2026-04-10T15:59:39.182Z</time></trkpt><trkpt lat="41.8453817" lon="15.6057"><ele>261.6666666666667</ele><time>2026-04-10T15:59:40.187Z</time></trkpt><trkpt lat="41.8453067" lon="15.6054733"><ele>260.0</ele><time>2026-04-10T15:59:41.193Z</time></trkpt><trkpt lat="41.8452367" lon="15.605245"><ele>259.0</ele><time>2026-04-10T15:59:42.186Z</time></trkpt><trkpt lat="41.8451667" lon="15.6050167"><ele>258.0</ele><time>2026-04-10T15:59:43.182Z</time></trkpt><trkpt lat="41.8450917" lon="15.6047917"><ele>257.0</ele><time>2026-04-10T15:59:44.185Z</time></trkpt><trkpt lat="41.8450067" lon="15.60457"><ele>259.6666666666667</ele><time>2026-04-10T15:59:45.192Z</time></trkpt><trkpt lat="41.844915" lon="15.6043383"><ele>262.3333333333333</ele><time>2026-04-10T15:59:46.19Z</time></trkpt><trkpt lat="41.8448233" lon="15.60409"><ele>265.0</ele><time>2026-04-10T15:59:47.184Z</time></trkpt><trkpt lat="41.8447417" lon="15.6038233"><ele>263.5</ele><time>2026-04-10T15:59:48.189Z</time></trkpt><trkpt lat="41.8446617" lon="15.603545"><ele>262.0</ele><time>2026-04-10T15:59:49.188Z</time></trkpt><trkpt lat="41.8445767" lon="15.6032617"><ele>262.0</ele><time>2026-04-10T15:59:50.188Z</time></trkpt><trkpt lat="41.84449" lon="15.6029633"><ele>262.0</ele><time>2026-04-10T15:59:51.185Z</time></trkpt><trkpt lat="41.8443983" lon="15.6026583"><ele>261.0</ele><time>2026-04-10T15:59:52.185Z</time></trkpt><trkpt lat="41.8443017" lon="15.6023533"><ele>260.0</ele><time>2026-04-10T15:59:53.183Z</time></trkpt><trkpt lat="41.8442033" lon="15.6020483"><ele>262.5</ele><time>2026-04-10T15:59:54.19Z</time></trkpt><trkpt lat="41.8440983" lon="15.6017533"><ele>265.0</ele><time>2026-04-10T15:59:55.187Z</time></trkpt><trkpt lat="41.8439933" lon="15.6014733"><ele>265.0</ele><time>2026-04-10T15:59:56.193Z</time></trkpt><trkpt lat="41.8438883" lon="15.6012033"><ele>265.0</ele><time>2026-04-10T15:59:57.183Z</time></trkpt><trkpt lat="41.8437833" lon="15.600935"><ele>262.66666666666663</ele><time>2026-04-10T15:59:58.186Z</time></trkpt><trkpt lat="41.8436833" lon="15.6006667"><ele>260.3333333333333</ele><time>2026-04-10T15:59:59.178Z</time></trkpt><trkpt lat="41.8435983" lon="15.600405"><ele>258.0</ele><time>2026-04-10T16:00:00.195Z</time></trkpt><trkpt lat="41.8435283" lon="15.6001533"><ele>256.3333333333333</ele><time>2026-04-10T16:00:01.187Z</time></trkpt><trkpt lat="41.843465" lon="15.5999133"><ele>254.66666666666666</ele><time>2026-04-10T16:00:02.189Z</time></trkpt><trkpt lat="41.8434117" lon="15.5996833"><ele>253.0</ele><time>2026-04-10T16:00:03.183Z</time></trkpt><trkpt lat="41.843365" lon="15.59947"><ele>256.3333333333333</ele><time>2026-04-10T16:00:04.18Z</time></trkpt><trkpt lat="41.84332" lon="15.5992733"><ele>259.6666666666667</ele><time>2026-04-10T16:00:05.188Z</time></trkpt><trkpt lat="41.843255" lon="15.5990917"><ele>263.0</ele><time>2026-04-10T16:00:06.184Z</time></trkpt><trkpt lat="41.8431717" lon="15.5989183"><ele>263.0</ele><time>2026-04-10T16:00:07.182Z</time></trkpt><trkpt lat="41.8430783" lon="15.59874"><ele>263.0</ele><time>2026-04-10T16:00:08.183Z</time></trkpt><trkpt lat="41.8429883" lon="15.5985533"><ele>263.0</ele><time>2026-04-10T16:00:09.184Z</time></trkpt><trkpt lat="41.8429083" lon="15.5983667"><ele>260.33333333333337</ele><time>2026-04-10T16:00:10.181Z</time></trkpt><trkpt lat="41.842835" lon="15.598185"><ele>257.6666666666667</ele><time>2026-04-10T16:00:11.177Z</time></trkpt><trkpt lat="41.8427683" lon="15.598"><ele>255.0</ele><time>2026-04-10T16:00:12.182Z</time></trkpt><trkpt lat="41.8427083" lon="15.5978"><ele>254.0</ele><time>2026-04-10T16:00:13.189Z</time></trkpt><trkpt lat="41.8426583" lon="15.597595"><ele>253.0</ele><time>2026-04-10T16:00:14.189Z</time></trkpt><trkpt lat="41.8426183" lon="15.597395"><ele>252.0</ele><time>2026-04-10T16:00:15.179Z</time></trkpt><trkpt lat="41.842595" lon="15.5972083"><ele>252.25</ele><time>2026-04-10T16:00:16.189Z</time></trkpt><trkpt lat="41.8426" lon="15.597035"><ele>252.5</ele><time>2026-04-10T16:00:17.182Z</time></trkpt><trkpt lat="41.8426317" lon="15.59687"><ele>252.75</ele><time>2026-04-10T16:00:18.184Z</time></trkpt><trkpt lat="41.842685" lon="15.5967067"><ele>253.0</ele><time>2026-04-10T16:00:19.181Z</time></trkpt><trkpt lat="41.842745" lon="15.5965433"><ele>253.0</ele><time>2026-04-10T16:00:20.19Z</time></trkpt><trkpt lat="41.84279" lon="15.5963867"><ele>253.0</ele><time>2026-04-10T16:00:21.185Z</time></trkpt><trkpt lat="41.84281" lon="15.596255"><ele>253.0</ele><time>2026-04-10T16:00:22.181Z</time></trkpt><trkpt lat="41.842795" lon="15.5961433"><ele>253.0</ele><time>2026-04-10T16:00:23.19Z</time></trkpt><trkpt lat="41.8427567" lon="15.5960467"><ele>253.0</ele><time>2026-04-10T16:00:24.179Z</time></trkpt><trkpt lat="41.8426933" lon="15.595965"><ele>255.25</ele><time>2026-04-10T16:00:25.178Z</time></trkpt><trkpt lat="41.84261" lon="15.5958967"><ele>257.5</ele><time>2026-04-10T16:00:26.191Z</time></trkpt><trkpt lat="41.84249" lon="15.595865"><ele>259.75</ele><time>2026-04-10T16:00:27.184Z</time></trkpt><trkpt lat="41.84236" lon="15.595855"><ele>262.0</ele><time>2026-04-10T16:00:28.184Z</time></trkpt><trkpt lat="41.8422383" lon="15.5958617"><ele>262.0</ele><time>2026-04-10T16:00:29.19Z</time></trkpt><trkpt lat="41.842125" lon="15.5958933"><ele>262.0</ele><time>2026-04-10T16:00:30.181Z</time></trkpt><trkpt lat="41.8420117" lon="15.5959467"><ele>262.0</ele><time>2026-04-10T16:00:31.194Z</time></trkpt><trkpt lat="41.841905" lon="15.5960283"><ele>262.0</ele><time>2026-04-10T16:00:32.189Z</time></trkpt><trkpt lat="41.8418133" lon="15.5961217"><ele>264.2</ele><time>2026-04-10T16:00:33.181Z</time></trkpt><trkpt lat="41.8417283" lon="15.5962017"><ele>266.4</ele><time>2026-04-10T16:00:34.186Z</time></trkpt><trkpt lat="41.8416333" lon="15.5962517"><ele>268.6</ele><time>2026-04-10T16:00:35.187Z</time></trkpt><trkpt lat="41.841535" lon="15.5962683"><ele>270.8</ele><time>2026-04-10T16:00:36.188Z</time></trkpt><trkpt lat="41.841445" lon="15.5962483"><ele>273.0</ele><time>2026-04-10T16:00:37.185Z</time></trkpt><trkpt lat="41.8413633" lon="15.5962017"><ele>270.8</ele><time>2026-04-10T16:00:38.188Z</time></trkpt><trkpt lat="41.8413183" lon="15.5960983"><ele>268.6</ele><time>2026-04-10T16:00:39.187Z</time></trkpt><trkpt lat="41.8412867" lon="15.59598"><ele>266.4</ele><time>2026-04-10T16:00:40.179Z</time></trkpt><trkpt lat="41.8412633" lon="15.5958333"><ele>264.2</ele><time>2026-04-10T16:00:41.179Z</time></trkpt><trkpt lat="41.8412183" lon="15.59566"><ele>262.0</ele><time>2026-04-10T16:00:42.18Z</time></trkpt><trkpt lat="41.8411533" lon="15.5954817"><ele>262.5</ele><time>2026-04-10T16:00:43.181Z</time></trkpt><trkpt lat="41.8410783" lon="15.5953117"><ele>263.0</ele><time>2026-04-10T16:00:44.179Z</time></trkpt><trkpt lat="41.8410067" lon="15.5951483"><ele>263.5</ele><time>2026-04-10T16:00:45.18Z</time></trkpt><trkpt lat="41.84095" lon="15.59498"><ele>264.0</ele><time>2026-04-10T16:00:46.18Z</time></trkpt><trkpt lat="41.8409133" lon="15.5948017"><ele>264.0</ele><time>2026-04-10T16:00:47.205Z</time></trkpt><trkpt lat="41.840875" lon="15.5946233"><ele>264.0</ele><time>2026-04-10T16:00:48.191Z</time></trkpt><trkpt lat="41.8408217" lon="15.5944583"><ele>264.0</ele><time>2026-04-10T16:00:49.192Z</time></trkpt><trkpt lat="41.8407517" lon="15.594325"><ele>264.0</ele><time>2026-04-10T16:00:50.183Z</time></trkpt><trkpt lat="41.840665" lon="15.5942233"><ele>262.0</ele><time>2026-04-10T16:00:51.18Z</time></trkpt><trkpt lat="41.8405633" lon="15.5941483"><ele>260.0</ele><time>2026-04-10T16:00:52.183Z</time></trkpt><trkpt lat="41.84044" lon="15.594095"><ele>258.0</ele><time>2026-04-10T16:00:53.186Z</time></trkpt><trkpt lat="41.8403" lon="15.5940483"><ele>256.0</ele><time>2026-04-10T16:00:54.187Z</time></trkpt><trkpt lat="41.8401567" lon="15.594005"><ele>257.25</ele><time>2026-04-10T16:00:55.189Z</time></trkpt><trkpt lat="41.8400167" lon="15.5939667"><ele>258.5</ele><time>2026-04-10T16:00:56.182Z</time></trkpt><trkpt lat="41.839875" lon="15.5939433"><ele>259.75</ele><time>2026-04-10T16:00:57.186Z</time></trkpt><trkpt lat="41.839725" lon="15.5939483"><ele>261.0</ele><time>2026-04-10T16:00:58.181Z</time></trkpt><trkpt lat="41.8395767" lon="15.593965"><ele>261.0</ele><time>2026-04-10T16:00:59.183Z</time></trkpt><trkpt lat="41.8394367" lon="15.593965"><ele>261.0</ele><time>2026-04-10T16:01:00.183Z</time></trkpt><trkpt lat="41.8393" lon="15.593935"><ele>261.0</ele><time>2026-04-10T16:01:01.196Z</time></trkpt><trkpt lat="41.8391667" lon="15.5938783"><ele>261.0</ele><time>2026-04-10T16:01:02.19Z</time></trkpt><trkpt lat="41.83903" lon="15.5938067"><ele>262.0</ele><time>2026-04-10T16:01:03.189Z</time></trkpt><trkpt lat="41.8388767" lon="15.5937283"><ele>263.0</ele><time>2026-04-10T16:01:04.182Z</time></trkpt><trkpt lat="41.8387067" lon="15.59363"><ele>264.0</ele><time>2026-04-10T16:01:05.187Z</time></trkpt><trkpt lat="41.8385233" lon="15.593525"><ele>261.6666666666667</ele><time>2026-04-10T16:01:06.186Z</time></trkpt><trkpt lat="41.8383383" lon="15.5934183"><ele>259.33333333333337</ele><time>2026-04-10T16:01:07.183Z</time></trkpt><trkpt lat="41.8381483" lon="15.5933133"><ele>257.0</ele><time>2026-04-10T16:01:08.184Z</time></trkpt><trkpt lat="41.83795" lon="15.593195"><ele>257.0</ele><time>2026-04-10T16:01:09.179Z</time></trkpt><trkpt lat="41.83774" lon="15.593075"><ele>257.0</ele><time>2026-04-10T16:01:10.181Z</time></trkpt><trkpt lat="41.83752" lon="15.59295"><ele>254.0</ele><time>2026-04-10T16:01:11.191Z</time></trkpt><trkpt lat="41.837305" lon="15.59283"><ele>251.0</ele><time>2026-04-10T16:01:12.183Z</time></trkpt><trkpt lat="41.8371033" lon="15.59272"><ele>251.0</ele><time>2026-04-10T16:01:13.18Z</time></trkpt><trkpt lat="41.8369167" lon="15.59261"><ele>251.0</ele><time>2026-04-10T16:01:14.183Z</time></trkpt><trkpt lat="41.836745" lon="15.5925033"><ele>251.0</ele><time>2026-04-10T16:01:15.188Z</time></trkpt><trkpt lat="41.8365917" lon="15.59239"><ele>251.33333333333334</ele><time>2026-04-10T16:01:16.183Z</time></trkpt><trkpt lat="41.836455" lon="15.5922633"><ele>251.66666666666669</ele><time>2026-04-10T16:01:17.195Z</time></trkpt><trkpt lat="41.83634" lon="15.5921183"><ele>252.0</ele><time>2026-04-10T16:01:18.186Z</time></trkpt><trkpt lat="41.8362467" lon="15.5919483"><ele>252.0</ele><time>2026-04-10T16:01:19.191Z</time></trkpt><trkpt lat="41.8361633" lon="15.5917783"><ele>252.0</ele><time>2026-04-10T16:01:20.185Z</time></trkpt><trkpt lat="41.8360783" lon="15.5916267"><ele>252.0</ele><time>2026-04-10T16:01:21.187Z</time></trkpt><trkpt lat="41.8359833" lon="15.5915083"><ele>252.0</ele><time>2026-04-10T16:01:22.181Z</time></trkpt><trkpt lat="41.8358767" lon="15.591425"><ele>252.75</ele><time>2026-04-10T16:01:23.178Z</time></trkpt><trkpt lat="41.83576" lon="15.591385"><ele>253.5</ele><time>2026-04-10T16:01:24.177Z</time></trkpt><trkpt lat="41.8356317" lon="15.5913683"><ele>254.25</ele><time>2026-04-10T16:01:25.178Z</time></trkpt><trkpt lat="41.8354967" lon="15.59136"><ele>255.0</ele><time>2026-04-10T16:01:26.187Z</time></trkpt><trkpt lat="41.8353667" lon="15.5913367"><ele>255.0</ele><time>2026-04-10T16:01:27.181Z</time></trkpt><trkpt lat="41.8352533" lon="15.5912867"><ele>255.0</ele><time>2026-04-10T16:01:28.188Z</time></trkpt><trkpt lat="41.835155" lon="15.59121"><ele>255.0</ele><time>2026-04-10T16:01:29.177Z</time></trkpt><trkpt lat="41.835075" lon="15.5911017"><ele>255.0</ele><time>2026-04-10T16:01:30.187Z</time></trkpt><trkpt lat="41.8350083" lon="15.59096"><ele>255.0</ele><time>2026-04-10T16:01:31.183Z</time></trkpt><trkpt lat="41.8349533" lon="15.5907883"><ele>255.0</ele><time>2026-04-10T16:01:32.186Z</time></trkpt><trkpt lat="41.834905" lon="15.59061"><ele>255.0</ele><time>2026-04-10T16:01:33.181Z</time></trkpt><trkpt lat="41.8348583" lon="15.590435"><ele>255.0</ele><time>2026-04-10T16:01:34.186Z</time></trkpt><trkpt lat="41.8348117" lon="15.5902733"><ele>253.6</ele><time>2026-04-10T16:01:35.185Z</time></trkpt><trkpt lat="41.8347617" lon="15.590125"><ele>252.2</ele><time>2026-04-10T16:01:36.18Z</time></trkpt><trkpt lat="41.8347033" lon="15.5899983"><ele>250.8</ele><time>2026-04-10T16:01:37.182Z</time></trkpt><trkpt lat="41.834625" lon="15.589905"><ele>249.4</ele><time>2026-04-10T16:01:38.178Z</time></trkpt><trkpt lat="41.8345283" lon="15.58985"><ele>248.0</ele><time>2026-04-10T16:01:39.182Z</time></trkpt><trkpt lat="41.8344067" lon="15.5898167"><ele>249.5</ele><time>2026-04-10T16:01:40.18Z</time></trkpt><trkpt lat="41.834265" lon="15.58979"><ele>251.0</ele><time>2026-04-10T16:01:41.182Z</time></trkpt><trkpt lat="41.83412" lon="15.5897717"><ele>252.5</ele><time>2026-04-10T16:01:42.183Z</time></trkpt><trkpt lat="41.833985" lon="15.58978"><ele>254.0</ele><time>2026-04-10T16:01:43.182Z</time></trkpt><trkpt lat="41.8338683" lon="15.5897967"><ele>254.0</ele><time>2026-04-10T16:01:44.187Z</time></trkpt><trkpt lat="41.8337633" lon="15.5897917"><ele>253.99999999999997</ele><time>2026-04-10T16:01:45.186Z</time></trkpt><trkpt lat="41.833675" lon="15.5897417"><ele>253.99999999999997</ele><time>2026-04-10T16:01:46.181Z</time></trkpt><trkpt lat="41.83359" lon="15.5896617"><ele>254.0</ele><time>2026-04-10T16:01:47.18Z</time></trkpt><trkpt lat="41.83351" lon="15.5895633"><ele>254.0</ele><time>2026-04-10T16:01:48.18Z</time></trkpt><trkpt lat="41.8334483" lon="15.589455"><ele>253.79999999999998</ele><time>2026-04-10T16:01:49.183Z</time></trkpt><trkpt lat="41.83342" lon="15.5893367"><ele>253.59999999999997</ele><time>2026-04-10T16:01:50.182Z</time></trkpt><trkpt lat="41.833425" lon="15.58922"><ele>253.4</ele><time>2026-04-10T16:01:51.181Z</time></trkpt><trkpt lat="41.8334567" lon="15.5890983"><ele>253.2</ele><time>2026-04-10T16:01:52.183Z</time></trkpt><trkpt lat="41.83351" lon="15.5889667"><ele>253.0</ele><time>2026-04-10T16:01:53.183Z</time></trkpt><trkpt lat="41.833575" lon="15.58881"><ele>251.0</ele><time>2026-04-10T16:01:54.184Z</time></trkpt><trkpt lat="41.83365" lon="15.5886217"><ele>249.0</ele><time>2026-04-10T16:01:55.179Z</time></trkpt><trkpt lat="41.8337283" lon="15.5884133"><ele>247.0</ele><time>2026-04-10T16:01:56.186Z</time></trkpt><trkpt lat="41.8337983" lon="15.5882083"><ele>247.0</ele><time>2026-04-10T16:01:57.179Z</time></trkpt><trkpt lat="41.8338517" lon="15.5879933"><ele>247.0</ele><time>2026-04-10T16:01:58.187Z</time></trkpt><trkpt lat="41.833895" lon="15.58775"><ele>247.0</ele><time>2026-04-10T16:01:59.186Z</time></trkpt><trkpt lat="41.833925" lon="15.5874867"><ele>247.33333333333331</ele><time>2026-04-10T16:02:00.188Z</time></trkpt><trkpt lat="41.8339483" lon="15.5872317"><ele>247.66666666666669</ele><time>2026-04-10T16:02:01.187Z</time></trkpt><trkpt lat="41.83397" lon="15.5869883"><ele>248.0</ele><time>2026-04-10T16:02:02.19Z</time></trkpt><trkpt lat="41.83399" lon="15.5867517"><ele>248.0</ele><time>2026-04-10T16:02:03.188Z</time></trkpt><trkpt lat="41.8340133" lon="15.5865167"><ele>248.0</ele><time>2026-04-10T16:02:04.181Z</time></trkpt><trkpt lat="41.8340367" lon="15.5862883"><ele>248.0</ele><time>2026-04-10T16:02:05.181Z</time></trkpt><trkpt lat="41.834055" lon="15.5860667"><ele>246.33333333333334</ele><time>2026-04-10T16:02:06.183Z</time></trkpt><trkpt lat="41.8340817" lon="15.5858533"><ele>244.66666666666669</ele><time>2026-04-10T16:02:07.185Z</time></trkpt><trkpt lat="41.8341267" lon="15.5856533"><ele>243.0</ele><time>2026-04-10T16:02:08.183Z</time></trkpt><trkpt lat="41.8341967" lon="15.5854633"><ele>243.0</ele><time>2026-04-10T16:02:09.189Z</time></trkpt><trkpt lat="41.8342917" lon="15.5852783"><ele>243.0</ele><time>2026-04-10T16:02:10.182Z</time></trkpt><trkpt lat="41.8343983" lon="15.5850867"><ele>243.0</ele><time>2026-04-10T16:02:11.192Z</time></trkpt><trkpt lat="41.8345133" lon="15.58488"><ele>243.0</ele><time>2026-04-10T16:02:12.187Z</time></trkpt><trkpt lat="41.8346317" lon="15.584655"><ele>243.0</ele><time>2026-04-10T16:02:13.179Z</time></trkpt><trkpt lat="41.83475" lon="15.58443"><ele>243.0</ele><time>2026-04-10T16:02:14.187Z</time></trkpt><trkpt lat="41.834865" lon="15.5842167"><ele>241.0</ele><time>2026-04-10T16:02:15.181Z</time></trkpt><trkpt lat="41.8349783" lon="15.5840117"><ele>239.0</ele><time>2026-04-10T16:02:16.193Z</time></trkpt><trkpt lat="41.8350917" lon="15.5838217"><ele>237.0</ele><time>2026-04-10T16:02:17.187Z</time></trkpt><trkpt lat="41.8352083" lon="15.5836483"><ele>234.66666666666669</ele><time>2026-04-10T16:02:18.183Z</time></trkpt><trkpt lat="41.83532" lon="15.583495"><ele>232.33333333333334</ele><time>2026-04-10T16:02:19.181Z</time></trkpt><trkpt lat="41.8354133" lon="15.58334"><ele>230.0</ele><time>2026-04-10T16:02:20.181Z</time></trkpt><trkpt lat="41.8354883" lon="15.5831683"><ele>230.0</ele><time>2026-04-10T16:02:21.186Z</time></trkpt><trkpt lat="41.8355417" lon="15.582975"><ele>230.0</ele><time>2026-04-10T16:02:22.183Z</time></trkpt><trkpt lat="41.8355717" lon="15.5827667"><ele>230.0</ele><time>2026-04-10T16:02:23.181Z</time></trkpt><trkpt lat="41.8355833" lon="15.5825533"><ele>229.33333333333334</ele><time>2026-04-10T16:02:24.181Z</time></trkpt><trkpt lat="41.83559" lon="15.5823433"><ele>228.66666666666669</ele><time>2026-04-10T16:02:25.18Z</time></trkpt><trkpt lat="41.8356067" lon="15.58214"><ele>228.0</ele><time>2026-04-10T16:02:26.188Z</time></trkpt><trkpt lat="41.8356467" lon="15.5819517"><ele>228.0</ele><time>2026-04-10T16:02:27.178Z</time></trkpt><trkpt lat="41.8357083" lon="15.5817683"><ele>228.0</ele><time>2026-04-10T16:02:28.182Z</time></trkpt><trkpt lat="41.8357817" lon="15.58159"><ele>228.0</ele><time>2026-04-10T16:02:29.185Z</time></trkpt><trkpt lat="41.83585" lon="15.5814133"><ele>228.0</ele><time>2026-04-10T16:02:30.193Z</time></trkpt><trkpt lat="41.8358983" lon="15.5812333"><ele>228.0</ele><time>2026-04-10T16:02:31.187Z</time></trkpt><trkpt lat="41.835925" lon="15.5810367"><ele>228.0</ele><time>2026-04-10T16:02:32.186Z</time></trkpt><trkpt lat="41.83594" lon="15.5808317"><ele>228.0</ele><time>2026-04-10T16:02:33.189Z</time></trkpt><trkpt lat="41.8359467" lon="15.5806267"><ele>228.0</ele><time>2026-04-10T16:02:34.178Z</time></trkpt><trkpt lat="41.8359533" lon="15.5804283"><ele>228.0</ele><time>2026-04-10T16:02:35.187Z</time></trkpt><trkpt lat="41.8359717" lon="15.580235"><ele>228.0</ele><time>2026-04-10T16:02:36.187Z</time></trkpt><trkpt lat="41.83601" lon="15.5800467"><ele>228.0</ele><time>2026-04-10T16:02:37.182Z</time></trkpt><trkpt lat="41.836075" lon="15.5798633"><ele>228.33333333333331</ele><time>2026-04-10T16:02:38.183Z</time></trkpt><trkpt lat="41.83615" lon="15.5796767"><ele>228.66666666666666</ele><time>2026-04-10T16:02:39.178Z</time></trkpt><trkpt lat="41.8362333" lon="15.579475"><ele>229.0</ele><time>2026-04-10T16:02:40.188Z</time></trkpt><trkpt lat="41.8363167" lon="15.5792733"><ele>228.5</ele><time>2026-04-10T16:02:41.179Z</time></trkpt><trkpt lat="41.83639" lon="15.5790917"><ele>228.0</ele><time>2026-04-10T16:02:42.189Z</time></trkpt><trkpt lat="41.8364383" lon="15.5789217"><ele>227.5</ele><time>2026-04-10T16:02:43.183Z</time></trkpt><trkpt lat="41.8364633" lon="15.57875"><ele>227.0</ele><time>2026-04-10T16:02:44.182Z</time></trkpt><trkpt lat="41.836465" lon="15.5785733"><ele>226.25</ele><time>2026-04-10T16:02:45.182Z</time></trkpt><trkpt lat="41.83646" lon="15.5783833"><ele>225.5</ele><time>2026-04-10T16:02:46.192Z</time></trkpt><trkpt lat="41.83646" lon="15.5781917"><ele>224.75</ele><time>2026-04-10T16:02:47.179Z</time></trkpt><trkpt lat="41.83646" lon="15.5780083"><ele>224.0</ele><time>2026-04-10T16:02:48.192Z</time></trkpt><trkpt lat="41.8364567" lon="15.5778367"><ele>223.75</ele><time>2026-04-10T16:02:49.188Z</time></trkpt><trkpt lat="41.836455" lon="15.57767"><ele>223.5</ele><time>2026-04-10T16:02:50.192Z</time></trkpt><trkpt lat="41.83646" lon="15.5775083"><ele>223.25</ele><time>2026-04-10T16:02:51.19Z</time></trkpt><trkpt lat="41.8364733" lon="15.57735"><ele>223.0</ele><time>2026-04-10T16:02:52.191Z</time></trkpt><trkpt lat="41.83649" lon="15.5771983"><ele>222.99999999999997</ele><time>2026-04-10T16:02:53.185Z</time></trkpt><trkpt lat="41.8365083" lon="15.5770567"><ele>223.0</ele><time>2026-04-10T16:02:54.184Z</time></trkpt><trkpt lat="41.8365267" lon="15.5769333"><ele>223.0</ele><time>2026-04-10T16:02:55.186Z</time></trkpt><trkpt lat="41.8365483" lon="15.5768333"><ele>223.0</ele><time>2026-04-10T16:02:56.178Z</time></trkpt><trkpt lat="41.83657" lon="15.5767517"><ele>222.99999999999997</ele><time>2026-04-10T16:02:57.181Z</time></trkpt><trkpt lat="41.8366317" lon="15.5766733"><ele>223.0</ele><time>2026-04-10T16:02:59.186Z</time></trkpt><trkpt lat="41.8367033" lon="15.5767"><ele>223.0</ele><time>2026-04-10T16:03:01.192Z</time></trkpt><trkpt lat="41.8367567" lon="15.57677"><ele>223.0</ele><time>2026-04-10T16:03:03.183Z</time></trkpt><trkpt lat="41.8368083" lon="15.57685"><ele>220.0</ele><time>2026-04-10T16:03:05.189Z</time></trkpt><trkpt lat="41.8368617" lon="15.5769067"><ele>220.0</ele><time>2026-04-10T16:03:07.183Z</time></trkpt><trkpt lat="41.836935" lon="15.5768917"><ele>220.0</ele><time>2026-04-10T16:03:11.18Z</time></trkpt><trkpt lat="41.8369683" lon="15.5767917"><ele>220.0</ele><time>2026-04-10T16:05:50.193Z</time></trkpt></trkseg><trkseg><trkpt lat="41.837" lon="15.5766633"><ele>219.99999999999997</ele><time>2026-04-10T16:16:10.177Z</time></trkpt><trkpt lat="41.8369233" lon="15.57661"><ele>220.0</ele><time>2026-04-10T16:16:13.181Z</time></trkpt><trkpt lat="41.8368417" lon="15.57654"><ele>220.0</ele><time>2026-04-10T16:16:16.184Z</time></trkpt><trkpt lat="41.8367767" lon="15.5764783"><ele>220.0</ele><time>2026-04-10T16:16:18.185Z</time></trkpt><trkpt lat="41.8367267" lon="15.5764067"><ele>219.99999999999997</ele><time>2026-04-10T16:16:20.181Z</time></trkpt><trkpt lat="41.8366933" lon="15.57632"><ele>220.0</ele><time>2026-04-10T16:16:22.181Z</time></trkpt><trkpt lat="41.836695" lon="15.5761767"><ele>219.83333333333331</ele><time>2026-04-10T16:16:24.182Z</time></trkpt><trkpt lat="41.8367183" lon="15.576025"><ele>219.66666666666666</ele><time>2026-04-10T16:16:26.181Z</time></trkpt><trkpt lat="41.8367283" lon="15.57594"><ele>219.5</ele><time>2026-04-10T16:16:27.189Z</time></trkpt><trkpt lat="41.8367433" lon="15.575845"><ele>219.33333333333331</ele><time>2026-04-10T16:16:28.181Z</time></trkpt><trkpt lat="41.8367633" lon="15.5757383"><ele>219.16666666666666</ele><time>2026-04-10T16:16:29.184Z</time></trkpt><trkpt lat="41.83679" lon="15.5756217"><ele>219.0</ele><time>2026-04-10T16:16:30.187Z</time></trkpt><trkpt lat="41.8368217" lon="15.5755033"><ele>219.16666666666666</ele><time>2026-04-10T16:16:31.18Z</time></trkpt><trkpt lat="41.83685" lon="15.575385"><ele>219.33333333333331</ele><time>2026-04-10T16:16:32.183Z</time></trkpt><trkpt lat="41.83687" lon="15.57527"><ele>219.5</ele><time>2026-04-10T16:16:33.182Z</time></trkpt><trkpt lat="41.8368767" lon="15.5751583"><ele>219.66666666666666</ele><time>2026-04-10T16:16:34.18Z</time></trkpt><trkpt lat="41.8368617" lon="15.57505"><ele>219.83333333333331</ele><time>2026-04-10T16:16:35.179Z</time></trkpt><trkpt lat="41.83683" lon="15.57495"><ele>220.0</ele><time>2026-04-10T16:16:36.181Z</time></trkpt><trkpt lat="41.8367733" lon="15.574855"><ele>219.2</ele><time>2026-04-10T16:16:37.182Z</time></trkpt><trkpt lat="41.8367033" lon="15.574755"><ele>218.4</ele><time>2026-04-10T16:16:38.184Z</time></trkpt><trkpt lat="41.8366283" lon="15.57465"><ele>217.60000000000002</ele><time>2026-04-10T16:16:39.183Z</time></trkpt><trkpt lat="41.836555" lon="15.57454"><ele>216.8</ele><time>2026-04-10T16:16:40.181Z</time></trkpt><trkpt lat="41.8364883" lon="15.5744317"><ele>216.0</ele><time>2026-04-10T16:16:41.181Z</time></trkpt><trkpt lat="41.8364267" lon="15.5743333"><ele>215.4</ele><time>2026-04-10T16:16:42.185Z</time></trkpt><trkpt lat="41.836365" lon="15.574235"><ele>214.8</ele><time>2026-04-10T16:16:43.188Z</time></trkpt><trkpt lat="41.8363067" lon="15.5741267"><ele>214.20000000000002</ele><time>2026-04-10T16:16:44.183Z</time></trkpt><trkpt lat="41.83625" lon="15.5740133"><ele>213.60000000000002</ele><time>2026-04-10T16:16:45.183Z</time></trkpt><trkpt lat="41.8361867" lon="15.573905"><ele>213.0</ele><time>2026-04-10T16:16:46.181Z</time></trkpt><trkpt lat="41.836115" lon="15.5738083"><ele>213.0</ele><time>2026-04-10T16:16:47.183Z</time></trkpt><trkpt lat="41.8360317" lon="15.57372"><ele>213.0</ele><time>2026-04-10T16:16:48.182Z</time></trkpt><trkpt lat="41.835935" lon="15.5736417"><ele>213.0</ele><time>2026-04-10T16:16:49.18Z</time></trkpt><trkpt lat="41.8358283" lon="15.5735733"><ele>213.0</ele><time>2026-04-10T16:16:50.184Z</time></trkpt><trkpt lat="41.8357183" lon="15.5735067"><ele>213.25</ele><time>2026-04-10T16:16:51.184Z</time></trkpt><trkpt lat="41.8356117" lon="15.5734467"><ele>213.5</ele><time>2026-04-10T16:16:52.18Z</time></trkpt><trkpt lat="41.8355033" lon="15.573395"><ele>213.75</ele><time>2026-04-10T16:16:53.185Z</time></trkpt><trkpt lat="41.835395" lon="15.573345"><ele>214.0</ele><time>2026-04-10T16:16:54.18Z</time></trkpt><trkpt lat="41.8352917" lon="15.5733017"><ele>214.0</ele><time>2026-04-10T16:16:55.185Z</time></trkpt><trkpt lat="41.8351917" lon="15.5732633"><ele>213.99999999999997</ele><time>2026-04-10T16:16:56.181Z</time></trkpt><trkpt lat="41.8350917" lon="15.573225"><ele>213.99999999999997</ele><time>2026-04-10T16:16:57.18Z</time></trkpt><trkpt lat="41.8349933" lon="15.5731867"><ele>214.0</ele><time>2026-04-10T16:16:58.184Z</time></trkpt><trkpt lat="41.8349" lon="15.5731467"><ele>214.0</ele><time>2026-04-10T16:16:59.178Z</time></trkpt><trkpt lat="41.8348133" lon="15.5731017"><ele>214.00000000000003</ele><time>2026-04-10T16:17:00.182Z</time></trkpt><trkpt lat="41.8347367" lon="15.5730483"><ele>214.0</ele><time>2026-04-10T16:17:01.181Z</time></trkpt><trkpt lat="41.83468" lon="15.57298"><ele>214.0</ele><time>2026-04-10T16:17:02.185Z</time></trkpt><trkpt lat="41.83464" lon="15.5729033"><ele>214.0</ele><time>2026-04-10T16:17:03.183Z</time></trkpt><trkpt lat="41.8346133" lon="15.5728183"><ele>214.0</ele><time>2026-04-10T16:17:04.179Z</time></trkpt><trkpt lat="41.8346017" lon="15.57273"><ele>214.00000000000003</ele><time>2026-04-10T16:17:05.179Z</time></trkpt><trkpt lat="41.8346017" lon="15.572645"><ele>214.0</ele><time>2026-04-10T16:17:06.182Z</time></trkpt><trkpt lat="41.8346133" lon="15.5724867"><ele>214.0</ele><time>2026-04-10T16:17:08.18Z</time></trkpt><trkpt lat="41.8346167" lon="15.5723483"><ele>213.99999999999997</ele><time>2026-04-10T16:17:10.179Z</time></trkpt><trkpt lat="41.83463" lon="15.5722283"><ele>213.99999999999997</ele><time>2026-04-10T16:17:12.18Z</time></trkpt><trkpt lat="41.834635" lon="15.57211"><ele>214.0</ele><time>2026-04-10T16:17:14.18Z</time></trkpt><trkpt lat="41.834645" lon="15.5719683"><ele>214.0</ele><time>2026-04-10T16:17:16.181Z</time></trkpt><trkpt lat="41.8346417" lon="15.5718467"><ele>214.0</ele><time>2026-04-10T16:17:18.178Z</time></trkpt><trkpt lat="41.83461" lon="15.5717333"><ele>213.99999999999997</ele><time>2026-04-10T16:17:20.182Z</time></trkpt><trkpt lat="41.8345367" lon="15.571635"><ele>213.99999999999997</ele><time>2026-04-10T16:17:22.182Z</time></trkpt><trkpt lat="41.8344583" lon="15.5715333"><ele>214.0</ele><time>2026-04-10T16:17:24.185Z</time></trkpt><trkpt lat="41.8343917" lon="15.5714333"><ele>214.0</ele><time>2026-04-10T16:17:26.19Z</time></trkpt><trkpt lat="41.8343183" lon="15.571315"><ele>213.39999999999998</ele><time>2026-04-10T16:17:28.185Z</time></trkpt><trkpt lat="41.83427" lon="15.5712583"><ele>212.79999999999998</ele><time>2026-04-10T16:17:29.182Z</time></trkpt><trkpt lat="41.8341867" lon="15.5711517"><ele>212.2</ele><time>2026-04-10T16:17:31.18Z</time></trkpt><trkpt lat="41.8341117" lon="15.5710467"><ele>211.60000000000002</ele><time>2026-04-10T16:17:33.18Z</time></trkpt><trkpt lat="41.8340383" lon="15.570925"><ele>211.0</ele><time>2026-04-10T16:17:35.179Z</time></trkpt><trkpt lat="41.8339767" lon="15.5708367"><ele>210.83333333333331</ele><time>2026-04-10T16:17:37.185Z</time></trkpt><trkpt lat="41.8339167" lon="15.5707333"><ele>210.66666666666666</ele><time>2026-04-10T16:17:39.185Z</time></trkpt><trkpt lat="41.833855" lon="15.570645"><ele>210.5</ele><time>2026-04-10T16:17:41.188Z</time></trkpt><trkpt lat="41.8338033" lon="15.5705533"><ele>210.33333333333331</ele><time>2026-04-10T16:17:43.182Z</time></trkpt><trkpt lat="41.8337567" lon="15.5704717"><ele>210.16666666666666</ele><time>2026-04-10T16:17:45.18Z</time></trkpt><trkpt lat="41.8337017" lon="15.57041"><ele>210.0</ele><time>2026-04-10T16:17:58.181Z</time></trkpt><trkpt lat="41.83364" lon="15.5703183"><ele>210.0</ele><time>2026-04-10T16:18:01.18Z</time></trkpt><trkpt lat="41.8335983" lon="15.570245"><ele>210.0</ele><time>2026-04-10T16:18:04.18Z</time></trkpt><trkpt lat="41.8335383" lon="15.57016"><ele>210.0</ele><time>2026-04-10T16:18:12.18Z</time></trkpt><trkpt lat="41.83348" lon="15.5700833"><ele>210.0</ele><time>2026-04-10T16:18:14.184Z</time></trkpt><trkpt lat="41.83342" lon="15.570005"><ele>210.0</ele><time>2026-04-10T16:18:16.181Z</time></trkpt><trkpt lat="41.833355" lon="15.56993"><ele>210.0</ele><time>2026-04-10T16:18:18.182Z</time></trkpt><trkpt lat="41.833285" lon="15.569845"><ele>210.0</ele><time>2026-04-10T16:18:20.189Z</time></trkpt><trkpt lat="41.8332067" lon="15.5697683"><ele>210.0</ele><time>2026-04-10T16:18:22.192Z</time></trkpt><trkpt lat="41.8331317" lon="15.5696833"><ele>210.0</ele><time>2026-04-10T16:18:24.18Z</time></trkpt><trkpt lat="41.8330467" lon="15.5695833"><ele>210.0</ele><time>2026-04-10T16:18:26.181Z</time></trkpt><trkpt lat="41.8329533" lon="15.5694617"><ele>210.0</ele><time>2026-04-10T16:18:28.184Z</time></trkpt><trkpt lat="41.8329183" lon="15.5693817"><ele>210.28571428571428</ele><time>2026-04-10T16:18:29.183Z</time></trkpt><trkpt lat="41.83289" lon="15.5692933"><ele>210.57142857142856</ele><time>2026-04-10T16:18:30.18Z</time></trkpt><trkpt lat="41.8328633" lon="15.5692017"><ele>210.85714285714286</ele><time>2026-04-10T16:18:31.185Z</time></trkpt><trkpt lat="41.8328433" lon="15.56911"><ele>211.14285714285714</ele><time>2026-04-10T16:18:32.181Z</time></trkpt><trkpt lat="41.8328217" lon="15.5690167"><ele>211.42857142857142</ele><time>2026-04-10T16:18:33.196Z</time></trkpt><trkpt lat="41.832795" lon="15.5689233"><ele>211.71428571428572</ele><time>2026-04-10T16:18:34.195Z</time></trkpt><trkpt lat="41.8327667" lon="15.5688267"><ele>212.0</ele><time>2026-04-10T16:18:35.183Z</time></trkpt><trkpt lat="41.8327367" lon="15.568735"><ele>211.85714285714286</ele><time>2026-04-10T16:18:36.184Z</time></trkpt><trkpt lat="41.8327117" lon="15.568645"><ele>211.7142857142857</ele><time>2026-04-10T16:18:37.18Z</time></trkpt><trkpt lat="41.83269" lon="15.5685533"><ele>211.57142857142856</ele><time>2026-04-10T16:18:38.178Z</time></trkpt><trkpt lat="41.832675" lon="15.5684617"><ele>211.42857142857144</ele><time>2026-04-10T16:18:39.185Z</time></trkpt><trkpt lat="41.8326683" lon="15.5683717"><ele>211.28571428571428</ele><time>2026-04-10T16:18:40.186Z</time></trkpt><trkpt lat="41.832665" lon="15.56828"><ele>211.14285714285714</ele><time>2026-04-10T16:18:41.197Z</time></trkpt><trkpt lat="41.8326633" lon="15.5681917"><ele>211.0</ele><time>2026-04-10T16:18:42.183Z</time></trkpt><trkpt lat="41.8326683" lon="15.568105"><ele>211.0</ele><time>2026-04-10T16:18:43.179Z</time></trkpt><trkpt lat="41.832675" lon="15.5680183"><ele>211.0</ele><time>2026-04-10T16:18:44.182Z</time></trkpt><trkpt lat="41.83268" lon="15.5679317"><ele>211.0</ele><time>2026-04-10T16:18:45.182Z</time></trkpt><trkpt lat="41.8326883" lon="15.5678467"><ele>211.0</ele><time>2026-04-10T16:18:46.18Z</time></trkpt><trkpt lat="41.8327" lon="15.5677583"><ele>211.0</ele><time>2026-04-10T16:18:47.179Z</time></trkpt><trkpt lat="41.832715" lon="15.5676717"><ele>211.0</ele><time>2026-04-10T16:18:48.179Z</time></trkpt><trkpt lat="41.8327267" lon="15.567585"><ele>211.0</ele><time>2026-04-10T16:18:49.181Z</time></trkpt><trkpt lat="41.8327367" lon="15.5674983"><ele>210.33333333333331</ele><time>2026-04-10T16:18:50.181Z</time></trkpt><trkpt lat="41.8327483" lon="15.5674067"><ele>209.66666666666666</ele><time>2026-04-10T16:18:51.179Z</time></trkpt><trkpt lat="41.832765" lon="15.5672383"><ele>209.0</ele><time>2026-04-10T16:18:53.182Z</time></trkpt><trkpt lat="41.8327667" lon="15.5671417"><ele>208.33333333333331</ele><time>2026-04-10T16:18:54.18Z</time></trkpt><trkpt lat="41.83276" lon="15.567035"><ele>207.66666666666666</ele><time>2026-04-10T16:18:55.181Z</time></trkpt><trkpt lat="41.832745" lon="15.566925"><ele>207.0</ele><time>2026-04-10T16:18:56.179Z</time></trkpt><trkpt lat="41.83273" lon="15.5668217"><ele>207.0</ele><time>2026-04-10T16:18:57.186Z</time></trkpt><trkpt lat="41.832715" lon="15.5667217"><ele>207.0</ele><time>2026-04-10T16:18:58.178Z</time></trkpt><trkpt lat="41.8327" lon="15.566615"><ele>207.0</ele><time>2026-04-10T16:18:59.181Z</time></trkpt><trkpt lat="41.83268" lon="15.5664967"><ele>207.0</ele><time>2026-04-10T16:19:00.178Z</time></trkpt><trkpt lat="41.832665" lon="15.56638"><ele>207.0</ele><time>2026-04-10T16:19:01.179Z</time></trkpt><trkpt lat="41.8326483" lon="15.56627"><ele>207.0</ele><time>2026-04-10T16:19:02.18Z</time></trkpt><trkpt lat="41.832635" lon="15.5661683"><ele>204.5</ele><time>2026-04-10T16:19:03.181Z</time></trkpt><trkpt lat="41.8326183" lon="15.5660683"><ele>202.0</ele><time>2026-04-10T16:19:04.179Z</time></trkpt><trkpt lat="41.8326" lon="15.5659667"><ele>199.5</ele><time>2026-04-10T16:19:05.18Z</time></trkpt><trkpt lat="41.83258" lon="15.5658733"><ele>197.0</ele><time>2026-04-10T16:19:06.179Z</time></trkpt><trkpt lat="41.8325367" lon="15.5657033"><ele>194.5</ele><time>2026-04-10T16:19:08.179Z</time></trkpt><trkpt lat="41.8325217" lon="15.565605"><ele>192.0</ele><time>2026-04-10T16:19:09.178Z</time></trkpt><trkpt lat="41.8325033" lon="15.5655033"><ele>192.0</ele><time>2026-04-10T16:19:10.184Z</time></trkpt><trkpt lat="41.832485" lon="15.5653967"><ele>192.0</ele><time>2026-04-10T16:19:11.181Z</time></trkpt><trkpt lat="41.832465" lon="15.5652867"><ele>192.0</ele><time>2026-04-10T16:19:12.182Z</time></trkpt><trkpt lat="41.8324433" lon="15.5651733"><ele>192.0</ele><time>2026-04-10T16:19:13.186Z</time></trkpt><trkpt lat="41.8324167" lon="15.56506"><ele>192.0</ele><time>2026-04-10T16:19:14.183Z</time></trkpt><trkpt lat="41.8323817" lon="15.5649383"><ele>192.0</ele><time>2026-04-10T16:19:15.181Z</time></trkpt><trkpt lat="41.8323467" lon="15.5648217"><ele>192.0</ele><time>2026-04-10T16:19:16.181Z</time></trkpt><trkpt lat="41.83231" lon="15.5647017"><ele>192.0</ele><time>2026-04-10T16:19:17.189Z</time></trkpt><trkpt lat="41.83227" lon="15.5645717"><ele>192.0</ele><time>2026-04-10T16:19:18.184Z</time></trkpt><trkpt lat="41.8322267" lon="15.5644433"><ele>192.0</ele><time>2026-04-10T16:19:19.18Z</time></trkpt><trkpt lat="41.8321833" lon="15.56432"><ele>192.0</ele><time>2026-04-10T16:19:20.183Z</time></trkpt><trkpt lat="41.8321417" lon="15.5642017"><ele>192.0</ele><time>2026-04-10T16:19:21.18Z</time></trkpt><trkpt lat="41.8320983" lon="15.5640817"><ele>192.0</ele><time>2026-04-10T16:19:22.179Z</time></trkpt><trkpt lat="41.83205" lon="15.5639617"><ele>192.0</ele><time>2026-04-10T16:19:23.181Z</time></trkpt><trkpt lat="41.8320033" lon="15.5638483"><ele>192.0</ele><time>2026-04-10T16:19:24.179Z</time></trkpt><trkpt lat="41.83196" lon="15.5637383"><ele>192.0</ele><time>2026-04-10T16:19:25.18Z</time></trkpt><trkpt lat="41.83192" lon="15.5636317"><ele>191.83333333333334</ele><time>2026-04-10T16:19:26.183Z</time></trkpt><trkpt lat="41.8318767" lon="15.5635267"><ele>191.66666666666666</ele><time>2026-04-10T16:19:27.18Z</time></trkpt><trkpt lat="41.8318317" lon="15.5634233"><ele>191.5</ele><time>2026-04-10T16:19:28.178Z</time></trkpt><trkpt lat="41.831785" lon="15.5633217"><ele>191.33333333333331</ele><time>2026-04-10T16:19:29.179Z</time></trkpt><trkpt lat="41.8317367" lon="15.5632183"><ele>191.16666666666666</ele><time>2026-04-10T16:19:30.18Z</time></trkpt><trkpt lat="41.83169" lon="15.5631167"><ele>191.0</ele><time>2026-04-10T16:19:31.179Z</time></trkpt><trkpt lat="41.8316467" lon="15.5630167"><ele>191.0</ele><time>2026-04-10T16:19:32.18Z</time></trkpt><trkpt lat="41.8316033" lon="15.562915"><ele>191.0</ele><time>2026-04-10T16:19:33.179Z</time></trkpt><trkpt lat="41.83156" lon="15.5628133"><ele>191.0</ele><time>2026-04-10T16:19:34.183Z</time></trkpt><trkpt lat="41.83152" lon="15.562715"><ele>191.0</ele><time>2026-04-10T16:19:35.181Z</time></trkpt><trkpt lat="41.8314867" lon="15.562625"><ele>191.0</ele><time>2026-04-10T16:19:36.18Z</time></trkpt><trkpt lat="41.83146" lon="15.5625467"><ele>191.0</ele><time>2026-04-10T16:19:37.179Z</time></trkpt><trkpt lat="41.8314033" lon="15.5624133"><ele>191.66666666666666</ele><time>2026-04-10T16:19:39.179Z</time></trkpt><trkpt lat="41.8313417" lon="15.56225"><ele>192.33333333333331</ele><time>2026-04-10T16:19:41.178Z</time></trkpt><trkpt lat="41.8313033" lon="15.5621567"><ele>193.0</ele><time>2026-04-10T16:19:42.179Z</time></trkpt><trkpt lat="41.831265" lon="15.5620717"><ele>193.66666666666666</ele><time>2026-04-10T16:19:43.179Z</time></trkpt><trkpt lat="41.8312283" lon="15.5619883"><ele>194.33333333333334</ele><time>2026-04-10T16:19:44.181Z</time></trkpt><trkpt lat="41.8311933" lon="15.5619017"><ele>195.0</ele><time>2026-04-10T16:19:45.19Z</time></trkpt><trkpt lat="41.8311583" lon="15.561815"><ele>195.0</ele><time>2026-04-10T16:19:46.18Z</time></trkpt><trkpt lat="41.831125" lon="15.5617333"><ele>195.0</ele><time>2026-04-10T16:19:47.181Z</time></trkpt><trkpt lat="41.8310933" lon="15.5616517"><ele>195.0</ele><time>2026-04-10T16:19:48.18Z</time></trkpt><trkpt lat="41.8310583" lon="15.5615683"><ele>195.0</ele><time>2026-04-10T16:19:49.18Z</time></trkpt><trkpt lat="41.8310233" lon="15.561485"><ele>195.0</ele><time>2026-04-10T16:19:50.182Z</time></trkpt><trkpt lat="41.8309911" lon="15.5614069"><ele>195.0</ele><time>2026-04-10T16:19:51.181Z</time></trkpt><trkpt lat="41.8309437" lon="15.5612717"><ele>195.2</ele><time>2026-04-10T16:19:53.179Z</time></trkpt><trkpt lat="41.8309037" lon="15.5611624"><ele>195.4</ele><time>2026-04-10T16:19:55.183Z</time></trkpt><trkpt lat="41.8308485" lon="15.5610352"><ele>195.60000000000002</ele><time>2026-04-10T16:19:57.181Z</time></trkpt><trkpt lat="41.8308099" lon="15.5609514"><ele>195.8</ele><time>2026-04-10T16:19:58.181Z</time></trkpt><trkpt lat="41.8307617" lon="15.5608536"><ele>196.0</ele><time>2026-04-10T16:19:59.18Z</time></trkpt><trkpt lat="41.8307121" lon="15.5607497"><ele>196.0</ele><time>2026-04-10T16:20:00.184Z</time></trkpt><trkpt lat="41.8306637" lon="15.5606403"><ele>196.0</ele><time>2026-04-10T16:20:01.178Z</time></trkpt><trkpt lat="41.8306108" lon="15.5605158"><ele>196.0</ele><time>2026-04-10T16:20:02.181Z</time></trkpt><trkpt lat="41.8305526" lon="15.5603716"><ele>196.0</ele><time>2026-04-10T16:20:03.178Z</time></trkpt><trkpt lat="41.8304916" lon="15.5602185"><ele>196.25</ele><time>2026-04-10T16:20:04.179Z</time></trkpt><trkpt lat="41.8304282" lon="15.5600626"><ele>196.5</ele><time>2026-04-10T16:20:05.178Z</time></trkpt><trkpt lat="41.830359" lon="15.5598942"><ele>196.75</ele><time>2026-04-10T16:20:06.177Z</time></trkpt><trkpt lat="41.8302838" lon="15.5597074"><ele>197.0</ele><time>2026-04-10T16:20:07.18Z</time></trkpt><trkpt lat="41.8302" lon="15.5594973"><ele>199.33333333333334</ele><time>2026-04-10T16:20:08.189Z</time></trkpt><trkpt lat="41.8301131" lon="15.5592802"><ele>201.66666666666669</ele><time>2026-04-10T16:20:09.185Z</time></trkpt><trkpt lat="41.8300286" lon="15.5590614"><ele>204.0</ele><time>2026-04-10T16:20:10.183Z</time></trkpt><trkpt lat="41.8299395" lon="15.5588362"><ele>204.33333333333331</ele><time>2026-04-10T16:20:11.181Z</time></trkpt><trkpt lat="41.8298479" lon="15.558611"><ele>204.66666666666666</ele><time>2026-04-10T16:20:12.18Z</time></trkpt><trkpt lat="41.8297624" lon="15.5583996"><ele>205.0</ele><time>2026-04-10T16:20:13.177Z</time></trkpt><trkpt lat="41.8296723" lon="15.5581816"><ele>205.0</ele><time>2026-04-10T16:20:14.181Z</time></trkpt><trkpt lat="41.829573" lon="15.5579533"><ele>205.0</ele><time>2026-04-10T16:20:15.181Z</time></trkpt><trkpt lat="41.8294713" lon="15.5577198"><ele>205.0</ele><time>2026-04-10T16:20:16.184Z</time></trkpt><trkpt lat="41.8293686" lon="15.5574776"><ele>205.0</ele><time>2026-04-10T16:20:17.181Z</time></trkpt><trkpt lat="41.8292588" lon="15.5572193"><ele>205.0</ele><time>2026-04-10T16:20:18.184Z</time></trkpt><trkpt lat="41.8291493" lon="15.5569607"><ele>205.0</ele><time>2026-04-10T16:20:19.184Z</time></trkpt><trkpt lat="41.829042" lon="15.5567024"><ele>204.66666666666666</ele><time>2026-04-10T16:20:20.186Z</time></trkpt><trkpt lat="41.8289351" lon="15.5564477"><ele>204.33333333333331</ele><time>2026-04-10T16:20:21.18Z</time></trkpt><trkpt lat="41.8288334" lon="15.5562067"><ele>204.0</ele><time>2026-04-10T16:20:22.181Z</time></trkpt><trkpt lat="41.8287396" lon="15.5559804"><ele>204.0</ele><time>2026-04-10T16:20:23.179Z</time></trkpt><trkpt lat="41.8286511" lon="15.5557664"><ele>204.0</ele><time>2026-04-10T16:20:24.183Z</time></trkpt><trkpt lat="41.8285668" lon="15.5555551"><ele>204.0</ele><time>2026-04-10T16:20:25.179Z</time></trkpt><trkpt lat="41.828479" lon="15.555345"><ele>205.66666666666669</ele><time>2026-04-10T16:20:26.181Z</time></trkpt><trkpt lat="41.8283945" lon="15.5551357"><ele>207.33333333333334</ele><time>2026-04-10T16:20:27.179Z</time></trkpt><trkpt lat="41.8283083" lon="15.554928"><ele>209.0</ele><time>2026-04-10T16:20:28.181Z</time></trkpt><trkpt lat="41.8282233" lon="15.5547217"><ele>210.0</ele><time>2026-04-10T16:20:29.188Z</time></trkpt><trkpt lat="41.8281333" lon="15.5545117"><ele>211.0</ele><time>2026-04-10T16:20:30.181Z</time></trkpt><trkpt lat="41.828045" lon="15.5542967"><ele>212.0</ele><time>2026-04-10T16:20:31.182Z</time></trkpt><trkpt lat="41.8279617" lon="15.5540833"><ele>212.0</ele><time>2026-04-10T16:20:32.183Z</time></trkpt><trkpt lat="41.8278733" lon="15.55387"><ele>212.0</ele><time>2026-04-10T16:20:33.181Z</time></trkpt><trkpt lat="41.8277833" lon="15.55365"><ele>212.0</ele><time>2026-04-10T16:20:34.181Z</time></trkpt><trkpt lat="41.8276883" lon="15.55342"><ele>213.33333333333334</ele><time>2026-04-10T16:20:35.18Z</time></trkpt><trkpt lat="41.8275917" lon="15.55319"><ele>214.66666666666669</ele><time>2026-04-10T16:20:36.183Z</time></trkpt><trkpt lat="41.8275" lon="15.5529683"><ele>216.0</ele><time>2026-04-10T16:20:37.181Z</time></trkpt><trkpt lat="41.82741" lon="15.5527567"><ele>217.33333333333331</ele><time>2026-04-10T16:20:38.182Z</time></trkpt><trkpt lat="41.8273233" lon="15.55255"><ele>218.66666666666666</ele><time>2026-04-10T16:20:39.184Z</time></trkpt><trkpt lat="41.827235" lon="15.5523383"><ele>220.0</ele><time>2026-04-10T16:20:40.178Z</time></trkpt><trkpt lat="41.8271417" lon="15.552135"><ele>221.66666666666666</ele><time>2026-04-10T16:20:41.184Z</time></trkpt><trkpt lat="41.8270467" lon="15.5519233"><ele>223.33333333333331</ele><time>2026-04-10T16:20:42.181Z</time></trkpt><trkpt lat="41.82695" lon="15.5517117"><ele>225.0</ele><time>2026-04-10T16:20:43.184Z</time></trkpt><trkpt lat="41.8268567" lon="15.5515017"><ele>225.0</ele><time>2026-04-10T16:20:44.179Z</time></trkpt><trkpt lat="41.8267733" lon="15.5513033"><ele>225.0</ele><time>2026-04-10T16:20:45.18Z</time></trkpt><trkpt lat="41.8266967" lon="15.55112"><ele>225.0</ele><time>2026-04-10T16:20:46.18Z</time></trkpt><trkpt lat="41.8266267" lon="15.5509517"><ele>225.2</ele><time>2026-04-10T16:20:47.179Z</time></trkpt><trkpt lat="41.8265617" lon="15.5508017"><ele>225.4</ele><time>2026-04-10T16:20:48.183Z</time></trkpt><trkpt lat="41.8265017" lon="15.5506617"><ele>225.60000000000002</ele><time>2026-04-10T16:20:49.187Z</time></trkpt><trkpt lat="41.826445" lon="15.55054"><ele>225.8</ele><time>2026-04-10T16:20:50.177Z</time></trkpt><trkpt lat="41.8263967" lon="15.55044"><ele>226.0</ele><time>2026-04-10T16:20:51.185Z</time></trkpt><trkpt lat="41.826345" lon="15.5503683"><ele>226.60000000000002</ele><time>2026-04-10T16:20:52.185Z</time></trkpt><trkpt lat="41.8262917" lon="15.55032"><ele>227.20000000000002</ele><time>2026-04-10T16:20:53.182Z</time></trkpt><trkpt lat="41.8261833" lon="15.550305"><ele>227.79999999999998</ele><time>2026-04-10T16:20:55.18Z</time></trkpt><trkpt lat="41.8260767" lon="15.5502833"><ele>228.39999999999998</ele><time>2026-04-10T16:20:57.18Z</time></trkpt><trkpt lat="41.8259633" lon="15.550195"><ele>229.0</ele><time>2026-04-10T16:20:59.178Z</time></trkpt><trkpt lat="41.8259017" lon="15.5501283"><ele>229.66666666666666</ele><time>2026-04-10T16:21:00.178Z</time></trkpt><trkpt lat="41.8258383" lon="15.5500583"><ele>230.33333333333331</ele><time>2026-04-10T16:21:01.178Z</time></trkpt><trkpt lat="41.8257767" lon="15.5499917"><ele>231.0</ele><time>2026-04-10T16:21:02.189Z</time></trkpt><trkpt lat="41.8257167" lon="15.5499283"><ele>231.66666666666669</ele><time>2026-04-10T16:21:03.184Z</time></trkpt><trkpt lat="41.825665" lon="15.5498717"><ele>232.33333333333334</ele><time>2026-04-10T16:21:04.178Z</time></trkpt><trkpt lat="41.8255717" lon="15.5497733"><ele>233.0</ele><time>2026-04-10T16:21:06.177Z</time></trkpt><trkpt lat="41.82551" lon="15.549715"><ele>233.0</ele><time>2026-04-10T16:21:07.186Z</time></trkpt><trkpt lat="41.8254317" lon="15.549645"><ele>233.0</ele><time>2026-04-10T16:21:08.178Z</time></trkpt><trkpt lat="41.8253367" lon="15.5495567"><ele>233.0</ele><time>2026-04-10T16:21:09.181Z</time></trkpt><trkpt lat="41.8252383" lon="15.5494733"><ele>233.0</ele><time>2026-04-10T16:21:10.177Z</time></trkpt><trkpt lat="41.8251317" lon="15.549405"><ele>233.0</ele><time>2026-04-10T16:21:11.178Z</time></trkpt><trkpt lat="41.8250067" lon="15.549345"><ele>234.0</ele><time>2026-04-10T16:21:12.183Z</time></trkpt><trkpt lat="41.82487" lon="15.5493"><ele>235.0</ele><time>2026-04-10T16:21:13.178Z</time></trkpt><trkpt lat="41.824735" lon="15.54926"><ele>236.0</ele><time>2026-04-10T16:21:14.184Z</time></trkpt><trkpt lat="41.82461" lon="15.54923"><ele>237.0</ele><time>2026-04-10T16:21:15.183Z</time></trkpt><trkpt lat="41.8244833" lon="15.549205"><ele>237.0</ele><time>2026-04-10T16:21:16.186Z</time></trkpt><trkpt lat="41.8243483" lon="15.5491883"><ele>237.0</ele><time>2026-04-10T16:21:17.181Z</time></trkpt><trkpt lat="41.8242033" lon="15.5491767"><ele>237.0</ele><time>2026-04-10T16:21:18.179Z</time></trkpt><trkpt lat="41.8240467" lon="15.54918"><ele>237.0</ele><time>2026-04-10T16:21:19.181Z</time></trkpt><trkpt lat="41.8238933" lon="15.5491933"><ele>238.5</ele><time>2026-04-10T16:21:20.18Z</time></trkpt><trkpt lat="41.823755" lon="15.549205"><ele>240.0</ele><time>2026-04-10T16:21:21.18Z</time></trkpt><trkpt lat="41.8236317" lon="15.549215"><ele>241.5</ele><time>2026-04-10T16:21:22.181Z</time></trkpt><trkpt lat="41.8235267" lon="15.5492433"><ele>243.0</ele><time>2026-04-10T16:21:23.178Z</time></trkpt><trkpt lat="41.8234333" lon="15.54929"><ele>244.2</ele><time>2026-04-10T16:21:24.177Z</time></trkpt><trkpt lat="41.8233517" lon="15.5493667"><ele>245.4</ele><time>2026-04-10T16:21:25.18Z</time></trkpt><trkpt lat="41.8232867" lon="15.549465"><ele>246.59999999999997</ele><time>2026-04-10T16:21:26.18Z</time></trkpt><trkpt lat="41.8232383" lon="15.5495783"><ele>247.79999999999998</ele><time>2026-04-10T16:21:27.18Z</time></trkpt><trkpt lat="41.8232183" lon="15.5497033"><ele>249.0</ele><time>2026-04-10T16:21:28.185Z</time></trkpt><trkpt lat="41.8232167" lon="15.5498317"><ele>249.0</ele><time>2026-04-10T16:21:29.179Z</time></trkpt><trkpt lat="41.8232333" lon="15.54996"><ele>248.99999999999997</ele><time>2026-04-10T16:21:30.181Z</time></trkpt><trkpt lat="41.8232783" lon="15.5500833"><ele>248.99999999999997</ele><time>2026-04-10T16:21:31.184Z</time></trkpt><trkpt lat="41.823345" lon="15.5502083"><ele>249.0</ele><time>2026-04-10T16:21:32.18Z</time></trkpt><trkpt lat="41.8234217" lon="15.55035"><ele>249.0</ele><time>2026-04-10T16:21:33.183Z</time></trkpt><trkpt lat="41.8235" lon="15.550515"><ele>249.0</ele><time>2026-04-10T16:21:34.183Z</time></trkpt><trkpt lat="41.8235683" lon="15.5506917"><ele>249.0</ele><time>2026-04-10T16:21:35.178Z</time></trkpt><trkpt lat="41.823615" lon="15.5508533"><ele>249.0</ele><time>2026-04-10T16:21:36.178Z</time></trkpt><trkpt lat="41.82366" lon="15.55099"><ele>249.0</ele><time>2026-04-10T16:21:37.175Z</time></trkpt><trkpt lat="41.8237033" lon="15.5511033"><ele>249.0</ele><time>2026-04-10T16:21:38.181Z</time></trkpt><trkpt lat="41.823745" lon="15.5512033"><ele>248.99999999999997</ele><time>2026-04-10T16:21:39.182Z</time></trkpt><trkpt lat="41.8237567" lon="15.5512983"><ele>248.99999999999997</ele><time>2026-04-10T16:21:40.183Z</time></trkpt><trkpt lat="41.8237217" lon="15.55146"><ele>249.0</ele><time>2026-04-10T16:21:42.18Z</time></trkpt><trkpt lat="41.8236083" lon="15.551495"><ele>249.0</ele><time>2026-04-10T16:21:44.18Z</time></trkpt><trkpt lat="41.823545" lon="15.5514483"><ele>249.39999999999998</ele><time>2026-04-10T16:21:45.177Z</time></trkpt><trkpt lat="41.8234983" lon="15.551355"><ele>249.79999999999998</ele><time>2026-04-10T16:21:46.178Z</time></trkpt><trkpt lat="41.823465" lon="15.551235"><ele>250.20000000000002</ele><time>2026-04-10T16:21:47.185Z</time></trkpt><trkpt lat="41.8234217" lon="15.551085"><ele>250.60000000000002</ele><time>2026-04-10T16:21:48.18Z</time></trkpt><trkpt lat="41.82335" lon="15.5509567"><ele>251.0</ele><time>2026-04-10T16:21:49.181Z</time></trkpt><trkpt lat="41.8232667" lon="15.5508533"><ele>254.5</ele><time>2026-04-10T16:21:50.179Z</time></trkpt><trkpt lat="41.8231667" lon="15.5507883"><ele>258.0</ele><time>2026-04-10T16:21:51.177Z</time></trkpt><trkpt lat="41.8230517" lon="15.5507733"><ele>261.5</ele><time>2026-04-10T16:21:52.181Z</time></trkpt><trkpt lat="41.8229383" lon="15.5508017"><ele>265.0</ele><time>2026-04-10T16:21:53.178Z</time></trkpt><trkpt lat="41.8228267" lon="15.5508567"><ele>265.0</ele><time>2026-04-10T16:21:54.179Z</time></trkpt><trkpt lat="41.822715" lon="15.5509533"><ele>265.0</ele><time>2026-04-10T16:21:55.179Z</time></trkpt><trkpt lat="41.8226" lon="15.55108"><ele>265.0</ele><time>2026-04-10T16:21:56.179Z</time></trkpt><trkpt lat="41.8224767" lon="15.55122"><ele>265.0</ele><time>2026-04-10T16:21:57.187Z</time></trkpt><trkpt lat="41.8223583" lon="15.5513717"><ele>271.0</ele><time>2026-04-10T16:21:58.181Z</time></trkpt><trkpt lat="41.8222433" lon="15.5515233"><ele>277.0</ele><time>2026-04-10T16:21:59.177Z</time></trkpt><trkpt lat="41.82213" lon="15.5516983"><ele>283.0</ele><time>2026-04-10T16:22:00.181Z</time></trkpt><trkpt lat="41.8220217" lon="15.5518967"><ele>283.3333333333333</ele><time>2026-04-10T16:22:01.179Z</time></trkpt><trkpt lat="41.8219267" lon="15.5521067"><ele>283.6666666666667</ele><time>2026-04-10T16:22:02.189Z</time></trkpt><trkpt lat="41.82185" lon="15.55231"><ele>284.0</ele><time>2026-04-10T16:22:03.178Z</time></trkpt><trkpt lat="41.8217883" lon="15.5525083"><ele>284.0</ele><time>2026-04-10T16:22:04.181Z</time></trkpt><trkpt lat="41.8217417" lon="15.5527183"><ele>284.0</ele><time>2026-04-10T16:22:05.187Z</time></trkpt><trkpt lat="41.8217017" lon="15.552945"><ele>284.0</ele><time>2026-04-10T16:22:06.187Z</time></trkpt><trkpt lat="41.8216683" lon="15.5532017"><ele>286.33333333333337</ele><time>2026-04-10T16:22:07.181Z</time></trkpt><trkpt lat="41.8216433" lon="15.553455"><ele>288.6666666666667</ele><time>2026-04-10T16:22:08.184Z</time></trkpt><trkpt lat="41.8216183" lon="15.55369"><ele>291.0</ele><time>2026-04-10T16:22:09.18Z</time></trkpt><trkpt lat="41.8215933" lon="15.5538967"><ele>293.0</ele><time>2026-04-10T16:22:10.18Z</time></trkpt><trkpt lat="41.82156" lon="15.554085"><ele>295.0</ele><time>2026-04-10T16:22:11.178Z</time></trkpt><trkpt lat="41.8215167" lon="15.5542717"><ele>297.0</ele><time>2026-04-10T16:22:12.179Z</time></trkpt><trkpt lat="41.8214683" lon="15.5544633"><ele>299.0</ele><time>2026-04-10T16:22:13.182Z</time></trkpt><trkpt lat="41.821405" lon="15.554645"><ele>302.6666666666667</ele><time>2026-04-10T16:22:14.178Z</time></trkpt><trkpt lat="41.821325" lon="15.5548183"><ele>306.3333333333333</ele><time>2026-04-10T16:22:15.182Z</time></trkpt><trkpt lat="41.8212267" lon="15.5549733"><ele>310.0</ele><time>2026-04-10T16:22:16.18Z</time></trkpt><trkpt lat="41.8211117" lon="15.5550967"><ele>308.0</ele><time>2026-04-10T16:22:17.18Z</time></trkpt><trkpt lat="41.82098" lon="15.5551933"><ele>306.0</ele><time>2026-04-10T16:22:18.178Z</time></trkpt><trkpt lat="41.8208417" lon="15.5552867"><ele>304.0</ele><time>2026-04-10T16:22:19.177Z</time></trkpt><trkpt lat="41.8206983" lon="15.5553733"><ele>308.0</ele><time>2026-04-10T16:22:20.18Z</time></trkpt><trkpt lat="41.8205583" lon="15.5554717"><ele>312.0</ele><time>2026-04-10T16:22:21.181Z</time></trkpt><trkpt lat="41.82043" lon="15.5556033"><ele>316.0</ele><time>2026-04-10T16:22:22.186Z</time></trkpt><trkpt lat="41.8203117" lon="15.5557533"><ele>316.0</ele><time>2026-04-10T16:22:23.194Z</time></trkpt><trkpt lat="41.8202017" lon="15.5559267"><ele>316.0</ele><time>2026-04-10T16:22:24.18Z</time></trkpt><trkpt lat="41.8200967" lon="15.5561133"><ele>316.0</ele><time>2026-04-10T16:22:25.187Z</time></trkpt><trkpt lat="41.8199917" lon="15.5563183"><ele>316.66666666666663</ele><time>2026-04-10T16:22:26.181Z</time></trkpt><trkpt lat="41.8198917" lon="15.5565383"><ele>317.3333333333333</ele><time>2026-04-10T16:22:27.182Z</time></trkpt><trkpt lat="41.8197933" lon="15.55677"><ele>318.0</ele><time>2026-04-10T16:22:28.179Z</time></trkpt><trkpt lat="41.8196983" lon="15.5569917"><ele>321.0</ele><time>2026-04-10T16:22:29.183Z</time></trkpt><trkpt lat="41.8196267" lon="15.5571967"><ele>324.0</ele><time>2026-04-10T16:22:30.181Z</time></trkpt><trkpt lat="41.819575" lon="15.5574033"><ele>327.0</ele><time>2026-04-10T16:22:31.178Z</time></trkpt><trkpt lat="41.81955" lon="15.5575883"><ele>327.0</ele><time>2026-04-10T16:22:32.188Z</time></trkpt><trkpt lat="41.81955" lon="15.5577783"><ele>327.0</ele><time>2026-04-10T16:22:33.179Z</time></trkpt><trkpt lat="41.81957" lon="15.5579683"><ele>327.0</ele><time>2026-04-10T16:22:34.18Z</time></trkpt><trkpt lat="41.8196083" lon="15.5581517"><ele>327.0</ele><time>2026-04-10T16:22:35.181Z</time></trkpt><trkpt lat="41.8196367" lon="15.5583183"><ele>328.0</ele><time>2026-04-10T16:22:36.18Z</time></trkpt><trkpt lat="41.8196467" lon="15.5584783"><ele>329.0</ele><time>2026-04-10T16:22:37.181Z</time></trkpt><trkpt lat="41.8196283" lon="15.5586317"><ele>330.0</ele><time>2026-04-10T16:22:38.181Z</time></trkpt><trkpt lat="41.8196" lon="15.5587817"><ele>331.0</ele><time>2026-04-10T16:22:39.182Z</time></trkpt><trkpt lat="41.81957" lon="15.5589183"><ele>331.8333333333333</ele><time>2026-04-10T16:22:40.183Z</time></trkpt><trkpt lat="41.8195467" lon="15.559035"><ele>332.66666666666663</ele><time>2026-04-10T16:22:41.179Z</time></trkpt><trkpt lat="41.8195567" lon="15.5591383"><ele>333.5</ele><time>2026-04-10T16:22:42.178Z</time></trkpt><trkpt lat="41.8196117" lon="15.5592133"><ele>334.3333333333333</ele><time>2026-04-10T16:22:43.183Z</time></trkpt><trkpt lat="41.8196767" lon="15.5592617"><ele>335.1666666666667</ele><time>2026-04-10T16:22:44.18Z</time></trkpt><trkpt lat="41.8197467" lon="15.559265"><ele>336.0</ele><time>2026-04-10T16:22:45.18Z</time></trkpt><trkpt lat="41.8198183" lon="15.5592"><ele>336.0</ele><time>2026-04-10T16:22:46.178Z</time></trkpt><trkpt lat="41.8198833" lon="15.55908"><ele>336.0</ele><time>2026-04-10T16:22:47.181Z</time></trkpt><trkpt lat="41.8199433" lon="15.5589117"><ele>336.0</ele><time>2026-04-10T16:22:48.182Z</time></trkpt><trkpt lat="41.820005" lon="15.5587567"><ele>336.0</ele><time>2026-04-10T16:22:49.182Z</time></trkpt><trkpt lat="41.820045" lon="15.55858"><ele>335.0</ele><time>2026-04-10T16:22:50.181Z</time></trkpt><trkpt lat="41.820075" lon="15.55842"><ele>334.0</ele><time>2026-04-10T16:22:51.18Z</time></trkpt><trkpt lat="41.8200883" lon="15.5582733"><ele>333.0</ele><time>2026-04-10T16:22:52.184Z</time></trkpt><trkpt lat="41.82008" lon="15.5581367"><ele>332.0</ele><time>2026-04-10T16:22:53.18Z</time></trkpt><trkpt lat="41.8200783" lon="15.5580283"><ele>331.0</ele><time>2026-04-10T16:22:54.179Z</time></trkpt><trkpt lat="41.820085" lon="15.55792"><ele>330.3333333333333</ele><time>2026-04-10T16:22:55.182Z</time></trkpt><trkpt lat="41.8201083" lon="15.5578217"><ele>329.66666666666663</ele><time>2026-04-10T16:22:56.187Z</time></trkpt><trkpt lat="41.8201567" lon="15.557755"><ele>329.0</ele><time>2026-04-10T16:22:57.179Z</time></trkpt><trkpt lat="41.8202233" lon="15.5577317"><ele>328.3333333333333</ele><time>2026-04-10T16:22:58.181Z</time></trkpt><trkpt lat="41.8202967" lon="15.5578"><ele>327.6666666666667</ele><time>2026-04-10T16:22:59.18Z</time></trkpt><trkpt lat="41.8203317" lon="15.5579033"><ele>327.0</ele><time>2026-04-10T16:23:00.182Z</time></trkpt><trkpt lat="41.8203417" lon="15.558015"><ele>331.25</ele><time>2026-04-10T16:23:01.18Z</time></trkpt><trkpt lat="41.8203433" lon="15.55816"><ele>335.5</ele><time>2026-04-10T16:23:02.182Z</time></trkpt><trkpt lat="41.82032" lon="15.5583633"><ele>339.75</ele><time>2026-04-10T16:23:03.18Z</time></trkpt><trkpt lat="41.8203083" lon="15.5585583"><ele>344.0</ele><time>2026-04-10T16:23:04.18Z</time></trkpt><trkpt lat="41.8203033" lon="15.5587567"><ele>344.33333333333337</ele><time>2026-04-10T16:23:05.179Z</time></trkpt><trkpt lat="41.8203033" lon="15.5589733"><ele>344.6666666666667</ele><time>2026-04-10T16:23:06.18Z</time></trkpt><trkpt lat="41.8202883" lon="15.5592033"><ele>345.0</ele><time>2026-04-10T16:23:07.187Z</time></trkpt><trkpt lat="41.8202633" lon="15.559405"><ele>345.0</ele><time>2026-04-10T16:23:08.179Z</time></trkpt><trkpt lat="41.820205" lon="15.5595817"><ele>345.0</ele><time>2026-04-10T16:23:09.183Z</time></trkpt><trkpt lat="41.8201217" lon="15.5597383"><ele>345.0</ele><time>2026-04-10T16:23:10.18Z</time></trkpt><trkpt lat="41.8200233" lon="15.5598917"><ele>345.0</ele><time>2026-04-10T16:23:11.181Z</time></trkpt><trkpt lat="41.8199183" lon="15.560055"><ele>345.0</ele><time>2026-04-10T16:23:12.18Z</time></trkpt><trkpt lat="41.81981" lon="15.5602217"><ele>345.0</ele><time>2026-04-10T16:23:13.182Z</time></trkpt><trkpt lat="41.8197083" lon="15.5603967"><ele>345.0</ele><time>2026-04-10T16:23:14.183Z</time></trkpt><trkpt lat="41.8196117" lon="15.5605833"><ele>348.6666666666667</ele><time>2026-04-10T16:23:15.182Z</time></trkpt><trkpt lat="41.819525" lon="15.5607833"><ele>352.33333333333337</ele><time>2026-04-10T16:23:16.18Z</time></trkpt><trkpt lat="41.819445" lon="15.560995"><ele>356.0</ele><time>2026-04-10T16:23:17.18Z</time></trkpt><trkpt lat="41.819355" lon="15.56117"><ele>357.33333333333337</ele><time>2026-04-10T16:23:18.178Z</time></trkpt><trkpt lat="41.819255" lon="15.5613117"><ele>358.6666666666667</ele><time>2026-04-10T16:23:19.18Z</time></trkpt><trkpt lat="41.8191417" lon="15.56144"><ele>360.0</ele><time>2026-04-10T16:23:20.186Z</time></trkpt><trkpt lat="41.8190167" lon="15.5615683"><ele>360.0</ele><time>2026-04-10T16:23:21.179Z</time></trkpt><trkpt lat="41.8188817" lon="15.5617033"><ele>360.0</ele><time>2026-04-10T16:23:22.179Z</time></trkpt><trkpt lat="41.8187367" lon="15.5618383"><ele>360.0</ele><time>2026-04-10T16:23:23.181Z</time></trkpt><trkpt lat="41.8185883" lon="15.5619817"><ele>361.3333333333333</ele><time>2026-04-10T16:23:24.184Z</time></trkpt><trkpt lat="41.8184417" lon="15.5621417"><ele>362.66666666666663</ele><time>2026-04-10T16:23:25.181Z</time></trkpt><trkpt lat="41.8182883" lon="15.5623033"><ele>364.0</ele><time>2026-04-10T16:23:26.181Z</time></trkpt><trkpt lat="41.818135" lon="15.5624683"><ele>364.0</ele><time>2026-04-10T16:23:27.183Z</time></trkpt><trkpt lat="41.81798" lon="15.5626433"><ele>364.0</ele><time>2026-04-10T16:23:28.18Z</time></trkpt><trkpt lat="41.8178183" lon="15.562825"><ele>364.0</ele><time>2026-04-10T16:23:29.182Z</time></trkpt><trkpt lat="41.8176483" lon="15.5630167"><ele>367.0</ele><time>2026-04-10T16:23:30.183Z</time></trkpt><trkpt lat="41.81747" lon="15.5632167"><ele>370.0</ele><time>2026-04-10T16:23:31.18Z</time></trkpt><trkpt lat="41.817295" lon="15.5634167"><ele>370.0</ele><time>2026-04-10T16:23:32.181Z</time></trkpt><trkpt lat="41.8171283" lon="15.56362"><ele>370.0</ele><time>2026-04-10T16:23:33.187Z</time></trkpt><trkpt lat="41.8169617" lon="15.563825"><ele>371.0</ele><time>2026-04-10T16:23:34.18Z</time></trkpt><trkpt lat="41.8167883" lon="15.564025"><ele>372.0</ele><time>2026-04-10T16:23:35.181Z</time></trkpt><trkpt lat="41.8166183" lon="15.5642367"><ele>372.0</ele><time>2026-04-10T16:23:36.187Z</time></trkpt><trkpt lat="41.816445" lon="15.564445"><ele>372.0</ele><time>2026-04-10T16:23:37.179Z</time></trkpt><trkpt lat="41.8162683" lon="15.56466"><ele>369.5</ele><time>2026-04-10T16:23:38.187Z</time></trkpt><trkpt lat="41.816085" lon="15.5648833"><ele>367.0</ele><time>2026-04-10T16:23:39.183Z</time></trkpt><trkpt lat="41.8158967" lon="15.56511"><ele>370.5</ele><time>2026-04-10T16:23:40.182Z</time></trkpt><trkpt lat="41.8157067" lon="15.5653417"><ele>374.0</ele><time>2026-04-10T16:23:41.18Z</time></trkpt><trkpt lat="41.8155133" lon="15.5655783"><ele>374.0</ele><time>2026-04-10T16:23:42.183Z</time></trkpt><trkpt lat="41.815315" lon="15.5658167"><ele>374.0</ele><time>2026-04-10T16:23:43.189Z</time></trkpt><trkpt lat="41.8151167" lon="15.566045"><ele>377.0</ele><time>2026-04-10T16:23:44.181Z</time></trkpt><trkpt lat="41.8149233" lon="15.56627"><ele>380.0</ele><time>2026-04-10T16:23:45.183Z</time></trkpt><trkpt lat="41.8147283" lon="15.5664917"><ele>380.0</ele><time>2026-04-10T16:23:46.18Z</time></trkpt><trkpt lat="41.81453" lon="15.5667183"><ele>380.0</ele><time>2026-04-10T16:23:47.18Z</time></trkpt><trkpt lat="41.8143283" lon="15.56695"><ele>381.5</ele><time>2026-04-10T16:23:48.182Z</time></trkpt><trkpt lat="41.8141183" lon="15.5671867"><ele>383.0</ele><time>2026-04-10T16:23:49.183Z</time></trkpt><trkpt lat="41.8139083" lon="15.5674283"><ele>383.0</ele><time>2026-04-10T16:23:50.19Z</time></trkpt><trkpt lat="41.8136933" lon="15.5676717"><ele>383.0</ele><time>2026-04-10T16:23:51.182Z</time></trkpt><trkpt lat="41.8134883" lon="15.5679117"><ele>384.0</ele><time>2026-04-10T16:23:52.18Z</time></trkpt><trkpt lat="41.813295" lon="15.56813"><ele>385.0</ele><time>2026-04-10T16:23:53.179Z</time></trkpt><trkpt lat="41.8131133" lon="15.5683383"><ele>385.0</ele><time>2026-04-10T16:23:54.181Z</time></trkpt><trkpt lat="41.8129383" lon="15.5685283"><ele>385.0</ele><time>2026-04-10T16:23:55.183Z</time></trkpt><trkpt lat="41.8127683" lon="15.5687167"><ele>385.0</ele><time>2026-04-10T16:23:56.182Z</time></trkpt><trkpt lat="41.8126017" lon="15.568905"><ele>387.0</ele><time>2026-04-10T16:23:57.184Z</time></trkpt><trkpt lat="41.8124317" lon="15.569095"><ele>389.0</ele><time>2026-04-10T16:23:58.182Z</time></trkpt><trkpt lat="41.812265" lon="15.5692833"><ele>391.0</ele><time>2026-04-10T16:23:59.183Z</time></trkpt><trkpt lat="41.812105" lon="15.5694483"><ele>391.33333333333337</ele><time>2026-04-10T16:24:00.183Z</time></trkpt><trkpt lat="41.8119417" lon="15.5695883"><ele>391.66666666666663</ele><time>2026-04-10T16:24:01.187Z</time></trkpt><trkpt lat="41.8117733" lon="15.5697067"><ele>392.0</ele><time>2026-04-10T16:24:02.197Z</time></trkpt><trkpt lat="41.8115983" lon="15.569815"><ele>392.3333333333333</ele><time>2026-04-10T16:24:03.185Z</time></trkpt><trkpt lat="41.8114233" lon="15.5699183"><ele>392.66666666666663</ele><time>2026-04-10T16:24:04.188Z</time></trkpt><trkpt lat="41.8112583" lon="15.570025"><ele>393.0</ele><time>2026-04-10T16:24:05.182Z</time></trkpt><trkpt lat="41.8111083" lon="15.5701167"><ele>393.0</ele><time>2026-04-10T16:24:06.18Z</time></trkpt><trkpt lat="41.8109767" lon="15.5702067"><ele>393.0</ele><time>2026-04-10T16:24:07.182Z</time></trkpt><trkpt lat="41.8108617" lon="15.5703133"><ele>393.0</ele><time>2026-04-10T16:24:08.179Z</time></trkpt><trkpt lat="41.8107617" lon="15.57045"><ele>393.0</ele><time>2026-04-10T16:24:09.18Z</time></trkpt><trkpt lat="41.8106833" lon="15.5705967"><ele>393.0</ele><time>2026-04-10T16:24:10.187Z</time></trkpt><trkpt lat="41.810615" lon="15.5707467"><ele>393.0</ele><time>2026-04-10T16:24:11.184Z</time></trkpt><trkpt lat="41.8105583" lon="15.5708983"><ele>393.0</ele><time>2026-04-10T16:24:12.182Z</time></trkpt><trkpt lat="41.8105" lon="15.571045"><ele>393.0</ele><time>2026-04-10T16:24:13.183Z</time></trkpt><trkpt lat="41.81044" lon="15.57118"><ele>393.0</ele><time>2026-04-10T16:24:14.18Z</time></trkpt><trkpt lat="41.8103817" lon="15.5713183"><ele>393.0</ele><time>2026-04-10T16:24:15.18Z</time></trkpt><trkpt lat="41.8103217" lon="15.571475"><ele>393.0</ele><time>2026-04-10T16:24:16.183Z</time></trkpt><trkpt lat="41.8102533" lon="15.5716467"><ele>393.0</ele><time>2026-04-10T16:24:17.183Z</time></trkpt><trkpt lat="41.810175" lon="15.5718317"><ele>391.66666666666663</ele><time>2026-04-10T16:24:18.185Z</time></trkpt><trkpt lat="41.810085" lon="15.572015"><ele>390.3333333333333</ele><time>2026-04-10T16:24:19.18Z</time></trkpt><trkpt lat="41.8099833" lon="15.57219"><ele>389.0</ele><time>2026-04-10T16:24:20.181Z</time></trkpt><trkpt lat="41.8098767" lon="15.572355"><ele>389.0</ele><time>2026-04-10T16:24:21.186Z</time></trkpt><trkpt lat="41.8097733" lon="15.5725133"><ele>389.0</ele><time>2026-04-10T16:24:22.18Z</time></trkpt><trkpt lat="41.8096767" lon="15.5726633"><ele>389.0</ele><time>2026-04-10T16:24:23.181Z</time></trkpt><trkpt lat="41.80958" lon="15.5727983"><ele>389.0</ele><time>2026-04-10T16:24:24.18Z</time></trkpt><trkpt lat="41.8094767" lon="15.57291"><ele>389.25</ele><time>2026-04-10T16:24:25.18Z</time></trkpt><trkpt lat="41.8093633" lon="15.572995"><ele>389.5</ele><time>2026-04-10T16:24:26.181Z</time></trkpt><trkpt lat="41.8092467" lon="15.5730533"><ele>389.75</ele><time>2026-04-10T16:24:27.18Z</time></trkpt><trkpt lat="41.8091267" lon="15.5731"><ele>390.0</ele><time>2026-04-10T16:24:28.18Z</time></trkpt><trkpt lat="41.8090017" lon="15.57314"><ele>389.25</ele><time>2026-04-10T16:24:29.18Z</time></trkpt><trkpt lat="41.8088733" lon="15.573185"><ele>388.5</ele><time>2026-04-10T16:24:30.179Z</time></trkpt><trkpt lat="41.8087317" lon="15.573245"><ele>387.75</ele><time>2026-04-10T16:24:31.182Z</time></trkpt><trkpt lat="41.808575" lon="15.5733083"><ele>387.0</ele><time>2026-04-10T16:24:32.181Z</time></trkpt><trkpt lat="41.8084033" lon="15.5733817"><ele>385.3333333333333</ele><time>2026-04-10T16:24:33.18Z</time></trkpt><trkpt lat="41.80822" lon="15.5734583"><ele>383.66666666666663</ele><time>2026-04-10T16:24:34.183Z</time></trkpt><trkpt lat="41.8080333" lon="15.5735367"><ele>382.0</ele><time>2026-04-10T16:24:35.182Z</time></trkpt><trkpt lat="41.8078533" lon="15.57361"><ele>382.0</ele><time>2026-04-10T16:24:36.183Z</time></trkpt><trkpt lat="41.807685" lon="15.573675"><ele>382.0</ele><time>2026-04-10T16:24:37.183Z</time></trkpt><trkpt lat="41.80753" lon="15.57373"><ele>382.0</ele><time>2026-04-10T16:24:38.182Z</time></trkpt><trkpt lat="41.8073917" lon="15.57377"><ele>381.75</ele><time>2026-04-10T16:24:39.189Z</time></trkpt><trkpt lat="41.8072617" lon="15.5737783"><ele>381.5</ele><time>2026-04-10T16:24:40.181Z</time></trkpt><trkpt lat="41.8071333" lon="15.573755"><ele>381.25</ele><time>2026-04-10T16:24:41.18Z</time></trkpt><trkpt lat="41.8070017" lon="15.5737017"><ele>381.0</ele><time>2026-04-10T16:24:42.179Z</time></trkpt><trkpt lat="41.8068683" lon="15.5736283"><ele>381.75</ele><time>2026-04-10T16:24:43.18Z</time></trkpt><trkpt lat="41.8067317" lon="15.5735517"><ele>382.5</ele><time>2026-04-10T16:24:44.183Z</time></trkpt><trkpt lat="41.8066017" lon="15.5734583"><ele>383.25</ele><time>2026-04-10T16:24:45.178Z</time></trkpt><trkpt lat="41.8064867" lon="15.5733367"><ele>384.0</ele><time>2026-04-10T16:24:46.18Z</time></trkpt><trkpt lat="41.8063717" lon="15.57319"><ele>384.0</ele><time>2026-04-10T16:24:47.184Z</time></trkpt><trkpt lat="41.8062583" lon="15.573015"><ele>384.0</ele><time>2026-04-10T16:24:48.184Z</time></trkpt><trkpt lat="41.8061433" lon="15.572825"><ele>384.0</ele><time>2026-04-10T16:24:49.187Z</time></trkpt><trkpt lat="41.8060217" lon="15.5726217"><ele>386.33333333333337</ele><time>2026-04-10T16:24:50.187Z</time></trkpt><trkpt lat="41.8058983" lon="15.5724067"><ele>388.6666666666667</ele><time>2026-04-10T16:24:51.187Z</time></trkpt><trkpt lat="41.8057783" lon="15.5721983"><ele>391.0</ele><time>2026-04-10T16:24:52.18Z</time></trkpt><trkpt lat="41.8056683" lon="15.5720067"><ele>391.33333333333337</ele><time>2026-04-10T16:24:53.181Z</time></trkpt><trkpt lat="41.8055667" lon="15.5718283"><ele>391.66666666666663</ele><time>2026-04-10T16:24:54.18Z</time></trkpt><trkpt lat="41.8054717" lon="15.571675"><ele>392.0</ele><time>2026-04-10T16:24:55.181Z</time></trkpt><trkpt lat="41.80537" lon="15.5715467"><ele>392.0</ele><time>2026-04-10T16:24:56.183Z</time></trkpt><trkpt lat="41.8052517" lon="15.5714383"><ele>392.0</ele><time>2026-04-10T16:24:57.182Z</time></trkpt><trkpt lat="41.8051183" lon="15.57136"><ele>392.0</ele><time>2026-04-10T16:24:58.182Z</time></trkpt><trkpt lat="41.8049717" lon="15.5713033"><ele>392.0</ele><time>2026-04-10T16:24:59.179Z</time></trkpt><trkpt lat="41.8048217" lon="15.5712617"><ele>393.3333333333333</ele><time>2026-04-10T16:25:00.186Z</time></trkpt><trkpt lat="41.8046617" lon="15.5712617"><ele>394.66666666666663</ele><time>2026-04-10T16:25:01.181Z</time></trkpt><trkpt lat="41.8044967" lon="15.5712983"><ele>396.0</ele><time>2026-04-10T16:25:02.181Z</time></trkpt><trkpt lat="41.8043183" lon="15.571365"><ele>397.0</ele><time>2026-04-10T16:25:03.182Z</time></trkpt><trkpt lat="41.8041283" lon="15.5714417"><ele>398.0</ele><time>2026-04-10T16:25:04.184Z</time></trkpt><trkpt lat="41.8039233" lon="15.5715267"><ele>399.0</ele><time>2026-04-10T16:25:05.184Z</time></trkpt><trkpt lat="41.8037083" lon="15.5716117"><ele>398.5</ele><time>2026-04-10T16:25:06.185Z</time></trkpt><trkpt lat="41.80349" lon="15.5716933"><ele>398.0</ele><time>2026-04-10T16:25:07.185Z</time></trkpt><trkpt lat="41.8032733" lon="15.5717783"><ele>398.0</ele><time>2026-04-10T16:25:08.18Z</time></trkpt><trkpt lat="41.80306" lon="15.57186"><ele>398.0</ele><time>2026-04-10T16:25:09.18Z</time></trkpt><trkpt lat="41.8028567" lon="15.571925"><ele>398.0</ele><time>2026-04-10T16:25:10.18Z</time></trkpt><trkpt lat="41.802665" lon="15.5719717"><ele>398.0</ele><time>2026-04-10T16:25:11.183Z</time></trkpt><trkpt lat="41.8024833" lon="15.571995"><ele>398.0</ele><time>2026-04-10T16:25:12.183Z</time></trkpt><trkpt lat="41.8023033" lon="15.57201"><ele>398.0</ele><time>2026-04-10T16:25:13.179Z</time></trkpt><trkpt lat="41.802125" lon="15.5720367"><ele>401.3333333333333</ele><time>2026-04-10T16:25:14.181Z</time></trkpt><trkpt lat="41.8019483" lon="15.5720883"><ele>404.66666666666663</ele><time>2026-04-10T16:25:15.179Z</time></trkpt><trkpt lat="41.8017717" lon="15.5721667"><ele>408.0</ele><time>2026-04-10T16:25:16.181Z</time></trkpt><trkpt lat="41.8015933" lon="15.572275"><ele>408.66666666666663</ele><time>2026-04-10T16:25:17.183Z</time></trkpt><trkpt lat="41.8014133" lon="15.5723983"><ele>409.3333333333333</ele><time>2026-04-10T16:25:18.182Z</time></trkpt><trkpt lat="41.8012283" lon="15.5725283"><ele>410.0</ele><time>2026-04-10T16:25:19.189Z</time></trkpt><trkpt lat="41.8010583" lon="15.5726517"><ele>409.3333333333333</ele><time>2026-04-10T16:25:20.182Z</time></trkpt><trkpt lat="41.8009083" lon="15.5727833"><ele>408.66666666666663</ele><time>2026-04-10T16:25:21.187Z</time></trkpt><trkpt lat="41.8007733" lon="15.5729317"><ele>408.0</ele><time>2026-04-10T16:25:22.184Z</time></trkpt><trkpt lat="41.800655" lon="15.573105"><ele>411.0</ele><time>2026-04-10T16:25:23.182Z</time></trkpt><trkpt lat="41.8005417" lon="15.5733033"><ele>414.0</ele><time>2026-04-10T16:25:24.192Z</time></trkpt><trkpt lat="41.8004283" lon="15.5735017"><ele>417.0</ele><time>2026-04-10T16:25:25.183Z</time></trkpt><trkpt lat="41.8003233" lon="15.5736883"><ele>417.5</ele><time>2026-04-10T16:25:26.186Z</time></trkpt><trkpt lat="41.800225" lon="15.57385"><ele>418.0</ele><time>2026-04-10T16:25:27.18Z</time></trkpt><trkpt lat="41.8001333" lon="15.5739733"><ele>418.5</ele><time>2026-04-10T16:25:28.181Z</time></trkpt><trkpt lat="41.8000433" lon="15.57404"><ele>419.0</ele><time>2026-04-10T16:25:29.178Z</time></trkpt><trkpt lat="41.7999483" lon="15.574055"><ele>419.0</ele><time>2026-04-10T16:25:30.178Z</time></trkpt><trkpt lat="41.79984" lon="15.5740333"><ele>419.0</ele><time>2026-04-10T16:25:31.185Z</time></trkpt><trkpt lat="41.79972" lon="15.5739967"><ele>419.0</ele><time>2026-04-10T16:25:32.181Z</time></trkpt><trkpt lat="41.799585" lon="15.57396"><ele>419.0</ele><time>2026-04-10T16:25:33.182Z</time></trkpt><trkpt lat="41.79943" lon="15.5739267"><ele>420.66666666666663</ele><time>2026-04-10T16:25:34.177Z</time></trkpt><trkpt lat="41.7992583" lon="15.5738867"><ele>422.33333333333337</ele><time>2026-04-10T16:25:35.183Z</time></trkpt><trkpt lat="41.799075" lon="15.57384"><ele>424.0</ele><time>2026-04-10T16:25:36.181Z</time></trkpt><trkpt lat="41.798885" lon="15.5737933"><ele>424.0</ele><time>2026-04-10T16:25:37.18Z</time></trkpt><trkpt lat="41.798695" lon="15.5737633"><ele>424.0</ele><time>2026-04-10T16:25:38.181Z</time></trkpt><trkpt lat="41.7985" lon="15.5737483"><ele>424.0</ele><time>2026-04-10T16:25:39.182Z</time></trkpt><trkpt lat="41.7983033" lon="15.5737383"><ele>425.33333333333337</ele><time>2026-04-10T16:25:40.185Z</time></trkpt><trkpt lat="41.7981083" lon="15.57371"><ele>426.66666666666663</ele><time>2026-04-10T16:25:41.183Z</time></trkpt><trkpt lat="41.7979183" lon="15.573655"><ele>428.0</ele><time>2026-04-10T16:25:42.182Z</time></trkpt><trkpt lat="41.7977417" lon="15.5735933"><ele>426.0</ele><time>2026-04-10T16:25:43.184Z</time></trkpt><trkpt lat="41.7975783" lon="15.5735317"><ele>424.0</ele><time>2026-04-10T16:25:44.182Z</time></trkpt><trkpt lat="41.7974217" lon="15.57346"><ele>422.0</ele><time>2026-04-10T16:25:45.181Z</time></trkpt><trkpt lat="41.79728" lon="15.5733733"><ele>422.0</ele><time>2026-04-10T16:25:46.184Z</time></trkpt><trkpt lat="41.7971583" lon="15.5732833"><ele>422.0</ele><time>2026-04-10T16:25:47.185Z</time></trkpt><trkpt lat="41.79706" lon="15.5731867"><ele>422.0</ele><time>2026-04-10T16:25:48.187Z</time></trkpt><trkpt lat="41.7969917" lon="15.5730633"><ele>422.0</ele><time>2026-04-10T16:25:49.179Z</time></trkpt><trkpt lat="41.7969517" lon="15.5729183"><ele>420.5</ele><time>2026-04-10T16:25:50.178Z</time></trkpt><trkpt lat="41.7969383" lon="15.57276"><ele>419.0</ele><time>2026-04-10T16:25:51.179Z</time></trkpt><trkpt lat="41.7969433" lon="15.57259"><ele>417.5</ele><time>2026-04-10T16:25:52.181Z</time></trkpt><trkpt lat="41.796945" lon="15.5724217"><ele>416.0</ele><time>2026-04-10T16:25:53.187Z</time></trkpt><trkpt lat="41.7969317" lon="15.5722633"><ele>416.0</ele><time>2026-04-10T16:25:54.178Z</time></trkpt><trkpt lat="41.7968933" lon="15.572125"><ele>416.0</ele><time>2026-04-10T16:25:55.179Z</time></trkpt><trkpt lat="41.7968283" lon="15.5720117"><ele>416.0</ele><time>2026-04-10T16:25:56.184Z</time></trkpt><trkpt lat="41.7967383" lon="15.5719217"><ele>416.0</ele><time>2026-04-10T16:25:57.18Z</time></trkpt><trkpt lat="41.7966233" lon="15.57185"><ele>418.0</ele><time>2026-04-10T16:25:58.184Z</time></trkpt><trkpt lat="41.7964817" lon="15.5717933"><ele>420.0</ele><time>2026-04-10T16:25:59.181Z</time></trkpt><trkpt lat="41.7963167" lon="15.5717383"><ele>422.0</ele><time>2026-04-10T16:26:00.18Z</time></trkpt><trkpt lat="41.7961333" lon="15.57167"><ele>422.3333333333333</ele><time>2026-04-10T16:26:01.185Z</time></trkpt><trkpt lat="41.7959367" lon="15.57159"><ele>422.66666666666663</ele><time>2026-04-10T16:26:02.187Z</time></trkpt><trkpt lat="41.79574" lon="15.571495"><ele>423.0</ele><time>2026-04-10T16:26:03.179Z</time></trkpt><trkpt lat="41.79555" lon="15.57138"><ele>423.0</ele><time>2026-04-10T16:26:04.184Z</time></trkpt><trkpt lat="41.7953517" lon="15.571255"><ele>423.0</ele><time>2026-04-10T16:26:05.183Z</time></trkpt><trkpt lat="41.7951433" lon="15.571125"><ele>423.0</ele><time>2026-04-10T16:26:06.183Z</time></trkpt><trkpt lat="41.79493" lon="15.5709883"><ele>421.0</ele><time>2026-04-10T16:26:07.188Z</time></trkpt><trkpt lat="41.7947067" lon="15.5708467"><ele>419.0</ele><time>2026-04-10T16:26:08.194Z</time></trkpt><trkpt lat="41.7944783" lon="15.570705"><ele>422.5</ele><time>2026-04-10T16:26:09.187Z</time></trkpt><trkpt lat="41.7942483" lon="15.5705633"><ele>426.0</ele><time>2026-04-10T16:26:10.184Z</time></trkpt><trkpt lat="41.7940283" lon="15.5704267"><ele>425.0</ele><time>2026-04-10T16:26:11.182Z</time></trkpt><trkpt lat="41.79382" lon="15.5702983"><ele>424.0</ele><time>2026-04-10T16:26:12.178Z</time></trkpt><trkpt lat="41.7936233" lon="15.570175"><ele>423.0</ele><time>2026-04-10T16:26:13.18Z</time></trkpt><trkpt lat="41.7934383" lon="15.57006"><ele>423.0</ele><time>2026-04-10T16:26:14.183Z</time></trkpt><trkpt lat="41.7932617" lon="15.569955"><ele>423.0</ele><time>2026-04-10T16:26:15.184Z</time></trkpt><trkpt lat="41.7931" lon="15.5698583"><ele>423.0</ele><time>2026-04-10T16:26:16.185Z</time></trkpt><trkpt lat="41.7929733" lon="15.569775"><ele>423.0</ele><time>2026-04-10T16:26:17.183Z</time></trkpt><trkpt lat="41.79289" lon="15.5696917"><ele>423.0</ele><time>2026-04-10T16:26:18.182Z</time></trkpt><trkpt lat="41.792845" lon="15.5695917"><ele>423.0</ele><time>2026-04-10T16:26:19.182Z</time></trkpt><trkpt lat="41.792825" lon="15.5694867"><ele>423.0</ele><time>2026-04-10T16:26:20.18Z</time></trkpt><trkpt lat="41.7928267" lon="15.5693767"><ele>423.0</ele><time>2026-04-10T16:26:21.181Z</time></trkpt><trkpt lat="41.7928483" lon="15.56926"><ele>423.0</ele><time>2026-04-10T16:26:22.178Z</time></trkpt><trkpt lat="41.7928917" lon="15.5691183"><ele>423.0</ele><time>2026-04-10T16:26:23.181Z</time></trkpt><trkpt lat="41.79294" lon="15.56896"><ele>423.0</ele><time>2026-04-10T16:26:24.183Z</time></trkpt><trkpt lat="41.7929967" lon="15.5687867"><ele>423.0</ele><time>2026-04-10T16:26:25.18Z</time></trkpt><trkpt lat="41.7930483" lon="15.5686083"><ele>423.0</ele><time>2026-04-10T16:26:26.182Z</time></trkpt><trkpt lat="41.7931067" lon="15.56845"><ele>424.25</ele><time>2026-04-10T16:26:27.179Z</time></trkpt><trkpt lat="41.7931483" lon="15.568295"><ele>425.5</ele><time>2026-04-10T16:26:28.18Z</time></trkpt><trkpt lat="41.79317" lon="15.5681433"><ele>426.75</ele><time>2026-04-10T16:26:29.179Z</time></trkpt><trkpt lat="41.79316" lon="15.567985"><ele>428.0</ele><time>2026-04-10T16:26:30.181Z</time></trkpt><trkpt lat="41.7931233" lon="15.5678367"><ele>428.0</ele><time>2026-04-10T16:26:31.179Z</time></trkpt><trkpt lat="41.7930617" lon="15.567705"><ele>428.0</ele><time>2026-04-10T16:26:32.182Z</time></trkpt><trkpt lat="41.792975" lon="15.5676067"><ele>428.0</ele><time>2026-04-10T16:26:33.187Z</time></trkpt><trkpt lat="41.792875" lon="15.5675467"><ele>428.0</ele><time>2026-04-10T16:26:34.18Z</time></trkpt><trkpt lat="41.792765" lon="15.5675267"><ele>429.25</ele><time>2026-04-10T16:26:35.181Z</time></trkpt><trkpt lat="41.7926433" lon="15.567555"><ele>430.5</ele><time>2026-04-10T16:26:36.18Z</time></trkpt><trkpt lat="41.792505" lon="15.5676117"><ele>431.75</ele><time>2026-04-10T16:26:37.181Z</time></trkpt><trkpt lat="41.79235" lon="15.567685"><ele>433.0</ele><time>2026-04-10T16:26:38.179Z</time></trkpt><trkpt lat="41.7921817" lon="15.56776"><ele>433.0</ele><time>2026-04-10T16:26:39.179Z</time></trkpt><trkpt lat="41.792005" lon="15.5678417"><ele>433.0</ele><time>2026-04-10T16:26:40.179Z</time></trkpt><trkpt lat="41.7918283" lon="15.5679233"><ele>433.0</ele><time>2026-04-10T16:26:41.182Z</time></trkpt><trkpt lat="41.7916517" lon="15.5679867"><ele>434.6666666666667</ele><time>2026-04-10T16:26:42.182Z</time></trkpt><trkpt lat="41.7914733" lon="15.5680267"><ele>436.33333333333337</ele><time>2026-04-10T16:26:43.181Z</time></trkpt><trkpt lat="41.7912783" lon="15.56805"><ele>438.0</ele><time>2026-04-10T16:26:44.184Z</time></trkpt><trkpt lat="41.791075" lon="15.5680683"><ele>439.0</ele><time>2026-04-10T16:26:45.184Z</time></trkpt><trkpt lat="41.7908683" lon="15.5680833"><ele>440.0</ele><time>2026-04-10T16:26:46.187Z</time></trkpt><trkpt lat="41.79066" lon="15.5681"><ele>441.0</ele><time>2026-04-10T16:26:47.18Z</time></trkpt><trkpt lat="41.7904467" lon="15.5681133"><ele>441.0</ele><time>2026-04-10T16:26:48.18Z</time></trkpt><trkpt lat="41.7902383" lon="15.5681283"><ele>441.0</ele><time>2026-04-10T16:26:49.183Z</time></trkpt><trkpt lat="41.790045" lon="15.5681417"><ele>441.0</ele><time>2026-04-10T16:26:50.182Z</time></trkpt><trkpt lat="41.7898667" lon="15.5681483"><ele>441.33333333333337</ele><time>2026-04-10T16:26:51.182Z</time></trkpt><trkpt lat="41.789695" lon="15.5681333"><ele>441.6666666666667</ele><time>2026-04-10T16:26:52.179Z</time></trkpt><trkpt lat="41.7895233" lon="15.5680817"><ele>442.0</ele><time>2026-04-10T16:26:53.184Z</time></trkpt><trkpt lat="41.7893467" lon="15.5680017"><ele>442.0</ele><time>2026-04-10T16:26:54.179Z</time></trkpt><trkpt lat="41.7891633" lon="15.5678983"><ele>442.0</ele><time>2026-04-10T16:26:55.182Z</time></trkpt><trkpt lat="41.7889817" lon="15.567795"><ele>442.0</ele><time>2026-04-10T16:26:56.185Z</time></trkpt><trkpt lat="41.788805" lon="15.567695"><ele>442.0</ele><time>2026-04-10T16:26:57.179Z</time></trkpt><trkpt lat="41.7886417" lon="15.5676017"><ele>442.0</ele><time>2026-04-10T16:26:58.18Z</time></trkpt><trkpt lat="41.78849" lon="15.5675167"><ele>442.0</ele><time>2026-04-10T16:26:59.189Z</time></trkpt><trkpt lat="41.7883433" lon="15.56745"><ele>444.33333333333337</ele><time>2026-04-10T16:27:00.185Z</time></trkpt><trkpt lat="41.7881967" lon="15.5674117"><ele>446.66666666666663</ele><time>2026-04-10T16:27:01.182Z</time></trkpt><trkpt lat="41.7880433" lon="15.567405"><ele>449.0</ele><time>2026-04-10T16:27:02.184Z</time></trkpt><trkpt lat="41.7878817" lon="15.5674267"><ele>449.0</ele><time>2026-04-10T16:27:03.185Z</time></trkpt><trkpt lat="41.7877067" lon="15.5674683"><ele>449.0</ele><time>2026-04-10T16:27:04.18Z</time></trkpt><trkpt lat="41.7875217" lon="15.5675267"><ele>449.0</ele><time>2026-04-10T16:27:05.184Z</time></trkpt><trkpt lat="41.7873283" lon="15.567585"><ele>450.3333333333333</ele><time>2026-04-10T16:27:06.185Z</time></trkpt><trkpt lat="41.7871317" lon="15.567645"><ele>451.66666666666663</ele><time>2026-04-10T16:27:07.179Z</time></trkpt><trkpt lat="41.7869367" lon="15.5677033"><ele>453.0</ele><time>2026-04-10T16:27:08.188Z</time></trkpt><trkpt lat="41.7867417" lon="15.5677633"><ele>453.66666666666663</ele><time>2026-04-10T16:27:09.182Z</time></trkpt><trkpt lat="41.78655" lon="15.567825"><ele>454.3333333333333</ele><time>2026-04-10T16:27:10.182Z</time></trkpt><trkpt lat="41.7863533" lon="15.5678983"><ele>455.0</ele><time>2026-04-10T16:27:11.182Z</time></trkpt><trkpt lat="41.7861517" lon="15.567995"><ele>458.5</ele><time>2026-04-10T16:27:12.185Z</time></trkpt><trkpt lat="41.7859417" lon="15.56811"><ele>462.0</ele><time>2026-04-10T16:27:13.179Z</time></trkpt><trkpt lat="41.7857267" lon="15.5682317"><ele>462.0</ele><time>2026-04-10T16:27:14.184Z</time></trkpt><trkpt lat="41.785505" lon="15.5683583"><ele>462.0</ele><time>2026-04-10T16:27:15.185Z</time></trkpt><trkpt lat="41.7852733" lon="15.5684917"><ele>461.5</ele><time>2026-04-10T16:27:16.183Z</time></trkpt><trkpt lat="41.7850367" lon="15.5686283"><ele>461.0</ele><time>2026-04-10T16:27:17.191Z</time></trkpt><trkpt lat="41.7847933" lon="15.56877"><ele>464.5</ele><time>2026-04-10T16:27:18.186Z</time></trkpt><trkpt lat="41.7845467" lon="15.56891"><ele>468.0</ele><time>2026-04-10T16:27:19.179Z</time></trkpt><trkpt lat="41.7842983" lon="15.569045"><ele>468.0</ele><time>2026-04-10T16:27:20.184Z</time></trkpt><trkpt lat="41.784045" lon="15.569185"><ele>468.0</ele><time>2026-04-10T16:27:21.181Z</time></trkpt><trkpt lat="41.7837883" lon="15.5693217"><ele>468.0</ele><time>2026-04-10T16:27:22.181Z</time></trkpt><trkpt lat="41.7835367" lon="15.5694583"><ele>468.0</ele><time>2026-04-10T16:27:23.181Z</time></trkpt><trkpt lat="41.7832983" lon="15.5695933"><ele>470.0</ele><time>2026-04-10T16:27:24.179Z</time></trkpt><trkpt lat="41.78307" lon="15.5697217"><ele>472.0</ele><time>2026-04-10T16:27:25.18Z</time></trkpt><trkpt lat="41.7828533" lon="15.5698483"><ele>473.0</ele><time>2026-04-10T16:27:26.179Z</time></trkpt><trkpt lat="41.7826483" lon="15.5699617"><ele>474.0</ele><time>2026-04-10T16:27:27.181Z</time></trkpt><trkpt lat="41.7824433" lon="15.57006"><ele>475.0</ele><time>2026-04-10T16:27:28.183Z</time></trkpt><trkpt lat="41.7822333" lon="15.5701433"><ele>475.0</ele><time>2026-04-10T16:27:29.182Z</time></trkpt><trkpt lat="41.7820183" lon="15.5702167"><ele>475.0</ele><time>2026-04-10T16:27:30.183Z</time></trkpt><trkpt lat="41.7818" lon="15.5702867"><ele>475.0</ele><time>2026-04-10T16:27:31.192Z</time></trkpt><trkpt lat="41.7815833" lon="15.5703533"><ele>476.33333333333337</ele><time>2026-04-10T16:27:32.184Z</time></trkpt><trkpt lat="41.7813667" lon="15.5704183"><ele>477.66666666666663</ele><time>2026-04-10T16:27:33.183Z</time></trkpt><trkpt lat="41.7811467" lon="15.5704817"><ele>479.0</ele><time>2026-04-10T16:27:34.183Z</time></trkpt><trkpt lat="41.7809217" lon="15.5705467"><ele>481.0</ele><time>2026-04-10T16:27:35.181Z</time></trkpt><trkpt lat="41.7806917" lon="15.5706133"><ele>483.0</ele><time>2026-04-10T16:27:36.185Z</time></trkpt><trkpt lat="41.78046" lon="15.5706783"><ele>483.0</ele><time>2026-04-10T16:27:37.182Z</time></trkpt><trkpt lat="41.780225" lon="15.570745"><ele>483.0</ele><time>2026-04-10T16:27:38.183Z</time></trkpt><trkpt lat="41.7799967" lon="15.5708117"><ele>485.0</ele><time>2026-04-10T16:27:39.18Z</time></trkpt><trkpt lat="41.7797717" lon="15.57088"><ele>487.0</ele><time>2026-04-10T16:27:40.18Z</time></trkpt><trkpt lat="41.7795483" lon="15.57095"><ele>489.0</ele><time>2026-04-10T16:27:41.194Z</time></trkpt><trkpt lat="41.77932" lon="15.57102"><ele>491.0</ele><time>2026-04-10T16:27:42.188Z</time></trkpt><trkpt lat="41.7790883" lon="15.5710983"><ele>491.0</ele><time>2026-04-10T16:27:43.182Z</time></trkpt><trkpt lat="41.7788583" lon="15.571185"><ele>491.0</ele><time>2026-04-10T16:27:44.18Z</time></trkpt><trkpt lat="41.7786267" lon="15.57128"><ele>492.0</ele><time>2026-04-10T16:27:45.182Z</time></trkpt><trkpt lat="41.7783933" lon="15.5713867"><ele>493.0</ele><time>2026-04-10T16:27:46.18Z</time></trkpt><trkpt lat="41.778155" lon="15.5714967"><ele>493.0</ele><time>2026-04-10T16:27:47.182Z</time></trkpt><trkpt lat="41.77792" lon="15.5716033"><ele>493.0</ele><time>2026-04-10T16:27:48.179Z</time></trkpt><trkpt lat="41.7776967" lon="15.5717033"><ele>494.33333333333337</ele><time>2026-04-10T16:27:49.181Z</time></trkpt><trkpt lat="41.7774883" lon="15.5717967"><ele>495.66666666666663</ele><time>2026-04-10T16:27:50.183Z</time></trkpt><trkpt lat="41.7772867" lon="15.57189"><ele>497.0</ele><time>2026-04-10T16:27:51.185Z</time></trkpt><trkpt lat="41.7770833" lon="15.5719783"><ele>497.3333333333333</ele><time>2026-04-10T16:27:52.18Z</time></trkpt><trkpt lat="41.77688" lon="15.5720683"><ele>497.66666666666663</ele><time>2026-04-10T16:27:53.182Z</time></trkpt><trkpt lat="41.776685" lon="15.5721617"><ele>498.0</ele><time>2026-04-10T16:27:54.182Z</time></trkpt><trkpt lat="41.7765017" lon="15.5722533"><ele>499.0</ele><time>2026-04-10T16:27:55.181Z</time></trkpt><trkpt lat="41.77633" lon="15.5723633"><ele>500.0</ele><time>2026-04-10T16:27:56.185Z</time></trkpt><trkpt lat="41.7761683" lon="15.5724983"><ele>501.0</ele><time>2026-04-10T16:27:57.184Z</time></trkpt><trkpt lat="41.7760133" lon="15.5726583"><ele>501.33333333333337</ele><time>2026-04-10T16:27:58.182Z</time></trkpt><trkpt lat="41.7758617" lon="15.57284"><ele>501.6666666666667</ele><time>2026-04-10T16:27:59.18Z</time></trkpt><trkpt lat="41.7757133" lon="15.57302"><ele>502.0</ele><time>2026-04-10T16:28:00.183Z</time></trkpt><trkpt lat="41.775575" lon="15.5731967"><ele>503.33333333333337</ele><time>2026-04-10T16:28:01.19Z</time></trkpt><trkpt lat="41.7754467" lon="15.57336"><ele>504.66666666666663</ele><time>2026-04-10T16:28:02.183Z</time></trkpt><trkpt lat="41.775325" lon="15.57351"><ele>506.0</ele><time>2026-04-10T16:28:03.184Z</time></trkpt><trkpt lat="41.7752083" lon="15.573645"><ele>507.0</ele><time>2026-04-10T16:28:04.183Z</time></trkpt><trkpt lat="41.7750833" lon="15.5737617"><ele>508.0</ele><time>2026-04-10T16:28:05.18Z</time></trkpt><trkpt lat="41.7749433" lon="15.5738617"><ele>509.0</ele><time>2026-04-10T16:28:06.181Z</time></trkpt><trkpt lat="41.7747917" lon="15.5739433"><ele>509.0</ele><time>2026-04-10T16:28:07.185Z</time></trkpt><trkpt lat="41.774635" lon="15.5740167"><ele>509.0</ele><time>2026-04-10T16:28:08.184Z</time></trkpt><trkpt lat="41.77448" lon="15.574085"><ele>509.0</ele><time>2026-04-10T16:28:09.184Z</time></trkpt><trkpt lat="41.7743333" lon="15.5741433"><ele>508.5</ele><time>2026-04-10T16:28:10.181Z</time></trkpt><trkpt lat="41.7741983" lon="15.5742"><ele>508.0</ele><time>2026-04-10T16:28:11.183Z</time></trkpt><trkpt lat="41.7740833" lon="15.5742767"><ele>507.5</ele><time>2026-04-10T16:28:12.183Z</time></trkpt><trkpt lat="41.7739833" lon="15.57438"><ele>507.0</ele><time>2026-04-10T16:28:13.181Z</time></trkpt><trkpt lat="41.7739083" lon="15.5745117"><ele>507.75</ele><time>2026-04-10T16:28:14.184Z</time></trkpt><trkpt lat="41.7738517" lon="15.5746633"><ele>508.5</ele><time>2026-04-10T16:28:15.179Z</time></trkpt><trkpt lat="41.773815" lon="15.5748233"><ele>509.25</ele><time>2026-04-10T16:28:16.181Z</time></trkpt><trkpt lat="41.7737783" lon="15.57498"><ele>510.0</ele><time>2026-04-10T16:28:17.181Z</time></trkpt><trkpt lat="41.7737133" lon="15.5751133"><ele>510.0</ele><time>2026-04-10T16:28:18.181Z</time></trkpt><trkpt lat="41.7736167" lon="15.5752283"><ele>510.0</ele><time>2026-04-10T16:28:19.181Z</time></trkpt><trkpt lat="41.773495" lon="15.5753167"><ele>510.0</ele><time>2026-04-10T16:28:20.184Z</time></trkpt><trkpt lat="41.77335" lon="15.575375"><ele>510.0</ele><time>2026-04-10T16:28:21.184Z</time></trkpt><trkpt lat="41.773185" lon="15.5754233"><ele>509.0</ele><time>2026-04-10T16:28:22.181Z</time></trkpt><trkpt lat="41.7730067" lon="15.5754883"><ele>508.0</ele><time>2026-04-10T16:28:23.179Z</time></trkpt><trkpt lat="41.7728217" lon="15.5755633"><ele>507.0</ele><time>2026-04-10T16:28:24.187Z</time></trkpt><trkpt lat="41.77263" lon="15.57564"><ele>507.0</ele><time>2026-04-10T16:28:25.181Z</time></trkpt><trkpt lat="41.7724467" lon="15.5757067"><ele>507.0</ele><time>2026-04-10T16:28:26.192Z</time></trkpt><trkpt lat="41.772275" lon="15.57577"><ele>507.0</ele><time>2026-04-10T16:28:27.18Z</time></trkpt><trkpt lat="41.772115" lon="15.575825"><ele>507.0</ele><time>2026-04-10T16:28:28.182Z</time></trkpt><trkpt lat="41.7719583" lon="15.5758817"><ele>507.0</ele><time>2026-04-10T16:28:29.185Z</time></trkpt><trkpt lat="41.7718017" lon="15.57596"><ele>507.0</ele><time>2026-04-10T16:28:30.178Z</time></trkpt><trkpt lat="41.7716433" lon="15.57606"><ele>506.66666666666663</ele><time>2026-04-10T16:28:31.177Z</time></trkpt><trkpt lat="41.7714883" lon="15.5761783"><ele>506.3333333333333</ele><time>2026-04-10T16:28:32.183Z</time></trkpt><trkpt lat="41.7713317" lon="15.5763083"><ele>506.0</ele><time>2026-04-10T16:28:33.188Z</time></trkpt><trkpt lat="41.7711717" lon="15.5764317"><ele>505.3333333333333</ele><time>2026-04-10T16:28:34.183Z</time></trkpt><trkpt lat="41.7710233" lon="15.5765533"><ele>504.66666666666663</ele><time>2026-04-10T16:28:35.181Z</time></trkpt><trkpt lat="41.7708867" lon="15.576665"><ele>504.0</ele><time>2026-04-10T16:28:36.178Z</time></trkpt><trkpt lat="41.77075" lon="15.5767517"><ele>504.0</ele><time>2026-04-10T16:28:37.179Z</time></trkpt><trkpt lat="41.7706083" lon="15.576815"><ele>504.0</ele><time>2026-04-10T16:28:38.187Z</time></trkpt><trkpt lat="41.7704583" lon="15.5768433"><ele>504.0</ele><time>2026-04-10T16:28:39.182Z</time></trkpt><trkpt lat="41.7703017" lon="15.5768383"><ele>505.0</ele><time>2026-04-10T16:28:40.183Z</time></trkpt><trkpt lat="41.7701367" lon="15.5768017"><ele>506.0</ele><time>2026-04-10T16:28:41.18Z</time></trkpt><trkpt lat="41.76996" lon="15.5767567"><ele>507.0</ele><time>2026-04-10T16:28:42.181Z</time></trkpt><trkpt lat="41.7697667" lon="15.5767117"><ele>507.0</ele><time>2026-04-10T16:28:43.179Z</time></trkpt><trkpt lat="41.76957" lon="15.576665"><ele>507.0</ele><time>2026-04-10T16:28:44.183Z</time></trkpt><trkpt lat="41.7693667" lon="15.5766233"><ele>507.0</ele><time>2026-04-10T16:28:45.181Z</time></trkpt><trkpt lat="41.7691617" lon="15.576575"><ele>507.33333333333337</ele><time>2026-04-10T16:28:46.184Z</time></trkpt><trkpt lat="41.768965" lon="15.5765317"><ele>507.6666666666667</ele><time>2026-04-10T16:28:47.183Z</time></trkpt><trkpt lat="41.768775" lon="15.5765"><ele>508.0</ele><time>2026-04-10T16:28:48.183Z</time></trkpt><trkpt lat="41.7685817" lon="15.57649"><ele>508.33333333333337</ele><time>2026-04-10T16:28:49.183Z</time></trkpt><trkpt lat="41.7683767" lon="15.5765"><ele>508.66666666666663</ele><time>2026-04-10T16:28:50.183Z</time></trkpt><trkpt lat="41.76816" lon="15.576525"><ele>509.0</ele><time>2026-04-10T16:28:51.183Z</time></trkpt><trkpt lat="41.7679267" lon="15.5765567"><ele>507.0</ele><time>2026-04-10T16:28:52.184Z</time></trkpt><trkpt lat="41.7676783" lon="15.576585"><ele>505.0</ele><time>2026-04-10T16:28:53.182Z</time></trkpt><trkpt lat="41.7674183" lon="15.5766167"><ele>505.0</ele><time>2026-04-10T16:28:54.182Z</time></trkpt><trkpt lat="41.7671533" lon="15.5766533"><ele>505.0</ele><time>2026-04-10T16:28:55.189Z</time></trkpt><trkpt lat="41.766895" lon="15.5766917"><ele>503.5</ele><time>2026-04-10T16:28:56.181Z</time></trkpt><trkpt lat="41.7666533" lon="15.5767217"><ele>502.0</ele><time>2026-04-10T16:28:57.186Z</time></trkpt><trkpt lat="41.7664217" lon="15.5767383"><ele>502.0</ele><time>2026-04-10T16:28:58.185Z</time></trkpt><trkpt lat="41.7662067" lon="15.576755"><ele>502.0</ele><time>2026-04-10T16:28:59.184Z</time></trkpt><trkpt lat="41.7660117" lon="15.5767717"><ele>502.0</ele><time>2026-04-10T16:29:00.181Z</time></trkpt><trkpt lat="41.765835" lon="15.5767883"><ele>501.6666666666667</ele><time>2026-04-10T16:29:01.182Z</time></trkpt><trkpt lat="41.7656683" lon="15.576805"><ele>501.33333333333337</ele><time>2026-04-10T16:29:02.18Z</time></trkpt><trkpt lat="41.7655133" lon="15.5768217"><ele>501.0</ele><time>2026-04-10T16:29:03.181Z</time></trkpt><trkpt lat="41.76537" lon="15.57685"><ele>501.0</ele><time>2026-04-10T16:29:04.186Z</time></trkpt><trkpt lat="41.7652367" lon="15.5769"><ele>501.0</ele><time>2026-04-10T16:29:05.18Z</time></trkpt><trkpt lat="41.7651183" lon="15.5769783"><ele>501.0</ele><time>2026-04-10T16:29:06.185Z</time></trkpt><trkpt lat="41.7650217" lon="15.5770967"><ele>501.0</ele><time>2026-04-10T16:29:07.18Z</time></trkpt><trkpt lat="41.764945" lon="15.5772367"><ele>500.75</ele><time>2026-04-10T16:29:08.181Z</time></trkpt><trkpt lat="41.7648883" lon="15.5774083"><ele>500.5</ele><time>2026-04-10T16:29:09.187Z</time></trkpt><trkpt lat="41.7648567" lon="15.5776033"><ele>500.25</ele><time>2026-04-10T16:29:10.182Z</time></trkpt><trkpt lat="41.7648367" lon="15.57781"><ele>500.0</ele><time>2026-04-10T16:29:11.178Z</time></trkpt><trkpt lat="41.7648217" lon="15.5780133"><ele>500.66666666666663</ele><time>2026-04-10T16:29:12.18Z</time></trkpt><trkpt lat="41.7647967" lon="15.5782167"><ele>501.33333333333337</ele><time>2026-04-10T16:29:13.178Z</time></trkpt><trkpt lat="41.764755" lon="15.5784183"><ele>502.0</ele><time>2026-04-10T16:29:14.178Z</time></trkpt><trkpt lat="41.7646833" lon="15.5786083"><ele>502.0</ele><time>2026-04-10T16:29:15.178Z</time></trkpt><trkpt lat="41.7645817" lon="15.578785"><ele>502.0</ele><time>2026-04-10T16:29:16.179Z</time></trkpt><trkpt lat="41.7644583" lon="15.578945"><ele>502.0</ele><time>2026-04-10T16:29:17.18Z</time></trkpt><trkpt lat="41.7643267" lon="15.579105"><ele>501.33333333333337</ele><time>2026-04-10T16:29:18.182Z</time></trkpt><trkpt lat="41.7641867" lon="15.5792733"><ele>500.66666666666663</ele><time>2026-04-10T16:29:19.18Z</time></trkpt><trkpt lat="41.764035" lon="15.5794417"><ele>500.0</ele><time>2026-04-10T16:29:20.185Z</time></trkpt><trkpt lat="41.76388" lon="15.5796083"><ele>500.0</ele><time>2026-04-10T16:29:21.184Z</time></trkpt><trkpt lat="41.7637367" lon="15.5797683"><ele>500.0</ele><time>2026-04-10T16:29:22.18Z</time></trkpt><trkpt lat="41.7635967" lon="15.5799"><ele>500.0</ele><time>2026-04-10T16:29:23.185Z</time></trkpt><trkpt lat="41.7634583" lon="15.5799917"><ele>502.0</ele><time>2026-04-10T16:29:24.183Z</time></trkpt><trkpt lat="41.7633117" lon="15.5800433"><ele>504.0</ele><time>2026-04-10T16:29:25.18Z</time></trkpt><trkpt lat="41.763155" lon="15.5800717"><ele>506.0</ele><time>2026-04-10T16:29:26.183Z</time></trkpt><trkpt lat="41.7629917" lon="15.580095"><ele>506.0</ele><time>2026-04-10T16:29:27.183Z</time></trkpt><trkpt lat="41.7628167" lon="15.5801233"><ele>506.0</ele><time>2026-04-10T16:29:28.179Z</time></trkpt><trkpt lat="41.76263" lon="15.5801567"><ele>506.0</ele><time>2026-04-10T16:29:29.181Z</time></trkpt><trkpt lat="41.762435" lon="15.5801917"><ele>508.3333333333333</ele><time>2026-04-10T16:29:30.182Z</time></trkpt><trkpt lat="41.7622283" lon="15.580235"><ele>510.66666666666663</ele><time>2026-04-10T16:29:31.189Z</time></trkpt><trkpt lat="41.7620133" lon="15.5802783"><ele>513.0</ele><time>2026-04-10T16:29:32.183Z</time></trkpt><trkpt lat="41.7617883" lon="15.5803233"><ele>515.0</ele><time>2026-04-10T16:29:33.181Z</time></trkpt><trkpt lat="41.7615533" lon="15.58037"><ele>517.0</ele><time>2026-04-10T16:29:34.179Z</time></trkpt><trkpt lat="41.7613133" lon="15.5804133"><ele>517.0</ele><time>2026-04-10T16:29:35.182Z</time></trkpt><trkpt lat="41.7610633" lon="15.5804567"><ele>517.0</ele><time>2026-04-10T16:29:36.18Z</time></trkpt><trkpt lat="41.7608067" lon="15.5805"><ele>519.5</ele><time>2026-04-10T16:29:37.181Z</time></trkpt><trkpt lat="41.760545" lon="15.580545"><ele>522.0</ele><time>2026-04-10T16:29:38.187Z</time></trkpt><trkpt lat="41.76028" lon="15.580595"><ele>525.0</ele><time>2026-04-10T16:29:39.182Z</time></trkpt><trkpt lat="41.760025" lon="15.580645"><ele>528.0</ele><time>2026-04-10T16:29:40.182Z</time></trkpt><trkpt lat="41.7597917" lon="15.5806867"><ele>528.0</ele><time>2026-04-10T16:29:41.183Z</time></trkpt><trkpt lat="41.7595783" lon="15.5807233"><ele>528.0</ele><time>2026-04-10T16:29:42.183Z</time></trkpt><trkpt lat="41.75939" lon="15.58076"><ele>528.0</ele><time>2026-04-10T16:29:43.183Z</time></trkpt><trkpt lat="41.7592217" lon="15.580805"><ele>530.0</ele><time>2026-04-10T16:29:44.182Z</time></trkpt><trkpt lat="41.75907" lon="15.5808783"><ele>532.0</ele><time>2026-04-10T16:29:45.179Z</time></trkpt><trkpt lat="41.758935" lon="15.5809817"><ele>534.0</ele><time>2026-04-10T16:29:46.182Z</time></trkpt><trkpt lat="41.7588183" lon="15.5811167"><ele>535.3333333333334</ele><time>2026-04-10T16:29:47.187Z</time></trkpt><trkpt lat="41.7587183" lon="15.5812783"><ele>536.6666666666667</ele><time>2026-04-10T16:29:48.183Z</time></trkpt><trkpt lat="41.7586317" lon="15.5814583"><ele>538.0</ele><time>2026-04-10T16:29:49.18Z</time></trkpt><trkpt lat="41.7585483" lon="15.5816317"><ele>538.5</ele><time>2026-04-10T16:29:50.181Z</time></trkpt><trkpt lat="41.758465" lon="15.5817833"><ele>539.0</ele><time>2026-04-10T16:29:51.179Z</time></trkpt><trkpt lat="41.758375" lon="15.5819017"><ele>539.5</ele><time>2026-04-10T16:29:52.179Z</time></trkpt><trkpt lat="41.7582733" lon="15.5819717"><ele>540.0</ele><time>2026-04-10T16:29:53.183Z</time></trkpt><trkpt lat="41.7581633" lon="15.582005"><ele>540.0</ele><time>2026-04-10T16:29:54.183Z</time></trkpt><trkpt lat="41.7580433" lon="15.5820033"><ele>540.0</ele><time>2026-04-10T16:29:55.183Z</time></trkpt><trkpt lat="41.757915" lon="15.581965"><ele>540.0</ele><time>2026-04-10T16:29:56.18Z</time></trkpt><trkpt lat="41.7577767" lon="15.5818983"><ele>540.0</ele><time>2026-04-10T16:29:57.18Z</time></trkpt><trkpt lat="41.7576383" lon="15.5818267"><ele>541.0</ele><time>2026-04-10T16:29:58.18Z</time></trkpt><trkpt lat="41.7574983" lon="15.5817667"><ele>542.0</ele><time>2026-04-10T16:29:59.182Z</time></trkpt><trkpt lat="41.75736" lon="15.58173"><ele>543.0</ele><time>2026-04-10T16:30:00.188Z</time></trkpt><trkpt lat="41.7572267" lon="15.5817317"><ele>544.0</ele><time>2026-04-10T16:30:01.188Z</time></trkpt><trkpt lat="41.757095" lon="15.5817683"><ele>544.0</ele><time>2026-04-10T16:30:02.187Z</time></trkpt><trkpt lat="41.7569717" lon="15.5818467"><ele>544.0</ele><time>2026-04-10T16:30:03.178Z</time></trkpt><trkpt lat="41.7568533" lon="15.5819767"><ele>544.0</ele><time>2026-04-10T16:30:04.187Z</time></trkpt><trkpt lat="41.7567433" lon="15.5821367"><ele>546.0</ele><time>2026-04-10T16:30:05.181Z</time></trkpt><trkpt lat="41.7566317" lon="15.582305"><ele>548.0</ele><time>2026-04-10T16:30:06.182Z</time></trkpt><trkpt lat="41.7565183" lon="15.58247"><ele>550.0</ele><time>2026-04-10T16:30:07.184Z</time></trkpt><trkpt lat="41.7563983" lon="15.582625"><ele>550.0</ele><time>2026-04-10T16:30:08.182Z</time></trkpt><trkpt lat="41.7562667" lon="15.5827517"><ele>550.0</ele><time>2026-04-10T16:30:09.181Z</time></trkpt><trkpt lat="41.756125" lon="15.582855"><ele>550.0</ele><time>2026-04-10T16:30:10.179Z</time></trkpt><trkpt lat="41.7559783" lon="15.5829333"><ele>553.6666666666667</ele><time>2026-04-10T16:30:11.183Z</time></trkpt><trkpt lat="41.7558217" lon="15.5829733"><ele>557.3333333333334</ele><time>2026-04-10T16:30:12.179Z</time></trkpt><trkpt lat="41.75566" lon="15.582995"><ele>561.0</ele><time>2026-04-10T16:30:13.182Z</time></trkpt><trkpt lat="41.7554917" lon="15.583015"><ele>561.0</ele><time>2026-04-10T16:30:14.183Z</time></trkpt><trkpt lat="41.7553233" lon="15.5830433"><ele>561.0</ele><time>2026-04-10T16:30:15.18Z</time></trkpt><trkpt lat="41.755165" lon="15.5831017"><ele>561.0</ele><time>2026-04-10T16:30:16.187Z</time></trkpt><trkpt lat="41.75501" lon="15.58319"><ele>561.6666666666666</ele><time>2026-04-10T16:30:17.18Z</time></trkpt><trkpt lat="41.754855" lon="15.5833083"><ele>562.3333333333333</ele><time>2026-04-10T16:30:18.178Z</time></trkpt><trkpt lat="41.7546917" lon="15.5834417"><ele>563.0</ele><time>2026-04-10T16:30:19.185Z</time></trkpt><trkpt lat="41.7545317" lon="15.5835767"><ele>564.0</ele><time>2026-04-10T16:30:20.187Z</time></trkpt><trkpt lat="41.754375" lon="15.58371"><ele>565.0</ele><time>2026-04-10T16:30:21.181Z</time></trkpt><trkpt lat="41.7542267" lon="15.5838333"><ele>566.0</ele><time>2026-04-10T16:30:22.186Z</time></trkpt><trkpt lat="41.75408" lon="15.58394"><ele>567.0</ele><time>2026-04-10T16:30:23.18Z</time></trkpt><trkpt lat="41.753925" lon="15.5840233"><ele>568.0</ele><time>2026-04-10T16:30:24.18Z</time></trkpt><trkpt lat="41.75376" lon="15.584085"><ele>569.0</ele><time>2026-04-10T16:30:25.186Z</time></trkpt><trkpt lat="41.7535867" lon="15.584125"><ele>570.0</ele><time>2026-04-10T16:30:26.183Z</time></trkpt><trkpt lat="41.7534033" lon="15.5841433"><ele>571.0</ele><time>2026-04-10T16:30:27.18Z</time></trkpt><trkpt lat="41.753225" lon="15.58414"><ele>572.0</ele><time>2026-04-10T16:30:28.181Z</time></trkpt><trkpt lat="41.7530567" lon="15.5841133"><ele>572.0</ele><time>2026-04-10T16:30:29.182Z</time></trkpt><trkpt lat="41.752905" lon="15.5841"><ele>572.0</ele><time>2026-04-10T16:30:30.184Z</time></trkpt><trkpt lat="41.7527633" lon="15.5841133"><ele>572.0</ele><time>2026-04-10T16:30:31.178Z</time></trkpt><trkpt lat="41.7526233" lon="15.5841683"><ele>572.0</ele><time>2026-04-10T16:30:32.184Z</time></trkpt><trkpt lat="41.75247" lon="15.584255"><ele>572.6666666666666</ele><time>2026-04-10T16:30:33.18Z</time></trkpt><trkpt lat="41.752315" lon="15.5843533"><ele>573.3333333333334</ele><time>2026-04-10T16:30:34.182Z</time></trkpt><trkpt lat="41.7521667" lon="15.5844467"><ele>574.0</ele><time>2026-04-10T16:30:35.185Z</time></trkpt><trkpt lat="41.7520317" lon="15.5845367"><ele>575.0</ele><time>2026-04-10T16:30:36.181Z</time></trkpt><trkpt lat="41.75191" lon="15.5846317"><ele>576.0</ele><time>2026-04-10T16:30:37.183Z</time></trkpt><trkpt lat="41.7518" lon="15.584755"><ele>577.0</ele><time>2026-04-10T16:30:38.182Z</time></trkpt><trkpt lat="41.7516967" lon="15.5849167"><ele>578.0</ele><time>2026-04-10T16:30:39.182Z</time></trkpt><trkpt lat="41.7515917" lon="15.5850867"><ele>578.0</ele><time>2026-04-10T16:30:40.185Z</time></trkpt><trkpt lat="41.7514883" lon="15.58524"><ele>578.0</ele><time>2026-04-10T16:30:41.18Z</time></trkpt><trkpt lat="41.7513917" lon="15.5853767"><ele>578.0</ele><time>2026-04-10T16:30:42.181Z</time></trkpt><trkpt lat="41.7512933" lon="15.585495"><ele>578.0</ele><time>2026-04-10T16:30:43.188Z</time></trkpt><trkpt lat="41.7511783" lon="15.5855867"><ele>579.25</ele><time>2026-04-10T16:30:44.183Z</time></trkpt><trkpt lat="41.7510467" lon="15.5856483"><ele>580.5</ele><time>2026-04-10T16:30:45.179Z</time></trkpt><trkpt lat="41.750915" lon="15.5856883"><ele>581.75</ele><time>2026-04-10T16:30:46.177Z</time></trkpt><trkpt lat="41.7508" lon="15.5857433"><ele>583.0</ele><time>2026-04-10T16:30:47.18Z</time></trkpt><trkpt lat="41.750695" lon="15.5858317"><ele>583.0</ele><time>2026-04-10T16:30:48.177Z</time></trkpt><trkpt lat="41.7506117" lon="15.5859517"><ele>583.0</ele><time>2026-04-10T16:30:49.181Z</time></trkpt><trkpt lat="41.750555" lon="15.5861"><ele>583.0</ele><time>2026-04-10T16:30:50.179Z</time></trkpt><trkpt lat="41.7505167" lon="15.5862817"><ele>583.0</ele><time>2026-04-10T16:30:51.179Z</time></trkpt><trkpt lat="41.75048" lon="15.58648"><ele>584.0</ele><time>2026-04-10T16:30:52.181Z</time></trkpt><trkpt lat="41.7504267" lon="15.5866633"><ele>585.0</ele><time>2026-04-10T16:30:53.179Z</time></trkpt><trkpt lat="41.7503583" lon="15.5868267"><ele>586.0</ele><time>2026-04-10T16:30:54.179Z</time></trkpt><trkpt lat="41.7502667" lon="15.58697"><ele>587.0</ele><time>2026-04-10T16:30:55.178Z</time></trkpt><trkpt lat="41.7501583" lon="15.5871017"><ele>587.0</ele><time>2026-04-10T16:30:56.177Z</time></trkpt><trkpt lat="41.7500467" lon="15.5872267"><ele>587.0</ele><time>2026-04-10T16:30:57.18Z</time></trkpt><trkpt lat="41.7499367" lon="15.5873317"><ele>587.0</ele><time>2026-04-10T16:30:58.18Z</time></trkpt><trkpt lat="41.7498383" lon="15.5874333"><ele>587.0</ele><time>2026-04-10T16:30:59.184Z</time></trkpt><trkpt lat="41.74974" lon="15.5875033"><ele>587.0</ele><time>2026-04-10T16:31:00.179Z</time></trkpt><trkpt lat="41.7496317" lon="15.5875267"><ele>587.0</ele><time>2026-04-10T16:31:01.183Z</time></trkpt><trkpt lat="41.74952" lon="15.5875117"><ele>587.0</ele><time>2026-04-10T16:31:02.184Z</time></trkpt><trkpt lat="41.7494167" lon="15.58747"><ele>587.0</ele><time>2026-04-10T16:31:03.181Z</time></trkpt><trkpt lat="41.7493283" lon="15.5873967"><ele>587.0</ele><time>2026-04-10T16:31:04.182Z</time></trkpt><trkpt lat="41.7492533" lon="15.5872967"><ele>586.75</ele><time>2026-04-10T16:31:05.187Z</time></trkpt><trkpt lat="41.7492033" lon="15.5871617"><ele>586.5</ele><time>2026-04-10T16:31:06.186Z</time></trkpt><trkpt lat="41.7491717" lon="15.5870033"><ele>586.25</ele><time>2026-04-10T16:31:07.18Z</time></trkpt><trkpt lat="41.749155" lon="15.5868183"><ele>586.0</ele><time>2026-04-10T16:31:08.182Z</time></trkpt><trkpt lat="41.7491433" lon="15.5866267"><ele>586.75</ele><time>2026-04-10T16:31:09.184Z</time></trkpt><trkpt lat="41.7491217" lon="15.586445"><ele>587.5</ele><time>2026-04-10T16:31:10.181Z</time></trkpt><trkpt lat="41.74908" lon="15.5862733"><ele>588.25</ele><time>2026-04-10T16:31:11.192Z</time></trkpt><trkpt lat="41.7490167" lon="15.5861167"><ele>589.0</ele><time>2026-04-10T16:31:12.191Z</time></trkpt><trkpt lat="41.7489267" lon="15.5859917"><ele>589.5</ele><time>2026-04-10T16:31:13.179Z</time></trkpt><trkpt lat="41.7488233" lon="15.5858967"><ele>590.0</ele><time>2026-04-10T16:31:14.18Z</time></trkpt><trkpt lat="41.7487083" lon="15.5858383"><ele>590.5</ele><time>2026-04-10T16:31:15.181Z</time></trkpt><trkpt lat="41.74858" lon="15.585825"><ele>591.0</ele><time>2026-04-10T16:31:16.186Z</time></trkpt><trkpt lat="41.7484533" lon="15.5858517"><ele>592.0</ele><time>2026-04-10T16:31:17.184Z</time></trkpt><trkpt lat="41.7483367" lon="15.5859217"><ele>593.0</ele><time>2026-04-10T16:31:18.179Z</time></trkpt><trkpt lat="41.7482167" lon="15.5860283"><ele>594.0</ele><time>2026-04-10T16:31:19.183Z</time></trkpt><trkpt lat="41.748095" lon="15.5861517"><ele>595.0</ele><time>2026-04-10T16:31:20.183Z</time></trkpt><trkpt lat="41.7479767" lon="15.58627"><ele>596.0</ele><time>2026-04-10T16:31:21.179Z</time></trkpt><trkpt lat="41.7478567" lon="15.58635"><ele>597.0</ele><time>2026-04-10T16:31:22.184Z</time></trkpt><trkpt lat="41.7477383" lon="15.5864033"><ele>598.0</ele><time>2026-04-10T16:31:23.18Z</time></trkpt><trkpt lat="41.7476067" lon="15.5864067"><ele>599.0</ele><time>2026-04-10T16:31:24.18Z</time></trkpt><trkpt lat="41.7474733" lon="15.5863667"><ele>600.0</ele><time>2026-04-10T16:31:25.18Z</time></trkpt><trkpt lat="41.7473467" lon="15.5863367"><ele>601.0</ele><time>2026-04-10T16:31:26.181Z</time></trkpt><trkpt lat="41.7472183" lon="15.5863483"><ele>602.0</ele><time>2026-04-10T16:31:27.179Z</time></trkpt><trkpt lat="41.7471" lon="15.5864067"><ele>603.0</ele><time>2026-04-10T16:31:28.184Z</time></trkpt><trkpt lat="41.7469933" lon="15.586505"><ele>603.0</ele><time>2026-04-10T16:31:29.186Z</time></trkpt><trkpt lat="41.7469033" lon="15.5866467"><ele>603.0</ele><time>2026-04-10T16:31:30.186Z</time></trkpt><trkpt lat="41.746815" lon="15.58683"><ele>603.0</ele><time>2026-04-10T16:31:31.184Z</time></trkpt><trkpt lat="41.74672" lon="15.5870183"><ele>604.0</ele><time>2026-04-10T16:31:32.185Z</time></trkpt><trkpt lat="41.746625" lon="15.5872083"><ele>605.0</ele><time>2026-04-10T16:31:33.182Z</time></trkpt><trkpt lat="41.746545" lon="15.5873933"><ele>606.0</ele><time>2026-04-10T16:31:34.182Z</time></trkpt><trkpt lat="41.7464967" lon="15.5875717"><ele>606.0</ele><time>2026-04-10T16:31:35.18Z</time></trkpt><trkpt lat="41.74648" lon="15.58775"><ele>606.0</ele><time>2026-04-10T16:31:36.179Z</time></trkpt><trkpt lat="41.7464983" lon="15.5879417"><ele>606.0</ele><time>2026-04-10T16:31:37.182Z</time></trkpt><trkpt lat="41.746535" lon="15.588145"><ele>606.0</ele><time>2026-04-10T16:31:38.185Z</time></trkpt><trkpt lat="41.7465633" lon="15.5883533"><ele>607.0</ele><time>2026-04-10T16:31:39.183Z</time></trkpt><trkpt lat="41.74656" lon="15.58856"><ele>608.0</ele><time>2026-04-10T16:31:40.185Z</time></trkpt><trkpt lat="41.7465367" lon="15.5887783"><ele>609.0</ele><time>2026-04-10T16:31:41.18Z</time></trkpt><trkpt lat="41.7464917" lon="15.5889933"><ele>610.3333333333334</ele><time>2026-04-10T16:31:42.182Z</time></trkpt><trkpt lat="41.74641" lon="15.5892017"><ele>611.6666666666667</ele><time>2026-04-10T16:31:43.187Z</time></trkpt><trkpt lat="41.74632" lon="15.5894267"><ele>613.0</ele><time>2026-04-10T16:31:44.182Z</time></trkpt><trkpt lat="41.7462267" lon="15.58967"><ele>613.6666666666667</ele><time>2026-04-10T16:31:45.189Z</time></trkpt><trkpt lat="41.746135" lon="15.5899167"><ele>614.3333333333334</ele><time>2026-04-10T16:31:46.181Z</time></trkpt><trkpt lat="41.7460433" lon="15.5901533"><ele>615.0</ele><time>2026-04-10T16:31:47.184Z</time></trkpt><trkpt lat="41.7459517" lon="15.5903733"><ele>617.3333333333334</ele><time>2026-04-10T16:31:48.185Z</time></trkpt><trkpt lat="41.745875" lon="15.5905817"><ele>619.6666666666667</ele><time>2026-04-10T16:31:49.183Z</time></trkpt><trkpt lat="41.7458167" lon="15.59078"><ele>622.0</ele><time>2026-04-10T16:31:50.18Z</time></trkpt><trkpt lat="41.745785" lon="15.590975"><ele>622.0</ele><time>2026-04-10T16:31:51.181Z</time></trkpt><trkpt lat="41.7457933" lon="15.5911683"><ele>622.0</ele><time>2026-04-10T16:31:52.178Z</time></trkpt><trkpt lat="41.74583" lon="15.5913617"><ele>622.0</ele><time>2026-04-10T16:31:53.181Z</time></trkpt><trkpt lat="41.7458733" lon="15.5915583"><ele>622.0</ele><time>2026-04-10T16:31:54.182Z</time></trkpt><trkpt lat="41.7458967" lon="15.5917433"><ele>623.25</ele><time>2026-04-10T16:31:55.18Z</time></trkpt><trkpt lat="41.7458833" lon="15.5919133"><ele>624.5</ele><time>2026-04-10T16:31:56.184Z</time></trkpt><trkpt lat="41.745835" lon="15.5920683"><ele>625.75</ele><time>2026-04-10T16:31:57.178Z</time></trkpt><trkpt lat="41.7457617" lon="15.5922083"><ele>627.0</ele><time>2026-04-10T16:31:58.18Z</time></trkpt><trkpt lat="41.7456733" lon="15.5923467"><ele>629.6666666666666</ele><time>2026-04-10T16:31:59.183Z</time></trkpt><trkpt lat="41.745565" lon="15.59249"><ele>632.3333333333333</ele><time>2026-04-10T16:32:00.188Z</time></trkpt><trkpt lat="41.745455" lon="15.5926533"><ele>635.0</ele><time>2026-04-10T16:32:01.181Z</time></trkpt><trkpt lat="41.745345" lon="15.5928167"><ele>635.0</ele><time>2026-04-10T16:32:02.182Z</time></trkpt><trkpt lat="41.74525" lon="15.5929683"><ele>635.0</ele><time>2026-04-10T16:32:03.181Z</time></trkpt><trkpt lat="41.7451767" lon="15.5931183"><ele>635.0</ele><time>2026-04-10T16:32:04.181Z</time></trkpt><trkpt lat="41.7451383" lon="15.593275"><ele>635.0</ele><time>2026-04-10T16:32:05.182Z</time></trkpt><trkpt lat="41.7451283" lon="15.5934333"><ele>635.0</ele><time>2026-04-10T16:32:06.18Z</time></trkpt><trkpt lat="41.7451467" lon="15.593595"><ele>635.0</ele><time>2026-04-10T16:32:07.182Z</time></trkpt><trkpt lat="41.7452067" lon="15.59376"><ele>635.0</ele><time>2026-04-10T16:32:08.183Z</time></trkpt><trkpt lat="41.74529" lon="15.5939333"><ele>635.0</ele><time>2026-04-10T16:32:09.19Z</time></trkpt><trkpt lat="41.7453867" lon="15.5941217"><ele>638.6666666666666</ele><time>2026-04-10T16:32:10.178Z</time></trkpt><trkpt lat="41.745475" lon="15.594305"><ele>642.3333333333334</ele><time>2026-04-10T16:32:11.179Z</time></trkpt><trkpt lat="41.7455467" lon="15.5944817"><ele>646.0</ele><time>2026-04-10T16:32:12.182Z</time></trkpt><trkpt lat="41.7455967" lon="15.5946567"><ele>646.75</ele><time>2026-04-10T16:32:13.183Z</time></trkpt><trkpt lat="41.7456133" lon="15.5948317"><ele>647.5</ele><time>2026-04-10T16:32:14.186Z</time></trkpt><trkpt lat="41.745595" lon="15.5950067"><ele>648.25</ele><time>2026-04-10T16:32:15.179Z</time></trkpt><trkpt lat="41.7455733" lon="15.5951867"><ele>649.0</ele><time>2026-04-10T16:32:16.184Z</time></trkpt><trkpt lat="41.74555" lon="15.59535"><ele>649.75</ele><time>2026-04-10T16:32:17.181Z</time></trkpt><trkpt lat="41.7455067" lon="15.59549"><ele>650.5</ele><time>2026-04-10T16:32:18.179Z</time></trkpt><trkpt lat="41.74543" lon="15.5956017"><ele>651.25</ele><time>2026-04-10T16:32:19.188Z</time></trkpt><trkpt lat="41.745335" lon="15.5956917"><ele>652.0</ele><time>2026-04-10T16:32:20.182Z</time></trkpt><trkpt lat="41.7452133" lon="15.59576"><ele>651.6666666666667</ele><time>2026-04-10T16:32:21.178Z</time></trkpt><trkpt lat="41.745075" lon="15.595825"><ele>651.3333333333334</ele><time>2026-04-10T16:32:22.177Z</time></trkpt><trkpt lat="41.7449217" lon="15.5958967"><ele>651.0</ele><time>2026-04-10T16:32:23.179Z</time></trkpt><trkpt lat="41.744755" lon="15.5959817"><ele>651.0</ele><time>2026-04-10T16:32:24.178Z</time></trkpt><trkpt lat="41.7445733" lon="15.5960617"><ele>651.0</ele><time>2026-04-10T16:32:25.19Z</time></trkpt><trkpt lat="41.7443933" lon="15.5961417"><ele>651.0</ele><time>2026-04-10T16:32:26.181Z</time></trkpt><trkpt lat="41.7442317" lon="15.596225"><ele>654.0</ele><time>2026-04-10T16:32:27.184Z</time></trkpt><trkpt lat="41.7440833" lon="15.596325"><ele>657.0</ele><time>2026-04-10T16:32:28.187Z</time></trkpt><trkpt lat="41.74395" lon="15.5964533"><ele>660.0</ele><time>2026-04-10T16:32:29.181Z</time></trkpt><trkpt lat="41.74383" lon="15.596595"><ele>660.0</ele><time>2026-04-10T16:32:30.181Z</time></trkpt><trkpt lat="41.7437117" lon="15.5967433"><ele>660.0</ele><time>2026-04-10T16:32:31.18Z</time></trkpt><trkpt lat="41.743585" lon="15.5968733"><ele>660.0</ele><time>2026-04-10T16:32:32.184Z</time></trkpt><trkpt lat="41.7434517" lon="15.59697"><ele>661.25</ele><time>2026-04-10T16:32:33.182Z</time></trkpt><trkpt lat="41.74331" lon="15.5970333"><ele>662.5</ele><time>2026-04-10T16:32:34.179Z</time></trkpt><trkpt lat="41.7431633" lon="15.597065"><ele>663.75</ele><time>2026-04-10T16:32:35.181Z</time></trkpt><trkpt lat="41.743015" lon="15.5970633"><ele>665.0</ele><time>2026-04-10T16:32:36.18Z</time></trkpt><trkpt lat="41.7428717" lon="15.5970233"><ele>665.0</ele><time>2026-04-10T16:32:37.192Z</time></trkpt><trkpt lat="41.7427283" lon="15.5969533"><ele>665.0</ele><time>2026-04-10T16:32:38.183Z</time></trkpt><trkpt lat="41.7425867" lon="15.5968583"><ele>665.0</ele><time>2026-04-10T16:32:39.179Z</time></trkpt><trkpt lat="41.7424567" lon="15.596765"><ele>665.0</ele><time>2026-04-10T16:32:40.181Z</time></trkpt><trkpt lat="41.74233" lon="15.5966967"><ele>665.0</ele><time>2026-04-10T16:32:41.184Z</time></trkpt><trkpt lat="41.742205" lon="15.5966667"><ele>665.0</ele><time>2026-04-10T16:32:42.182Z</time></trkpt><trkpt lat="41.7420783" lon="15.5966833"><ele>665.0</ele><time>2026-04-10T16:32:43.182Z</time></trkpt><trkpt lat="41.7419567" lon="15.596735"><ele>665.75</ele><time>2026-04-10T16:32:44.184Z</time></trkpt><trkpt lat="41.7418367" lon="15.596815"><ele>666.5</ele><time>2026-04-10T16:32:45.189Z</time></trkpt><trkpt lat="41.7417133" lon="15.5969183"><ele>667.25</ele><time>2026-04-10T16:32:46.179Z</time></trkpt><trkpt lat="41.74158" lon="15.5970267"><ele>668.0</ele><time>2026-04-10T16:32:47.18Z</time></trkpt><trkpt lat="41.741445" lon="15.597145"><ele>668.0</ele><time>2026-04-10T16:32:48.179Z</time></trkpt><trkpt lat="41.74131" lon="15.5972567"><ele>668.0</ele><time>2026-04-10T16:32:49.179Z</time></trkpt><trkpt lat="41.7411733" lon="15.5973483"><ele>668.0</ele><time>2026-04-10T16:32:50.185Z</time></trkpt><trkpt lat="41.7410267" lon="15.5974067"><ele>670.6666666666666</ele><time>2026-04-10T16:32:51.183Z</time></trkpt><trkpt lat="41.740865" lon="15.5974433"><ele>673.3333333333334</ele><time>2026-04-10T16:32:52.183Z</time></trkpt><trkpt lat="41.7406933" lon="15.5974717"><ele>676.0</ele><time>2026-04-10T16:32:53.181Z</time></trkpt><trkpt lat="41.7405167" lon="15.5975067"><ele>676.0</ele><time>2026-04-10T16:32:54.181Z</time></trkpt><trkpt lat="41.7403317" lon="15.5975433"><ele>676.0</ele><time>2026-04-10T16:32:55.181Z</time></trkpt><trkpt lat="41.740145" lon="15.597585"><ele>676.0</ele><time>2026-04-10T16:32:56.183Z</time></trkpt><trkpt lat="41.739955" lon="15.59763"><ele>678.3333333333334</ele><time>2026-04-10T16:32:57.183Z</time></trkpt><trkpt lat="41.7397617" lon="15.5976767"><ele>680.6666666666666</ele><time>2026-04-10T16:32:58.179Z</time></trkpt><trkpt lat="41.7395667" lon="15.5977067"><ele>683.0</ele><time>2026-04-10T16:32:59.187Z</time></trkpt><trkpt lat="41.7393633" lon="15.5977117"><ele>684.6666666666666</ele><time>2026-04-10T16:33:00.183Z</time></trkpt><trkpt lat="41.7391583" lon="15.5977067"><ele>686.3333333333334</ele><time>2026-04-10T16:33:01.183Z</time></trkpt><trkpt lat="41.7389567" lon="15.5977"><ele>688.0</ele><time>2026-04-10T16:33:02.186Z</time></trkpt><trkpt lat="41.7387683" lon="15.5976933"><ele>688.0</ele><time>2026-04-10T16:33:03.181Z</time></trkpt><trkpt lat="41.73859" lon="15.5976867"><ele>688.0</ele><time>2026-04-10T16:33:04.181Z</time></trkpt><trkpt lat="41.738415" lon="15.5976883"><ele>688.0</ele><time>2026-04-10T16:33:05.183Z</time></trkpt><trkpt lat="41.7382383" lon="15.5977033"><ele>689.6666666666667</ele><time>2026-04-10T16:33:06.185Z</time></trkpt><trkpt lat="41.7380567" lon="15.5977417"><ele>691.3333333333334</ele><time>2026-04-10T16:33:07.184Z</time></trkpt><trkpt lat="41.7378683" lon="15.59781"><ele>693.0</ele><time>2026-04-10T16:33:08.182Z</time></trkpt><trkpt lat="41.7376683" lon="15.597885"><ele>694.3333333333334</ele><time>2026-04-10T16:33:09.182Z</time></trkpt><trkpt lat="41.73746" lon="15.5979733"><ele>695.6666666666667</ele><time>2026-04-10T16:33:10.182Z</time></trkpt><trkpt lat="41.7372433" lon="15.598065"><ele>697.0</ele><time>2026-04-10T16:33:11.183Z</time></trkpt><trkpt lat="41.7370267" lon="15.5981517"><ele>698.3333333333334</ele><time>2026-04-10T16:33:12.182Z</time></trkpt><trkpt lat="41.7368217" lon="15.59823"><ele>699.6666666666666</ele><time>2026-04-10T16:33:13.178Z</time></trkpt><trkpt lat="41.73663" lon="15.5983033"><ele>701.0</ele><time>2026-04-10T16:33:14.183Z</time></trkpt><trkpt lat="41.7364467" lon="15.5983767"><ele>701.0</ele><time>2026-04-10T16:33:15.185Z</time></trkpt><trkpt lat="41.7362733" lon="15.5984417"><ele>701.0</ele><time>2026-04-10T16:33:16.183Z</time></trkpt><trkpt lat="41.73612" lon="15.5985067"><ele>701.0</ele><time>2026-04-10T16:33:17.183Z</time></trkpt><trkpt lat="41.7359817" lon="15.5985917"><ele>703.3333333333333</ele><time>2026-04-10T16:33:18.178Z</time></trkpt><trkpt lat="41.7358533" lon="15.5987083"><ele>705.6666666666666</ele><time>2026-04-10T16:33:19.178Z</time></trkpt><trkpt lat="41.7357283" lon="15.5988567"><ele>708.0</ele><time>2026-04-10T16:33:20.185Z</time></trkpt><trkpt lat="41.7355967" lon="15.5990217"><ele>708.0</ele><time>2026-04-10T16:33:21.18Z</time></trkpt><trkpt lat="41.73546" lon="15.5991967"><ele>708.0</ele><time>2026-04-10T16:33:22.187Z</time></trkpt><trkpt lat="41.7353217" lon="15.5993667"><ele>708.0</ele><time>2026-04-10T16:33:23.181Z</time></trkpt><trkpt lat="41.73519" lon="15.599535"><ele>707.0</ele><time>2026-04-10T16:33:24.188Z</time></trkpt><trkpt lat="41.7350517" lon="15.5996867"><ele>706.0</ele><time>2026-04-10T16:33:25.179Z</time></trkpt><trkpt lat="41.734905" lon="15.59982"><ele>705.0</ele><time>2026-04-10T16:33:26.189Z</time></trkpt><trkpt lat="41.7347433" lon="15.5999283"><ele>705.0</ele><time>2026-04-10T16:33:27.181Z</time></trkpt><trkpt lat="41.73457" lon="15.6000233"><ele>705.0</ele><time>2026-04-10T16:33:28.182Z</time></trkpt><trkpt lat="41.7343983" lon="15.6001267"><ele>705.0</ele><time>2026-04-10T16:33:29.182Z</time></trkpt><trkpt lat="41.7342317" lon="15.6002233"><ele>704.6666666666666</ele><time>2026-04-10T16:33:30.184Z</time></trkpt><trkpt lat="41.7340683" lon="15.6003017"><ele>704.3333333333333</ele><time>2026-04-10T16:33:31.182Z</time></trkpt><trkpt lat="41.733905" lon="15.6003533"><ele>704.0</ele><time>2026-04-10T16:33:32.187Z</time></trkpt><trkpt lat="41.7337383" lon="15.600375"><ele>705.6666666666666</ele><time>2026-04-10T16:33:33.188Z</time></trkpt><trkpt lat="41.7335667" lon="15.6004"><ele>707.3333333333334</ele><time>2026-04-10T16:33:34.18Z</time></trkpt><trkpt lat="41.7334033" lon="15.600435"><ele>709.0</ele><time>2026-04-10T16:33:35.183Z</time></trkpt><trkpt lat="41.73325" lon="15.6004833"><ele>709.3333333333334</ele><time>2026-04-10T16:33:36.181Z</time></trkpt><trkpt lat="41.7331017" lon="15.60056"><ele>709.6666666666666</ele><time>2026-04-10T16:33:37.183Z</time></trkpt><trkpt lat="41.732955" lon="15.6006617"><ele>710.0</ele><time>2026-04-10T16:33:38.18Z</time></trkpt><trkpt lat="41.7328117" lon="15.600785"><ele>709.0</ele><time>2026-04-10T16:33:39.187Z</time></trkpt><trkpt lat="41.7326733" lon="15.6009317"><ele>708.0</ele><time>2026-04-10T16:33:40.179Z</time></trkpt><trkpt lat="41.732545" lon="15.601105"><ele>707.0</ele><time>2026-04-10T16:33:41.179Z</time></trkpt><trkpt lat="41.732425" lon="15.601295"><ele>709.0</ele><time>2026-04-10T16:33:42.189Z</time></trkpt><trkpt lat="41.7323133" lon="15.6014883"><ele>711.0</ele><time>2026-04-10T16:33:43.187Z</time></trkpt><trkpt lat="41.7322083" lon="15.60167"><ele>713.0</ele><time>2026-04-10T16:33:44.181Z</time></trkpt><trkpt lat="41.7321033" lon="15.6018367"><ele>713.0</ele><time>2026-04-10T16:33:45.188Z</time></trkpt><trkpt lat="41.7320067" lon="15.6019933"><ele>713.0</ele><time>2026-04-10T16:33:46.18Z</time></trkpt><trkpt lat="41.7319283" lon="15.6021433"><ele>713.0</ele><time>2026-04-10T16:33:47.188Z</time></trkpt><trkpt lat="41.7318767" lon="15.6023017"><ele>713.0</ele><time>2026-04-10T16:33:48.18Z</time></trkpt><trkpt lat="41.7318317" lon="15.6024667"><ele>713.25</ele><time>2026-04-10T16:33:49.177Z</time></trkpt><trkpt lat="41.7317683" lon="15.6026233"><ele>713.5</ele><time>2026-04-10T16:33:50.182Z</time></trkpt><trkpt lat="41.731675" lon="15.6027667"><ele>713.75</ele><time>2026-04-10T16:33:51.184Z</time></trkpt><trkpt lat="41.73157" lon="15.602895"><ele>714.0</ele><time>2026-04-10T16:33:52.18Z</time></trkpt><trkpt lat="41.73148" lon="15.6030317"><ele>714.0</ele><time>2026-04-10T16:33:53.185Z</time></trkpt><trkpt lat="41.731405" lon="15.6031883"><ele>714.0</ele><time>2026-04-10T16:33:54.18Z</time></trkpt><trkpt lat="41.7313517" lon="15.60336"><ele>714.0</ele><time>2026-04-10T16:33:55.18Z</time></trkpt><trkpt lat="41.7313167" lon="15.603525"><ele>714.0</ele><time>2026-04-10T16:33:56.18Z</time></trkpt><trkpt lat="41.731295" lon="15.6036683"><ele>714.5</ele><time>2026-04-10T16:33:57.18Z</time></trkpt><trkpt lat="41.7312833" lon="15.6038017"><ele>715.0</ele><time>2026-04-10T16:33:58.183Z</time></trkpt><trkpt lat="41.7312483" lon="15.60391"><ele>715.5</ele><time>2026-04-10T16:33:59.178Z</time></trkpt><trkpt lat="41.731185" lon="15.603985"><ele>716.0</ele><time>2026-04-10T16:34:00.181Z</time></trkpt><trkpt lat="41.73111" lon="15.604035"><ele>716.5</ele><time>2026-04-10T16:34:01.183Z</time></trkpt><trkpt lat="41.7310317" lon="15.6040667"><ele>717.0</ele><time>2026-04-10T16:34:02.184Z</time></trkpt><trkpt lat="41.73095" lon="15.6040617"><ele>717.0</ele><time>2026-04-10T16:34:03.178Z</time></trkpt><trkpt lat="41.73086" lon="15.6040017"><ele>717.0</ele><time>2026-04-10T16:34:04.18Z</time></trkpt><trkpt lat="41.73079" lon="15.60392"><ele>717.0</ele><time>2026-04-10T16:34:05.179Z</time></trkpt><trkpt lat="41.7307467" lon="15.6037933"><ele>717.0</ele><time>2026-04-10T16:34:06.179Z</time></trkpt><trkpt lat="41.7307117" lon="15.6036517"><ele>717.0</ele><time>2026-04-10T16:34:07.179Z</time></trkpt><trkpt lat="41.730665" lon="15.6035167"><ele>713.25</ele><time>2026-04-10T16:34:08.185Z</time></trkpt><trkpt lat="41.7306017" lon="15.60339"><ele>709.5</ele><time>2026-04-10T16:34:09.187Z</time></trkpt><trkpt lat="41.73052" lon="15.603275"><ele>705.75</ele><time>2026-04-10T16:34:10.179Z</time></trkpt><trkpt lat="41.7304283" lon="15.6031767"><ele>702.0</ele><time>2026-04-10T16:34:11.178Z</time></trkpt><trkpt lat="41.7303267" lon="15.6030917"><ele>704.25</ele><time>2026-04-10T16:34:12.18Z</time></trkpt><trkpt lat="41.730205" lon="15.6030217"><ele>706.5</ele><time>2026-04-10T16:34:13.177Z</time></trkpt><trkpt lat="41.730075" lon="15.60296"><ele>708.75</ele><time>2026-04-10T16:34:14.184Z</time></trkpt><trkpt lat="41.7299467" lon="15.6028983"><ele>711.0</ele><time>2026-04-10T16:34:15.177Z</time></trkpt><trkpt lat="41.729815" lon="15.6028467"><ele>704.75</ele><time>2026-04-10T16:34:16.181Z</time></trkpt><trkpt lat="41.7296812" lon="15.6028052"><ele>698.5</ele><time>2026-04-10T16:34:17.179Z</time></trkpt><trkpt lat="41.7295531" lon="15.6027767"><ele>692.25</ele><time>2026-04-10T16:34:18.181Z</time></trkpt><trkpt lat="41.7294371" lon="15.6027639"><ele>686.0</ele><time>2026-04-10T16:34:19.187Z</time></trkpt><trkpt lat="41.729338" lon="15.6027776"><ele>684.5999999999999</ele><time>2026-04-10T16:34:20.181Z</time></trkpt><trkpt lat="41.7292541" lon="15.6028152"><ele>683.2</ele><time>2026-04-10T16:34:21.178Z</time></trkpt><trkpt lat="41.7291866" lon="15.6028848"><ele>681.8</ele><time>2026-04-10T16:34:22.182Z</time></trkpt><trkpt lat="41.7291465" lon="15.603012"><ele>680.4000000000001</ele><time>2026-04-10T16:34:23.177Z</time></trkpt><trkpt lat="41.7291078" lon="15.6031674"><ele>679.0</ele><time>2026-04-10T16:34:24.18Z</time></trkpt><trkpt lat="41.7290604" lon="15.6033322"><ele>683.4000000000001</ele><time>2026-04-10T16:34:25.178Z</time></trkpt><trkpt lat="41.729003" lon="15.6034834"><ele>687.8</ele><time>2026-04-10T16:34:26.184Z</time></trkpt><trkpt lat="41.7289431" lon="15.6036028"><ele>692.2</ele><time>2026-04-10T16:34:27.179Z</time></trkpt><trkpt lat="41.7288765" lon="15.6036856"><ele>696.5999999999999</ele><time>2026-04-10T16:34:28.178Z</time></trkpt><trkpt lat="41.7288021" lon="15.6037356"><ele>701.0</ele><time>2026-04-10T16:34:29.185Z</time></trkpt><trkpt lat="41.7287172" lon="15.6037599"><ele>703.0</ele><time>2026-04-10T16:34:30.179Z</time></trkpt><trkpt lat="41.7286144" lon="15.6037626"><ele>705.0</ele><time>2026-04-10T16:34:31.181Z</time></trkpt><trkpt lat="41.7284925" lon="15.6037458"><ele>707.0</ele><time>2026-04-10T16:34:32.179Z</time></trkpt><trkpt lat="41.7283575" lon="15.6037213"><ele>709.0</ele><time>2026-04-10T16:34:33.178Z</time></trkpt><trkpt lat="41.7282214" lon="15.6037026"><ele>709.0</ele><time>2026-04-10T16:34:34.178Z</time></trkpt><trkpt lat="41.7280856" lon="15.6036892"><ele>709.0</ele><time>2026-04-10T16:34:35.179Z</time></trkpt><trkpt lat="41.7279475" lon="15.6036948"><ele>709.0</ele><time>2026-04-10T16:34:36.181Z</time></trkpt><trkpt lat="41.7278151" lon="15.6037188"><ele>709.0</ele><time>2026-04-10T16:34:37.191Z</time></trkpt><trkpt lat="41.7276914" lon="15.603767"><ele>704.25</ele><time>2026-04-10T16:34:38.181Z</time></trkpt><trkpt lat="41.7275717" lon="15.6038453"><ele>699.5</ele><time>2026-04-10T16:34:39.179Z</time></trkpt><trkpt lat="41.7274567" lon="15.603944"><ele>694.75</ele><time>2026-04-10T16:34:40.179Z</time></trkpt><trkpt lat="41.7273455" lon="15.60405"><ele>690.0</ele><time>2026-04-10T16:34:41.184Z</time></trkpt><trkpt lat="41.7272395" lon="15.6041549"><ele>690.0</ele><time>2026-04-10T16:34:42.179Z</time></trkpt><trkpt lat="41.7271445" lon="15.6042638"><ele>690.0</ele><time>2026-04-10T16:34:43.177Z</time></trkpt><trkpt lat="41.7270624" lon="15.6043874"><ele>690.0</ele><time>2026-04-10T16:34:44.177Z</time></trkpt><trkpt lat="41.7269832" lon="15.6045282"><ele>690.0</ele><time>2026-04-10T16:34:45.182Z</time></trkpt><trkpt lat="41.7268909" lon="15.6046631"><ele>686.25</ele><time>2026-04-10T16:34:46.181Z</time></trkpt><trkpt lat="41.7267863" lon="15.6047802"><ele>682.5</ele><time>2026-04-10T16:34:47.178Z</time></trkpt><trkpt lat="41.7266877" lon="15.6048991"><ele>678.75</ele><time>2026-04-10T16:34:48.18Z</time></trkpt><trkpt lat="41.7266096" lon="15.605031"><ele>675.0</ele><time>2026-04-10T16:34:49.176Z</time></trkpt><trkpt lat="41.7265537" lon="15.6051718"><ele>675.25</ele><time>2026-04-10T16:34:50.182Z</time></trkpt><trkpt lat="41.7265279" lon="15.6053328"><ele>675.5</ele><time>2026-04-10T16:34:51.189Z</time></trkpt><trkpt lat="41.7265194" lon="15.605508"><ele>675.75</ele><time>2026-04-10T16:34:52.184Z</time></trkpt><trkpt lat="41.7265144" lon="15.6056807"><ele>676.0</ele><time>2026-04-10T16:34:53.182Z</time></trkpt><trkpt lat="41.7265146" lon="15.6058435"><ele>676.0</ele><time>2026-04-10T16:34:54.181Z</time></trkpt><trkpt lat="41.7265295" lon="15.605998"><ele>676.0</ele><time>2026-04-10T16:34:55.188Z</time></trkpt><trkpt lat="41.726562" lon="15.6061437"><ele>676.0</ele><time>2026-04-10T16:34:56.191Z</time></trkpt><trkpt lat="41.7266004" lon="15.6062873"><ele>676.0</ele><time>2026-04-10T16:34:57.183Z</time></trkpt><trkpt lat="41.7266281" lon="15.6064305"><ele>677.3333333333334</ele><time>2026-04-10T16:34:58.185Z</time></trkpt><trkpt lat="41.7266269" lon="15.6065575"><ele>678.6666666666667</ele><time>2026-04-10T16:34:59.18Z</time></trkpt><trkpt lat="41.7265999" lon="15.6066642"><ele>680.0</ele><time>2026-04-10T16:35:00.179Z</time></trkpt><trkpt lat="41.726554" lon="15.6067417"><ele>681.3333333333334</ele><time>2026-04-10T16:35:01.179Z</time></trkpt><trkpt lat="41.7264843" lon="15.6067903"><ele>682.6666666666666</ele><time>2026-04-10T16:35:02.183Z</time></trkpt><trkpt lat="41.7263975" lon="15.6068247"><ele>684.0</ele><time>2026-04-10T16:35:03.182Z</time></trkpt><trkpt lat="41.7262819" lon="15.6068494"><ele>684.0</ele><time>2026-04-10T16:35:04.183Z</time></trkpt><trkpt lat="41.7261537" lon="15.6068799"><ele>684.0</ele><time>2026-04-10T16:35:05.178Z</time></trkpt><trkpt lat="41.7260237" lon="15.6069225"><ele>684.0</ele><time>2026-04-10T16:35:06.182Z</time></trkpt><trkpt lat="41.7258957" lon="15.6069793"><ele>684.0</ele><time>2026-04-10T16:35:07.181Z</time></trkpt><trkpt lat="41.7257701" lon="15.6070518"><ele>684.75</ele><time>2026-04-10T16:35:08.19Z</time></trkpt><trkpt lat="41.7256507" lon="15.6071265"><ele>685.5</ele><time>2026-04-10T16:35:09.18Z</time></trkpt><trkpt lat="41.7255345" lon="15.6072036"><ele>686.25</ele><time>2026-04-10T16:35:10.181Z</time></trkpt><trkpt lat="41.7254236" lon="15.6072959"><ele>687.0</ele><time>2026-04-10T16:35:11.18Z</time></trkpt><trkpt lat="41.725323" lon="15.6074142"><ele>687.0</ele><time>2026-04-10T16:35:12.18Z</time></trkpt><trkpt lat="41.7252387" lon="15.6075641"><ele>687.0</ele><time>2026-04-10T16:35:13.18Z</time></trkpt><trkpt lat="41.7251654" lon="15.6077417"><ele>687.0</ele><time>2026-04-10T16:35:14.178Z</time></trkpt><trkpt lat="41.725101" lon="15.6079486"><ele>682.0</ele><time>2026-04-10T16:35:15.176Z</time></trkpt><trkpt lat="41.7250388" lon="15.608186"><ele>677.0</ele><time>2026-04-10T16:35:16.181Z</time></trkpt><trkpt lat="41.7249681" lon="15.6084448"><ele>672.0</ele><time>2026-04-10T16:35:17.179Z</time></trkpt><trkpt lat="41.7248868" lon="15.6087073"><ele>672.0</ele><time>2026-04-10T16:35:18.183Z</time></trkpt><trkpt lat="41.7248012" lon="15.6089566"><ele>672.0</ele><time>2026-04-10T16:35:19.181Z</time></trkpt><trkpt lat="41.7247214" lon="15.6091862"><ele>672.0</ele><time>2026-04-10T16:35:20.181Z</time></trkpt><trkpt lat="41.724658" lon="15.6093898"><ele>673.25</ele><time>2026-04-10T16:35:21.178Z</time></trkpt><trkpt lat="41.724616" lon="15.6095718"><ele>674.5</ele><time>2026-04-10T16:35:22.179Z</time></trkpt><trkpt lat="41.7246033" lon="15.6097333"><ele>675.75</ele><time>2026-04-10T16:35:23.18Z</time></trkpt><trkpt lat="41.724605" lon="15.6099067"><ele>677.0</ele><time>2026-04-10T16:35:24.179Z</time></trkpt><trkpt lat="41.72462" lon="15.6100833"><ele>677.0</ele><time>2026-04-10T16:35:25.178Z</time></trkpt><trkpt lat="41.724625" lon="15.610255"><ele>677.0</ele><time>2026-04-10T16:35:26.179Z</time></trkpt><trkpt lat="41.7245967" lon="15.610425"><ele>677.0</ele><time>2026-04-10T16:35:27.178Z</time></trkpt><trkpt lat="41.7245333" lon="15.6105833"><ele>677.0</ele><time>2026-04-10T16:35:28.177Z</time></trkpt><trkpt lat="41.7244367" lon="15.6107333"><ele>674.6666666666666</ele><time>2026-04-10T16:35:29.179Z</time></trkpt><trkpt lat="41.7243133" lon="15.61088"><ele>672.3333333333334</ele><time>2026-04-10T16:35:30.183Z</time></trkpt><trkpt lat="41.7241767" lon="15.611025"><ele>670.0</ele><time>2026-04-10T16:35:31.179Z</time></trkpt><trkpt lat="41.7240517" lon="15.6111717"><ele>670.0</ele><time>2026-04-10T16:35:32.181Z</time></trkpt><trkpt lat="41.72394" lon="15.611315"><ele>670.0</ele><time>2026-04-10T16:35:33.185Z</time></trkpt><trkpt lat="41.7238467" lon="15.6114717"><ele>670.0</ele><time>2026-04-10T16:35:34.177Z</time></trkpt><trkpt lat="41.723765" lon="15.6116633"><ele>670.0</ele><time>2026-04-10T16:35:35.178Z</time></trkpt><trkpt lat="41.72369" lon="15.6118833"><ele>670.0</ele><time>2026-04-10T16:35:36.18Z</time></trkpt><trkpt lat="41.7236167" lon="15.612115"><ele>670.0</ele><time>2026-04-10T16:35:37.181Z</time></trkpt><trkpt lat="41.7235433" lon="15.6123467"><ele>660.6666666666667</ele><time>2026-04-10T16:35:38.18Z</time></trkpt><trkpt lat="41.7234767" lon="15.612575"><ele>651.3333333333334</ele><time>2026-04-10T16:35:39.181Z</time></trkpt><trkpt lat="41.723415" lon="15.6128133"><ele>642.0</ele><time>2026-04-10T16:35:40.178Z</time></trkpt><trkpt lat="41.7233667" lon="15.6130617"><ele>642.0</ele><time>2026-04-10T16:35:41.178Z</time></trkpt><trkpt lat="41.7233183" lon="15.6133033"><ele>642.0</ele><time>2026-04-10T16:35:42.18Z</time></trkpt><trkpt lat="41.72328" lon="15.6135317"><ele>642.0</ele><time>2026-04-10T16:35:43.18Z</time></trkpt><trkpt lat="41.7232533" lon="15.613735"><ele>640.75</ele><time>2026-04-10T16:35:44.181Z</time></trkpt><trkpt lat="41.723245" lon="15.61392"><ele>639.5</ele><time>2026-04-10T16:35:45.178Z</time></trkpt><trkpt lat="41.7232583" lon="15.6140933"><ele>638.25</ele><time>2026-04-10T16:35:46.177Z</time></trkpt><trkpt lat="41.723295" lon="15.614255"><ele>637.0</ele><time>2026-04-10T16:35:47.179Z</time></trkpt><trkpt lat="41.7233517" lon="15.614405"><ele>634.5</ele><time>2026-04-10T16:35:48.18Z</time></trkpt><trkpt lat="41.7234333" lon="15.61455"><ele>632.0</ele><time>2026-04-10T16:35:49.178Z</time></trkpt><trkpt lat="41.723525" lon="15.6146833"><ele>629.5</ele><time>2026-04-10T16:35:50.179Z</time></trkpt><trkpt lat="41.7236083" lon="15.6148"><ele>627.0</ele><time>2026-04-10T16:35:51.179Z</time></trkpt><trkpt lat="41.72367" lon="15.6149017"><ele>636.8</ele><time>2026-04-10T16:35:52.179Z</time></trkpt><trkpt lat="41.723705" lon="15.615"><ele>646.6</ele><time>2026-04-10T16:35:53.178Z</time></trkpt><trkpt lat="41.7237" lon="15.6151033"><ele>656.4</ele><time>2026-04-10T16:35:54.185Z</time></trkpt><trkpt lat="41.7236717" lon="15.6152217"><ele>666.1999999999999</ele><time>2026-04-10T16:35:55.178Z</time></trkpt><trkpt lat="41.723625" lon="15.61538"><ele>676.0</ele><time>2026-04-10T16:35:56.188Z</time></trkpt><trkpt lat="41.7235667" lon="15.6155717"><ele>665.0</ele><time>2026-04-10T16:35:57.181Z</time></trkpt><trkpt lat="41.7235167" lon="15.6157633"><ele>654.0</ele><time>2026-04-10T16:35:58.188Z</time></trkpt><trkpt lat="41.72348" lon="15.6159517"><ele>643.0</ele><time>2026-04-10T16:35:59.183Z</time></trkpt><trkpt lat="41.7234683" lon="15.6161433"><ele>632.0</ele><time>2026-04-10T16:36:00.181Z</time></trkpt><trkpt lat="41.7234717" lon="15.6163267"><ele>632.0</ele><time>2026-04-10T16:36:01.18Z</time></trkpt><trkpt lat="41.7234917" lon="15.6164917"><ele>632.0</ele><time>2026-04-10T16:36:02.182Z</time></trkpt><trkpt lat="41.7235017" lon="15.6166333"><ele>632.0</ele><time>2026-04-10T16:36:03.18Z</time></trkpt><trkpt lat="41.7234917" lon="15.61674"><ele>632.0</ele><time>2026-04-10T16:36:04.18Z</time></trkpt><trkpt lat="41.7234583" lon="15.6168317"><ele>632.0</ele><time>2026-04-10T16:36:05.178Z</time></trkpt><trkpt lat="41.723405" lon="15.6169083"><ele>632.0</ele><time>2026-04-10T16:36:06.182Z</time></trkpt><trkpt lat="41.7233267" lon="15.616975"><ele>632.0</ele><time>2026-04-10T16:36:07.179Z</time></trkpt><trkpt lat="41.7232533" lon="15.6170567"><ele>632.0</ele><time>2026-04-10T16:36:08.18Z</time></trkpt><trkpt lat="41.72319" lon="15.6171733"><ele>632.0</ele><time>2026-04-10T16:36:09.177Z</time></trkpt><trkpt lat="41.7231483" lon="15.6173283"><ele>632.0</ele><time>2026-04-10T16:36:10.179Z</time></trkpt><trkpt lat="41.7231217" lon="15.617515"><ele>635.0</ele><time>2026-04-10T16:36:11.177Z</time></trkpt><trkpt lat="41.723105" lon="15.617715"><ele>638.0</ele><time>2026-04-10T16:36:12.178Z</time></trkpt><trkpt lat="41.7230833" lon="15.6179067"><ele>641.0</ele><time>2026-04-10T16:36:13.179Z</time></trkpt><trkpt lat="41.7230583" lon="15.6180967"><ele>644.0</ele><time>2026-04-10T16:36:14.18Z</time></trkpt><trkpt lat="41.7230167" lon="15.61827"><ele>644.0</ele><time>2026-04-10T16:36:15.181Z</time></trkpt><trkpt lat="41.7229583" lon="15.6184267"><ele>644.0</ele><time>2026-04-10T16:36:16.18Z</time></trkpt><trkpt lat="41.7228833" lon="15.6185617"><ele>644.0</ele><time>2026-04-10T16:36:17.184Z</time></trkpt><trkpt lat="41.7227917" lon="15.61868"><ele>644.0</ele><time>2026-04-10T16:36:18.187Z</time></trkpt><trkpt lat="41.72269" lon="15.618785"><ele>644.0</ele><time>2026-04-10T16:36:19.186Z</time></trkpt><trkpt lat="41.7225767" lon="15.61886"><ele>644.0</ele><time>2026-04-10T16:36:20.191Z</time></trkpt><trkpt lat="41.7224483" lon="15.6189033"><ele>644.0</ele><time>2026-04-10T16:36:21.181Z</time></trkpt><trkpt lat="41.7223033" lon="15.6189217"><ele>644.0</ele><time>2026-04-10T16:36:22.186Z</time></trkpt><trkpt lat="41.72214" lon="15.6189367"><ele>644.0</ele><time>2026-04-10T16:36:23.183Z</time></trkpt><trkpt lat="41.7219683" lon="15.6189533"><ele>644.0</ele><time>2026-04-10T16:36:24.179Z</time></trkpt><trkpt lat="41.7218033" lon="15.6189717"><ele>644.0</ele><time>2026-04-10T16:36:25.181Z</time></trkpt><trkpt lat="41.7216533" lon="15.6189883"><ele>640.0</ele><time>2026-04-10T16:36:26.18Z</time></trkpt><trkpt lat="41.72151" lon="15.619015"><ele>636.0</ele><time>2026-04-10T16:36:27.185Z</time></trkpt><trkpt lat="41.72138" lon="15.6190783"><ele>632.0</ele><time>2026-04-10T16:36:28.179Z</time></trkpt><trkpt lat="41.7212583" lon="15.61918"><ele>628.0</ele><time>2026-04-10T16:36:29.178Z</time></trkpt><trkpt lat="41.72115" lon="15.6192933"><ele>625.5</ele><time>2026-04-10T16:36:30.18Z</time></trkpt><trkpt lat="41.7210617" lon="15.6194067"><ele>623.0</ele><time>2026-04-10T16:36:31.176Z</time></trkpt><trkpt lat="41.7209983" lon="15.619525"><ele>620.5</ele><time>2026-04-10T16:36:32.187Z</time></trkpt><trkpt lat="41.720955" lon="15.619665"><ele>618.0</ele><time>2026-04-10T16:36:33.177Z</time></trkpt><trkpt lat="41.7209317" lon="15.6198433"><ele>618.0</ele><time>2026-04-10T16:36:34.182Z</time></trkpt><trkpt lat="41.7209117" lon="15.6200567"><ele>618.0</ele><time>2026-04-10T16:36:35.18Z</time></trkpt><trkpt lat="41.7208917" lon="15.6203033"><ele>618.0</ele><time>2026-04-10T16:36:36.18Z</time></trkpt><trkpt lat="41.7208667" lon="15.6205717"><ele>618.6666666666666</ele><time>2026-04-10T16:36:37.181Z</time></trkpt><trkpt lat="41.7208383" lon="15.6208383"><ele>619.3333333333333</ele><time>2026-04-10T16:36:38.189Z</time></trkpt><trkpt lat="41.7208083" lon="15.6210833"><ele>620.0</ele><time>2026-04-10T16:36:39.181Z</time></trkpt><trkpt lat="41.7207783" lon="15.621305"><ele>621.25</ele><time>2026-04-10T16:36:40.181Z</time></trkpt><trkpt lat="41.7207517" lon="15.6215017"><ele>622.5</ele><time>2026-04-10T16:36:41.183Z</time></trkpt><trkpt lat="41.7207083" lon="15.62167"><ele>623.75</ele><time>2026-04-10T16:36:42.178Z</time></trkpt><trkpt lat="41.7206317" lon="15.6218167"><ele>625.0</ele><time>2026-04-10T16:36:43.179Z</time></trkpt><trkpt lat="41.72053" lon="15.6219533"><ele>632.3333333333334</ele><time>2026-04-10T16:36:44.182Z</time></trkpt><trkpt lat="41.72043" lon="15.6221033"><ele>639.6666666666666</ele><time>2026-04-10T16:36:45.182Z</time></trkpt><trkpt lat="41.720335" lon="15.6222783"><ele>647.0</ele><time>2026-04-10T16:36:46.178Z</time></trkpt><trkpt lat="41.7202467" lon="15.6224817"><ele>636.0</ele><time>2026-04-10T16:36:47.179Z</time></trkpt><trkpt lat="41.7201683" lon="15.6226917"><ele>625.0</ele><time>2026-04-10T16:36:48.179Z</time></trkpt><trkpt lat="41.7200967" lon="15.6228867"><ele>614.0</ele><time>2026-04-10T16:36:49.177Z</time></trkpt><trkpt lat="41.7200333" lon="15.6230683"><ele>614.0</ele><time>2026-04-10T16:36:50.18Z</time></trkpt><trkpt lat="41.719985" lon="15.6232417"><ele>614.0</ele><time>2026-04-10T16:36:51.178Z</time></trkpt><trkpt lat="41.7199533" lon="15.6234133"><ele>614.0</ele><time>2026-04-10T16:36:52.18Z</time></trkpt><trkpt lat="41.7199333" lon="15.62358"><ele>614.0</ele><time>2026-04-10T16:36:53.181Z</time></trkpt><trkpt lat="41.719915" lon="15.623735"><ele>620.0</ele><time>2026-04-10T16:36:54.184Z</time></trkpt><trkpt lat="41.719875" lon="15.623875"><ele>626.0</ele><time>2026-04-10T16:36:55.184Z</time></trkpt><trkpt lat="41.719805" lon="15.62399"><ele>632.0</ele><time>2026-04-10T16:36:56.183Z</time></trkpt><trkpt lat="41.7197033" lon="15.62409"><ele>638.0</ele><time>2026-04-10T16:36:57.181Z</time></trkpt><trkpt lat="41.7195783" lon="15.6241867"><ele>638.0</ele><time>2026-04-10T16:36:58.182Z</time></trkpt><trkpt lat="41.7194367" lon="15.6242983"><ele>638.0</ele><time>2026-04-10T16:36:59.181Z</time></trkpt><trkpt lat="41.7192917" lon="15.62442"><ele>638.0</ele><time>2026-04-10T16:37:00.189Z</time></trkpt><trkpt lat="41.7191633" lon="15.6245433"><ele>635.0</ele><time>2026-04-10T16:37:01.186Z</time></trkpt><trkpt lat="41.7190533" lon="15.6246633"><ele>632.0</ele><time>2026-04-10T16:37:02.182Z</time></trkpt><trkpt lat="41.7189633" lon="15.6247817"><ele>629.0</ele><time>2026-04-10T16:37:03.183Z</time></trkpt><trkpt lat="41.7188983" lon="15.624915"><ele>626.0</ele><time>2026-04-10T16:37:04.182Z</time></trkpt><trkpt lat="41.7188517" lon="15.625055"><ele>626.0</ele><time>2026-04-10T16:37:05.184Z</time></trkpt><trkpt lat="41.7188283" lon="15.6252067"><ele>626.0</ele><time>2026-04-10T16:37:06.179Z</time></trkpt><trkpt lat="41.718835" lon="15.62538"><ele>626.0</ele><time>2026-04-10T16:37:07.18Z</time></trkpt><trkpt lat="41.71885" lon="15.625555"><ele>626.0</ele><time>2026-04-10T16:37:08.18Z</time></trkpt><trkpt lat="41.7188817" lon="15.6257417"><ele>625.5</ele><time>2026-04-10T16:37:09.178Z</time></trkpt><trkpt lat="41.718915" lon="15.6259333"><ele>625.0</ele><time>2026-04-10T16:37:10.178Z</time></trkpt><trkpt lat="41.7189433" lon="15.6261217"><ele>624.5</ele><time>2026-04-10T16:37:11.183Z</time></trkpt><trkpt lat="41.71897" lon="15.6263067"><ele>624.0</ele><time>2026-04-10T16:37:12.18Z</time></trkpt><trkpt lat="41.7189767" lon="15.62648"><ele>624.0</ele><time>2026-04-10T16:37:13.184Z</time></trkpt><trkpt lat="41.7189517" lon="15.626645"><ele>624.0</ele><time>2026-04-10T16:37:14.181Z</time></trkpt><trkpt lat="41.7189067" lon="15.626805"><ele>624.0</ele><time>2026-04-10T16:37:15.179Z</time></trkpt><trkpt lat="41.7188533" lon="15.6269683"><ele>624.0</ele><time>2026-04-10T16:37:16.179Z</time></trkpt><trkpt lat="41.7188133" lon="15.6271283"><ele>623.5</ele><time>2026-04-10T16:37:17.184Z</time></trkpt><trkpt lat="41.7187967" lon="15.6272833"><ele>623.0</ele><time>2026-04-10T16:37:18.18Z</time></trkpt><trkpt lat="41.718805" lon="15.6274483"><ele>622.5</ele><time>2026-04-10T16:37:19.181Z</time></trkpt><trkpt lat="41.718835" lon="15.6276283"><ele>622.0</ele><time>2026-04-10T16:37:20.183Z</time></trkpt><trkpt lat="41.7188817" lon="15.6278317"><ele>620.6666666666667</ele><time>2026-04-10T16:37:21.18Z</time></trkpt><trkpt lat="41.7189367" lon="15.6280533"><ele>619.3333333333334</ele><time>2026-04-10T16:37:22.18Z</time></trkpt><trkpt lat="41.71899" lon="15.6282717"><ele>618.0</ele><time>2026-04-10T16:37:23.179Z</time></trkpt><trkpt lat="41.71904" lon="15.6284733"><ele>618.6</ele><time>2026-04-10T16:37:24.182Z</time></trkpt><trkpt lat="41.719095" lon="15.62865"><ele>619.1999999999999</ele><time>2026-04-10T16:37:25.179Z</time></trkpt><trkpt lat="41.719145" lon="15.6287933"><ele>619.8</ele><time>2026-04-10T16:37:26.186Z</time></trkpt><trkpt lat="41.7191883" lon="15.6288933"><ele>620.4</ele><time>2026-04-10T16:37:27.182Z</time></trkpt><trkpt lat="41.7192" lon="15.629025"><ele>621.0</ele><time>2026-04-10T16:37:29.179Z</time></trkpt><trkpt lat="41.7191133" lon="15.629095"><ele>621.0</ele><time>2026-04-10T16:37:31.186Z</time></trkpt><trkpt lat="41.719035" lon="15.6291117"><ele>621.0</ele><time>2026-04-10T16:37:32.186Z</time></trkpt><trkpt lat="41.7189183" lon="15.6291033"><ele>621.0</ele><time>2026-04-10T16:37:33.179Z</time></trkpt><trkpt lat="41.718775" lon="15.629115"><ele>621.0</ele><time>2026-04-10T16:37:34.18Z</time></trkpt><trkpt lat="41.718615" lon="15.62913"><ele>614.3333333333334</ele><time>2026-04-10T16:37:35.183Z</time></trkpt><trkpt lat="41.7184233" lon="15.6291517"><ele>607.6666666666667</ele><time>2026-04-10T16:37:36.181Z</time></trkpt><trkpt lat="41.7182233" lon="15.629185"><ele>601.0</ele><time>2026-04-10T16:37:37.179Z</time></trkpt><trkpt lat="41.71802" lon="15.629215"><ele>601.0</ele><time>2026-04-10T16:37:38.182Z</time></trkpt><trkpt lat="41.7178183" lon="15.62925"><ele>601.0</ele><time>2026-04-10T16:37:39.182Z</time></trkpt><trkpt lat="41.717625" lon="15.62928"><ele>601.0</ele><time>2026-04-10T16:37:40.181Z</time></trkpt><trkpt lat="41.7174483" lon="15.6293183"><ele>599.0</ele><time>2026-04-10T16:37:41.183Z</time></trkpt><trkpt lat="41.7172917" lon="15.6293667"><ele>597.0</ele><time>2026-04-10T16:37:42.178Z</time></trkpt><trkpt lat="41.71716" lon="15.6294483"><ele>595.0</ele><time>2026-04-10T16:37:43.184Z</time></trkpt><trkpt lat="41.717045" lon="15.62956"><ele>593.0</ele><time>2026-04-10T16:37:44.182Z</time></trkpt><trkpt lat="41.71694" lon="15.6296833"><ele>592.25</ele><time>2026-04-10T16:37:45.18Z</time></trkpt><trkpt lat="41.716845" lon="15.6298183"><ele>591.5</ele><time>2026-04-10T16:37:46.182Z</time></trkpt><trkpt lat="41.7167617" lon="15.629975"><ele>590.75</ele><time>2026-04-10T16:37:47.18Z</time></trkpt><trkpt lat="41.7166833" lon="15.6301567"><ele>590.0</ele><time>2026-04-10T16:37:48.185Z</time></trkpt><trkpt lat="41.71661" lon="15.6303433"><ele>591.75</ele><time>2026-04-10T16:37:49.179Z</time></trkpt><trkpt lat="41.7165533" lon="15.6305267"><ele>593.5</ele><time>2026-04-10T16:37:50.179Z</time></trkpt><trkpt lat="41.716515" lon="15.6307083"><ele>595.25</ele><time>2026-04-10T16:37:51.181Z</time></trkpt><trkpt lat="41.7165033" lon="15.6308967"><ele>597.0</ele><time>2026-04-10T16:37:52.181Z</time></trkpt><trkpt lat="41.71651" lon="15.631095"><ele>598.25</ele><time>2026-04-10T16:37:53.179Z</time></trkpt><trkpt lat="41.7165133" lon="15.6312917"><ele>599.5</ele><time>2026-04-10T16:37:54.177Z</time></trkpt><trkpt lat="41.7164967" lon="15.63148"><ele>600.75</ele><time>2026-04-10T16:37:55.183Z</time></trkpt><trkpt lat="41.716455" lon="15.6316517"><ele>602.0</ele><time>2026-04-10T16:37:56.177Z</time></trkpt><trkpt lat="41.7163883" lon="15.6318017"><ele>602.0</ele><time>2026-04-10T16:37:57.179Z</time></trkpt><trkpt lat="41.7162983" lon="15.631935"><ele>602.0</ele><time>2026-04-10T16:37:58.189Z</time></trkpt><trkpt lat="41.7161867" lon="15.6320617"><ele>602.0</ele><time>2026-04-10T16:37:59.181Z</time></trkpt><trkpt lat="41.716065" lon="15.6321967"><ele>602.0</ele><time>2026-04-10T16:38:00.178Z</time></trkpt><trkpt lat="41.71595" lon="15.6323483"><ele>599.0</ele><time>2026-04-10T16:38:01.179Z</time></trkpt><trkpt lat="41.71585" lon="15.63251"><ele>596.0</ele><time>2026-04-10T16:38:02.182Z</time></trkpt><trkpt lat="41.7157667" lon="15.63267"><ele>593.0</ele><time>2026-04-10T16:38:03.178Z</time></trkpt><trkpt lat="41.715705" lon="15.6328367"><ele>590.0</ele><time>2026-04-10T16:38:04.178Z</time></trkpt><trkpt lat="41.7156583" lon="15.6330033"><ele>590.0</ele><time>2026-04-10T16:38:05.18Z</time></trkpt><trkpt lat="41.715635" lon="15.6331633"><ele>590.0</ele><time>2026-04-10T16:38:06.18Z</time></trkpt><trkpt lat="41.7156383" lon="15.6333233"><ele>590.0</ele><time>2026-04-10T16:38:07.178Z</time></trkpt><trkpt lat="41.7156583" lon="15.63349"><ele>590.0</ele><time>2026-04-10T16:38:08.182Z</time></trkpt><trkpt lat="41.7156917" lon="15.6336617"><ele>588.75</ele><time>2026-04-10T16:38:09.179Z</time></trkpt><trkpt lat="41.7157317" lon="15.6338267"><ele>587.5</ele><time>2026-04-10T16:38:10.183Z</time></trkpt><trkpt lat="41.71578" lon="15.63398"><ele>586.25</ele><time>2026-04-10T16:38:11.178Z</time></trkpt><trkpt lat="41.7158433" lon="15.634125"><ele>585.0</ele><time>2026-04-10T16:38:12.183Z</time></trkpt><trkpt lat="41.7159" lon="15.6342567"><ele>585.0</ele><time>2026-04-10T16:38:13.18Z</time></trkpt><trkpt lat="41.7159283" lon="15.6343833"><ele>585.0</ele><time>2026-04-10T16:38:14.18Z</time></trkpt><trkpt lat="41.7159333" lon="15.6345017"><ele>585.0</ele><time>2026-04-10T16:38:15.18Z</time></trkpt><trkpt lat="41.7159133" lon="15.6346067"><ele>585.0</ele><time>2026-04-10T16:38:16.181Z</time></trkpt><trkpt lat="41.7158783" lon="15.6346983"><ele>585.0</ele><time>2026-04-10T16:38:17.18Z</time></trkpt><trkpt lat="41.7158267" lon="15.634765"><ele>585.0</ele><time>2026-04-10T16:38:18.182Z</time></trkpt><trkpt lat="41.7157683" lon="15.6348083"><ele>585.8571428571429</ele><time>2026-04-10T16:38:19.179Z</time></trkpt><trkpt lat="41.715705" lon="15.6348117"><ele>586.7142857142857</ele><time>2026-04-10T16:38:20.189Z</time></trkpt><trkpt lat="41.7156383" lon="15.63478"><ele>587.5714285714286</ele><time>2026-04-10T16:38:21.185Z</time></trkpt><trkpt lat="41.715575" lon="15.63475"><ele>588.4285714285714</ele><time>2026-04-10T16:38:22.18Z</time></trkpt><trkpt lat="41.71551" lon="15.6347083"><ele>589.2857142857143</ele><time>2026-04-10T16:38:23.177Z</time></trkpt><trkpt lat="41.7154483" lon="15.63467"><ele>590.1428571428571</ele><time>2026-04-10T16:38:24.182Z</time></trkpt><trkpt lat="41.7153883" lon="15.6346383"><ele>591.0</ele><time>2026-04-10T16:38:25.186Z</time></trkpt><trkpt lat="41.7152933" lon="15.6346167"><ele>589.0</ele><time>2026-04-10T16:38:27.181Z</time></trkpt><trkpt lat="41.7152233" lon="15.6346867"><ele>587.0</ele><time>2026-04-10T16:38:29.179Z</time></trkpt><trkpt lat="41.7152" lon="15.63477"><ele>585.0</ele><time>2026-04-10T16:38:30.181Z</time></trkpt><trkpt lat="41.71517" lon="15.63485"><ele>583.0</ele><time>2026-04-10T16:38:31.178Z</time></trkpt><trkpt lat="41.71513" lon="15.63494"><ele>581.0</ele><time>2026-04-10T16:38:32.186Z</time></trkpt><trkpt lat="41.71509" lon="15.6350483"><ele>579.0</ele><time>2026-04-10T16:38:33.185Z</time></trkpt><trkpt lat="41.7150483" lon="15.6351417"><ele>579.0</ele><time>2026-04-10T16:38:34.178Z</time></trkpt><trkpt lat="41.7150167" lon="15.6352183"><ele>579.0</ele><time>2026-04-10T16:38:35.184Z</time></trkpt><trkpt lat="41.7149783" lon="15.6353183"><ele>588.0</ele><time>2026-04-10T16:38:37.181Z</time></trkpt></trkseg></trk></gpx>